<?xml version='1.0' encoding='UTF-8'?><gpx version="1.1" creator="JPX - https://github.com/jenetics/jpx" xmlns="http://www.topografix.com/GPX/1/1"><trk><trkseg><trkpt lat="45.060333" lon="1.3826397"><ele>264.99999999999994</ele><time>2026-04-12T07:04:25.588Z</time></trkpt><trkpt lat="45.0603474" lon="1.3827426"><ele>265.0</ele><time>2026-04-12T07:04:31.586Z</time></trkpt><trkpt lat="45.0603561" lon="1.3828368"><ele>265.0</ele><time>2026-04-12T07:04:37.596Z</time></trkpt><trkpt lat="45.0603672" lon="1.3829286"><ele>265.0</ele><time>2026-04-12T07:04:42.585Z</time></trkpt><trkpt lat="45.0603953" lon="1.3830114"><ele>265.0</ele><time>2026-04-12T07:04:48.596Z</time></trkpt><trkpt lat="45.0603344" lon="1.3829737"><ele>264.99999999999994</ele><time>2026-04-12T07:04:54.595Z</time></trkpt><trkpt lat="45.0603006" lon="1.3828952"><ele>265.0</ele><time>2026-04-12T07:05:48.593Z</time></trkpt><trkpt lat="45.0603686" lon="1.3828883"><ele>265.0</ele><time>2026-04-12T07:06:16.592Z</time></trkpt><trkpt lat="45.0603052" lon="1.3828859"><ele>265.0</ele><time>2026-04-12T07:09:20.59Z</time></trkpt><trkpt lat="45.0602884" lon="1.3829972"><ele>265.0</ele><time>2026-04-12T07:09:24.59Z</time></trkpt><trkpt lat="45.0602718" lon="1.3830854"><ele>265.0</ele><time>2026-04-12T07:09:31.591Z</time></trkpt><trkpt lat="45.0602702" lon="1.3831787"><ele>265.0</ele><time>2026-04-12T07:09:42.59Z</time></trkpt><trkpt lat="45.0600804" lon="1.3831397"><ele>264.6</ele><time>2026-04-12T07:10:07.591Z</time></trkpt><trkpt lat="45.0599758" lon="1.3830656"><ele>264.2</ele><time>2026-04-12T07:10:08.591Z</time></trkpt><trkpt lat="45.0598884" lon="1.3830063"><ele>263.8</ele><time>2026-04-12T07:10:09.591Z</time></trkpt><trkpt lat="45.0598079" lon="1.3829516"><ele>263.4</ele><time>2026-04-12T07:10:10.59Z</time></trkpt><trkpt lat="45.0597335" lon="1.3828985"><ele>263.0</ele><time>2026-04-12T07:10:11.59Z</time></trkpt><trkpt lat="45.0596596" lon="1.3828472"><ele>263.0</ele><time>2026-04-12T07:10:12.591Z</time></trkpt><trkpt lat="45.059585" lon="1.3827946"><ele>263.0</ele><time>2026-04-12T07:10:13.591Z</time></trkpt><trkpt lat="45.0595102" lon="1.3827378"><ele>263.0</ele><time>2026-04-12T07:10:14.59Z</time></trkpt><trkpt lat="45.0594363" lon="1.3826873"><ele>263.0</ele><time>2026-04-12T07:10:15.591Z</time></trkpt><trkpt lat="45.05936" lon="1.3826524"><ele>263.0</ele><time>2026-04-12T07:10:16.591Z</time></trkpt><trkpt lat="45.0592862" lon="1.3826606"><ele>263.0</ele><time>2026-04-12T07:10:17.591Z</time></trkpt><trkpt lat="45.0592231" lon="1.3827103"><ele>263.0</ele><time>2026-04-12T07:10:18.591Z</time></trkpt><trkpt lat="45.0591689" lon="1.3827864"><ele>263.0</ele><time>2026-04-12T07:10:19.591Z</time></trkpt><trkpt lat="45.0591256" lon="1.3828754"><ele>263.0</ele><time>2026-04-12T07:10:20.591Z</time></trkpt><trkpt lat="45.0590832" lon="1.3829676"><ele>263.0</ele><time>2026-04-12T07:10:21.59Z</time></trkpt><trkpt lat="45.0590357" lon="1.3830577"><ele>263.0</ele><time>2026-04-12T07:10:22.591Z</time></trkpt><trkpt lat="45.0589776" lon="1.3831224"><ele>263.0</ele><time>2026-04-12T07:10:23.591Z</time></trkpt><trkpt lat="45.0589129" lon="1.3831822"><ele>262.6666666666667</ele><time>2026-04-12T07:10:24.591Z</time></trkpt><trkpt lat="45.0588424" lon="1.3832326"><ele>262.33333333333337</ele><time>2026-04-12T07:10:25.591Z</time></trkpt><trkpt lat="45.0587554" lon="1.3832919"><ele>262.0</ele><time>2026-04-12T07:10:26.591Z</time></trkpt><trkpt lat="45.0586985" lon="1.3833721"><ele>261.6666666666667</ele><time>2026-04-12T07:10:27.591Z</time></trkpt><trkpt lat="45.0586667" lon="1.3834518"><ele>261.3333333333333</ele><time>2026-04-12T07:10:28.591Z</time></trkpt><trkpt lat="45.0586493" lon="1.3835424"><ele>261.0</ele><time>2026-04-12T07:10:29.591Z</time></trkpt><trkpt lat="45.0587099" lon="1.3837179"><ele>261.0</ele><time>2026-04-12T07:10:31.591Z</time></trkpt><trkpt lat="45.0587717" lon="1.3838167"><ele>261.0</ele><time>2026-04-12T07:10:32.59Z</time></trkpt><trkpt lat="45.0588323" lon="1.3839237"><ele>261.0</ele><time>2026-04-12T07:10:33.591Z</time></trkpt><trkpt lat="45.0588929" lon="1.3840315"><ele>261.0</ele><time>2026-04-12T07:10:34.591Z</time></trkpt><trkpt lat="45.0589629" lon="1.3841418"><ele>261.0</ele><time>2026-04-12T07:10:35.591Z</time></trkpt><trkpt lat="45.0590613" lon="1.3842298"><ele>260.5</ele><time>2026-04-12T07:10:36.591Z</time></trkpt><trkpt lat="45.0591571" lon="1.3843394"><ele>260.0</ele><time>2026-04-12T07:10:37.591Z</time></trkpt><trkpt lat="45.0592459" lon="1.3844726"><ele>259.5</ele><time>2026-04-12T07:10:38.591Z</time></trkpt><trkpt lat="45.0593352" lon="1.3846245"><ele>259.0</ele><time>2026-04-12T07:10:39.591Z</time></trkpt><trkpt lat="45.0594105" lon="1.3847909"><ele>259.0</ele><time>2026-04-12T07:10:40.591Z</time></trkpt><trkpt lat="45.0594958" lon="1.3849508"><ele>259.0</ele><time>2026-04-12T07:10:41.591Z</time></trkpt><trkpt lat="45.0595422" lon="1.3851309"><ele>259.0</ele><time>2026-04-12T07:10:42.591Z</time></trkpt><trkpt lat="45.0595828" lon="1.3853114"><ele>259.0</ele><time>2026-04-12T07:10:43.591Z</time></trkpt><trkpt lat="45.0596368" lon="1.3854947"><ele>258.0</ele><time>2026-04-12T07:10:44.591Z</time></trkpt><trkpt lat="45.0596825" lon="1.3856745"><ele>257.0</ele><time>2026-04-12T07:10:45.59Z</time></trkpt><trkpt lat="45.0597579" lon="1.3858551"><ele>256.0</ele><time>2026-04-12T07:10:46.591Z</time></trkpt><trkpt lat="45.0598308" lon="1.3860424"><ele>255.0</ele><time>2026-04-12T07:10:47.591Z</time></trkpt><trkpt lat="45.0598693" lon="1.3862393"><ele>255.33333333333331</ele><time>2026-04-12T07:10:48.59Z</time></trkpt><trkpt lat="45.0599124" lon="1.3864396"><ele>255.66666666666666</ele><time>2026-04-12T07:10:49.591Z</time></trkpt><trkpt lat="45.0599487" lon="1.3866465"><ele>256.0</ele><time>2026-04-12T07:10:50.59Z</time></trkpt><trkpt lat="45.0599905" lon="1.3868557"><ele>257.0</ele><time>2026-04-12T07:10:51.591Z</time></trkpt><trkpt lat="45.0600236" lon="1.3870611"><ele>258.0</ele><time>2026-04-12T07:10:52.591Z</time></trkpt><trkpt lat="45.0600382" lon="1.3872634"><ele>259.0</ele><time>2026-04-12T07:10:53.591Z</time></trkpt><trkpt lat="45.0600485" lon="1.3874652"><ele>260.0</ele><time>2026-04-12T07:10:54.591Z</time></trkpt><trkpt lat="45.0600606" lon="1.3876646"><ele>260.0</ele><time>2026-04-12T07:10:55.591Z</time></trkpt><trkpt lat="45.0600807" lon="1.3878649"><ele>260.0</ele><time>2026-04-12T07:10:56.591Z</time></trkpt><trkpt lat="45.0601176" lon="1.3880666"><ele>260.0</ele><time>2026-04-12T07:10:57.591Z</time></trkpt><trkpt lat="45.0601604" lon="1.3882639"><ele>260.0</ele><time>2026-04-12T07:10:58.59Z</time></trkpt><trkpt lat="45.0601875" lon="1.388458"><ele>260.0</ele><time>2026-04-12T07:10:59.591Z</time></trkpt><trkpt lat="45.0601917" lon="1.3886593"><ele>260.0</ele><time>2026-04-12T07:11:00.591Z</time></trkpt><trkpt lat="45.060193" lon="1.3888588"><ele>260.0</ele><time>2026-04-12T07:11:01.59Z</time></trkpt><trkpt lat="45.0601963" lon="1.389047"><ele>260.0</ele><time>2026-04-12T07:11:02.59Z</time></trkpt><trkpt lat="45.0602085" lon="1.3892187"><ele>260.0</ele><time>2026-04-12T07:11:03.591Z</time></trkpt><trkpt lat="45.0602379" lon="1.389378"><ele>260.0</ele><time>2026-04-12T07:11:04.59Z</time></trkpt><trkpt lat="45.0602949" lon="1.3895079"><ele>260.0</ele><time>2026-04-12T07:11:05.591Z</time></trkpt><trkpt lat="45.060354" lon="1.3896676"><ele>260.0</ele><time>2026-04-12T07:11:06.59Z</time></trkpt><trkpt lat="45.0604177" lon="1.3898183"><ele>260.0</ele><time>2026-04-12T07:11:07.59Z</time></trkpt><trkpt lat="45.060547" lon="1.389933"><ele>260.0</ele><time>2026-04-12T07:11:08.591Z</time></trkpt><trkpt lat="45.0606438" lon="1.3900529"><ele>260.0</ele><time>2026-04-12T07:11:09.591Z</time></trkpt><trkpt lat="45.0607713" lon="1.3901705"><ele>260.0</ele><time>2026-04-12T07:11:10.591Z</time></trkpt><trkpt lat="45.060889" lon="1.3902862"><ele>260.5</ele><time>2026-04-12T07:11:11.591Z</time></trkpt><trkpt lat="45.0610332" lon="1.3903758"><ele>261.0</ele><time>2026-04-12T07:11:12.591Z</time></trkpt><trkpt lat="45.0611583" lon="1.3904597"><ele>261.5</ele><time>2026-04-12T07:11:13.591Z</time></trkpt><trkpt lat="45.0612882" lon="1.390543"><ele>262.0</ele><time>2026-04-12T07:11:14.591Z</time></trkpt><trkpt lat="45.0614204" lon="1.3906296"><ele>262.5</ele><time>2026-04-12T07:11:15.591Z</time></trkpt><trkpt lat="45.0615383" lon="1.3907439"><ele>263.0</ele><time>2026-04-12T07:11:16.591Z</time></trkpt><trkpt lat="45.0616594" lon="1.3908697"><ele>263.5</ele><time>2026-04-12T07:11:17.591Z</time></trkpt><trkpt lat="45.061766" lon="1.3910181"><ele>264.0</ele><time>2026-04-12T07:11:18.59Z</time></trkpt><trkpt lat="45.061882" lon="1.3911737"><ele>264.25</ele><time>2026-04-12T07:11:19.591Z</time></trkpt><trkpt lat="45.0619765" lon="1.3913276"><ele>264.5</ele><time>2026-04-12T07:11:20.591Z</time></trkpt><trkpt lat="45.0620805" lon="1.3914735"><ele>264.75</ele><time>2026-04-12T07:11:21.591Z</time></trkpt><trkpt lat="45.0621891" lon="1.3916026"><ele>265.0</ele><time>2026-04-12T07:11:22.591Z</time></trkpt><trkpt lat="45.0622973" lon="1.3917098"><ele>265.0</ele><time>2026-04-12T07:11:23.591Z</time></trkpt><trkpt lat="45.062401" lon="1.3918004"><ele>265.0</ele><time>2026-04-12T07:11:24.59Z</time></trkpt><trkpt lat="45.0624932" lon="1.3918579"><ele>265.0</ele><time>2026-04-12T07:11:25.591Z</time></trkpt><trkpt lat="45.0625547" lon="1.3919184"><ele>265.0</ele><time>2026-04-12T07:11:26.591Z</time></trkpt><trkpt lat="45.0626041" lon="1.391987"><ele>265.0</ele><time>2026-04-12T07:11:27.591Z</time></trkpt><trkpt lat="45.0626212" lon="1.3920853"><ele>265.0</ele><time>2026-04-12T07:11:28.591Z</time></trkpt><trkpt lat="45.0626017" lon="1.3922146"><ele>265.8</ele><time>2026-04-12T07:11:29.591Z</time></trkpt><trkpt lat="45.0625883" lon="1.3924048"><ele>266.6</ele><time>2026-04-12T07:11:30.59Z</time></trkpt><trkpt lat="45.0626009" lon="1.3925427"><ele>267.4</ele><time>2026-04-12T07:11:31.591Z</time></trkpt><trkpt lat="45.0626094" lon="1.3926738"><ele>268.2</ele><time>2026-04-12T07:11:32.591Z</time></trkpt><trkpt lat="45.0626467" lon="1.3927964"><ele>269.0</ele><time>2026-04-12T07:11:33.591Z</time></trkpt><trkpt lat="45.0626929" lon="1.3929201"><ele>268.1666666666667</ele><time>2026-04-12T07:11:34.591Z</time></trkpt><trkpt lat="45.0627316" lon="1.3930357"><ele>267.33333333333337</ele><time>2026-04-12T07:11:35.59Z</time></trkpt><trkpt lat="45.0627791" lon="1.3931444"><ele>266.5</ele><time>2026-04-12T07:11:36.59Z</time></trkpt><trkpt lat="45.0628221" lon="1.3932491"><ele>265.6666666666667</ele><time>2026-04-12T07:11:37.591Z</time></trkpt><trkpt lat="45.0628678" lon="1.3933548"><ele>264.8333333333333</ele><time>2026-04-12T07:11:38.591Z</time></trkpt><trkpt lat="45.0628974" lon="1.3934592"><ele>264.0</ele><time>2026-04-12T07:11:39.591Z</time></trkpt><trkpt lat="45.0628974" lon="1.3936472"><ele>264.0</ele><time>2026-04-12T07:11:41.591Z</time></trkpt><trkpt lat="45.0628497" lon="1.3937198"><ele>264.0</ele><time>2026-04-12T07:11:42.59Z</time></trkpt><trkpt lat="45.0627438" lon="1.3937818"><ele>264.0</ele><time>2026-04-12T07:11:44.591Z</time></trkpt><trkpt lat="45.0626731" lon="1.3937612"><ele>264.0</ele><time>2026-04-12T07:11:45.591Z</time></trkpt><trkpt lat="45.0625985" lon="1.3937536"><ele>264.0</ele><time>2026-04-12T07:11:46.591Z</time></trkpt><trkpt lat="45.0625042" lon="1.3937593"><ele>264.0</ele><time>2026-04-12T07:11:47.591Z</time></trkpt><trkpt lat="45.0624079" lon="1.3937514"><ele>263.0</ele><time>2026-04-12T07:11:48.591Z</time></trkpt><trkpt lat="45.0623051" lon="1.393746"><ele>262.0</ele><time>2026-04-12T07:11:49.591Z</time></trkpt><trkpt lat="45.0621998" lon="1.3937532"><ele>261.0</ele><time>2026-04-12T07:11:50.591Z</time></trkpt><trkpt lat="45.0621047" lon="1.3937402"><ele>260.0</ele><time>2026-04-12T07:11:51.591Z</time></trkpt><trkpt lat="45.0620028" lon="1.3937196"><ele>259.0</ele><time>2026-04-12T07:11:52.591Z</time></trkpt><trkpt lat="45.0619018" lon="1.393696"><ele>259.0</ele><time>2026-04-12T07:11:53.59Z</time></trkpt><trkpt lat="45.0618066" lon="1.3936535"><ele>259.0</ele><time>2026-04-12T07:11:54.59Z</time></trkpt><trkpt lat="45.0616932" lon="1.3936172"><ele>259.0</ele><time>2026-04-12T07:11:55.59Z</time></trkpt><trkpt lat="45.0615905" lon="1.393562"><ele>259.0</ele><time>2026-04-12T07:11:56.591Z</time></trkpt><trkpt lat="45.0614696" lon="1.3934992"><ele>256.25</ele><time>2026-04-12T07:11:57.591Z</time></trkpt><trkpt lat="45.061342" lon="1.3934433"><ele>253.5</ele><time>2026-04-12T07:11:58.591Z</time></trkpt><trkpt lat="45.0612155" lon="1.3933882"><ele>250.75</ele><time>2026-04-12T07:11:59.591Z</time></trkpt><trkpt lat="45.0610888" lon="1.3933318"><ele>248.0</ele><time>2026-04-12T07:12:00.59Z</time></trkpt><trkpt lat="45.0609562" lon="1.3932934"><ele>248.0</ele><time>2026-04-12T07:12:01.59Z</time></trkpt><trkpt lat="45.0608225" lon="1.3932643"><ele>248.0</ele><time>2026-04-12T07:12:02.591Z</time></trkpt><trkpt lat="45.0606907" lon="1.3932353"><ele>248.0</ele><time>2026-04-12T07:12:03.591Z</time></trkpt><trkpt lat="45.0605528" lon="1.3932204"><ele>248.0</ele><time>2026-04-12T07:12:04.591Z</time></trkpt><trkpt lat="45.060429" lon="1.3931987"><ele>248.0</ele><time>2026-04-12T07:12:05.591Z</time></trkpt><trkpt lat="45.0603005" lon="1.3931973"><ele>248.0</ele><time>2026-04-12T07:12:06.59Z</time></trkpt><trkpt lat="45.0601733" lon="1.3932205"><ele>248.0</ele><time>2026-04-12T07:12:07.591Z</time></trkpt><trkpt lat="45.0600372" lon="1.3932661"><ele>248.0</ele><time>2026-04-12T07:12:08.591Z</time></trkpt><trkpt lat="45.0599052" lon="1.3933101"><ele>248.0</ele><time>2026-04-12T07:12:09.591Z</time></trkpt><trkpt lat="45.0597706" lon="1.3933651"><ele>248.0</ele><time>2026-04-12T07:12:10.591Z</time></trkpt><trkpt lat="45.0596278" lon="1.3933995"><ele>248.0</ele><time>2026-04-12T07:12:11.591Z</time></trkpt><trkpt lat="45.059479" lon="1.3934232"><ele>248.0</ele><time>2026-04-12T07:12:12.591Z</time></trkpt><trkpt lat="45.0593259" lon="1.3934541"><ele>248.0</ele><time>2026-04-12T07:12:13.591Z</time></trkpt><trkpt lat="45.0591617" lon="1.3934713"><ele>248.0</ele><time>2026-04-12T07:12:14.591Z</time></trkpt><trkpt lat="45.0589982" lon="1.3934876"><ele>248.0</ele><time>2026-04-12T07:12:15.591Z</time></trkpt><trkpt lat="45.0588404" lon="1.3935094"><ele>247.66666666666669</ele><time>2026-04-12T07:12:16.59Z</time></trkpt><trkpt lat="45.0586818" lon="1.3935259"><ele>247.33333333333331</ele><time>2026-04-12T07:12:17.591Z</time></trkpt><trkpt lat="45.0585338" lon="1.3935154"><ele>247.0</ele><time>2026-04-12T07:12:18.59Z</time></trkpt><trkpt lat="45.0583716" lon="1.3935199"><ele>246.33333333333331</ele><time>2026-04-12T07:12:19.591Z</time></trkpt><trkpt lat="45.0582085" lon="1.3935371"><ele>245.66666666666669</ele><time>2026-04-12T07:12:20.591Z</time></trkpt><trkpt lat="45.0580327" lon="1.3935322"><ele>245.0</ele><time>2026-04-12T07:12:21.591Z</time></trkpt><trkpt lat="45.057849" lon="1.3935187"><ele>245.0</ele><time>2026-04-12T07:12:22.591Z</time></trkpt><trkpt lat="45.0576689" lon="1.3935053"><ele>245.0</ele><time>2026-04-12T07:12:23.59Z</time></trkpt><trkpt lat="45.057477" lon="1.3935114"><ele>245.0</ele><time>2026-04-12T07:12:24.591Z</time></trkpt><trkpt lat="45.0572887" lon="1.3935356"><ele>244.33333333333334</ele><time>2026-04-12T07:12:25.591Z</time></trkpt><trkpt lat="45.0570943" lon="1.3935577"><ele>243.66666666666669</ele><time>2026-04-12T07:12:26.591Z</time></trkpt><trkpt lat="45.0568898" lon="1.3935769"><ele>243.0</ele><time>2026-04-12T07:12:27.591Z</time></trkpt><trkpt lat="45.0567034" lon="1.3935971"><ele>242.33333333333331</ele><time>2026-04-12T07:12:28.591Z</time></trkpt><trkpt lat="45.0565261" lon="1.3936202"><ele>241.66666666666666</ele><time>2026-04-12T07:12:29.591Z</time></trkpt><trkpt lat="45.0563632" lon="1.3936984"><ele>241.0</ele><time>2026-04-12T07:12:30.591Z</time></trkpt><trkpt lat="45.0561926" lon="1.3937675"><ele>241.0</ele><time>2026-04-12T07:12:31.591Z</time></trkpt><trkpt lat="45.0560175" lon="1.3938271"><ele>241.0</ele><time>2026-04-12T07:12:32.591Z</time></trkpt><trkpt lat="45.0558363" lon="1.3938693"><ele>241.0</ele><time>2026-04-12T07:12:33.591Z</time></trkpt><trkpt lat="45.0556475" lon="1.3938908"><ele>240.0</ele><time>2026-04-12T07:12:34.591Z</time></trkpt><trkpt lat="45.0554577" lon="1.393921"><ele>239.0</ele><time>2026-04-12T07:12:35.591Z</time></trkpt><trkpt lat="45.0552675" lon="1.3939543"><ele>238.0</ele><time>2026-04-12T07:12:36.591Z</time></trkpt><trkpt lat="45.0550859" lon="1.3939623"><ele>238.0</ele><time>2026-04-12T07:12:37.591Z</time></trkpt><trkpt lat="45.0549139" lon="1.3939716"><ele>238.0</ele><time>2026-04-12T07:12:38.591Z</time></trkpt><trkpt lat="45.0547367" lon="1.3940059"><ele>238.0</ele><time>2026-04-12T07:12:39.591Z</time></trkpt><trkpt lat="45.0545597" lon="1.3940692"><ele>238.0</ele><time>2026-04-12T07:12:40.591Z</time></trkpt><trkpt lat="45.0543893" lon="1.3941119"><ele>238.0</ele><time>2026-04-12T07:12:41.591Z</time></trkpt><trkpt lat="45.0542332" lon="1.3941382"><ele>238.0</ele><time>2026-04-12T07:12:42.59Z</time></trkpt><trkpt lat="45.0540845" lon="1.3941672"><ele>238.33333333333331</ele><time>2026-04-12T07:12:43.591Z</time></trkpt><trkpt lat="45.0539424" lon="1.3942325"><ele>238.66666666666669</ele><time>2026-04-12T07:12:44.591Z</time></trkpt><trkpt lat="45.0537941" lon="1.394302"><ele>239.0</ele><time>2026-04-12T07:12:45.591Z</time></trkpt><trkpt lat="45.0536682" lon="1.394465"><ele>239.0</ele><time>2026-04-12T07:12:46.591Z</time></trkpt><trkpt lat="45.0535291" lon="1.3946288"><ele>239.0</ele><time>2026-04-12T07:12:47.591Z</time></trkpt><trkpt lat="45.053383" lon="1.3947798"><ele>239.0</ele><time>2026-04-12T07:12:48.591Z</time></trkpt><trkpt lat="45.0532383" lon="1.3949064"><ele>242.66666666666669</ele><time>2026-04-12T07:12:49.591Z</time></trkpt><trkpt lat="45.0530396" lon="1.3949509"><ele>246.33333333333331</ele><time>2026-04-12T07:12:50.591Z</time></trkpt><trkpt lat="45.0528605" lon="1.3950537"><ele>250.0</ele><time>2026-04-12T07:12:51.591Z</time></trkpt><trkpt lat="45.0526402" lon="1.3951251"><ele>250.5</ele><time>2026-04-12T07:12:52.591Z</time></trkpt><trkpt lat="45.0524254" lon="1.3952095"><ele>251.0</ele><time>2026-04-12T07:12:53.591Z</time></trkpt><trkpt lat="45.0522005" lon="1.3952944"><ele>251.0</ele><time>2026-04-12T07:12:54.591Z</time></trkpt><trkpt lat="45.051986" lon="1.3953713"><ele>251.0</ele><time>2026-04-12T07:12:55.591Z</time></trkpt><trkpt lat="45.0517771" lon="1.3954369"><ele>251.0</ele><time>2026-04-12T07:12:56.591Z</time></trkpt><trkpt lat="45.0516158" lon="1.3954688"><ele>252.5</ele><time>2026-04-12T07:12:57.59Z</time></trkpt><trkpt lat="45.0514554" lon="1.395488"><ele>254.0</ele><time>2026-04-12T07:12:58.591Z</time></trkpt><trkpt lat="45.0513378" lon="1.3955038"><ele>255.5</ele><time>2026-04-12T07:12:59.591Z</time></trkpt><trkpt lat="45.0512494" lon="1.3955113"><ele>257.0</ele><time>2026-04-12T07:13:00.591Z</time></trkpt><trkpt lat="45.0511541" lon="1.3955163"><ele>257.0</ele><time>2026-04-12T07:13:02.591Z</time></trkpt><trkpt lat="45.051087" lon="1.3954614"><ele>257.0</ele><time>2026-04-12T07:13:05.591Z</time></trkpt><trkpt lat="45.0510239" lon="1.3954136"><ele>257.0</ele><time>2026-04-12T07:13:08.591Z</time></trkpt><trkpt lat="45.0509631" lon="1.3953556"><ele>257.0</ele><time>2026-04-12T07:13:10.59Z</time></trkpt><trkpt lat="45.0509091" lon="1.3953095"><ele>257.0</ele><time>2026-04-12T07:13:12.591Z</time></trkpt><trkpt lat="45.050847" lon="1.395263"><ele>257.0</ele><time>2026-04-12T07:13:14.59Z</time></trkpt><trkpt lat="45.050748" lon="1.3951719"><ele>259.6</ele><time>2026-04-12T07:13:16.591Z</time></trkpt><trkpt lat="45.05068" lon="1.3951123"><ele>262.2</ele><time>2026-04-12T07:13:17.591Z</time></trkpt><trkpt lat="45.0506039" lon="1.395029"><ele>264.8</ele><time>2026-04-12T07:13:18.591Z</time></trkpt><trkpt lat="45.0505167" lon="1.3949309"><ele>267.4</ele><time>2026-04-12T07:13:19.591Z</time></trkpt><trkpt lat="45.0504104" lon="1.3948191"><ele>270.0</ele><time>2026-04-12T07:13:20.591Z</time></trkpt><trkpt lat="45.0503046" lon="1.3946927"><ele>269.0</ele><time>2026-04-12T07:13:21.591Z</time></trkpt><trkpt lat="45.0502099" lon="1.3945794"><ele>268.0</ele><time>2026-04-12T07:13:22.591Z</time></trkpt><trkpt lat="45.0501203" lon="1.3944734"><ele>267.0</ele><time>2026-04-12T07:13:23.591Z</time></trkpt><trkpt lat="45.05004" lon="1.3943862"><ele>266.0</ele><time>2026-04-12T07:13:24.591Z</time></trkpt><trkpt lat="45.0499662" lon="1.394306"><ele>265.0</ele><time>2026-04-12T07:13:25.591Z</time></trkpt><trkpt lat="45.0499082" lon="1.3942242"><ele>265.0</ele><time>2026-04-12T07:13:26.59Z</time></trkpt><trkpt lat="45.0498806" lon="1.3941407"><ele>265.0</ele><time>2026-04-12T07:13:27.591Z</time></trkpt><trkpt lat="45.0498889" lon="1.3940496"><ele>265.0</ele><time>2026-04-12T07:13:28.591Z</time></trkpt><trkpt lat="45.0499221" lon="1.3939416"><ele>265.0</ele><time>2026-04-12T07:13:29.591Z</time></trkpt><trkpt lat="45.0499721" lon="1.3938444"><ele>265.0</ele><time>2026-04-12T07:13:30.591Z</time></trkpt><trkpt lat="45.0500259" lon="1.3937376"><ele>265.0</ele><time>2026-04-12T07:13:31.591Z</time></trkpt><trkpt lat="45.0500834" lon="1.3936088"><ele>263.5</ele><time>2026-04-12T07:13:32.591Z</time></trkpt><trkpt lat="45.0501468" lon="1.393477"><ele>262.0</ele><time>2026-04-12T07:13:33.591Z</time></trkpt><trkpt lat="45.0502121" lon="1.3933373"><ele>260.5</ele><time>2026-04-12T07:13:34.591Z</time></trkpt><trkpt lat="45.0502808" lon="1.3931947"><ele>259.0</ele><time>2026-04-12T07:13:35.591Z</time></trkpt><trkpt lat="45.0503516" lon="1.393045"><ele>258.75</ele><time>2026-04-12T07:13:36.591Z</time></trkpt><trkpt lat="45.0504139" lon="1.392891"><ele>258.5</ele><time>2026-04-12T07:13:37.591Z</time></trkpt><trkpt lat="45.0504679" lon="1.3927366"><ele>258.25</ele><time>2026-04-12T07:13:38.591Z</time></trkpt><trkpt lat="45.0504946" lon="1.392581"><ele>258.0</ele><time>2026-04-12T07:13:39.591Z</time></trkpt><trkpt lat="45.0504861" lon="1.3924087"><ele>258.0</ele><time>2026-04-12T07:13:40.591Z</time></trkpt><trkpt lat="45.0504651" lon="1.392222"><ele>258.0</ele><time>2026-04-12T07:13:41.59Z</time></trkpt><trkpt lat="45.0504451" lon="1.3920263"><ele>258.0</ele><time>2026-04-12T07:13:42.59Z</time></trkpt><trkpt lat="45.0504177" lon="1.3918236"><ele>258.0</ele><time>2026-04-12T07:13:43.591Z</time></trkpt><trkpt lat="45.0503904" lon="1.391612"><ele>257.0</ele><time>2026-04-12T07:13:44.591Z</time></trkpt><trkpt lat="45.0503618" lon="1.3914005"><ele>256.0</ele><time>2026-04-12T07:13:45.591Z</time></trkpt><trkpt lat="45.050333" lon="1.3911855"><ele>255.0</ele><time>2026-04-12T07:13:46.591Z</time></trkpt><trkpt lat="45.0503148" lon="1.3909693"><ele>255.0</ele><time>2026-04-12T07:13:47.591Z</time></trkpt><trkpt lat="45.0502967" lon="1.390755"><ele>255.0</ele><time>2026-04-12T07:13:48.59Z</time></trkpt><trkpt lat="45.0502565" lon="1.3905554"><ele>255.0</ele><time>2026-04-12T07:13:49.591Z</time></trkpt><trkpt lat="45.0501861" lon="1.3903752"><ele>255.0</ele><time>2026-04-12T07:13:50.591Z</time></trkpt><trkpt lat="45.0500958" lon="1.3901943"><ele>254.33333333333331</ele><time>2026-04-12T07:13:51.591Z</time></trkpt><trkpt lat="45.0500116" lon="1.3900091"><ele>253.66666666666666</ele><time>2026-04-12T07:13:52.591Z</time></trkpt><trkpt lat="45.0499358" lon="1.3898162"><ele>253.0</ele><time>2026-04-12T07:13:53.591Z</time></trkpt><trkpt lat="45.0498559" lon="1.3896252"><ele>250.5</ele><time>2026-04-12T07:13:54.591Z</time></trkpt><trkpt lat="45.0497673" lon="1.3894471"><ele>248.0</ele><time>2026-04-12T07:13:55.591Z</time></trkpt><trkpt lat="45.049677" lon="1.3892875"><ele>245.5</ele><time>2026-04-12T07:13:56.591Z</time></trkpt><trkpt lat="45.0496005" lon="1.3891289"><ele>243.0</ele><time>2026-04-12T07:13:57.591Z</time></trkpt><trkpt lat="45.049532" lon="1.3889557"><ele>241.0</ele><time>2026-04-12T07:13:58.591Z</time></trkpt><trkpt lat="45.0494969" lon="1.3887632"><ele>239.0</ele><time>2026-04-12T07:13:59.59Z</time></trkpt><trkpt lat="45.0494831" lon="1.38855"><ele>237.0</ele><time>2026-04-12T07:14:00.591Z</time></trkpt><trkpt lat="45.0495044" lon="1.3883272"><ele>237.0</ele><time>2026-04-12T07:14:01.591Z</time></trkpt><trkpt lat="45.0495426" lon="1.3881135"><ele>237.0</ele><time>2026-04-12T07:14:02.591Z</time></trkpt><trkpt lat="45.0495784" lon="1.3878996"><ele>237.0</ele><time>2026-04-12T07:14:03.591Z</time></trkpt><trkpt lat="45.049599" lon="1.387687"><ele>236.25</ele><time>2026-04-12T07:14:04.591Z</time></trkpt><trkpt lat="45.0496282" lon="1.3874683"><ele>235.5</ele><time>2026-04-12T07:14:05.591Z</time></trkpt><trkpt lat="45.0496484" lon="1.3872424"><ele>234.75</ele><time>2026-04-12T07:14:06.59Z</time></trkpt><trkpt lat="45.0496497" lon="1.387061"><ele>234.0</ele><time>2026-04-12T07:14:07.591Z</time></trkpt><trkpt lat="45.0496202" lon="1.3868954"><ele>233.5</ele><time>2026-04-12T07:14:08.591Z</time></trkpt><trkpt lat="45.0495619" lon="1.3867562"><ele>233.0</ele><time>2026-04-12T07:14:09.591Z</time></trkpt><trkpt lat="45.049477" lon="1.3866297"><ele>232.5</ele><time>2026-04-12T07:14:10.591Z</time></trkpt><trkpt lat="45.049372" lon="1.3865021"><ele>232.0</ele><time>2026-04-12T07:14:11.591Z</time></trkpt><trkpt lat="45.0492728" lon="1.3863807"><ele>232.0</ele><time>2026-04-12T07:14:12.59Z</time></trkpt><trkpt lat="45.0491848" lon="1.3862609"><ele>232.0</ele><time>2026-04-12T07:14:13.591Z</time></trkpt><trkpt lat="45.0491181" lon="1.3861446"><ele>232.0</ele><time>2026-04-12T07:14:14.591Z</time></trkpt><trkpt lat="45.0490809" lon="1.3860355"><ele>232.0</ele><time>2026-04-12T07:14:15.591Z</time></trkpt><trkpt lat="45.0490836" lon="1.3859122"><ele>232.0</ele><time>2026-04-12T07:14:16.591Z</time></trkpt><trkpt lat="45.0491173" lon="1.3857718"><ele>231.75</ele><time>2026-04-12T07:14:17.591Z</time></trkpt><trkpt lat="45.0491701" lon="1.3856122"><ele>231.5</ele><time>2026-04-12T07:14:18.591Z</time></trkpt><trkpt lat="45.0492264" lon="1.3854212"><ele>231.25</ele><time>2026-04-12T07:14:19.591Z</time></trkpt><trkpt lat="45.0492787" lon="1.3852479"><ele>231.0</ele><time>2026-04-12T07:14:20.59Z</time></trkpt><trkpt lat="45.0493348" lon="1.385078"><ele>231.0</ele><time>2026-04-12T07:14:21.59Z</time></trkpt><trkpt lat="45.0493053" lon="1.384948"><ele>231.00000000000003</ele><time>2026-04-12T07:14:23.591Z</time></trkpt><trkpt lat="45.0492438" lon="1.3849155"><ele>231.00000000000003</ele><time>2026-04-12T07:14:24.591Z</time></trkpt><trkpt lat="45.0491377" lon="1.3848925"><ele>231.0</ele><time>2026-04-12T07:14:25.591Z</time></trkpt><trkpt lat="45.0489943" lon="1.3848639"><ele>231.0</ele><time>2026-04-12T07:14:26.591Z</time></trkpt><trkpt lat="45.0488264" lon="1.3848331"><ele>231.0</ele><time>2026-04-12T07:14:27.591Z</time></trkpt><trkpt lat="45.0486317" lon="1.3847991"><ele>231.0</ele><time>2026-04-12T07:14:28.591Z</time></trkpt><trkpt lat="45.0484194" lon="1.384753"><ele>231.0</ele><time>2026-04-12T07:14:29.591Z</time></trkpt><trkpt lat="45.0481928" lon="1.3846995"><ele>233.66666666666669</ele><time>2026-04-12T07:14:30.59Z</time></trkpt><trkpt lat="45.0479608" lon="1.3846501"><ele>236.33333333333334</ele><time>2026-04-12T07:14:31.591Z</time></trkpt><trkpt lat="45.0477572" lon="1.3846091"><ele>239.0</ele><time>2026-04-12T07:14:32.591Z</time></trkpt><trkpt lat="45.0475738" lon="1.3845853"><ele>241.0</ele><time>2026-04-12T07:14:33.591Z</time></trkpt><trkpt lat="45.0474213" lon="1.384549"><ele>243.0</ele><time>2026-04-12T07:14:34.591Z</time></trkpt><trkpt lat="45.0472895" lon="1.3845062"><ele>245.0</ele><time>2026-04-12T07:14:35.591Z</time></trkpt><trkpt lat="45.0471577" lon="1.3844415"><ele>247.0</ele><time>2026-04-12T07:14:36.591Z</time></trkpt><trkpt lat="45.0470639" lon="1.3842858"><ele>247.0</ele><time>2026-04-12T07:14:37.591Z</time></trkpt><trkpt lat="45.046945" lon="1.3841851"><ele>247.0</ele><time>2026-04-12T07:14:38.591Z</time></trkpt><trkpt lat="45.0467894" lon="1.3841766"><ele>247.0</ele><time>2026-04-12T07:14:39.591Z</time></trkpt><trkpt lat="45.0466268" lon="1.3841497"><ele>247.66666666666666</ele><time>2026-04-12T07:14:40.591Z</time></trkpt><trkpt lat="45.0464411" lon="1.3841113"><ele>248.33333333333331</ele><time>2026-04-12T07:14:41.591Z</time></trkpt><trkpt lat="45.0462468" lon="1.3840644"><ele>249.0</ele><time>2026-04-12T07:14:42.591Z</time></trkpt><trkpt lat="45.0460215" lon="1.3839679"><ele>248.5</ele><time>2026-04-12T07:14:43.591Z</time></trkpt><trkpt lat="45.0457631" lon="1.3839006"><ele>248.0</ele><time>2026-04-12T07:14:44.591Z</time></trkpt><trkpt lat="45.0455189" lon="1.3838111"><ele>248.0</ele><time>2026-04-12T07:14:45.591Z</time></trkpt><trkpt lat="45.0452827" lon="1.3836972"><ele>248.0</ele><time>2026-04-12T07:14:46.59Z</time></trkpt><trkpt lat="45.0450626" lon="1.3836294"><ele>248.33333333333334</ele><time>2026-04-12T07:14:47.59Z</time></trkpt><trkpt lat="45.0448717" lon="1.3835159"><ele>248.66666666666669</ele><time>2026-04-12T07:14:48.59Z</time></trkpt><trkpt lat="45.0447091" lon="1.3833956"><ele>249.0</ele><time>2026-04-12T07:14:49.591Z</time></trkpt><trkpt lat="45.0445351" lon="1.3832884"><ele>249.0</ele><time>2026-04-12T07:14:50.591Z</time></trkpt><trkpt lat="45.0443761" lon="1.3832002"><ele>249.0</ele><time>2026-04-12T07:14:51.591Z</time></trkpt><trkpt lat="45.0442238" lon="1.3831275"><ele>249.0</ele><time>2026-04-12T07:14:52.591Z</time></trkpt><trkpt lat="45.0440586" lon="1.3830836"><ele>249.25</ele><time>2026-04-12T07:14:53.59Z</time></trkpt><trkpt lat="45.0439236" lon="1.3830665"><ele>249.5</ele><time>2026-04-12T07:14:54.591Z</time></trkpt><trkpt lat="45.0438013" lon="1.3830354"><ele>249.75</ele><time>2026-04-12T07:14:55.591Z</time></trkpt><trkpt lat="45.0437004" lon="1.3830116"><ele>250.0</ele><time>2026-04-12T07:14:56.591Z</time></trkpt><trkpt lat="45.0435839" lon="1.383088"><ele>250.0</ele><time>2026-04-12T07:14:59.591Z</time></trkpt><trkpt lat="45.0435046" lon="1.38324"><ele>250.0</ele><time>2026-04-12T07:15:01.592Z</time></trkpt><trkpt lat="45.0434611" lon="1.3833255"><ele>250.0</ele><time>2026-04-12T07:15:02.591Z</time></trkpt><trkpt lat="45.0434168" lon="1.3834167"><ele>250.0</ele><time>2026-04-12T07:15:03.592Z</time></trkpt><trkpt lat="45.0433652" lon="1.3835084"><ele>250.0</ele><time>2026-04-12T07:15:04.591Z</time></trkpt><trkpt lat="45.0433176" lon="1.3836337"><ele>249.0</ele><time>2026-04-12T07:15:05.591Z</time></trkpt><trkpt lat="45.0432679" lon="1.3837769"><ele>248.0</ele><time>2026-04-12T07:15:06.591Z</time></trkpt><trkpt lat="45.0431353" lon="1.3841325"><ele>247.0</ele><time>2026-04-12T07:15:08.594Z</time></trkpt><trkpt lat="45.0430611" lon="1.3843535"><ele>247.0</ele><time>2026-04-12T07:15:09.592Z</time></trkpt><trkpt lat="45.042981" lon="1.38458"><ele>247.0</ele><time>2026-04-12T07:15:10.591Z</time></trkpt><trkpt lat="45.0428963" lon="1.3848205"><ele>247.0</ele><time>2026-04-12T07:15:11.591Z</time></trkpt><trkpt lat="45.0428171" lon="1.3850526"><ele>248.66666666666666</ele><time>2026-04-12T07:15:12.592Z</time></trkpt><trkpt lat="45.0427437" lon="1.385295"><ele>250.33333333333331</ele><time>2026-04-12T07:15:13.592Z</time></trkpt><trkpt lat="45.0427061" lon="1.3855764"><ele>252.0</ele><time>2026-04-12T07:15:14.592Z</time></trkpt><trkpt lat="45.0426579" lon="1.3858471"><ele>252.0</ele><time>2026-04-12T07:15:15.591Z</time></trkpt><trkpt lat="45.042654" lon="1.3861171"><ele>252.0</ele><time>2026-04-12T07:15:16.592Z</time></trkpt><trkpt lat="45.0426307" lon="1.3863815"><ele>252.0</ele><time>2026-04-12T07:15:17.593Z</time></trkpt><trkpt lat="45.0426232" lon="1.3866517"><ele>251.66666666666669</ele><time>2026-04-12T07:15:18.593Z</time></trkpt><trkpt lat="45.0426392" lon="1.3869204"><ele>251.33333333333334</ele><time>2026-04-12T07:15:19.592Z</time></trkpt><trkpt lat="45.0426619" lon="1.3871751"><ele>251.0</ele><time>2026-04-12T07:15:20.592Z</time></trkpt><trkpt lat="45.0426814" lon="1.3874406"><ele>251.0</ele><time>2026-04-12T07:15:21.592Z</time></trkpt><trkpt lat="45.0426671" lon="1.3876922"><ele>251.0</ele><time>2026-04-12T07:15:22.593Z</time></trkpt><trkpt lat="45.0426376" lon="1.3879603"><ele>251.0</ele><time>2026-04-12T07:15:23.592Z</time></trkpt><trkpt lat="45.0426052" lon="1.3882256"><ele>251.75</ele><time>2026-04-12T07:15:24.592Z</time></trkpt><trkpt lat="45.0425727" lon="1.3884811"><ele>252.5</ele><time>2026-04-12T07:15:25.592Z</time></trkpt><trkpt lat="45.0425384" lon="1.3886638"><ele>253.25</ele><time>2026-04-12T07:15:26.591Z</time></trkpt><trkpt lat="45.0424565" lon="1.3888031"><ele>254.0</ele><time>2026-04-12T07:15:27.591Z</time></trkpt><trkpt lat="45.042382" lon="1.3889594"><ele>255.0</ele><time>2026-04-12T07:15:28.593Z</time></trkpt><trkpt lat="45.0422713" lon="1.3890971"><ele>256.0</ele><time>2026-04-12T07:15:29.592Z</time></trkpt><trkpt lat="45.0421757" lon="1.3892537"><ele>257.0</ele><time>2026-04-12T07:15:30.592Z</time></trkpt><trkpt lat="45.0420774" lon="1.3894271"><ele>256.6666666666667</ele><time>2026-04-12T07:15:31.592Z</time></trkpt><trkpt lat="45.0419861" lon="1.3896977"><ele>256.3333333333333</ele><time>2026-04-12T07:15:32.592Z</time></trkpt><trkpt lat="45.0418989" lon="1.389884"><ele>256.0</ele><time>2026-04-12T07:15:33.592Z</time></trkpt><trkpt lat="45.0418156" lon="1.3900846"><ele>256.0</ele><time>2026-04-12T07:15:34.591Z</time></trkpt><trkpt lat="45.0417367" lon="1.3902693"><ele>256.0</ele><time>2026-04-12T07:15:35.593Z</time></trkpt><trkpt lat="45.0416622" lon="1.3904527"><ele>256.0</ele><time>2026-04-12T07:15:36.591Z</time></trkpt><trkpt lat="45.0415853" lon="1.3906294"><ele>256.0</ele><time>2026-04-12T07:15:37.592Z</time></trkpt><trkpt lat="45.0415124" lon="1.3908015"><ele>255.0</ele><time>2026-04-12T07:15:38.592Z</time></trkpt><trkpt lat="45.0414415" lon="1.3909597"><ele>254.0</ele><time>2026-04-12T07:15:39.593Z</time></trkpt><trkpt lat="45.0413716" lon="1.3910994"><ele>253.0</ele><time>2026-04-12T07:15:40.592Z</time></trkpt><trkpt lat="45.0413037" lon="1.3912161"><ele>252.0</ele><time>2026-04-12T07:15:41.591Z</time></trkpt><trkpt lat="45.0412378" lon="1.391328"><ele>251.8</ele><time>2026-04-12T07:15:42.593Z</time></trkpt><trkpt lat="45.0411801" lon="1.3914237"><ele>251.6</ele><time>2026-04-12T07:15:43.592Z</time></trkpt><trkpt lat="45.0411169" lon="1.3915294"><ele>251.40000000000003</ele><time>2026-04-12T07:15:44.592Z</time></trkpt><trkpt lat="45.0410571" lon="1.3916683"><ele>251.20000000000002</ele><time>2026-04-12T07:15:45.592Z</time></trkpt><trkpt lat="45.0409986" lon="1.3918183"><ele>251.0</ele><time>2026-04-12T07:15:46.592Z</time></trkpt><trkpt lat="45.0409459" lon="1.3919807"><ele>251.0</ele><time>2026-04-12T07:15:47.593Z</time></trkpt><trkpt lat="45.0408997" lon="1.3921698"><ele>251.0</ele><time>2026-04-12T07:15:48.593Z</time></trkpt><trkpt lat="45.0408657" lon="1.3923699"><ele>251.0</ele><time>2026-04-12T07:15:49.591Z</time></trkpt><trkpt lat="45.0408303" lon="1.3925777"><ele>251.0</ele><time>2026-04-12T07:15:50.591Z</time></trkpt><trkpt lat="45.0407897" lon="1.3927918"><ele>251.66666666666669</ele><time>2026-04-12T07:15:51.591Z</time></trkpt><trkpt lat="45.0407439" lon="1.3930132"><ele>252.33333333333331</ele><time>2026-04-12T07:15:52.592Z</time></trkpt><trkpt lat="45.0406942" lon="1.3932296"><ele>253.0</ele><time>2026-04-12T07:15:53.591Z</time></trkpt><trkpt lat="45.0406402" lon="1.3934453"><ele>253.0</ele><time>2026-04-12T07:15:54.591Z</time></trkpt><trkpt lat="45.040585" lon="1.3936577"><ele>253.0</ele><time>2026-04-12T07:15:55.592Z</time></trkpt><trkpt lat="45.0405325" lon="1.3938697"><ele>253.0</ele><time>2026-04-12T07:15:56.592Z</time></trkpt><trkpt lat="45.0404802" lon="1.3940813"><ele>253.33333333333331</ele><time>2026-04-12T07:15:57.592Z</time></trkpt><trkpt lat="45.0404279" lon="1.3942894"><ele>253.66666666666669</ele><time>2026-04-12T07:15:58.592Z</time></trkpt><trkpt lat="45.0403746" lon="1.3944899"><ele>254.0</ele><time>2026-04-12T07:15:59.591Z</time></trkpt><trkpt lat="45.0403216" lon="1.3946808"><ele>255.5</ele><time>2026-04-12T07:16:00.592Z</time></trkpt><trkpt lat="45.0402664" lon="1.3948654"><ele>257.0</ele><time>2026-04-12T07:16:01.592Z</time></trkpt><trkpt lat="45.0402131" lon="1.3950452"><ele>258.5</ele><time>2026-04-12T07:16:02.592Z</time></trkpt><trkpt lat="45.0401503" lon="1.3952088"><ele>260.0</ele><time>2026-04-12T07:16:03.592Z</time></trkpt><trkpt lat="45.0400683" lon="1.3953601"><ele>260.0</ele><time>2026-04-12T07:16:04.592Z</time></trkpt><trkpt lat="45.03997" lon="1.3955037"><ele>260.0</ele><time>2026-04-12T07:16:05.592Z</time></trkpt><trkpt lat="45.039865" lon="1.395644"><ele>260.0</ele><time>2026-04-12T07:16:06.592Z</time></trkpt><trkpt lat="45.0397606" lon="1.3957768"><ele>260.0</ele><time>2026-04-12T07:16:07.592Z</time></trkpt><trkpt lat="45.0396575" lon="1.3959006"><ele>261.25</ele><time>2026-04-12T07:16:08.592Z</time></trkpt><trkpt lat="45.0395572" lon="1.3960218"><ele>262.5</ele><time>2026-04-12T07:16:09.593Z</time></trkpt><trkpt lat="45.0394576" lon="1.3961384"><ele>263.75</ele><time>2026-04-12T07:16:10.592Z</time></trkpt><trkpt lat="45.0393556" lon="1.3962327"><ele>265.0</ele><time>2026-04-12T07:16:11.592Z</time></trkpt><trkpt lat="45.0392516" lon="1.3962819"><ele>265.0</ele><time>2026-04-12T07:16:12.592Z</time></trkpt><trkpt lat="45.0391511" lon="1.3963075"><ele>265.0</ele><time>2026-04-12T07:16:13.592Z</time></trkpt><trkpt lat="45.0390668" lon="1.3963794"><ele>265.0</ele><time>2026-04-12T07:16:14.592Z</time></trkpt><trkpt lat="45.0390019" lon="1.3964908"><ele>265.0</ele><time>2026-04-12T07:16:15.592Z</time></trkpt><trkpt lat="45.0389521" lon="1.3966193"><ele>265.0</ele><time>2026-04-12T07:16:16.592Z</time></trkpt><trkpt lat="45.0388945" lon="1.3967301"><ele>265.4</ele><time>2026-04-12T07:16:17.592Z</time></trkpt><trkpt lat="45.0388206" lon="1.3968186"><ele>265.8</ele><time>2026-04-12T07:16:18.592Z</time></trkpt><trkpt lat="45.0387258" lon="1.3968871"><ele>266.2</ele><time>2026-04-12T07:16:19.591Z</time></trkpt><trkpt lat="45.0386191" lon="1.3969484"><ele>266.6</ele><time>2026-04-12T07:16:20.592Z</time></trkpt><trkpt lat="45.0385082" lon="1.3970137"><ele>267.0</ele><time>2026-04-12T07:16:21.591Z</time></trkpt><trkpt lat="45.0383956" lon="1.3970767"><ele>267.0</ele><time>2026-04-12T07:16:22.593Z</time></trkpt><trkpt lat="45.0382795" lon="1.3971315"><ele>267.0</ele><time>2026-04-12T07:16:23.592Z</time></trkpt><trkpt lat="45.0381549" lon="1.3971743"><ele>267.0</ele><time>2026-04-12T07:16:24.592Z</time></trkpt><trkpt lat="45.0380217" lon="1.3971898"><ele>267.0</ele><time>2026-04-12T07:16:25.592Z</time></trkpt><trkpt lat="45.0378789" lon="1.3971791"><ele>267.0</ele><time>2026-04-12T07:16:26.592Z</time></trkpt><trkpt lat="45.0377315" lon="1.3971457"><ele>267.0</ele><time>2026-04-12T07:16:27.592Z</time></trkpt><trkpt lat="45.0375836" lon="1.3970861"><ele>267.0</ele><time>2026-04-12T07:16:28.592Z</time></trkpt><trkpt lat="45.0374319" lon="1.3970065"><ele>269.0</ele><time>2026-04-12T07:16:29.593Z</time></trkpt><trkpt lat="45.0372798" lon="1.3969193"><ele>271.0</ele><time>2026-04-12T07:16:30.592Z</time></trkpt><trkpt lat="45.0371317" lon="1.396829"><ele>273.0</ele><time>2026-04-12T07:16:31.592Z</time></trkpt><trkpt lat="45.0369932" lon="1.3967393"><ele>273.0</ele><time>2026-04-12T07:16:32.592Z</time></trkpt><trkpt lat="45.0368559" lon="1.3966593"><ele>273.0</ele><time>2026-04-12T07:16:33.592Z</time></trkpt><trkpt lat="45.0367156" lon="1.3965828"><ele>273.0</ele><time>2026-04-12T07:16:34.591Z</time></trkpt><trkpt lat="45.0365673" lon="1.3965136"><ele>274.3333333333333</ele><time>2026-04-12T07:16:35.592Z</time></trkpt><trkpt lat="45.036412" lon="1.3964422"><ele>275.66666666666663</ele><time>2026-04-12T07:16:36.592Z</time></trkpt><trkpt lat="45.0362535" lon="1.3963609"><ele>277.0</ele><time>2026-04-12T07:16:37.592Z</time></trkpt><trkpt lat="45.0360976" lon="1.396265"><ele>277.0</ele><time>2026-04-12T07:16:38.592Z</time></trkpt><trkpt lat="45.0359425" lon="1.3961582"><ele>277.0</ele><time>2026-04-12T07:16:39.592Z</time></trkpt><trkpt lat="45.0357881" lon="1.3960466"><ele>277.0</ele><time>2026-04-12T07:16:40.592Z</time></trkpt><trkpt lat="45.0356431" lon="1.3959406"><ele>278.5</ele><time>2026-04-12T07:16:41.592Z</time></trkpt><trkpt lat="45.0355125" lon="1.3958583"><ele>280.0</ele><time>2026-04-12T07:16:42.592Z</time></trkpt><trkpt lat="45.0353942" lon="1.3958263"><ele>281.5</ele><time>2026-04-12T07:16:43.591Z</time></trkpt><trkpt lat="45.0352878" lon="1.395854"><ele>283.0</ele><time>2026-04-12T07:16:44.592Z</time></trkpt><trkpt lat="45.0351915" lon="1.3959455"><ele>283.0</ele><time>2026-04-12T07:16:45.592Z</time></trkpt><trkpt lat="45.0351069" lon="1.3960847"><ele>283.0</ele><time>2026-04-12T07:16:46.592Z</time></trkpt><trkpt lat="45.0350205" lon="1.3962465"><ele>283.0</ele><time>2026-04-12T07:16:47.591Z</time></trkpt><trkpt lat="45.0349133" lon="1.396381"><ele>283.0</ele><time>2026-04-12T07:16:48.592Z</time></trkpt><trkpt lat="45.0347875" lon="1.3964785"><ele>282.66666666666663</ele><time>2026-04-12T07:16:49.592Z</time></trkpt><trkpt lat="45.0346432" lon="1.3965468"><ele>282.3333333333333</ele><time>2026-04-12T07:16:50.592Z</time></trkpt><trkpt lat="45.0344825" lon="1.3965949"><ele>282.0</ele><time>2026-04-12T07:16:51.592Z</time></trkpt><trkpt lat="45.034314" lon="1.396647"><ele>282.0</ele><time>2026-04-12T07:16:52.592Z</time></trkpt><trkpt lat="45.0341441" lon="1.3967229"><ele>282.0</ele><time>2026-04-12T07:16:53.592Z</time></trkpt><trkpt lat="45.033977" lon="1.3967962"><ele>282.0</ele><time>2026-04-12T07:16:54.592Z</time></trkpt><trkpt lat="45.0338179" lon="1.3968912"><ele>282.0</ele><time>2026-04-12T07:16:55.592Z</time></trkpt><trkpt lat="45.0336565" lon="1.3970008"><ele>282.0</ele><time>2026-04-12T07:16:56.592Z</time></trkpt><trkpt lat="45.0334972" lon="1.3971274"><ele>282.0</ele><time>2026-04-12T07:16:57.592Z</time></trkpt><trkpt lat="45.0333395" lon="1.3972701"><ele>284.6666666666667</ele><time>2026-04-12T07:16:58.592Z</time></trkpt><trkpt lat="45.0331892" lon="1.3974309"><ele>287.33333333333337</ele><time>2026-04-12T07:16:59.592Z</time></trkpt><trkpt lat="45.0330423" lon="1.3975961"><ele>290.0</ele><time>2026-04-12T07:17:00.592Z</time></trkpt><trkpt lat="45.0329019" lon="1.3977595"><ele>290.0</ele><time>2026-04-12T07:17:01.592Z</time></trkpt><trkpt lat="45.0327651" lon="1.3979158"><ele>290.0</ele><time>2026-04-12T07:17:02.592Z</time></trkpt><trkpt lat="45.0326286" lon="1.3980631"><ele>290.0</ele><time>2026-04-12T07:17:03.592Z</time></trkpt><trkpt lat="45.0325001" lon="1.3981998"><ele>292.25</ele><time>2026-04-12T07:17:04.592Z</time></trkpt><trkpt lat="45.0323962" lon="1.3983457"><ele>294.5</ele><time>2026-04-12T07:17:05.592Z</time></trkpt><trkpt lat="45.0323216" lon="1.3985106"><ele>296.75</ele><time>2026-04-12T07:17:06.592Z</time></trkpt><trkpt lat="45.032271" lon="1.3986893"><ele>299.0</ele><time>2026-04-12T07:17:07.592Z</time></trkpt><trkpt lat="45.0322572" lon="1.3988704"><ele>299.5</ele><time>2026-04-12T07:17:08.592Z</time></trkpt><trkpt lat="45.0322789" lon="1.3990474"><ele>300.0</ele><time>2026-04-12T07:17:09.593Z</time></trkpt><trkpt lat="45.0322996" lon="1.3992167"><ele>300.5</ele><time>2026-04-12T07:17:10.593Z</time></trkpt><trkpt lat="45.0322766" lon="1.3993769"><ele>301.0</ele><time>2026-04-12T07:17:11.592Z</time></trkpt><trkpt lat="45.0322157" lon="1.3995148"><ele>301.0</ele><time>2026-04-12T07:17:12.592Z</time></trkpt><trkpt lat="45.0321154" lon="1.3996212"><ele>301.0</ele><time>2026-04-12T07:17:13.591Z</time></trkpt><trkpt lat="45.0319958" lon="1.3997101"><ele>301.0</ele><time>2026-04-12T07:17:14.592Z</time></trkpt><trkpt lat="45.0318653" lon="1.3998061"><ele>301.0</ele><time>2026-04-12T07:17:15.593Z</time></trkpt><trkpt lat="45.0317494" lon="1.399899"><ele>301.0</ele><time>2026-04-12T07:17:16.591Z</time></trkpt><trkpt lat="45.0316615" lon="1.4000148"><ele>301.0</ele><time>2026-04-12T07:17:17.592Z</time></trkpt><trkpt lat="45.0316077" lon="1.4001512"><ele>301.0</ele><time>2026-04-12T07:17:18.593Z</time></trkpt><trkpt lat="45.0315991" lon="1.4002933"><ele>301.0</ele><time>2026-04-12T07:17:19.593Z</time></trkpt><trkpt lat="45.0316266" lon="1.4004277"><ele>301.0</ele><time>2026-04-12T07:17:20.592Z</time></trkpt><trkpt lat="45.0316703" lon="1.4005753"><ele>301.0</ele><time>2026-04-12T07:17:21.592Z</time></trkpt><trkpt lat="45.0317065" lon="1.4007346"><ele>301.0</ele><time>2026-04-12T07:17:22.592Z</time></trkpt><trkpt lat="45.0317201" lon="1.4008949"><ele>301.0</ele><time>2026-04-12T07:17:23.592Z</time></trkpt><trkpt lat="45.0316868" lon="1.4010627"><ele>301.0</ele><time>2026-04-12T07:17:24.591Z</time></trkpt><trkpt lat="45.0316188" lon="1.4012259"><ele>302.66666666666663</ele><time>2026-04-12T07:17:25.592Z</time></trkpt><trkpt lat="45.0315323" lon="1.4013967"><ele>304.3333333333333</ele><time>2026-04-12T07:17:26.592Z</time></trkpt><trkpt lat="45.031442" lon="1.4015821"><ele>306.0</ele><time>2026-04-12T07:17:27.592Z</time></trkpt><trkpt lat="45.0313427" lon="1.4017744"><ele>306.0</ele><time>2026-04-12T07:17:28.592Z</time></trkpt><trkpt lat="45.0312384" lon="1.4019679"><ele>306.0</ele><time>2026-04-12T07:17:29.592Z</time></trkpt><trkpt lat="45.0311328" lon="1.4021573"><ele>306.0</ele><time>2026-04-12T07:17:30.592Z</time></trkpt><trkpt lat="45.031034" lon="1.4023503"><ele>305.6666666666667</ele><time>2026-04-12T07:17:31.592Z</time></trkpt><trkpt lat="45.0309438" lon="1.4025418"><ele>305.33333333333337</ele><time>2026-04-12T07:17:32.592Z</time></trkpt><trkpt lat="45.0308657" lon="1.402735"><ele>305.0</ele><time>2026-04-12T07:17:33.592Z</time></trkpt><trkpt lat="45.0307948" lon="1.4029177"><ele>303.75</ele><time>2026-04-12T07:17:34.591Z</time></trkpt><trkpt lat="45.0307155" lon="1.4030832"><ele>302.5</ele><time>2026-04-12T07:17:35.592Z</time></trkpt><trkpt lat="45.0306293" lon="1.403223"><ele>301.25</ele><time>2026-04-12T07:17:36.592Z</time></trkpt><trkpt lat="45.0305323" lon="1.4033263"><ele>300.0</ele><time>2026-04-12T07:17:37.593Z</time></trkpt><trkpt lat="45.0304087" lon="1.4034011"><ele>300.0</ele><time>2026-04-12T07:17:38.593Z</time></trkpt><trkpt lat="45.0302576" lon="1.4034424"><ele>300.0</ele><time>2026-04-12T07:17:39.592Z</time></trkpt><trkpt lat="45.0301081" lon="1.4034987"><ele>300.0</ele><time>2026-04-12T07:17:40.593Z</time></trkpt><trkpt lat="45.0299001" lon="1.4035759"><ele>299.5</ele><time>2026-04-12T07:17:41.592Z</time></trkpt><trkpt lat="45.0296981" lon="1.4036511"><ele>299.0</ele><time>2026-04-12T07:17:42.593Z</time></trkpt><trkpt lat="45.0294637" lon="1.4037741"><ele>302.0</ele><time>2026-04-12T07:17:43.593Z</time></trkpt><trkpt lat="45.0292318" lon="1.4038982"><ele>305.0</ele><time>2026-04-12T07:17:44.594Z</time></trkpt><trkpt lat="45.028989" lon="1.4040343"><ele>305.0</ele><time>2026-04-12T07:17:45.593Z</time></trkpt><trkpt lat="45.0287757" lon="1.4041795"><ele>305.0</ele><time>2026-04-12T07:17:46.593Z</time></trkpt><trkpt lat="45.028577" lon="1.4043114"><ele>305.0</ele><time>2026-04-12T07:17:47.593Z</time></trkpt><trkpt lat="45.0283916" lon="1.4044286"><ele>305.0</ele><time>2026-04-12T07:17:48.593Z</time></trkpt><trkpt lat="45.0282104" lon="1.404522"><ele>305.0</ele><time>2026-04-12T07:17:49.593Z</time></trkpt><trkpt lat="45.0280322" lon="1.4045931"><ele>306.0</ele><time>2026-04-12T07:17:50.593Z</time></trkpt><trkpt lat="45.0278526" lon="1.4046427"><ele>307.0</ele><time>2026-04-12T07:17:51.592Z</time></trkpt><trkpt lat="45.0276271" lon="1.4046697"><ele>308.0</ele><time>2026-04-12T07:17:52.593Z</time></trkpt><trkpt lat="45.0274077" lon="1.4047023"><ele>311.0</ele><time>2026-04-12T07:17:53.593Z</time></trkpt><trkpt lat="45.0271851" lon="1.4047502"><ele>314.0</ele><time>2026-04-12T07:17:54.593Z</time></trkpt><trkpt lat="45.0269634" lon="1.4048068"><ele>314.0</ele><time>2026-04-12T07:17:55.593Z</time></trkpt><trkpt lat="45.0267296" lon="1.4049344"><ele>314.0</ele><time>2026-04-12T07:17:56.593Z</time></trkpt><trkpt lat="45.0265152" lon="1.4050293"><ele>316.0</ele><time>2026-04-12T07:17:57.593Z</time></trkpt><trkpt lat="45.0263218" lon="1.4051203"><ele>318.0</ele><time>2026-04-12T07:17:58.593Z</time></trkpt><trkpt lat="45.0261298" lon="1.4052077"><ele>320.0</ele><time>2026-04-12T07:17:59.592Z</time></trkpt><trkpt lat="45.0259356" lon="1.4052954"><ele>320.33333333333337</ele><time>2026-04-12T07:18:00.593Z</time></trkpt><trkpt lat="45.0257254" lon="1.4053665"><ele>320.6666666666667</ele><time>2026-04-12T07:18:01.593Z</time></trkpt><trkpt lat="45.0255432" lon="1.4054474"><ele>321.0</ele><time>2026-04-12T07:18:02.593Z</time></trkpt><trkpt lat="45.0253644" lon="1.4055191"><ele>321.0</ele><time>2026-04-12T07:18:03.593Z</time></trkpt><trkpt lat="45.025186" lon="1.4056015"><ele>321.0</ele><time>2026-04-12T07:18:04.593Z</time></trkpt><trkpt lat="45.0250121" lon="1.4056835"><ele>321.0</ele><time>2026-04-12T07:18:05.592Z</time></trkpt><trkpt lat="45.0248557" lon="1.4057517"><ele>323.6666666666667</ele><time>2026-04-12T07:18:06.593Z</time></trkpt><trkpt lat="45.024699" lon="1.4058174"><ele>326.33333333333337</ele><time>2026-04-12T07:18:07.592Z</time></trkpt><trkpt lat="45.0245544" lon="1.405839"><ele>329.0</ele><time>2026-04-12T07:18:08.594Z</time></trkpt><trkpt lat="45.0244213" lon="1.4057164"><ele>329.0</ele><time>2026-04-12T07:18:09.594Z</time></trkpt><trkpt lat="45.0242938" lon="1.4056496"><ele>329.0</ele><time>2026-04-12T07:18:10.593Z</time></trkpt><trkpt lat="45.0241316" lon="1.4055473"><ele>329.0</ele><time>2026-04-12T07:18:11.593Z</time></trkpt><trkpt lat="45.0239588" lon="1.405441"><ele>330.0</ele><time>2026-04-12T07:18:12.593Z</time></trkpt><trkpt lat="45.0238064" lon="1.4053496"><ele>331.0</ele><time>2026-04-12T07:18:13.594Z</time></trkpt><trkpt lat="45.023663" lon="1.4053055"><ele>332.0</ele><time>2026-04-12T07:18:14.593Z</time></trkpt><trkpt lat="45.0235109" lon="1.405296"><ele>332.0</ele><time>2026-04-12T07:18:15.592Z</time></trkpt><trkpt lat="45.0233508" lon="1.4052888"><ele>332.0</ele><time>2026-04-12T07:18:16.593Z</time></trkpt><trkpt lat="45.0231834" lon="1.405292"><ele>332.0</ele><time>2026-04-12T07:18:17.593Z</time></trkpt><trkpt lat="45.0229842" lon="1.4053444"><ele>333.25</ele><time>2026-04-12T07:18:18.593Z</time></trkpt><trkpt lat="45.0228422" lon="1.4053597"><ele>334.5</ele><time>2026-04-12T07:18:19.592Z</time></trkpt><trkpt lat="45.0226888" lon="1.4053718"><ele>335.75</ele><time>2026-04-12T07:18:20.593Z</time></trkpt><trkpt lat="45.0225626" lon="1.4052806"><ele>337.0</ele><time>2026-04-12T07:18:21.593Z</time></trkpt><trkpt lat="45.0224182" lon="1.4052305"><ele>339.0</ele><time>2026-04-12T07:18:22.593Z</time></trkpt><trkpt lat="45.0222848" lon="1.4051905"><ele>341.0</ele><time>2026-04-12T07:18:23.592Z</time></trkpt><trkpt lat="45.0221565" lon="1.4051467"><ele>343.0</ele><time>2026-04-12T07:18:24.594Z</time></trkpt><trkpt lat="45.0220685" lon="1.4052318"><ele>345.0</ele><time>2026-04-12T07:18:25.594Z</time></trkpt><trkpt lat="45.0219689" lon="1.4052673"><ele>345.0</ele><time>2026-04-12T07:18:26.593Z</time></trkpt><trkpt lat="45.0218532" lon="1.4053133"><ele>345.0</ele><time>2026-04-12T07:18:27.593Z</time></trkpt><trkpt lat="45.0217427" lon="1.4053448"><ele>345.0</ele><time>2026-04-12T07:18:28.593Z</time></trkpt><trkpt lat="45.0216416" lon="1.4053595"><ele>345.0</ele><time>2026-04-12T07:18:29.594Z</time></trkpt><trkpt lat="45.0215442" lon="1.4053722"><ele>345.0</ele><time>2026-04-12T07:18:30.593Z</time></trkpt><trkpt lat="45.0214552" lon="1.4053607"><ele>345.6</ele><time>2026-04-12T07:18:31.593Z</time></trkpt><trkpt lat="45.0213681" lon="1.4053613"><ele>346.2</ele><time>2026-04-12T07:18:32.593Z</time></trkpt><trkpt lat="45.0212696" lon="1.4053601"><ele>346.79999999999995</ele><time>2026-04-12T07:18:34.593Z</time></trkpt><trkpt lat="45.0211942" lon="1.4053617"><ele>347.4</ele><time>2026-04-12T07:18:37.593Z</time></trkpt><trkpt lat="45.0211101" lon="1.4053318"><ele>348.0</ele><time>2026-04-12T07:18:40.592Z</time></trkpt><trkpt lat="45.0209944" lon="1.4053012"><ele>348.0</ele><time>2026-04-12T07:18:42.593Z</time></trkpt><trkpt lat="45.0208923" lon="1.4053364"><ele>348.0</ele><time>2026-04-12T07:18:43.592Z</time></trkpt><trkpt lat="45.0207673" lon="1.4053876"><ele>348.0</ele><time>2026-04-12T07:18:44.593Z</time></trkpt><trkpt lat="45.0206396" lon="1.4054131"><ele>348.0</ele><time>2026-04-12T07:18:45.593Z</time></trkpt><trkpt lat="45.0205162" lon="1.4054631"><ele>345.25</ele><time>2026-04-12T07:18:46.593Z</time></trkpt><trkpt lat="45.0203872" lon="1.4055289"><ele>342.5</ele><time>2026-04-12T07:18:47.594Z</time></trkpt><trkpt lat="45.0202543" lon="1.4055879"><ele>339.75</ele><time>2026-04-12T07:18:48.593Z</time></trkpt><trkpt lat="45.0201206" lon="1.4056442"><ele>337.0</ele><time>2026-04-12T07:18:49.593Z</time></trkpt><trkpt lat="45.0199895" lon="1.4057188"><ele>335.25</ele><time>2026-04-12T07:18:50.593Z</time></trkpt><trkpt lat="45.0198565" lon="1.4057964"><ele>333.5</ele><time>2026-04-12T07:18:51.593Z</time></trkpt><trkpt lat="45.019738" lon="1.4058872"><ele>331.75</ele><time>2026-04-12T07:18:52.593Z</time></trkpt><trkpt lat="45.0196114" lon="1.4059623"><ele>330.0</ele><time>2026-04-12T07:18:53.593Z</time></trkpt><trkpt lat="45.0194817" lon="1.4059865"><ele>330.0</ele><time>2026-04-12T07:18:54.593Z</time></trkpt><trkpt lat="45.0193466" lon="1.405988"><ele>330.0</ele><time>2026-04-12T07:18:55.593Z</time></trkpt><trkpt lat="45.0192197" lon="1.4059727"><ele>330.0</ele><time>2026-04-12T07:18:56.593Z</time></trkpt><trkpt lat="45.0190888" lon="1.4059566"><ele>330.0</ele><time>2026-04-12T07:18:57.594Z</time></trkpt><trkpt lat="45.0189678" lon="1.4058939"><ele>329.5</ele><time>2026-04-12T07:18:58.593Z</time></trkpt><trkpt lat="45.0188469" lon="1.4057762"><ele>329.0</ele><time>2026-04-12T07:18:59.593Z</time></trkpt><trkpt lat="45.0187175" lon="1.405681"><ele>328.5</ele><time>2026-04-12T07:19:00.593Z</time></trkpt><trkpt lat="45.0185862" lon="1.4056017"><ele>328.0</ele><time>2026-04-12T07:19:01.593Z</time></trkpt><trkpt lat="45.018454" lon="1.4055476"><ele>328.5</ele><time>2026-04-12T07:19:02.593Z</time></trkpt><trkpt lat="45.0183235" lon="1.4054897"><ele>329.0</ele><time>2026-04-12T07:19:03.593Z</time></trkpt><trkpt lat="45.0181794" lon="1.4054251"><ele>329.5</ele><time>2026-04-12T07:19:04.593Z</time></trkpt><trkpt lat="45.0180415" lon="1.4053697"><ele>330.0</ele><time>2026-04-12T07:19:05.593Z</time></trkpt><trkpt lat="45.0178599" lon="1.4054152"><ele>328.25</ele><time>2026-04-12T07:19:06.593Z</time></trkpt><trkpt lat="45.0177033" lon="1.4054219"><ele>326.5</ele><time>2026-04-12T07:19:07.593Z</time></trkpt><trkpt lat="45.0175602" lon="1.4054524"><ele>324.75</ele><time>2026-04-12T07:19:08.593Z</time></trkpt><trkpt lat="45.0174268" lon="1.4054813"><ele>323.0</ele><time>2026-04-12T07:19:09.594Z</time></trkpt><trkpt lat="45.0172847" lon="1.4055208"><ele>320.33333333333337</ele><time>2026-04-12T07:19:10.593Z</time></trkpt><trkpt lat="45.0171285" lon="1.4056078"><ele>317.6666666666667</ele><time>2026-04-12T07:19:11.592Z</time></trkpt><trkpt lat="45.0169818" lon="1.4056717"><ele>315.0</ele><time>2026-04-12T07:19:12.592Z</time></trkpt><trkpt lat="45.0168569" lon="1.4057896"><ele>315.0</ele><time>2026-04-12T07:19:13.593Z</time></trkpt><trkpt lat="45.0167245" lon="1.4059528"><ele>315.0</ele><time>2026-04-12T07:19:14.592Z</time></trkpt><trkpt lat="45.0166018" lon="1.4060857"><ele>315.0</ele><time>2026-04-12T07:19:15.593Z</time></trkpt><trkpt lat="45.0164864" lon="1.4062057"><ele>315.0</ele><time>2026-04-12T07:19:16.594Z</time></trkpt><trkpt lat="45.016379" lon="1.4063246"><ele>315.0</ele><time>2026-04-12T07:19:17.593Z</time></trkpt><trkpt lat="45.0162474" lon="1.4064357"><ele>315.0</ele><time>2026-04-12T07:19:18.593Z</time></trkpt><trkpt lat="45.0161453" lon="1.4065298"><ele>315.0</ele><time>2026-04-12T07:19:19.593Z</time></trkpt><trkpt lat="45.0160161" lon="1.4065657"><ele>315.0</ele><time>2026-04-12T07:19:21.592Z</time></trkpt><trkpt lat="45.0159166" lon="1.406481"><ele>315.0</ele><time>2026-04-12T07:19:22.593Z</time></trkpt><trkpt lat="45.0158367" lon="1.4063616"><ele>315.0</ele><time>2026-04-12T07:19:23.593Z</time></trkpt><trkpt lat="45.015764" lon="1.4061824"><ele>315.0</ele><time>2026-04-12T07:19:24.592Z</time></trkpt><trkpt lat="45.0157076" lon="1.4060283"><ele>313.25</ele><time>2026-04-12T07:19:25.593Z</time></trkpt><trkpt lat="45.0156445" lon="1.4058808"><ele>311.5</ele><time>2026-04-12T07:19:26.592Z</time></trkpt><trkpt lat="45.0155614" lon="1.4057517"><ele>309.75</ele><time>2026-04-12T07:19:27.593Z</time></trkpt><trkpt lat="45.0153691" lon="1.4057283"><ele>308.0</ele><time>2026-04-12T07:19:28.593Z</time></trkpt><trkpt lat="45.0151996" lon="1.4056269"><ele>308.0</ele><time>2026-04-12T07:19:29.593Z</time></trkpt><trkpt lat="45.015033" lon="1.4056092"><ele>308.0</ele><time>2026-04-12T07:19:30.593Z</time></trkpt><trkpt lat="45.01486" lon="1.4056323"><ele>308.0</ele><time>2026-04-12T07:19:31.594Z</time></trkpt><trkpt lat="45.0146774" lon="1.4056656"><ele>309.0</ele><time>2026-04-12T07:19:32.593Z</time></trkpt><trkpt lat="45.0144933" lon="1.4056785"><ele>310.0</ele><time>2026-04-12T07:19:33.593Z</time></trkpt><trkpt lat="45.0142963" lon="1.4056556"><ele>311.0</ele><time>2026-04-12T07:19:34.593Z</time></trkpt><trkpt lat="45.01408" lon="1.405607"><ele>313.0</ele><time>2026-04-12T07:19:35.593Z</time></trkpt><trkpt lat="45.0138447" lon="1.405553"><ele>315.0</ele><time>2026-04-12T07:19:36.594Z</time></trkpt><trkpt lat="45.0136407" lon="1.405504"><ele>317.0</ele><time>2026-04-12T07:19:37.593Z</time></trkpt><trkpt lat="45.0134829" lon="1.4054534"><ele>317.5</ele><time>2026-04-12T07:19:38.593Z</time></trkpt><trkpt lat="45.0133559" lon="1.4053848"><ele>318.0</ele><time>2026-04-12T07:19:39.594Z</time></trkpt><trkpt lat="45.0132278" lon="1.4052738"><ele>318.5</ele><time>2026-04-12T07:19:40.593Z</time></trkpt><trkpt lat="45.0131119" lon="1.4051815"><ele>319.0</ele><time>2026-04-12T07:19:41.593Z</time></trkpt><trkpt lat="45.0129994" lon="1.4051424"><ele>319.2</ele><time>2026-04-12T07:19:42.592Z</time></trkpt><trkpt lat="45.0128898" lon="1.4051313"><ele>319.4</ele><time>2026-04-12T07:19:43.593Z</time></trkpt><trkpt lat="45.0127904" lon="1.405143"><ele>319.6</ele><time>2026-04-12T07:19:44.593Z</time></trkpt><trkpt lat="45.0127035" lon="1.4051759"><ele>319.8</ele><time>2026-04-12T07:19:45.594Z</time></trkpt><trkpt lat="45.0126284" lon="1.4052271"><ele>320.0</ele><time>2026-04-12T07:19:46.593Z</time></trkpt><trkpt lat="45.0125618" lon="1.4052763"><ele>320.0</ele><time>2026-04-12T07:19:47.592Z</time></trkpt><trkpt lat="45.0125002" lon="1.4053263"><ele>320.0</ele><time>2026-04-12T07:19:48.592Z</time></trkpt><trkpt lat="45.012439" lon="1.4053802"><ele>320.0</ele><time>2026-04-12T07:19:49.594Z</time></trkpt><trkpt lat="45.0123718" lon="1.4054338"><ele>320.0</ele><time>2026-04-12T07:19:50.593Z</time></trkpt><trkpt lat="45.0122986" lon="1.4054849"><ele>320.0</ele><time>2026-04-12T07:19:51.593Z</time></trkpt><trkpt lat="45.0122239" lon="1.4055367"><ele>320.0</ele><time>2026-04-12T07:19:52.592Z</time></trkpt><trkpt lat="45.0121457" lon="1.4055872"><ele>319.6666666666667</ele><time>2026-04-12T07:19:53.594Z</time></trkpt><trkpt lat="45.0120663" lon="1.4056549"><ele>319.33333333333337</ele><time>2026-04-12T07:19:54.593Z</time></trkpt><trkpt lat="45.0119881" lon="1.4057064"><ele>319.0</ele><time>2026-04-12T07:19:55.593Z</time></trkpt><trkpt lat="45.0119077" lon="1.405735"><ele>318.6666666666667</ele><time>2026-04-12T07:19:56.592Z</time></trkpt><trkpt lat="45.0118248" lon="1.4057639"><ele>318.3333333333333</ele><time>2026-04-12T07:19:57.593Z</time></trkpt><trkpt lat="45.0117423" lon="1.4057833"><ele>318.0</ele><time>2026-04-12T07:19:58.593Z</time></trkpt><trkpt lat="45.0116569" lon="1.4058068"><ele>317.1666666666667</ele><time>2026-04-12T07:19:59.593Z</time></trkpt><trkpt lat="45.0115766" lon="1.4058466"><ele>316.3333333333333</ele><time>2026-04-12T07:20:00.594Z</time></trkpt><trkpt lat="45.0115052" lon="1.4058954"><ele>315.5</ele><time>2026-04-12T07:20:01.592Z</time></trkpt><trkpt lat="45.0114415" lon="1.4059569"><ele>314.66666666666663</ele><time>2026-04-12T07:20:02.593Z</time></trkpt><trkpt lat="45.0113815" lon="1.4060118"><ele>313.8333333333333</ele><time>2026-04-12T07:20:03.593Z</time></trkpt><trkpt lat="45.0112776" lon="1.4060069"><ele>313.0</ele><time>2026-04-12T07:20:05.593Z</time></trkpt><trkpt lat="45.0112229" lon="1.4058442"><ele>313.0</ele><time>2026-04-12T07:20:07.593Z</time></trkpt><trkpt lat="45.0112147" lon="1.4057265"><ele>313.0</ele><time>2026-04-12T07:20:08.593Z</time></trkpt><trkpt lat="45.0111961" lon="1.4056073"><ele>313.0</ele><time>2026-04-12T07:20:09.592Z</time></trkpt><trkpt lat="45.0111552" lon="1.4054982"><ele>313.0</ele><time>2026-04-12T07:20:10.593Z</time></trkpt><trkpt lat="45.0110803" lon="1.4054029"><ele>313.0</ele><time>2026-04-12T07:20:11.593Z</time></trkpt><trkpt lat="45.0109859" lon="1.4053146"><ele>312.25</ele><time>2026-04-12T07:20:12.593Z</time></trkpt><trkpt lat="45.0108787" lon="1.405221"><ele>311.5</ele><time>2026-04-12T07:20:13.592Z</time></trkpt><trkpt lat="45.0107718" lon="1.4051478"><ele>310.75</ele><time>2026-04-12T07:20:14.593Z</time></trkpt><trkpt lat="45.0106677" lon="1.4050661"><ele>310.0</ele><time>2026-04-12T07:20:15.593Z</time></trkpt><trkpt lat="45.0105607" lon="1.404987"><ele>309.8</ele><time>2026-04-12T07:20:16.593Z</time></trkpt><trkpt lat="45.0105498" lon="1.4048272"><ele>309.6</ele><time>2026-04-12T07:20:17.593Z</time></trkpt><trkpt lat="45.0105093" lon="1.4047175"><ele>309.4</ele><time>2026-04-12T07:20:18.594Z</time></trkpt><trkpt lat="45.0104497" lon="1.4046152"><ele>309.2</ele><time>2026-04-12T07:20:20.593Z</time></trkpt><trkpt lat="45.010355" lon="1.4046122"><ele>309.0</ele><time>2026-04-12T07:20:22.593Z</time></trkpt><trkpt lat="45.0102933" lon="1.404668"><ele>309.0</ele><time>2026-04-12T07:20:23.593Z</time></trkpt><trkpt lat="45.0102396" lon="1.4047638"><ele>309.0</ele><time>2026-04-12T07:20:24.593Z</time></trkpt><trkpt lat="45.0101974" lon="1.4048803"><ele>309.0</ele><time>2026-04-12T07:20:25.593Z</time></trkpt><trkpt lat="45.0101597" lon="1.4050073"><ele>309.0</ele><time>2026-04-12T07:20:26.592Z</time></trkpt><trkpt lat="45.0101181" lon="1.4051488"><ele>309.0</ele><time>2026-04-12T07:20:27.593Z</time></trkpt><trkpt lat="45.01007" lon="1.4052874"><ele>309.0</ele><time>2026-04-12T07:20:28.593Z</time></trkpt><trkpt lat="45.0100182" lon="1.4054345"><ele>309.0</ele><time>2026-04-12T07:20:29.592Z</time></trkpt><trkpt lat="45.0099462" lon="1.4055725"><ele>309.0</ele><time>2026-04-12T07:20:30.593Z</time></trkpt><trkpt lat="45.0098158" lon="1.4056401"><ele>309.0</ele><time>2026-04-12T07:20:31.593Z</time></trkpt><trkpt lat="45.0096844" lon="1.4056977"><ele>310.0</ele><time>2026-04-12T07:20:32.593Z</time></trkpt><trkpt lat="45.0095419" lon="1.405739"><ele>311.0</ele><time>2026-04-12T07:20:33.593Z</time></trkpt><trkpt lat="45.0093902" lon="1.4057767"><ele>312.0</ele><time>2026-04-12T07:20:34.593Z</time></trkpt><trkpt lat="45.0092365" lon="1.4058104"><ele>310.0</ele><time>2026-04-12T07:20:35.593Z</time></trkpt><trkpt lat="45.0090886" lon="1.405838"><ele>308.0</ele><time>2026-04-12T07:20:36.593Z</time></trkpt><trkpt lat="45.0089513" lon="1.4058464"><ele>306.0</ele><time>2026-04-12T07:20:37.592Z</time></trkpt><trkpt lat="45.0088223" lon="1.4058419"><ele>304.0</ele><time>2026-04-12T07:20:38.593Z</time></trkpt><trkpt lat="45.008716" lon="1.4058386"><ele>304.0</ele><time>2026-04-12T07:20:39.592Z</time></trkpt><trkpt lat="45.0086278" lon="1.4058591"><ele>304.0</ele><time>2026-04-12T07:20:40.593Z</time></trkpt><trkpt lat="45.0085622" lon="1.4059204"><ele>304.0</ele><time>2026-04-12T07:20:41.593Z</time></trkpt><trkpt lat="45.008522" lon="1.406001"><ele>304.0</ele><time>2026-04-12T07:20:42.593Z</time></trkpt><trkpt lat="45.0085059" lon="1.4061108"><ele>304.0</ele><time>2026-04-12T07:20:43.592Z</time></trkpt><trkpt lat="45.0085067" lon="1.4062539"><ele>304.0</ele><time>2026-04-12T07:20:44.593Z</time></trkpt><trkpt lat="45.0084999" lon="1.4064246"><ele>304.25</ele><time>2026-04-12T07:20:45.593Z</time></trkpt><trkpt lat="45.0084671" lon="1.4066071"><ele>304.5</ele><time>2026-04-12T07:20:46.593Z</time></trkpt><trkpt lat="45.0083986" lon="1.4067856"><ele>304.75</ele><time>2026-04-12T07:20:47.593Z</time></trkpt><trkpt lat="45.0082993" lon="1.4069495"><ele>305.0</ele><time>2026-04-12T07:20:48.593Z</time></trkpt><trkpt lat="45.008185" lon="1.4071158"><ele>305.33333333333337</ele><time>2026-04-12T07:20:49.593Z</time></trkpt><trkpt lat="45.0080622" lon="1.4072859"><ele>305.6666666666667</ele><time>2026-04-12T07:20:50.593Z</time></trkpt><trkpt lat="45.0079389" lon="1.4074593"><ele>306.0</ele><time>2026-04-12T07:20:51.593Z</time></trkpt><trkpt lat="45.0078221" lon="1.4076354"><ele>306.0</ele><time>2026-04-12T07:20:52.593Z</time></trkpt><trkpt lat="45.0077231" lon="1.4078326"><ele>306.0</ele><time>2026-04-12T07:20:53.593Z</time></trkpt><trkpt lat="45.0076449" lon="1.4080424"><ele>306.0</ele><time>2026-04-12T07:20:54.594Z</time></trkpt><trkpt lat="45.0075756" lon="1.40825"><ele>305.75</ele><time>2026-04-12T07:20:55.593Z</time></trkpt><trkpt lat="45.0074921" lon="1.4084323"><ele>305.5</ele><time>2026-04-12T07:20:56.592Z</time></trkpt><trkpt lat="45.0073862" lon="1.4085863"><ele>305.25</ele><time>2026-04-12T07:20:57.592Z</time></trkpt><trkpt lat="45.0072749" lon="1.4087101"><ele>305.0</ele><time>2026-04-12T07:20:58.593Z</time></trkpt><trkpt lat="45.0071615" lon="1.4088198"><ele>306.0</ele><time>2026-04-12T07:20:59.593Z</time></trkpt><trkpt lat="45.0070637" lon="1.4089321"><ele>307.0</ele><time>2026-04-12T07:21:00.593Z</time></trkpt><trkpt lat="45.0069719" lon="1.4090362"><ele>308.0</ele><time>2026-04-12T07:21:01.593Z</time></trkpt><trkpt lat="45.0068701" lon="1.4091056"><ele>309.0</ele><time>2026-04-12T07:21:02.594Z</time></trkpt><trkpt lat="45.0067393" lon="1.4091356"><ele>310.3333333333333</ele><time>2026-04-12T07:21:03.594Z</time></trkpt><trkpt lat="45.0065952" lon="1.4091553"><ele>311.66666666666663</ele><time>2026-04-12T07:21:04.592Z</time></trkpt><trkpt lat="45.0064361" lon="1.4091916"><ele>313.0</ele><time>2026-04-12T07:21:05.593Z</time></trkpt><trkpt lat="45.0062649" lon="1.4092271"><ele>313.0</ele><time>2026-04-12T07:21:06.593Z</time></trkpt><trkpt lat="45.0060985" lon="1.4092632"><ele>313.0</ele><time>2026-04-12T07:21:07.593Z</time></trkpt><trkpt lat="45.0059498" lon="1.4092897"><ele>313.0</ele><time>2026-04-12T07:21:08.593Z</time></trkpt><trkpt lat="45.0058088" lon="1.4093098"><ele>312.8</ele><time>2026-04-12T07:21:09.593Z</time></trkpt><trkpt lat="45.0056807" lon="1.4093248"><ele>312.6</ele><time>2026-04-12T07:21:10.593Z</time></trkpt><trkpt lat="45.005565" lon="1.4093516"><ele>312.4</ele><time>2026-04-12T07:21:11.593Z</time></trkpt><trkpt lat="45.0054763" lon="1.4093726"><ele>312.2</ele><time>2026-04-12T07:21:12.592Z</time></trkpt><trkpt lat="45.0054005" lon="1.4094062"><ele>312.0</ele><time>2026-04-12T07:21:13.593Z</time></trkpt><trkpt lat="45.0053268" lon="1.4094544"><ele>312.0</ele><time>2026-04-12T07:21:14.593Z</time></trkpt><trkpt lat="45.0052326" lon="1.4095075"><ele>312.0</ele><time>2026-04-12T07:21:15.593Z</time></trkpt><trkpt lat="45.0051255" lon="1.4095784"><ele>312.0</ele><time>2026-04-12T07:21:16.593Z</time></trkpt><trkpt lat="45.005005" lon="1.4096614"><ele>312.0</ele><time>2026-04-12T07:21:17.593Z</time></trkpt><trkpt lat="45.0048743" lon="1.4097582"><ele>313.3333333333333</ele><time>2026-04-12T07:21:18.593Z</time></trkpt><trkpt lat="45.0047314" lon="1.4098663"><ele>314.66666666666663</ele><time>2026-04-12T07:21:19.593Z</time></trkpt><trkpt lat="45.0045798" lon="1.4099863"><ele>316.0</ele><time>2026-04-12T07:21:20.595Z</time></trkpt><trkpt lat="45.0044357" lon="1.410108"><ele>316.0</ele><time>2026-04-12T07:21:21.594Z</time></trkpt><trkpt lat="45.0042918" lon="1.4102388"><ele>316.0</ele><time>2026-04-12T07:21:22.593Z</time></trkpt><trkpt lat="45.004162" lon="1.4103605"><ele>316.0</ele><time>2026-04-12T07:21:23.594Z</time></trkpt><trkpt lat="45.0040407" lon="1.4104814"><ele>317.5</ele><time>2026-04-12T07:21:24.594Z</time></trkpt><trkpt lat="45.0039193" lon="1.4105836"><ele>319.0</ele><time>2026-04-12T07:21:25.593Z</time></trkpt><trkpt lat="45.0037977" lon="1.4106851"><ele>320.5</ele><time>2026-04-12T07:21:26.594Z</time></trkpt><trkpt lat="45.0036752" lon="1.4107798"><ele>322.0</ele><time>2026-04-12T07:21:27.593Z</time></trkpt><trkpt lat="45.0035344" lon="1.4108886"><ele>322.0</ele><time>2026-04-12T07:21:28.594Z</time></trkpt><trkpt lat="45.0033838" lon="1.4109834"><ele>322.0</ele><time>2026-04-12T07:21:29.595Z</time></trkpt><trkpt lat="45.0032255" lon="1.4110603"><ele>322.0</ele><time>2026-04-12T07:21:30.594Z</time></trkpt><trkpt lat="45.003076" lon="1.4111145"><ele>322.5</ele><time>2026-04-12T07:21:31.594Z</time></trkpt><trkpt lat="45.0029347" lon="1.411172"><ele>323.0</ele><time>2026-04-12T07:21:32.594Z</time></trkpt><trkpt lat="45.0027979" lon="1.4112294"><ele>323.5</ele><time>2026-04-12T07:21:33.594Z</time></trkpt><trkpt lat="45.0026544" lon="1.4112463"><ele>324.0</ele><time>2026-04-12T07:21:34.594Z</time></trkpt><trkpt lat="45.0025045" lon="1.4112673"><ele>324.25</ele><time>2026-04-12T07:21:35.594Z</time></trkpt><trkpt lat="45.0023536" lon="1.4112971"><ele>324.5</ele><time>2026-04-12T07:21:36.595Z</time></trkpt><trkpt lat="45.0022556" lon="1.4113609"><ele>324.75</ele><time>2026-04-12T07:21:37.594Z</time></trkpt><trkpt lat="45.0021293" lon="1.4114278"><ele>325.0</ele><time>2026-04-12T07:21:38.594Z</time></trkpt><trkpt lat="45.0020204" lon="1.4115196"><ele>325.0</ele><time>2026-04-12T07:21:39.594Z</time></trkpt><trkpt lat="45.001984" lon="1.4116897"><ele>325.0</ele><time>2026-04-12T07:21:40.594Z</time></trkpt><trkpt lat="45.0018902" lon="1.4117774"><ele>325.0</ele><time>2026-04-12T07:21:41.595Z</time></trkpt><trkpt lat="45.0017999" lon="1.4117364"><ele>325.0</ele><time>2026-04-12T07:21:42.594Z</time></trkpt><trkpt lat="45.0017058" lon="1.4117291"><ele>325.0</ele><time>2026-04-12T07:21:43.594Z</time></trkpt><trkpt lat="45.0016158" lon="1.4117593"><ele>325.4</ele><time>2026-04-12T07:21:44.594Z</time></trkpt><trkpt lat="45.001534" lon="1.4118026"><ele>325.8</ele><time>2026-04-12T07:21:45.594Z</time></trkpt><trkpt lat="45.0014521" lon="1.411857"><ele>326.20000000000005</ele><time>2026-04-12T07:21:46.593Z</time></trkpt><trkpt lat="45.0013644" lon="1.4119274"><ele>326.6</ele><time>2026-04-12T07:21:47.594Z</time></trkpt><trkpt lat="45.0012718" lon="1.412005"><ele>327.0</ele><time>2026-04-12T07:21:48.594Z</time></trkpt><trkpt lat="45.0011818" lon="1.4120759"><ele>327.0</ele><time>2026-04-12T07:21:49.594Z</time></trkpt><trkpt lat="45.0010914" lon="1.4121503"><ele>327.0</ele><time>2026-04-12T07:21:50.594Z</time></trkpt><trkpt lat="45.0009774" lon="1.4122276"><ele>327.0</ele><time>2026-04-12T07:21:51.593Z</time></trkpt><trkpt lat="45.0008634" lon="1.4123065"><ele>327.0</ele><time>2026-04-12T07:21:52.593Z</time></trkpt><trkpt lat="45.0007434" lon="1.4123975"><ele>327.75</ele><time>2026-04-12T07:21:53.594Z</time></trkpt><trkpt lat="45.0006175" lon="1.4124839"><ele>328.5</ele><time>2026-04-12T07:21:54.594Z</time></trkpt><trkpt lat="45.0004941" lon="1.4125587"><ele>329.25</ele><time>2026-04-12T07:21:55.594Z</time></trkpt><trkpt lat="45.0003591" lon="1.4126506"><ele>330.0</ele><time>2026-04-12T07:21:56.594Z</time></trkpt><trkpt lat="45.0002293" lon="1.4127429"><ele>330.0</ele><time>2026-04-12T07:21:57.594Z</time></trkpt><trkpt lat="45.000102" lon="1.4128341"><ele>330.0</ele><time>2026-04-12T07:21:58.595Z</time></trkpt><trkpt lat="44.9999891" lon="1.41291"><ele>330.0</ele><time>2026-04-12T07:21:59.594Z</time></trkpt><trkpt lat="44.9998899" lon="1.4130038"><ele>330.0</ele><time>2026-04-12T07:22:00.594Z</time></trkpt><trkpt lat="44.999796" lon="1.4131066"><ele>330.5</ele><time>2026-04-12T07:22:01.593Z</time></trkpt><trkpt lat="44.9996894" lon="1.4131821"><ele>331.0</ele><time>2026-04-12T07:22:02.594Z</time></trkpt><trkpt lat="44.9995881" lon="1.4132536"><ele>331.5</ele><time>2026-04-12T07:22:03.594Z</time></trkpt><trkpt lat="44.9994872" lon="1.4133312"><ele>332.0</ele><time>2026-04-12T07:22:04.594Z</time></trkpt><trkpt lat="44.9994032" lon="1.4134275"><ele>332.0</ele><time>2026-04-12T07:22:05.595Z</time></trkpt><trkpt lat="44.9993242" lon="1.4135107"><ele>332.0</ele><time>2026-04-12T07:22:06.594Z</time></trkpt><trkpt lat="44.9992402" lon="1.4135913"><ele>332.0</ele><time>2026-04-12T07:22:07.594Z</time></trkpt><trkpt lat="44.9991686" lon="1.4136349"><ele>332.0</ele><time>2026-04-12T07:22:08.593Z</time></trkpt><trkpt lat="44.9990964" lon="1.4136693"><ele>332.0</ele><time>2026-04-12T07:22:09.593Z</time></trkpt><trkpt lat="44.9990271" lon="1.4136885"><ele>332.0</ele><time>2026-04-12T07:22:10.594Z</time></trkpt><trkpt lat="44.9989581" lon="1.4136998"><ele>332.5</ele><time>2026-04-12T07:22:11.594Z</time></trkpt><trkpt lat="44.9988814" lon="1.4137298"><ele>333.0</ele><time>2026-04-12T07:22:12.594Z</time></trkpt><trkpt lat="44.9988003" lon="1.4137441"><ele>333.5</ele><time>2026-04-12T07:22:13.594Z</time></trkpt><trkpt lat="44.9987168" lon="1.4137398"><ele>334.0</ele><time>2026-04-12T07:22:14.595Z</time></trkpt><trkpt lat="44.998636" lon="1.4137414"><ele>334.5</ele><time>2026-04-12T07:22:15.593Z</time></trkpt><trkpt lat="44.9985585" lon="1.4137411"><ele>335.0</ele><time>2026-04-12T07:22:16.594Z</time></trkpt><trkpt lat="44.998491" lon="1.4137168"><ele>335.0</ele><time>2026-04-12T07:22:17.594Z</time></trkpt><trkpt lat="44.9984188" lon="1.4136975"><ele>335.0</ele><time>2026-04-12T07:22:18.595Z</time></trkpt><trkpt lat="44.9983394" lon="1.4136952"><ele>335.0</ele><time>2026-04-12T07:22:19.594Z</time></trkpt><trkpt lat="44.9982478" lon="1.4136944"><ele>335.0</ele><time>2026-04-12T07:22:20.594Z</time></trkpt><trkpt lat="44.9981461" lon="1.4137066"><ele>335.0</ele><time>2026-04-12T07:22:21.594Z</time></trkpt><trkpt lat="44.9980558" lon="1.4137168"><ele>335.0</ele><time>2026-04-12T07:22:22.594Z</time></trkpt><trkpt lat="44.9979724" lon="1.4137958"><ele>335.33333333333337</ele><time>2026-04-12T07:22:23.595Z</time></trkpt><trkpt lat="44.9978943" lon="1.4138591"><ele>335.6666666666667</ele><time>2026-04-12T07:22:24.594Z</time></trkpt><trkpt lat="44.9978025" lon="1.4139065"><ele>336.0</ele><time>2026-04-12T07:22:25.594Z</time></trkpt><trkpt lat="44.9976981" lon="1.4139291"><ele>336.3333333333333</ele><time>2026-04-12T07:22:26.593Z</time></trkpt><trkpt lat="44.9976254" lon="1.4139173"><ele>336.66666666666663</ele><time>2026-04-12T07:22:27.594Z</time></trkpt><trkpt lat="44.9975465" lon="1.4139058"><ele>337.0</ele><time>2026-04-12T07:22:28.594Z</time></trkpt><trkpt lat="44.9974443" lon="1.413846"><ele>337.40000000000003</ele><time>2026-04-12T07:22:29.593Z</time></trkpt><trkpt lat="44.9973474" lon="1.4138017"><ele>337.8</ele><time>2026-04-12T07:22:30.594Z</time></trkpt><trkpt lat="44.9972422" lon="1.4137599"><ele>338.2</ele><time>2026-04-12T07:22:31.594Z</time></trkpt><trkpt lat="44.9971338" lon="1.4137099"><ele>338.6</ele><time>2026-04-12T07:22:32.594Z</time></trkpt><trkpt lat="44.9970308" lon="1.4136486"><ele>339.0</ele><time>2026-04-12T07:22:33.594Z</time></trkpt><trkpt lat="44.9969209" lon="1.4136028"><ele>339.0</ele><time>2026-04-12T07:22:34.594Z</time></trkpt><trkpt lat="44.996818" lon="1.4135771"><ele>339.0</ele><time>2026-04-12T07:22:35.594Z</time></trkpt><trkpt lat="44.996731" lon="1.4135521"><ele>339.0</ele><time>2026-04-12T07:22:36.594Z</time></trkpt><trkpt lat="44.9966013" lon="1.413694"><ele>339.0</ele><time>2026-04-12T07:22:37.594Z</time></trkpt><trkpt lat="44.9964954" lon="1.4137742"><ele>338.5</ele><time>2026-04-12T07:22:38.595Z</time></trkpt><trkpt lat="44.9963943" lon="1.413841"><ele>338.0</ele><time>2026-04-12T07:22:39.594Z</time></trkpt><trkpt lat="44.9962758" lon="1.4138989"><ele>337.5</ele><time>2026-04-12T07:22:40.593Z</time></trkpt><trkpt lat="44.9961605" lon="1.4139361"><ele>337.0</ele><time>2026-04-12T07:22:41.595Z</time></trkpt><trkpt lat="44.9960469" lon="1.4139579"><ele>337.0</ele><time>2026-04-12T07:22:42.594Z</time></trkpt><trkpt lat="44.9959255" lon="1.4139824"><ele>337.0</ele><time>2026-04-12T07:22:43.594Z</time></trkpt><trkpt lat="44.9958444" lon="1.4139649"><ele>337.0</ele><time>2026-04-12T07:22:44.594Z</time></trkpt><trkpt lat="44.9957578" lon="1.413975"><ele>337.0</ele><time>2026-04-12T07:22:45.594Z</time></trkpt><trkpt lat="44.9956816" lon="1.4139738"><ele>337.0</ele><time>2026-04-12T07:22:46.594Z</time></trkpt><trkpt lat="44.9955919" lon="1.4139641"><ele>337.20000000000005</ele><time>2026-04-12T07:22:47.594Z</time></trkpt><trkpt lat="44.9954999" lon="1.4139433"><ele>337.4</ele><time>2026-04-12T07:22:48.594Z</time></trkpt><trkpt lat="44.9954189" lon="1.4139468"><ele>337.6</ele><time>2026-04-12T07:22:49.594Z</time></trkpt><trkpt lat="44.9952893" lon="1.4140299"><ele>337.79999999999995</ele><time>2026-04-12T07:22:51.594Z</time></trkpt><trkpt lat="44.9952174" lon="1.4140687"><ele>338.0</ele><time>2026-04-12T07:22:52.594Z</time></trkpt><trkpt lat="44.995148" lon="1.4141251"><ele>338.0</ele><time>2026-04-12T07:22:53.594Z</time></trkpt><trkpt lat="44.9950782" lon="1.4141911"><ele>338.0</ele><time>2026-04-12T07:22:54.595Z</time></trkpt><trkpt lat="44.9949927" lon="1.4142655"><ele>338.0</ele><time>2026-04-12T07:22:55.594Z</time></trkpt><trkpt lat="44.9949025" lon="1.4143365"><ele>338.0</ele><time>2026-04-12T07:22:56.593Z</time></trkpt><trkpt lat="44.9948173" lon="1.4143776"><ele>338.0</ele><time>2026-04-12T07:22:57.594Z</time></trkpt><trkpt lat="44.9947279" lon="1.414451"><ele>337.75</ele><time>2026-04-12T07:22:58.593Z</time></trkpt><trkpt lat="44.9946453" lon="1.4145824"><ele>337.5</ele><time>2026-04-12T07:22:59.594Z</time></trkpt><trkpt lat="44.9945602" lon="1.4146966"><ele>337.25</ele><time>2026-04-12T07:23:00.594Z</time></trkpt><trkpt lat="44.9944777" lon="1.4148265"><ele>337.0</ele><time>2026-04-12T07:23:01.593Z</time></trkpt><trkpt lat="44.9943838" lon="1.4149523"><ele>336.8</ele><time>2026-04-12T07:23:02.594Z</time></trkpt><trkpt lat="44.9942941" lon="1.4150686"><ele>336.6</ele><time>2026-04-12T07:23:03.593Z</time></trkpt><trkpt lat="44.9942197" lon="1.4151707"><ele>336.40000000000003</ele><time>2026-04-12T07:23:04.594Z</time></trkpt><trkpt lat="44.9941334" lon="1.4152517"><ele>336.20000000000005</ele><time>2026-04-12T07:23:05.593Z</time></trkpt><trkpt lat="44.994049" lon="1.4153213"><ele>336.0</ele><time>2026-04-12T07:23:06.594Z</time></trkpt><trkpt lat="44.9939497" lon="1.4153792"><ele>335.6</ele><time>2026-04-12T07:23:07.594Z</time></trkpt><trkpt lat="44.9938505" lon="1.4154143"><ele>335.20000000000005</ele><time>2026-04-12T07:23:08.594Z</time></trkpt><trkpt lat="44.9937545" lon="1.4154435"><ele>334.79999999999995</ele><time>2026-04-12T07:23:09.594Z</time></trkpt><trkpt lat="44.9936578" lon="1.4154906"><ele>334.4</ele><time>2026-04-12T07:23:10.594Z</time></trkpt><trkpt lat="44.9935879" lon="1.4155398"><ele>334.0</ele><time>2026-04-12T07:23:11.593Z</time></trkpt><trkpt lat="44.9935007" lon="1.4155705"><ele>334.0</ele><time>2026-04-12T07:23:13.594Z</time></trkpt><trkpt lat="44.9934057" lon="1.4155292"><ele>334.0</ele><time>2026-04-12T07:23:16.594Z</time></trkpt><trkpt lat="44.9933182" lon="1.415407"><ele>334.0</ele><time>2026-04-12T07:23:18.593Z</time></trkpt><trkpt lat="44.9932845" lon="1.4153278"><ele>334.0</ele><time>2026-04-12T07:23:19.594Z</time></trkpt><trkpt lat="44.9932391" lon="1.4152524"><ele>334.0</ele><time>2026-04-12T07:23:20.594Z</time></trkpt><trkpt lat="44.9931889" lon="1.4151748"><ele>334.0</ele><time>2026-04-12T07:23:21.593Z</time></trkpt><trkpt lat="44.9931262" lon="1.4151341"><ele>333.6</ele><time>2026-04-12T07:23:22.593Z</time></trkpt><trkpt lat="44.9930496" lon="1.4151174"><ele>333.2</ele><time>2026-04-12T07:23:23.594Z</time></trkpt><trkpt lat="44.9929664" lon="1.4151241"><ele>332.8</ele><time>2026-04-12T07:23:24.593Z</time></trkpt><trkpt lat="44.9928812" lon="1.4151358"><ele>332.40000000000003</ele><time>2026-04-12T07:23:25.593Z</time></trkpt><trkpt lat="44.9927869" lon="1.4151527"><ele>332.0</ele><time>2026-04-12T07:23:26.593Z</time></trkpt><trkpt lat="44.9926712" lon="1.4151788"><ele>332.0</ele><time>2026-04-12T07:23:27.594Z</time></trkpt><trkpt lat="44.9925729" lon="1.4152099"><ele>332.0</ele><time>2026-04-12T07:23:28.595Z</time></trkpt><trkpt lat="44.9924738" lon="1.4152376"><ele>332.0</ele><time>2026-04-12T07:23:29.594Z</time></trkpt><trkpt lat="44.9923939" lon="1.4152626"><ele>332.0</ele><time>2026-04-12T07:23:30.593Z</time></trkpt><trkpt lat="44.9923007" lon="1.41529"><ele>332.0</ele><time>2026-04-12T07:23:31.594Z</time></trkpt><trkpt lat="44.9922101" lon="1.415311"><ele>332.0</ele><time>2026-04-12T07:23:32.594Z</time></trkpt><trkpt lat="44.9921043" lon="1.4153224"><ele>332.0</ele><time>2026-04-12T07:23:33.593Z</time></trkpt><trkpt lat="44.9920011" lon="1.415308"><ele>332.0</ele><time>2026-04-12T07:23:34.594Z</time></trkpt><trkpt lat="44.9919009" lon="1.4153364"><ele>332.0</ele><time>2026-04-12T07:23:35.594Z</time></trkpt><trkpt lat="44.9917987" lon="1.4153875"><ele>332.0</ele><time>2026-04-12T07:23:36.594Z</time></trkpt><trkpt lat="44.9916877" lon="1.4154312"><ele>332.40000000000003</ele><time>2026-04-12T07:23:37.594Z</time></trkpt><trkpt lat="44.9915762" lon="1.4154612"><ele>332.8</ele><time>2026-04-12T07:23:38.594Z</time></trkpt><trkpt lat="44.9914661" lon="1.415513"><ele>333.2</ele><time>2026-04-12T07:23:39.594Z</time></trkpt><trkpt lat="44.9913732" lon="1.4155521"><ele>333.6</ele><time>2026-04-12T07:23:40.594Z</time></trkpt><trkpt lat="44.9912819" lon="1.4156068"><ele>334.0</ele><time>2026-04-12T07:23:41.594Z</time></trkpt><trkpt lat="44.9911976" lon="1.4156706"><ele>334.4</ele><time>2026-04-12T07:23:42.593Z</time></trkpt><trkpt lat="44.9911244" lon="1.4157615"><ele>334.79999999999995</ele><time>2026-04-12T07:23:43.594Z</time></trkpt><trkpt lat="44.9910585" lon="1.4158405"><ele>335.20000000000005</ele><time>2026-04-12T07:23:44.594Z</time></trkpt><trkpt lat="44.9909813" lon="1.4159064"><ele>335.6</ele><time>2026-04-12T07:23:45.594Z</time></trkpt><trkpt lat="44.9908954" lon="1.4159396"><ele>336.0</ele><time>2026-04-12T07:23:46.594Z</time></trkpt><trkpt lat="44.9908058" lon="1.415965"><ele>336.20000000000005</ele><time>2026-04-12T07:23:47.594Z</time></trkpt><trkpt lat="44.9907128" lon="1.4159892"><ele>336.40000000000003</ele><time>2026-04-12T07:23:48.593Z</time></trkpt><trkpt lat="44.99062" lon="1.4160102"><ele>336.6</ele><time>2026-04-12T07:23:49.595Z</time></trkpt><trkpt lat="44.9905276" lon="1.4160166"><ele>336.8</ele><time>2026-04-12T07:23:50.594Z</time></trkpt><trkpt lat="44.9904247" lon="1.4160196"><ele>337.0</ele><time>2026-04-12T07:23:51.594Z</time></trkpt><trkpt lat="44.9903406" lon="1.4159754"><ele>337.0</ele><time>2026-04-12T07:23:52.594Z</time></trkpt><trkpt lat="44.9902523" lon="1.4159479"><ele>337.0</ele><time>2026-04-12T07:23:53.593Z</time></trkpt><trkpt lat="44.9901765" lon="1.4159204"><ele>337.0</ele><time>2026-04-12T07:23:54.595Z</time></trkpt><trkpt lat="44.9900477" lon="1.4159538"><ele>337.0</ele><time>2026-04-12T07:23:56.593Z</time></trkpt><trkpt lat="44.9899692" lon="1.4159825"><ele>337.0</ele><time>2026-04-12T07:23:57.594Z</time></trkpt><trkpt lat="44.9898747" lon="1.4160284"><ele>336.40000000000003</ele><time>2026-04-12T07:23:58.594Z</time></trkpt><trkpt lat="44.9897797" lon="1.4160701"><ele>335.8</ele><time>2026-04-12T07:23:59.594Z</time></trkpt><trkpt lat="44.9896866" lon="1.4161033"><ele>335.2</ele><time>2026-04-12T07:24:00.594Z</time></trkpt><trkpt lat="44.9895847" lon="1.4161487"><ele>334.6</ele><time>2026-04-12T07:24:01.594Z</time></trkpt><trkpt lat="44.9894797" lon="1.4161977"><ele>334.0</ele><time>2026-04-12T07:24:02.594Z</time></trkpt><trkpt lat="44.9893868" lon="1.4162547"><ele>334.0</ele><time>2026-04-12T07:24:03.595Z</time></trkpt><trkpt lat="44.9892831" lon="1.4163186"><ele>334.0</ele><time>2026-04-12T07:24:04.594Z</time></trkpt><trkpt lat="44.9891859" lon="1.4163893"><ele>334.0</ele><time>2026-04-12T07:24:05.594Z</time></trkpt><trkpt lat="44.9890992" lon="1.4164613"><ele>334.0</ele><time>2026-04-12T07:24:06.594Z</time></trkpt><trkpt lat="44.9890144" lon="1.4165343"><ele>334.0</ele><time>2026-04-12T07:24:07.594Z</time></trkpt><trkpt lat="44.9889629" lon="1.4165871"><ele>333.66666666666663</ele><time>2026-04-12T07:24:08.594Z</time></trkpt><trkpt lat="44.9889104" lon="1.4166391"><ele>333.3333333333333</ele><time>2026-04-12T07:24:09.594Z</time></trkpt><trkpt lat="44.9888481" lon="1.4166696"><ele>333.0</ele><time>2026-04-12T07:24:11.594Z</time></trkpt><trkpt lat="44.9888006" lon="1.4167459"><ele>332.6666666666667</ele><time>2026-04-12T07:24:14.594Z</time></trkpt><trkpt lat="44.9887492" lon="1.4168133"><ele>332.33333333333337</ele><time>2026-04-12T07:24:18.594Z</time></trkpt><trkpt lat="44.9887062" lon="1.4169045"><ele>332.0</ele><time>2026-04-12T07:24:21.594Z</time></trkpt><trkpt lat="44.9886835" lon="1.4170437"><ele>331.40000000000003</ele><time>2026-04-12T07:24:23.594Z</time></trkpt><trkpt lat="44.9886338" lon="1.4171533"><ele>330.8</ele><time>2026-04-12T07:24:24.594Z</time></trkpt><trkpt lat="44.9885897" lon="1.4172426"><ele>330.2</ele><time>2026-04-12T07:24:25.595Z</time></trkpt><trkpt lat="44.988534" lon="1.4173296"><ele>329.6</ele><time>2026-04-12T07:24:26.594Z</time></trkpt><trkpt lat="44.9884674" lon="1.4174444"><ele>329.0</ele><time>2026-04-12T07:24:27.594Z</time></trkpt><trkpt lat="44.9884057" lon="1.4175568"><ele>329.0</ele><time>2026-04-12T07:24:28.594Z</time></trkpt><trkpt lat="44.9883518" lon="1.4176775"><ele>329.0</ele><time>2026-04-12T07:24:29.594Z</time></trkpt><trkpt lat="44.9883056" lon="1.4177878"><ele>329.0</ele><time>2026-04-12T07:24:30.594Z</time></trkpt><trkpt lat="44.9882457" lon="1.4178768"><ele>329.0</ele><time>2026-04-12T07:24:31.594Z</time></trkpt><trkpt lat="44.988186" lon="1.4179486"><ele>329.0</ele><time>2026-04-12T07:24:32.594Z</time></trkpt><trkpt lat="44.9881077" lon="1.4179932"><ele>329.0</ele><time>2026-04-12T07:24:33.594Z</time></trkpt><trkpt lat="44.9880329" lon="1.4179974"><ele>329.33333333333337</ele><time>2026-04-12T07:24:34.594Z</time></trkpt><trkpt lat="44.9879592" lon="1.4180035"><ele>329.6666666666667</ele><time>2026-04-12T07:24:35.594Z</time></trkpt><trkpt lat="44.9878816" lon="1.4179644"><ele>330.0</ele><time>2026-04-12T07:24:36.594Z</time></trkpt><trkpt lat="44.9878023" lon="1.4179098"><ele>330.3333333333333</ele><time>2026-04-12T07:24:37.594Z</time></trkpt><trkpt lat="44.9877192" lon="1.4178499"><ele>330.66666666666663</ele><time>2026-04-12T07:24:38.595Z</time></trkpt><trkpt lat="44.9876372" lon="1.4177851"><ele>331.0</ele><time>2026-04-12T07:24:39.595Z</time></trkpt><trkpt lat="44.9875526" lon="1.4177518"><ele>330.75</ele><time>2026-04-12T07:24:40.595Z</time></trkpt><trkpt lat="44.9874409" lon="1.4177796"><ele>330.5</ele><time>2026-04-12T07:24:41.594Z</time></trkpt><trkpt lat="44.9873339" lon="1.4177814"><ele>330.25</ele><time>2026-04-12T07:24:42.594Z</time></trkpt><trkpt lat="44.9872166" lon="1.417784"><ele>330.0</ele><time>2026-04-12T07:24:43.594Z</time></trkpt><trkpt lat="44.9870787" lon="1.4177988"><ele>330.0</ele><time>2026-04-12T07:24:44.594Z</time></trkpt><trkpt lat="44.9869496" lon="1.4177854"><ele>330.0</ele><time>2026-04-12T07:24:45.595Z</time></trkpt><trkpt lat="44.9868199" lon="1.4177782"><ele>330.0</ele><time>2026-04-12T07:24:46.595Z</time></trkpt><trkpt lat="44.9866951" lon="1.4177675"><ele>330.0</ele><time>2026-04-12T07:24:47.594Z</time></trkpt><trkpt lat="44.9865881" lon="1.4177485"><ele>330.25</ele><time>2026-04-12T07:24:48.595Z</time></trkpt><trkpt lat="44.9864808" lon="1.4177555"><ele>330.5</ele><time>2026-04-12T07:24:49.596Z</time></trkpt><trkpt lat="44.9863655" lon="1.417822"><ele>330.75</ele><time>2026-04-12T07:24:50.594Z</time></trkpt><trkpt lat="44.986253" lon="1.4178527"><ele>331.0</ele><time>2026-04-12T07:24:51.594Z</time></trkpt><trkpt lat="44.9861313" lon="1.4178984"><ele>331.0</ele><time>2026-04-12T07:24:52.595Z</time></trkpt><trkpt lat="44.9859896" lon="1.4179623"><ele>331.0</ele><time>2026-04-12T07:24:53.595Z</time></trkpt><trkpt lat="44.985858" lon="1.4180055"><ele>331.0</ele><time>2026-04-12T07:24:54.594Z</time></trkpt><trkpt lat="44.9857369" lon="1.4180337"><ele>331.0</ele><time>2026-04-12T07:24:55.595Z</time></trkpt><trkpt lat="44.9856334" lon="1.4180959"><ele>331.25</ele><time>2026-04-12T07:24:56.595Z</time></trkpt><trkpt lat="44.9855416" lon="1.4181925"><ele>331.5</ele><time>2026-04-12T07:24:57.595Z</time></trkpt><trkpt lat="44.9854901" lon="1.4183332"><ele>331.75</ele><time>2026-04-12T07:24:58.595Z</time></trkpt><trkpt lat="44.9854165" lon="1.4184597"><ele>332.0</ele><time>2026-04-12T07:24:59.596Z</time></trkpt><trkpt lat="44.9853467" lon="1.4186024"><ele>332.0</ele><time>2026-04-12T07:25:00.594Z</time></trkpt><trkpt lat="44.9852904" lon="1.4187424"><ele>332.0</ele><time>2026-04-12T07:25:01.595Z</time></trkpt><trkpt lat="44.9852285" lon="1.4188639"><ele>332.0</ele><time>2026-04-12T07:25:02.595Z</time></trkpt><trkpt lat="44.9851748" lon="1.418954"><ele>332.0</ele><time>2026-04-12T07:25:03.594Z</time></trkpt><trkpt lat="44.9850891" lon="1.4190125"><ele>332.0</ele><time>2026-04-12T07:25:04.595Z</time></trkpt><trkpt lat="44.9849919" lon="1.41908"><ele>331.20000000000005</ele><time>2026-04-12T07:25:05.595Z</time></trkpt><trkpt lat="44.9848975" lon="1.4191246"><ele>330.4</ele><time>2026-04-12T07:25:06.595Z</time></trkpt><trkpt lat="44.9847975" lon="1.419144"><ele>329.6</ele><time>2026-04-12T07:25:07.596Z</time></trkpt><trkpt lat="44.9846982" lon="1.4191156"><ele>328.79999999999995</ele><time>2026-04-12T07:25:08.595Z</time></trkpt><trkpt lat="44.9846082" lon="1.4190534"><ele>328.0</ele><time>2026-04-12T07:25:09.595Z</time></trkpt><trkpt lat="44.9845257" lon="1.4189644"><ele>328.0</ele><time>2026-04-12T07:25:10.595Z</time></trkpt><trkpt lat="44.9844338" lon="1.4189057"><ele>328.0</ele><time>2026-04-12T07:25:11.595Z</time></trkpt><trkpt lat="44.9843474" lon="1.418852"><ele>328.0</ele><time>2026-04-12T07:25:12.596Z</time></trkpt><trkpt lat="44.9842608" lon="1.41879"><ele>328.0</ele><time>2026-04-12T07:25:13.596Z</time></trkpt><trkpt lat="44.9841886" lon="1.4187117"><ele>328.0</ele><time>2026-04-12T07:25:14.594Z</time></trkpt><trkpt lat="44.9841548" lon="1.4186224"><ele>326.16666666666663</ele><time>2026-04-12T07:25:15.595Z</time></trkpt><trkpt lat="44.9840964" lon="1.4185626"><ele>324.3333333333333</ele><time>2026-04-12T07:25:16.595Z</time></trkpt><trkpt lat="44.9840049" lon="1.418617"><ele>322.5</ele><time>2026-04-12T07:25:18.595Z</time></trkpt><trkpt lat="44.983937" lon="1.4185832"><ele>320.6666666666667</ele><time>2026-04-12T07:25:22.595Z</time></trkpt><trkpt lat="44.9838892" lon="1.4185178"><ele>318.83333333333337</ele><time>2026-04-12T07:25:26.595Z</time></trkpt><trkpt lat="44.9837981" lon="1.4184372"><ele>317.0</ele><time>2026-04-12T07:25:29.595Z</time></trkpt><trkpt lat="44.9837163" lon="1.4183864"><ele>317.0</ele><time>2026-04-12T07:25:31.594Z</time></trkpt><trkpt lat="44.9836341" lon="1.4183298"><ele>317.0</ele><time>2026-04-12T07:25:33.594Z</time></trkpt><trkpt lat="44.9835541" lon="1.4182823"><ele>317.0</ele><time>2026-04-12T07:25:35.596Z</time></trkpt><trkpt lat="44.9834746" lon="1.4182345"><ele>317.0</ele><time>2026-04-12T07:25:37.595Z</time></trkpt><trkpt lat="44.9833799" lon="1.4181966"><ele>317.0</ele><time>2026-04-12T07:25:39.594Z</time></trkpt><trkpt lat="44.9832817" lon="1.4181589"><ele>316.6</ele><time>2026-04-12T07:25:41.595Z</time></trkpt><trkpt lat="44.9831721" lon="1.4181127"><ele>316.2</ele><time>2026-04-12T07:25:43.595Z</time></trkpt><trkpt lat="44.983067" lon="1.4180375"><ele>315.8</ele><time>2026-04-12T07:25:45.595Z</time></trkpt><trkpt lat="44.9830099" lon="1.4179978"><ele>315.4</ele><time>2026-04-12T07:25:46.595Z</time></trkpt><trkpt lat="44.9829328" lon="1.4179504"><ele>315.0</ele><time>2026-04-12T07:25:47.594Z</time></trkpt><trkpt lat="44.9828511" lon="1.4179043"><ele>314.4</ele><time>2026-04-12T07:25:48.595Z</time></trkpt><trkpt lat="44.9827577" lon="1.4178603"><ele>313.8</ele><time>2026-04-12T07:25:49.595Z</time></trkpt><trkpt lat="44.982656" lon="1.417821"><ele>313.2</ele><time>2026-04-12T07:25:50.595Z</time></trkpt><trkpt lat="44.9825296" lon="1.4178193"><ele>312.6</ele><time>2026-04-12T07:25:51.595Z</time></trkpt><trkpt lat="44.9824153" lon="1.4177872"><ele>312.0</ele><time>2026-04-12T07:25:52.595Z</time></trkpt><trkpt lat="44.9823216" lon="1.4177534"><ele>314.2</ele><time>2026-04-12T07:25:53.595Z</time></trkpt><trkpt lat="44.9822275" lon="1.4177244"><ele>316.4</ele><time>2026-04-12T07:25:54.595Z</time></trkpt><trkpt lat="44.9821326" lon="1.417697"><ele>318.59999999999997</ele><time>2026-04-12T07:25:55.594Z</time></trkpt><trkpt lat="44.9820358" lon="1.4176749"><ele>320.79999999999995</ele><time>2026-04-12T07:25:56.595Z</time></trkpt><trkpt lat="44.9819341" lon="1.4176551"><ele>323.0</ele><time>2026-04-12T07:25:57.594Z</time></trkpt><trkpt lat="44.9817936" lon="1.4177592"><ele>323.0</ele><time>2026-04-12T07:25:58.595Z</time></trkpt><trkpt lat="44.981686" lon="1.4177749"><ele>323.0</ele><time>2026-04-12T07:25:59.594Z</time></trkpt><trkpt lat="44.981574" lon="1.4178076"><ele>323.0</ele><time>2026-04-12T07:26:00.595Z</time></trkpt><trkpt lat="44.9814687" lon="1.4178312"><ele>323.0</ele><time>2026-04-12T07:26:01.594Z</time></trkpt><trkpt lat="44.9813795" lon="1.4178463"><ele>323.0</ele><time>2026-04-12T07:26:02.595Z</time></trkpt><trkpt lat="44.9812809" lon="1.4178498"><ele>323.2</ele><time>2026-04-12T07:26:03.596Z</time></trkpt><trkpt lat="44.9811777" lon="1.4178347"><ele>323.4</ele><time>2026-04-12T07:26:04.595Z</time></trkpt><trkpt lat="44.9810848" lon="1.4177733"><ele>323.59999999999997</ele><time>2026-04-12T07:26:05.595Z</time></trkpt><trkpt lat="44.9810014" lon="1.4176899"><ele>323.79999999999995</ele><time>2026-04-12T07:26:06.596Z</time></trkpt><trkpt lat="44.980922" lon="1.4176448"><ele>324.0</ele><time>2026-04-12T07:26:07.595Z</time></trkpt><trkpt lat="44.9808351" lon="1.4176235"><ele>324.6</ele><time>2026-04-12T07:26:08.595Z</time></trkpt><trkpt lat="44.9807561" lon="1.4176091"><ele>325.2</ele><time>2026-04-12T07:26:09.595Z</time></trkpt><trkpt lat="44.9806978" lon="1.4175699"><ele>325.8</ele><time>2026-04-12T07:26:10.595Z</time></trkpt><trkpt lat="44.980612" lon="1.4174113"><ele>326.40000000000003</ele><time>2026-04-12T07:26:12.595Z</time></trkpt><trkpt lat="44.9805795" lon="1.4172968"><ele>327.0</ele><time>2026-04-12T07:26:13.594Z</time></trkpt><trkpt lat="44.9805523" lon="1.4171682"><ele>325.0</ele><time>2026-04-12T07:26:14.595Z</time></trkpt><trkpt lat="44.9805251" lon="1.41704"><ele>323.0</ele><time>2026-04-12T07:26:15.595Z</time></trkpt><trkpt lat="44.9804934" lon="1.4168661"><ele>321.0</ele><time>2026-04-12T07:26:16.595Z</time></trkpt><trkpt lat="44.9804443" lon="1.4166831"><ele>319.0</ele><time>2026-04-12T07:26:17.596Z</time></trkpt><trkpt lat="44.9804088" lon="1.4165076"><ele>319.0</ele><time>2026-04-12T07:26:18.595Z</time></trkpt><trkpt lat="44.9803949" lon="1.4163258"><ele>319.0</ele><time>2026-04-12T07:26:19.595Z</time></trkpt><trkpt lat="44.9804194" lon="1.4161399"><ele>319.0</ele><time>2026-04-12T07:26:20.594Z</time></trkpt><trkpt lat="44.9804654" lon="1.4159585"><ele>319.0</ele><time>2026-04-12T07:26:21.595Z</time></trkpt><trkpt lat="44.9805057" lon="1.4157774"><ele>318.25</ele><time>2026-04-12T07:26:22.596Z</time></trkpt><trkpt lat="44.9805296" lon="1.4155922"><ele>317.5</ele><time>2026-04-12T07:26:23.595Z</time></trkpt><trkpt lat="44.9805273" lon="1.4154115"><ele>316.75</ele><time>2026-04-12T07:26:24.595Z</time></trkpt><trkpt lat="44.9804978" lon="1.4152383"><ele>316.0</ele><time>2026-04-12T07:26:25.596Z</time></trkpt><trkpt lat="44.9804559" lon="1.415076"><ele>318.0</ele><time>2026-04-12T07:26:26.595Z</time></trkpt><trkpt lat="44.9803248" lon="1.4149628"><ele>320.0</ele><time>2026-04-12T07:26:27.595Z</time></trkpt><trkpt lat="44.9802148" lon="1.4148478"><ele>322.0</ele><time>2026-04-12T07:26:28.596Z</time></trkpt><trkpt lat="44.9800924" lon="1.4147381"><ele>324.0</ele><time>2026-04-12T07:26:29.595Z</time></trkpt><trkpt lat="44.9799709" lon="1.4146292"><ele>325.75</ele><time>2026-04-12T07:26:30.595Z</time></trkpt><trkpt lat="44.9798461" lon="1.4145259"><ele>327.5</ele><time>2026-04-12T07:26:31.595Z</time></trkpt><trkpt lat="44.9797145" lon="1.4144123"><ele>329.25</ele><time>2026-04-12T07:26:32.595Z</time></trkpt><trkpt lat="44.9795842" lon="1.4143175"><ele>331.0</ele><time>2026-04-12T07:26:33.595Z</time></trkpt><trkpt lat="44.9794529" lon="1.414228"><ele>331.0</ele><time>2026-04-12T07:26:34.595Z</time></trkpt><trkpt lat="44.9793285" lon="1.4141397"><ele>331.0</ele><time>2026-04-12T07:26:35.595Z</time></trkpt><trkpt lat="44.9792135" lon="1.4140461"><ele>331.0</ele><time>2026-04-12T07:26:36.595Z</time></trkpt><trkpt lat="44.979115" lon="1.4139262"><ele>331.0</ele><time>2026-04-12T07:26:37.595Z</time></trkpt><trkpt lat="44.9790422" lon="1.4137874"><ele>330.25</ele><time>2026-04-12T07:26:38.594Z</time></trkpt><trkpt lat="44.9789854" lon="1.4136347"><ele>329.5</ele><time>2026-04-12T07:26:39.595Z</time></trkpt><trkpt lat="44.9789511" lon="1.413478"><ele>328.75</ele><time>2026-04-12T07:26:40.595Z</time></trkpt><trkpt lat="44.9789423" lon="1.4133185"><ele>328.0</ele><time>2026-04-12T07:26:41.595Z</time></trkpt><trkpt lat="44.9789386" lon="1.4131735"><ele>328.0</ele><time>2026-04-12T07:26:42.595Z</time></trkpt><trkpt lat="44.9789197" lon="1.4130671"><ele>328.0</ele><time>2026-04-12T07:26:43.596Z</time></trkpt><trkpt lat="44.9788667" lon="1.4129823"><ele>328.0</ele><time>2026-04-12T07:26:44.595Z</time></trkpt><trkpt lat="44.9787919" lon="1.412909"><ele>328.0</ele><time>2026-04-12T07:26:45.595Z</time></trkpt><trkpt lat="44.9787241" lon="1.4128165"><ele>328.0</ele><time>2026-04-12T07:26:46.595Z</time></trkpt><trkpt lat="44.978672" lon="1.4126946"><ele>328.0</ele><time>2026-04-12T07:26:47.594Z</time></trkpt><trkpt lat="44.9786385" lon="1.4125547"><ele>326.2</ele><time>2026-04-12T07:26:48.595Z</time></trkpt><trkpt lat="44.9786265" lon="1.412418"><ele>324.4</ele><time>2026-04-12T07:26:49.596Z</time></trkpt><trkpt lat="44.9786381" lon="1.4123007"><ele>322.59999999999997</ele><time>2026-04-12T07:26:50.595Z</time></trkpt><trkpt lat="44.9786809" lon="1.4121876"><ele>320.79999999999995</ele><time>2026-04-12T07:26:51.595Z</time></trkpt><trkpt lat="44.9787371" lon="1.4120902"><ele>319.0</ele><time>2026-04-12T07:26:52.595Z</time></trkpt><trkpt lat="44.9787938" lon="1.4119873"><ele>318.2</ele><time>2026-04-12T07:26:53.595Z</time></trkpt><trkpt lat="44.9788919" lon="1.4119468"><ele>317.4</ele><time>2026-04-12T07:26:54.595Z</time></trkpt><trkpt lat="44.9789617" lon="1.4118519"><ele>316.6</ele><time>2026-04-12T07:26:55.594Z</time></trkpt><trkpt lat="44.9790105" lon="1.4117328"><ele>315.8</ele><time>2026-04-12T07:26:56.595Z</time></trkpt><trkpt lat="44.9790567" lon="1.4116101"><ele>315.0</ele><time>2026-04-12T07:26:57.595Z</time></trkpt><trkpt lat="44.9791038" lon="1.4114876"><ele>315.0</ele><time>2026-04-12T07:26:58.595Z</time></trkpt><trkpt lat="44.9791607" lon="1.4113861"><ele>315.0</ele><time>2026-04-12T07:26:59.595Z</time></trkpt><trkpt lat="44.9792316" lon="1.4113121"><ele>315.0</ele><time>2026-04-12T07:27:00.595Z</time></trkpt><trkpt lat="44.9793069" lon="1.4112555"><ele>315.0</ele><time>2026-04-12T07:27:01.595Z</time></trkpt><trkpt lat="44.9793872" lon="1.4112007"><ele>315.0</ele><time>2026-04-12T07:27:02.594Z</time></trkpt><trkpt lat="44.9794715" lon="1.4111419"><ele>315.0</ele><time>2026-04-12T07:27:03.595Z</time></trkpt><trkpt lat="44.9795582" lon="1.4110755"><ele>314.4</ele><time>2026-04-12T07:27:04.596Z</time></trkpt><trkpt lat="44.9796411" lon="1.4109977"><ele>313.8</ele><time>2026-04-12T07:27:05.596Z</time></trkpt><trkpt lat="44.9797176" lon="1.4109083"><ele>313.2</ele><time>2026-04-12T07:27:06.594Z</time></trkpt><trkpt lat="44.9797826" lon="1.4108072"><ele>312.6</ele><time>2026-04-12T07:27:07.595Z</time></trkpt><trkpt lat="44.9798336" lon="1.4106903"><ele>312.0</ele><time>2026-04-12T07:27:08.594Z</time></trkpt><trkpt lat="44.9798657" lon="1.4105606"><ele>311.4</ele><time>2026-04-12T07:27:09.595Z</time></trkpt><trkpt lat="44.9798745" lon="1.4104233"><ele>310.79999999999995</ele><time>2026-04-12T07:27:10.595Z</time></trkpt><trkpt lat="44.9798619" lon="1.4102859"><ele>310.2</ele><time>2026-04-12T07:27:11.596Z</time></trkpt><trkpt lat="44.9798395" lon="1.4101428"><ele>309.59999999999997</ele><time>2026-04-12T07:27:12.594Z</time></trkpt><trkpt lat="44.9798035" lon="1.4099949"><ele>309.0</ele><time>2026-04-12T07:27:13.595Z</time></trkpt><trkpt lat="44.9797642" lon="1.4098643"><ele>309.0</ele><time>2026-04-12T07:27:14.594Z</time></trkpt><trkpt lat="44.9797286" lon="1.409714"><ele>309.0</ele><time>2026-04-12T07:27:15.594Z</time></trkpt><trkpt lat="44.9796984" lon="1.4095588"><ele>309.0</ele><time>2026-04-12T07:27:16.595Z</time></trkpt><trkpt lat="44.9796719" lon="1.4094036"><ele>309.0</ele><time>2026-04-12T07:27:17.595Z</time></trkpt><trkpt lat="44.9795893" lon="1.4091967"><ele>309.4</ele><time>2026-04-12T07:27:18.594Z</time></trkpt><trkpt lat="44.9795978" lon="1.4090226"><ele>309.79999999999995</ele><time>2026-04-12T07:27:19.595Z</time></trkpt><trkpt lat="44.9795794" lon="1.4088778"><ele>310.20000000000005</ele><time>2026-04-12T07:27:20.594Z</time></trkpt><trkpt lat="44.9795824" lon="1.4087396"><ele>310.6</ele><time>2026-04-12T07:27:21.595Z</time></trkpt><trkpt lat="44.9795552" lon="1.4086069"><ele>311.0</ele><time>2026-04-12T07:27:22.595Z</time></trkpt><trkpt lat="44.9795169" lon="1.4084826"><ele>311.40000000000003</ele><time>2026-04-12T07:27:23.595Z</time></trkpt><trkpt lat="44.9794838" lon="1.4083455"><ele>311.8</ele><time>2026-04-12T07:27:24.595Z</time></trkpt><trkpt lat="44.9794377" lon="1.4082237"><ele>312.20000000000005</ele><time>2026-04-12T07:27:25.595Z</time></trkpt><trkpt lat="44.9793748" lon="1.4081124"><ele>312.6</ele><time>2026-04-12T07:27:26.595Z</time></trkpt><trkpt lat="44.979329" lon="1.4080107"><ele>313.0</ele><time>2026-04-12T07:27:27.595Z</time></trkpt><trkpt lat="44.9792812" lon="1.4079392"><ele>313.0</ele><time>2026-04-12T07:27:28.595Z</time></trkpt><trkpt lat="44.9792076" lon="1.4078303"><ele>313.0</ele><time>2026-04-12T07:27:30.595Z</time></trkpt><trkpt lat="44.9790657" lon="1.4078554"><ele>313.0</ele><time>2026-04-12T07:27:32.595Z</time></trkpt><trkpt lat="44.9789932" lon="1.4079041"><ele>313.0</ele><time>2026-04-12T07:27:33.594Z</time></trkpt><trkpt lat="44.9789124" lon="1.4079915"><ele>313.0</ele><time>2026-04-12T07:27:34.595Z</time></trkpt><trkpt lat="44.9788137" lon="1.4080653"><ele>317.5</ele><time>2026-04-12T07:27:35.595Z</time></trkpt><trkpt lat="44.9786703" lon="1.4081557"><ele>322.0</ele><time>2026-04-12T07:27:36.595Z</time></trkpt><trkpt lat="44.9785446" lon="1.4082124"><ele>326.5</ele><time>2026-04-12T07:27:37.595Z</time></trkpt><trkpt lat="44.9784466" lon="1.4082376"><ele>331.0</ele><time>2026-04-12T07:27:38.595Z</time></trkpt><trkpt lat="44.978321" lon="1.4082495"><ele>331.5</ele><time>2026-04-12T07:27:39.595Z</time></trkpt><trkpt lat="44.9782156" lon="1.4082736"><ele>332.0</ele><time>2026-04-12T07:27:40.595Z</time></trkpt><trkpt lat="44.9781079" lon="1.4083276"><ele>332.5</ele><time>2026-04-12T07:27:41.595Z</time></trkpt><trkpt lat="44.9780054" lon="1.4084193"><ele>333.0</ele><time>2026-04-12T07:27:42.595Z</time></trkpt><trkpt lat="44.9779041" lon="1.4085897"><ele>333.0</ele><time>2026-04-12T07:27:43.596Z</time></trkpt><trkpt lat="44.9778047" lon="1.4087147"><ele>333.0</ele><time>2026-04-12T07:27:44.596Z</time></trkpt><trkpt lat="44.9777081" lon="1.4088563"><ele>333.0</ele><time>2026-04-12T07:27:45.596Z</time></trkpt><trkpt lat="44.9776183" lon="1.4089814"><ele>333.0</ele><time>2026-04-12T07:27:46.595Z</time></trkpt><trkpt lat="44.9775164" lon="1.4091205"><ele>328.75</ele><time>2026-04-12T07:27:47.595Z</time></trkpt><trkpt lat="44.9774139" lon="1.4092313"><ele>324.5</ele><time>2026-04-12T07:27:48.595Z</time></trkpt><trkpt lat="44.977318" lon="1.4093306"><ele>320.25</ele><time>2026-04-12T07:27:49.595Z</time></trkpt><trkpt lat="44.9772334" lon="1.4094638"><ele>316.0</ele><time>2026-04-12T07:27:50.595Z</time></trkpt><trkpt lat="44.9771911" lon="1.4096632"><ele>315.0</ele><time>2026-04-12T07:27:51.595Z</time></trkpt><trkpt lat="44.9771497" lon="1.4098499"><ele>314.0</ele><time>2026-04-12T07:27:52.595Z</time></trkpt><trkpt lat="44.9771087" lon="1.4099785"><ele>313.0</ele><time>2026-04-12T07:27:53.595Z</time></trkpt><trkpt lat="44.977056" lon="1.4101057"><ele>312.0</ele><time>2026-04-12T07:27:54.596Z</time></trkpt><trkpt lat="44.976984" lon="1.4101925"><ele>311.0</ele><time>2026-04-12T07:27:55.595Z</time></trkpt><trkpt lat="44.976888" lon="1.4102636"><ele>311.0</ele><time>2026-04-12T07:27:56.596Z</time></trkpt><trkpt lat="44.9767899" lon="1.4103415"><ele>311.0</ele><time>2026-04-12T07:27:57.595Z</time></trkpt><trkpt lat="44.9766819" lon="1.41045"><ele>311.0</ele><time>2026-04-12T07:27:58.595Z</time></trkpt><trkpt lat="44.976588" lon="1.4105562"><ele>311.0</ele><time>2026-04-12T07:27:59.596Z</time></trkpt><trkpt lat="44.976503" lon="1.4106742"><ele>309.0</ele><time>2026-04-12T07:28:00.595Z</time></trkpt><trkpt lat="44.9764989" lon="1.4107796"><ele>307.0</ele><time>2026-04-12T07:28:01.595Z</time></trkpt><trkpt lat="44.9764775" lon="1.4108759"><ele>305.0</ele><time>2026-04-12T07:28:02.596Z</time></trkpt><trkpt lat="44.9764402" lon="1.4109585"><ele>303.0</ele><time>2026-04-12T07:28:03.595Z</time></trkpt><trkpt lat="44.9763941" lon="1.4110251"><ele>301.0</ele><time>2026-04-12T07:28:04.597Z</time></trkpt><trkpt lat="44.9763337" lon="1.4110815"><ele>299.0</ele><time>2026-04-12T07:28:05.597Z</time></trkpt><trkpt lat="44.9762608" lon="1.4111152"><ele>297.0</ele><time>2026-04-12T07:28:06.596Z</time></trkpt><trkpt lat="44.9761924" lon="1.4111301"><ele>297.0</ele><time>2026-04-12T07:28:07.595Z</time></trkpt><trkpt lat="44.9761229" lon="1.4111591"><ele>297.0</ele><time>2026-04-12T07:28:08.596Z</time></trkpt><trkpt lat="44.9760903" lon="1.4110658"><ele>297.0</ele><time>2026-04-12T07:28:10.595Z</time></trkpt><trkpt lat="44.9760901" lon="1.4109476"><ele>297.0</ele><time>2026-04-12T07:28:11.595Z</time></trkpt><trkpt lat="44.9760747" lon="1.4108422"><ele>297.0</ele><time>2026-04-12T07:28:12.595Z</time></trkpt><trkpt lat="44.9760236" lon="1.4107278"><ele>297.0</ele><time>2026-04-12T07:28:14.596Z</time></trkpt><trkpt lat="44.9759618" lon="1.4106963"><ele>297.0</ele><time>2026-04-12T07:28:15.596Z</time></trkpt><trkpt lat="44.9758557" lon="1.4106753"><ele>297.0</ele><time>2026-04-12T07:28:17.596Z</time></trkpt><trkpt lat="44.9757785" lon="1.4106957"><ele>297.0</ele><time>2026-04-12T07:28:18.596Z</time></trkpt><trkpt lat="44.9757021" lon="1.4106834"><ele>297.0</ele><time>2026-04-12T07:28:19.596Z</time></trkpt><trkpt lat="44.9756068" lon="1.4106674"><ele>297.0</ele><time>2026-04-12T07:28:20.595Z</time></trkpt><trkpt lat="44.9754918" lon="1.410653"><ele>299.25</ele><time>2026-04-12T07:28:21.596Z</time></trkpt><trkpt lat="44.9753661" lon="1.4106404"><ele>301.5</ele><time>2026-04-12T07:28:22.597Z</time></trkpt><trkpt lat="44.9752423" lon="1.410625"><ele>303.75</ele><time>2026-04-12T07:28:23.596Z</time></trkpt><trkpt lat="44.9751194" lon="1.4106227"><ele>306.0</ele><time>2026-04-12T07:28:24.596Z</time></trkpt><trkpt lat="44.9750086" lon="1.4106068"><ele>307.25</ele><time>2026-04-12T07:28:25.596Z</time></trkpt><trkpt lat="44.9748929" lon="1.4105661"><ele>308.5</ele><time>2026-04-12T07:28:26.597Z</time></trkpt><trkpt lat="44.9747703" lon="1.4105268"><ele>309.75</ele><time>2026-04-12T07:28:27.595Z</time></trkpt><trkpt lat="44.9746475" lon="1.4104845"><ele>311.0</ele><time>2026-04-12T07:28:28.596Z</time></trkpt><trkpt lat="44.9745244" lon="1.4104652"><ele>311.0</ele><time>2026-04-12T07:28:29.596Z</time></trkpt><trkpt lat="44.9743991" lon="1.4104453"><ele>311.0</ele><time>2026-04-12T07:28:30.596Z</time></trkpt><trkpt lat="44.9742774" lon="1.4103823"><ele>311.0</ele><time>2026-04-12T07:28:31.596Z</time></trkpt><trkpt lat="44.9741601" lon="1.4103134"><ele>311.0</ele><time>2026-04-12T07:28:32.595Z</time></trkpt><trkpt lat="44.974046" lon="1.4102408"><ele>313.5</ele><time>2026-04-12T07:28:33.597Z</time></trkpt><trkpt lat="44.9739356" lon="1.4101381"><ele>316.0</ele><time>2026-04-12T07:28:34.596Z</time></trkpt><trkpt lat="44.9738497" lon="1.4100293"><ele>318.5</ele><time>2026-04-12T07:28:35.596Z</time></trkpt><trkpt lat="44.9737635" lon="1.4099098"><ele>321.0</ele><time>2026-04-12T07:28:36.596Z</time></trkpt><trkpt lat="44.9736689" lon="1.4097975"><ele>321.0</ele><time>2026-04-12T07:28:37.596Z</time></trkpt><trkpt lat="44.9735582" lon="1.4096861"><ele>321.0</ele><time>2026-04-12T07:28:38.596Z</time></trkpt><trkpt lat="44.9734625" lon="1.4095935"><ele>321.0</ele><time>2026-04-12T07:28:39.597Z</time></trkpt><trkpt lat="44.9733742" lon="1.4095279"><ele>321.0</ele><time>2026-04-12T07:28:40.596Z</time></trkpt><trkpt lat="44.9732824" lon="1.4094726"><ele>322.4</ele><time>2026-04-12T07:28:41.597Z</time></trkpt><trkpt lat="44.9731751" lon="1.40952"><ele>323.8</ele><time>2026-04-12T07:28:43.597Z</time></trkpt><trkpt lat="44.9730878" lon="1.4095256"><ele>325.2</ele><time>2026-04-12T07:28:44.596Z</time></trkpt><trkpt lat="44.9730116" lon="1.4095302"><ele>326.59999999999997</ele><time>2026-04-12T07:28:45.596Z</time></trkpt><trkpt lat="44.9729269" lon="1.4095408"><ele>328.0</ele><time>2026-04-12T07:28:46.595Z</time></trkpt><trkpt lat="44.9728368" lon="1.4095614"><ele>328.0</ele><time>2026-04-12T07:28:47.596Z</time></trkpt><trkpt lat="44.9727567" lon="1.4095729"><ele>328.0</ele><time>2026-04-12T07:28:48.596Z</time></trkpt><trkpt lat="44.9726732" lon="1.4095921"><ele>328.0</ele><time>2026-04-12T07:28:49.596Z</time></trkpt><trkpt lat="44.9726006" lon="1.4096068"><ele>328.0</ele><time>2026-04-12T07:28:50.596Z</time></trkpt><trkpt lat="44.972524" lon="1.4096253"><ele>328.0</ele><time>2026-04-12T07:28:51.596Z</time></trkpt><trkpt lat="44.9724504" lon="1.4096314"><ele>328.0</ele><time>2026-04-12T07:28:52.596Z</time></trkpt><trkpt lat="44.9723308" lon="1.4096332"><ele>328.25</ele><time>2026-04-12T07:28:54.596Z</time></trkpt><trkpt lat="44.9722127" lon="1.4096154"><ele>328.5</ele><time>2026-04-12T07:28:56.596Z</time></trkpt><trkpt lat="44.9720986" lon="1.4095966"><ele>328.75</ele><time>2026-04-12T07:28:58.596Z</time></trkpt><trkpt lat="44.9719812" lon="1.4095958"><ele>329.0</ele><time>2026-04-12T07:29:00.597Z</time></trkpt><trkpt lat="44.9718824" lon="1.4095256"><ele>329.0</ele><time>2026-04-12T07:29:02.596Z</time></trkpt><trkpt lat="44.9718223" lon="1.4093983"><ele>329.0</ele><time>2026-04-12T07:29:04.596Z</time></trkpt><trkpt lat="44.9717938" lon="1.4093166"><ele>329.0</ele><time>2026-04-12T07:29:06.595Z</time></trkpt><trkpt lat="44.9717197" lon="1.4091762"><ele>329.0</ele><time>2026-04-12T07:29:13.596Z</time></trkpt><trkpt lat="44.9716752" lon="1.4090845"><ele>329.0</ele><time>2026-04-12T07:29:14.595Z</time></trkpt><trkpt lat="44.9716301" lon="1.4089812"><ele>328.2</ele><time>2026-04-12T07:29:15.596Z</time></trkpt><trkpt lat="44.9715815" lon="1.4088613"><ele>327.4</ele><time>2026-04-12T07:29:16.596Z</time></trkpt><trkpt lat="44.9715333" lon="1.4087319"><ele>326.6</ele><time>2026-04-12T07:29:17.596Z</time></trkpt><trkpt lat="44.9714761" lon="1.4086036"><ele>325.8</ele><time>2026-04-12T07:29:18.596Z</time></trkpt><trkpt lat="44.9714158" lon="1.4084704"><ele>325.0</ele><time>2026-04-12T07:29:19.596Z</time></trkpt><trkpt lat="44.9713452" lon="1.408337"><ele>324.5</ele><time>2026-04-12T07:29:20.596Z</time></trkpt><trkpt lat="44.971274" lon="1.4082056"><ele>324.0</ele><time>2026-04-12T07:29:21.595Z</time></trkpt><trkpt lat="44.971201" lon="1.4080742"><ele>323.5</ele><time>2026-04-12T07:29:22.596Z</time></trkpt><trkpt lat="44.9711362" lon="1.4079437"><ele>323.0</ele><time>2026-04-12T07:29:23.596Z</time></trkpt><trkpt lat="44.9710744" lon="1.4078047"><ele>322.4</ele><time>2026-04-12T07:29:24.596Z</time></trkpt><trkpt lat="44.9710302" lon="1.4076625"><ele>321.79999999999995</ele><time>2026-04-12T07:29:25.596Z</time></trkpt><trkpt lat="44.9709649" lon="1.40754"><ele>321.2</ele><time>2026-04-12T07:29:26.597Z</time></trkpt><trkpt lat="44.9709094" lon="1.4074089"><ele>320.6</ele><time>2026-04-12T07:29:27.596Z</time></trkpt><trkpt lat="44.970847" lon="1.4072991"><ele>320.0</ele><time>2026-04-12T07:29:28.596Z</time></trkpt><trkpt lat="44.9707882" lon="1.4071965"><ele>320.0</ele><time>2026-04-12T07:29:29.596Z</time></trkpt><trkpt lat="44.9706869" lon="1.4071509"><ele>320.0</ele><time>2026-04-12T07:29:30.597Z</time></trkpt><trkpt lat="44.9705774" lon="1.4071258"><ele>320.0</ele><time>2026-04-12T07:29:31.596Z</time></trkpt><trkpt lat="44.97048" lon="1.4070852"><ele>320.0</ele><time>2026-04-12T07:29:32.595Z</time></trkpt><trkpt lat="44.9703804" lon="1.4070546"><ele>320.0</ele><time>2026-04-12T07:29:33.596Z</time></trkpt><trkpt lat="44.9702729" lon="1.4069906"><ele>320.0</ele><time>2026-04-12T07:29:34.596Z</time></trkpt><trkpt lat="44.9701927" lon="1.4068516"><ele>320.0</ele><time>2026-04-12T07:29:35.595Z</time></trkpt><trkpt lat="44.9701228" lon="1.4067354"><ele>320.0</ele><time>2026-04-12T07:29:36.595Z</time></trkpt><trkpt lat="44.9700443" lon="1.4066027"><ele>320.0</ele><time>2026-04-12T07:29:37.596Z</time></trkpt><trkpt lat="44.9699714" lon="1.4064749"><ele>320.25</ele><time>2026-04-12T07:29:38.596Z</time></trkpt><trkpt lat="44.9698927" lon="1.4063465"><ele>320.5</ele><time>2026-04-12T07:29:39.596Z</time></trkpt><trkpt lat="44.9698526" lon="1.4061896"><ele>320.75</ele><time>2026-04-12T07:29:40.596Z</time></trkpt><trkpt lat="44.9697843" lon="1.4060481"><ele>321.0</ele><time>2026-04-12T07:29:41.595Z</time></trkpt><trkpt lat="44.9697173" lon="1.4059066"><ele>319.0</ele><time>2026-04-12T07:29:42.596Z</time></trkpt><trkpt lat="44.969689" lon="1.4057953"><ele>317.0</ele><time>2026-04-12T07:29:43.597Z</time></trkpt><trkpt lat="44.9696385" lon="1.4056956"><ele>315.0</ele><time>2026-04-12T07:29:44.595Z</time></trkpt><trkpt lat="44.969589" lon="1.4056339"><ele>313.0</ele><time>2026-04-12T07:29:45.596Z</time></trkpt><trkpt lat="44.9695192" lon="1.405575"><ele>311.0</ele><time>2026-04-12T07:29:46.596Z</time></trkpt><trkpt lat="44.969412" lon="1.4055615"><ele>309.0</ele><time>2026-04-12T07:29:47.595Z</time></trkpt><trkpt lat="44.9693151" lon="1.405534"><ele>307.8</ele><time>2026-04-12T07:29:48.596Z</time></trkpt><trkpt lat="44.9692053" lon="1.4054851"><ele>306.59999999999997</ele><time>2026-04-12T07:29:49.596Z</time></trkpt><trkpt lat="44.9691156" lon="1.4054312"><ele>305.4</ele><time>2026-04-12T07:29:50.596Z</time></trkpt><trkpt lat="44.9690086" lon="1.4053826"><ele>304.2</ele><time>2026-04-12T07:29:51.596Z</time></trkpt><trkpt lat="44.9689095" lon="1.4053415"><ele>303.0</ele><time>2026-04-12T07:29:52.596Z</time></trkpt><trkpt lat="44.9687904" lon="1.4053217"><ele>303.0</ele><time>2026-04-12T07:29:53.596Z</time></trkpt><trkpt lat="44.9686762" lon="1.4052984"><ele>303.0</ele><time>2026-04-12T07:29:54.596Z</time></trkpt><trkpt lat="44.9685507" lon="1.405256"><ele>303.0</ele><time>2026-04-12T07:29:55.596Z</time></trkpt><trkpt lat="44.9684367" lon="1.4051779"><ele>303.0</ele><time>2026-04-12T07:29:56.596Z</time></trkpt><trkpt lat="44.9683336" lon="1.4050687"><ele>299.0</ele><time>2026-04-12T07:29:57.597Z</time></trkpt><trkpt lat="44.968242" lon="1.4049251"><ele>295.0</ele><time>2026-04-12T07:29:58.597Z</time></trkpt><trkpt lat="44.9681552" lon="1.404752"><ele>291.0</ele><time>2026-04-12T07:29:59.597Z</time></trkpt><trkpt lat="44.9680745" lon="1.4045807"><ele>287.0</ele><time>2026-04-12T07:30:00.596Z</time></trkpt><trkpt lat="44.9679997" lon="1.4044156"><ele>287.0</ele><time>2026-04-12T07:30:01.596Z</time></trkpt><trkpt lat="44.9679208" lon="1.4042459"><ele>287.0</ele><time>2026-04-12T07:30:02.596Z</time></trkpt><trkpt lat="44.9678343" lon="1.4040715"><ele>287.0</ele><time>2026-04-12T07:30:03.597Z</time></trkpt><trkpt lat="44.9677402" lon="1.4039089"><ele>287.0</ele><time>2026-04-12T07:30:04.596Z</time></trkpt><trkpt lat="44.9676317" lon="1.4037612"><ele>283.25</ele><time>2026-04-12T07:30:05.596Z</time></trkpt><trkpt lat="44.9675098" lon="1.4036399"><ele>279.5</ele><time>2026-04-12T07:30:06.596Z</time></trkpt><trkpt lat="44.9673901" lon="1.403536"><ele>275.75</ele><time>2026-04-12T07:30:07.596Z</time></trkpt><trkpt lat="44.9672811" lon="1.4034316"><ele>272.0</ele><time>2026-04-12T07:30:08.596Z</time></trkpt><trkpt lat="44.9671766" lon="1.4033322"><ele>272.0</ele><time>2026-04-12T07:30:09.596Z</time></trkpt><trkpt lat="44.9670904" lon="1.4032561"><ele>272.0</ele><time>2026-04-12T07:30:10.595Z</time></trkpt><trkpt lat="44.9670302" lon="1.403195"><ele>272.0</ele><time>2026-04-12T07:30:11.595Z</time></trkpt><trkpt lat="44.967004" lon="1.4030465"><ele>272.0</ele><time>2026-04-12T07:30:13.596Z</time></trkpt><trkpt lat="44.9670272" lon="1.402948"><ele>272.0</ele><time>2026-04-12T07:30:14.596Z</time></trkpt><trkpt lat="44.9670549" lon="1.402841"><ele>272.0</ele><time>2026-04-12T07:30:15.596Z</time></trkpt><trkpt lat="44.9670801" lon="1.4027328"><ele>271.83333333333337</ele><time>2026-04-12T07:30:16.596Z</time></trkpt><trkpt lat="44.9671032" lon="1.4026165"><ele>271.6666666666667</ele><time>2026-04-12T07:30:17.595Z</time></trkpt><trkpt lat="44.9671321" lon="1.4025032"><ele>271.5</ele><time>2026-04-12T07:30:18.596Z</time></trkpt><trkpt lat="44.9671597" lon="1.4023876"><ele>271.3333333333333</ele><time>2026-04-12T07:30:19.595Z</time></trkpt><trkpt lat="44.9671842" lon="1.4022714"><ele>271.16666666666663</ele><time>2026-04-12T07:30:20.597Z</time></trkpt><trkpt lat="44.9672089" lon="1.4021581"><ele>271.0</ele><time>2026-04-12T07:30:21.596Z</time></trkpt><trkpt lat="44.967232" lon="1.4020472"><ele>272.5</ele><time>2026-04-12T07:30:22.596Z</time></trkpt><trkpt lat="44.9672495" lon="1.4019379"><ele>274.0</ele><time>2026-04-12T07:30:23.597Z</time></trkpt><trkpt lat="44.9672523" lon="1.4018303"><ele>275.5</ele><time>2026-04-12T07:30:24.596Z</time></trkpt><trkpt lat="44.9672263" lon="1.4017332"><ele>277.0</ele><time>2026-04-12T07:30:25.595Z</time></trkpt><trkpt lat="44.9671712" lon="1.4016691"><ele>278.5</ele><time>2026-04-12T07:30:26.595Z</time></trkpt><trkpt lat="44.9671005" lon="1.4016436"><ele>280.0</ele><time>2026-04-12T07:30:27.596Z</time></trkpt><trkpt lat="44.9670212" lon="1.4016314"><ele>280.0</ele><time>2026-04-12T07:30:28.596Z</time></trkpt><trkpt lat="44.9669401" lon="1.4016253"><ele>280.0</ele><time>2026-04-12T07:30:29.596Z</time></trkpt><trkpt lat="44.966857" lon="1.4016172"><ele>280.0</ele><time>2026-04-12T07:30:30.596Z</time></trkpt><trkpt lat="44.9667704" lon="1.4016046"><ele>280.0</ele><time>2026-04-12T07:30:31.596Z</time></trkpt><trkpt lat="44.9666821" lon="1.4015953"><ele>280.0</ele><time>2026-04-12T07:30:32.596Z</time></trkpt><trkpt lat="44.9665914" lon="1.4015875"><ele>280.0</ele><time>2026-04-12T07:30:33.596Z</time></trkpt><trkpt lat="44.9665005" lon="1.4015808"><ele>279.5</ele><time>2026-04-12T07:30:34.596Z</time></trkpt><trkpt lat="44.9664133" lon="1.4015752"><ele>279.0</ele><time>2026-04-12T07:30:35.596Z</time></trkpt><trkpt lat="44.9663306" lon="1.4015552"><ele>278.5</ele><time>2026-04-12T07:30:36.595Z</time></trkpt><trkpt lat="44.9662506" lon="1.4015337"><ele>278.0</ele><time>2026-04-12T07:30:37.596Z</time></trkpt><trkpt lat="44.9661751" lon="1.4015"><ele>277.5</ele><time>2026-04-12T07:30:38.596Z</time></trkpt><trkpt lat="44.9660981" lon="1.401452"><ele>277.0</ele><time>2026-04-12T07:30:39.595Z</time></trkpt><trkpt lat="44.9660288" lon="1.4013974"><ele>276.66666666666663</ele><time>2026-04-12T07:30:40.596Z</time></trkpt><trkpt lat="44.9659634" lon="1.4013282"><ele>276.3333333333333</ele><time>2026-04-12T07:30:41.596Z</time></trkpt><trkpt lat="44.965895" lon="1.4012595"><ele>276.0</ele><time>2026-04-12T07:30:42.597Z</time></trkpt><trkpt lat="44.9658209" lon="1.4012041"><ele>275.6666666666667</ele><time>2026-04-12T07:30:43.597Z</time></trkpt><trkpt lat="44.9657456" lon="1.4011466"><ele>275.33333333333337</ele><time>2026-04-12T07:30:44.596Z</time></trkpt><trkpt lat="44.9656679" lon="1.4010782"><ele>275.0</ele><time>2026-04-12T07:30:45.597Z</time></trkpt><trkpt lat="44.965604" lon="1.4009877"><ele>275.0</ele><time>2026-04-12T07:30:46.597Z</time></trkpt><trkpt lat="44.9655425" lon="1.4008752"><ele>275.0</ele><time>2026-04-12T07:30:47.597Z</time></trkpt><trkpt lat="44.9654773" lon="1.4007578"><ele>275.0</ele><time>2026-04-12T07:30:48.596Z</time></trkpt><trkpt lat="44.9654108" lon="1.4006444"><ele>275.0</ele><time>2026-04-12T07:30:49.596Z</time></trkpt><trkpt lat="44.9653237" lon="1.4005388"><ele>275.0</ele><time>2026-04-12T07:30:50.596Z</time></trkpt><trkpt lat="44.9652491" lon="1.4004459"><ele>276.0</ele><time>2026-04-12T07:30:51.596Z</time></trkpt><trkpt lat="44.965143" lon="1.4003244"><ele>277.0</ele><time>2026-04-12T07:30:52.595Z</time></trkpt><trkpt lat="44.9650065" lon="1.4001624"><ele>278.0</ele><time>2026-04-12T07:30:53.596Z</time></trkpt><trkpt lat="44.9648771" lon="1.4000752"><ele>271.5</ele><time>2026-04-12T07:30:54.596Z</time></trkpt><trkpt lat="44.9647686" lon="1.3999704"><ele>265.0</ele><time>2026-04-12T07:30:55.596Z</time></trkpt><trkpt lat="44.9646589" lon="1.3998917"><ele>258.5</ele><time>2026-04-12T07:30:56.596Z</time></trkpt><trkpt lat="44.9645501" lon="1.3998017"><ele>252.0</ele><time>2026-04-12T07:30:57.596Z</time></trkpt><trkpt lat="44.9644433" lon="1.3996919"><ele>250.0</ele><time>2026-04-12T07:30:58.596Z</time></trkpt><trkpt lat="44.9643602" lon="1.3995842"><ele>248.0</ele><time>2026-04-12T07:30:59.595Z</time></trkpt><trkpt lat="44.9642549" lon="1.3994423"><ele>246.0</ele><time>2026-04-12T07:31:00.596Z</time></trkpt><trkpt lat="44.964146" lon="1.3993403"><ele>244.0</ele><time>2026-04-12T07:31:01.596Z</time></trkpt><trkpt lat="44.964034" lon="1.3992451"><ele>240.25</ele><time>2026-04-12T07:31:02.596Z</time></trkpt><trkpt lat="44.9639196" lon="1.3991113"><ele>236.5</ele><time>2026-04-12T07:31:03.596Z</time></trkpt><trkpt lat="44.9638074" lon="1.3989889"><ele>232.75</ele><time>2026-04-12T07:31:04.596Z</time></trkpt><trkpt lat="44.9637009" lon="1.3988926"><ele>229.0</ele><time>2026-04-12T07:31:05.595Z</time></trkpt><trkpt lat="44.9635987" lon="1.398771"><ele>227.75</ele><time>2026-04-12T07:31:06.596Z</time></trkpt><trkpt lat="44.9635259" lon="1.3986559"><ele>226.5</ele><time>2026-04-12T07:31:07.596Z</time></trkpt><trkpt lat="44.9634522" lon="1.3985534"><ele>225.25</ele><time>2026-04-12T07:31:08.596Z</time></trkpt><trkpt lat="44.9632989" lon="1.3984997"><ele>224.0</ele><time>2026-04-12T07:31:10.596Z</time></trkpt><trkpt lat="44.9631986" lon="1.3984549"><ele>222.0</ele><time>2026-04-12T07:31:11.596Z</time></trkpt><trkpt lat="44.9630828" lon="1.3984053"><ele>220.0</ele><time>2026-04-12T07:31:12.596Z</time></trkpt><trkpt lat="44.9629628" lon="1.3983516"><ele>218.0</ele><time>2026-04-12T07:31:13.596Z</time></trkpt><trkpt lat="44.962835" lon="1.3982416"><ele>216.0</ele><time>2026-04-12T07:31:14.597Z</time></trkpt><trkpt lat="44.9627135" lon="1.3981311"><ele>215.25</ele><time>2026-04-12T07:31:15.597Z</time></trkpt><trkpt lat="44.9626015" lon="1.3979761"><ele>214.5</ele><time>2026-04-12T07:31:16.597Z</time></trkpt><trkpt lat="44.9625605" lon="1.3977798"><ele>213.75</ele><time>2026-04-12T07:31:17.597Z</time></trkpt><trkpt lat="44.9624998" lon="1.3976098"><ele>213.0</ele><time>2026-04-12T07:31:18.597Z</time></trkpt><trkpt lat="44.9624474" lon="1.3974261"><ele>212.5</ele><time>2026-04-12T07:31:19.597Z</time></trkpt><trkpt lat="44.9624032" lon="1.3972814"><ele>212.0</ele><time>2026-04-12T07:31:20.597Z</time></trkpt><trkpt lat="44.9623545" lon="1.3971233"><ele>211.5</ele><time>2026-04-12T07:31:21.597Z</time></trkpt><trkpt lat="44.962249" lon="1.3969879"><ele>211.0</ele><time>2026-04-12T07:31:22.597Z</time></trkpt><trkpt lat="44.9621541" lon="1.396869"><ele>209.75</ele><time>2026-04-12T07:31:23.597Z</time></trkpt><trkpt lat="44.9620553" lon="1.3967539"><ele>208.5</ele><time>2026-04-12T07:31:24.597Z</time></trkpt><trkpt lat="44.9619643" lon="1.3966287"><ele>207.25</ele><time>2026-04-12T07:31:25.598Z</time></trkpt><trkpt lat="44.9618651" lon="1.3965644"><ele>206.0</ele><time>2026-04-12T07:31:26.596Z</time></trkpt><trkpt lat="44.961757" lon="1.3964795"><ele>204.25</ele><time>2026-04-12T07:31:27.597Z</time></trkpt><trkpt lat="44.9616515" lon="1.3964012"><ele>202.5</ele><time>2026-04-12T07:31:28.596Z</time></trkpt><trkpt lat="44.9615532" lon="1.3963405"><ele>200.75</ele><time>2026-04-12T07:31:29.597Z</time></trkpt><trkpt lat="44.9614497" lon="1.3962689"><ele>199.0</ele><time>2026-04-12T07:31:30.597Z</time></trkpt><trkpt lat="44.9613529" lon="1.3961998"><ele>198.2</ele><time>2026-04-12T07:31:31.597Z</time></trkpt><trkpt lat="44.9612508" lon="1.3961368"><ele>197.39999999999998</ele><time>2026-04-12T07:31:32.597Z</time></trkpt><trkpt lat="44.9611445" lon="1.3960918"><ele>196.6</ele><time>2026-04-12T07:31:33.597Z</time></trkpt><trkpt lat="44.9610549" lon="1.3960616"><ele>195.8</ele><time>2026-04-12T07:31:34.596Z</time></trkpt><trkpt lat="44.9609628" lon="1.3960273"><ele>195.0</ele><time>2026-04-12T07:31:35.597Z</time></trkpt><trkpt lat="44.9608809" lon="1.3959432"><ele>195.0</ele><time>2026-04-12T07:31:37.596Z</time></trkpt><trkpt lat="44.9608173" lon="1.3959144"><ele>195.0</ele><time>2026-04-12T07:31:39.597Z</time></trkpt><trkpt lat="44.9609092" lon="1.3959176"><ele>195.0</ele><time>2026-04-12T07:32:02.597Z</time></trkpt><trkpt lat="44.9610192" lon="1.3959245"><ele>195.0</ele><time>2026-04-12T07:32:04.597Z</time></trkpt><trkpt lat="44.9611326" lon="1.3959642"><ele>195.0</ele><time>2026-04-12T07:32:06.597Z</time></trkpt><trkpt lat="44.9612217" lon="1.3959821"><ele>195.0</ele><time>2026-04-12T07:32:08.597Z</time></trkpt><trkpt lat="44.9612936" lon="1.3958683"><ele>195.0</ele><time>2026-04-12T07:32:10.597Z</time></trkpt><trkpt lat="44.9613347" lon="1.3957633"><ele>195.0</ele><time>2026-04-12T07:32:12.597Z</time></trkpt><trkpt lat="44.9613682" lon="1.3956432"><ele>195.0</ele><time>2026-04-12T07:32:14.598Z</time></trkpt><trkpt lat="44.9614034" lon="1.3955459"><ele>195.0</ele><time>2026-04-12T07:32:18.597Z</time></trkpt><trkpt lat="44.9614263" lon="1.3954518"><ele>195.0</ele><time>2026-04-12T07:32:21.598Z</time></trkpt><trkpt lat="44.9614559" lon="1.3953726"><ele>198.33333333333334</ele><time>2026-04-12T07:32:23.597Z</time></trkpt><trkpt lat="44.9614424" lon="1.3952452"><ele>201.66666666666669</ele><time>2026-04-12T07:32:26.597Z</time></trkpt><trkpt lat="44.961443" lon="1.3951555"><ele>205.0</ele><time>2026-04-12T07:32:28.596Z</time></trkpt><trkpt lat="44.9614487" lon="1.395064"><ele>208.33333333333334</ele><time>2026-04-12T07:32:31.598Z</time></trkpt><trkpt lat="44.9615081" lon="1.3949749"><ele>211.66666666666669</ele><time>2026-04-12T07:32:34.596Z</time></trkpt><trkpt lat="44.9615535" lon="1.3948982"><ele>215.0</ele><time>2026-04-12T07:32:37.596Z</time></trkpt><trkpt lat="44.9615008" lon="1.3949788"><ele>215.0</ele><time>2026-04-12T07:32:44.597Z</time></trkpt><trkpt lat="44.961459" lon="1.3950552"><ele>215.0</ele><time>2026-04-12T07:32:46.597Z</time></trkpt><trkpt lat="44.9614079" lon="1.395121"><ele>215.0</ele><time>2026-04-12T07:32:49.597Z</time></trkpt><trkpt lat="44.9614392" lon="1.3952148"><ele>215.0</ele><time>2026-04-12T07:32:57.598Z</time></trkpt><trkpt lat="44.9614592" lon="1.3953127"><ele>215.0</ele><time>2026-04-12T07:33:01.597Z</time></trkpt><trkpt lat="44.9614625" lon="1.3954144"><ele>215.0</ele><time>2026-04-12T07:33:07.597Z</time></trkpt><trkpt lat="44.9614179" lon="1.3955028"><ele>215.0</ele><time>2026-04-12T07:33:11.597Z</time></trkpt><trkpt lat="44.9613855" lon="1.3955829"><ele>211.66666666666669</ele><time>2026-04-12T07:33:16.596Z</time></trkpt><trkpt lat="44.9613466" lon="1.3956847"><ele>208.33333333333334</ele><time>2026-04-12T07:33:20.597Z</time></trkpt><trkpt lat="44.9613285" lon="1.395773"><ele>205.0</ele><time>2026-04-12T07:33:23.597Z</time></trkpt><trkpt lat="44.9612795" lon="1.3958878"><ele>201.66666666666669</ele><time>2026-04-12T07:33:26.597Z</time></trkpt><trkpt lat="44.9612332" lon="1.3959519"><ele>198.33333333333334</ele><time>2026-04-12T07:33:28.597Z</time></trkpt><trkpt lat="44.9611613" lon="1.3959404"><ele>195.0</ele><time>2026-04-12T07:33:31.597Z</time></trkpt><trkpt lat="44.9610812" lon="1.39591"><ele>195.0</ele><time>2026-04-12T07:33:33.597Z</time></trkpt><trkpt lat="44.9609873" lon="1.3959099"><ele>195.0</ele><time>2026-04-12T07:33:35.597Z</time></trkpt><trkpt lat="44.9608933" lon="1.3959044"><ele>195.0</ele><time>2026-04-12T07:33:37.597Z</time></trkpt><trkpt lat="44.9608051" lon="1.3958626"><ele>195.0</ele><time>2026-04-12T07:33:39.597Z</time></trkpt><trkpt lat="44.9607221" lon="1.3958291"><ele>195.0</ele><time>2026-04-12T07:33:41.597Z</time></trkpt><trkpt lat="44.9606253" lon="1.3958281"><ele>192.6</ele><time>2026-04-12T07:33:43.597Z</time></trkpt><trkpt lat="44.9605298" lon="1.395878"><ele>190.2</ele><time>2026-04-12T07:33:45.598Z</time></trkpt><trkpt lat="44.9604305" lon="1.3959023"><ele>187.8</ele><time>2026-04-12T07:33:47.597Z</time></trkpt><trkpt lat="44.9603378" lon="1.3959036"><ele>185.4</ele><time>2026-04-12T07:33:49.597Z</time></trkpt><trkpt lat="44.9602586" lon="1.3958919"><ele>183.0</ele><time>2026-04-12T07:33:51.597Z</time></trkpt><trkpt lat="44.960169" lon="1.3959507"><ele>183.0</ele><time>2026-04-12T07:33:53.596Z</time></trkpt><trkpt lat="44.9600849" lon="1.3959909"><ele>183.0</ele><time>2026-04-12T07:33:55.598Z</time></trkpt><trkpt lat="44.9600207" lon="1.3960457"><ele>183.0</ele><time>2026-04-12T07:33:58.598Z</time></trkpt><trkpt lat="44.9599487" lon="1.396111"><ele>183.0</ele><time>2026-04-12T07:34:00.598Z</time></trkpt><trkpt lat="44.9598544" lon="1.3962116"><ele>183.0</ele><time>2026-04-12T07:34:02.597Z</time></trkpt><trkpt lat="44.9597658" lon="1.3962957"><ele>183.71428571428572</ele><time>2026-04-12T07:34:04.598Z</time></trkpt><trkpt lat="44.9596898" lon="1.3963755"><ele>184.42857142857144</ele><time>2026-04-12T07:34:06.597Z</time></trkpt><trkpt lat="44.9596413" lon="1.3964339"><ele>185.14285714285714</ele><time>2026-04-12T07:34:08.597Z</time></trkpt><trkpt lat="44.9595925" lon="1.3964933"><ele>185.85714285714286</ele><time>2026-04-12T07:34:10.597Z</time></trkpt><trkpt lat="44.9595303" lon="1.3965483"><ele>186.57142857142856</ele><time>2026-04-12T07:34:12.596Z</time></trkpt><trkpt lat="44.9595579" lon="1.3966375"><ele>187.28571428571428</ele><time>2026-04-12T07:34:16.598Z</time></trkpt><trkpt lat="44.9596254" lon="1.3966677"><ele>188.0</ele><time>2026-04-12T07:34:18.597Z</time></trkpt><trkpt lat="44.9596911" lon="1.3966848"><ele>188.0</ele><time>2026-04-12T07:34:21.598Z</time></trkpt><trkpt lat="44.9596739" lon="1.3965808"><ele>188.0</ele><time>2026-04-12T07:34:23.597Z</time></trkpt><trkpt lat="44.959652" lon="1.3964857"><ele>188.0</ele><time>2026-04-12T07:34:25.597Z</time></trkpt><trkpt lat="44.9596813" lon="1.3963877"><ele>188.0</ele><time>2026-04-12T07:34:29.599Z</time></trkpt><trkpt lat="44.9597493" lon="1.396321"><ele>188.0</ele><time>2026-04-12T07:34:32.598Z</time></trkpt><trkpt lat="44.9598028" lon="1.3962662"><ele>188.0</ele><time>2026-04-12T07:34:34.598Z</time></trkpt><trkpt lat="44.9598597" lon="1.3962191"><ele>188.0</ele><time>2026-04-12T07:34:36.598Z</time></trkpt><trkpt lat="44.9599103" lon="1.396162"><ele>187.16666666666666</ele><time>2026-04-12T07:34:38.599Z</time></trkpt><trkpt lat="44.9599746" lon="1.3960877"><ele>186.33333333333331</ele><time>2026-04-12T07:34:41.599Z</time></trkpt><trkpt lat="44.9600369" lon="1.3960388"><ele>185.5</ele><time>2026-04-12T07:34:44.598Z</time></trkpt><trkpt lat="44.9600966" lon="1.3959996"><ele>184.66666666666666</ele><time>2026-04-12T07:34:49.597Z</time></trkpt><trkpt lat="44.9601837" lon="1.3959182"><ele>183.83333333333334</ele><time>2026-04-12T07:37:16.598Z</time></trkpt><trkpt lat="44.9602668" lon="1.3958494"><ele>183.0</ele><time>2026-04-12T07:37:18.599Z</time></trkpt><trkpt lat="44.9603317" lon="1.3957702"><ele>183.0</ele><time>2026-04-12T07:37:20.598Z</time></trkpt><trkpt lat="44.9603999" lon="1.395682"><ele>183.0</ele><time>2026-04-12T07:37:35.598Z</time></trkpt><trkpt lat="44.9604608" lon="1.3955824"><ele>183.0</ele><time>2026-04-12T07:37:37.597Z</time></trkpt><trkpt lat="44.9604052" lon="1.3954762"><ele>183.0</ele><time>2026-04-12T07:37:39.597Z</time></trkpt><trkpt lat="44.9603424" lon="1.3954051"><ele>183.0</ele><time>2026-04-12T07:37:40.598Z</time></trkpt><trkpt lat="44.9602706" lon="1.3953075"><ele>184.0</ele><time>2026-04-12T07:37:41.598Z</time></trkpt><trkpt lat="44.960126" lon="1.3951612"><ele>185.0</ele><time>2026-04-12T07:37:42.598Z</time></trkpt><trkpt lat="44.9599709" lon="1.3950652"><ele>186.0</ele><time>2026-04-12T07:37:43.598Z</time></trkpt><trkpt lat="44.9597809" lon="1.3950444"><ele>186.0</ele><time>2026-04-12T07:37:44.598Z</time></trkpt><trkpt lat="44.9596178" lon="1.3949923"><ele>186.0</ele><time>2026-04-12T07:37:45.6Z</time></trkpt><trkpt lat="44.9594516" lon="1.3949301"><ele>186.0</ele><time>2026-04-12T07:37:46.6Z</time></trkpt><trkpt lat="44.9592806" lon="1.394865"><ele>183.33333333333334</ele><time>2026-04-12T07:37:47.599Z</time></trkpt><trkpt lat="44.959097" lon="1.3947758"><ele>180.66666666666669</ele><time>2026-04-12T07:37:48.599Z</time></trkpt><trkpt lat="44.9589067" lon="1.3946946"><ele>178.0</ele><time>2026-04-12T07:37:49.598Z</time></trkpt><trkpt lat="44.9587237" lon="1.3946204"><ele>178.33333333333334</ele><time>2026-04-12T07:37:50.599Z</time></trkpt><trkpt lat="44.9585546" lon="1.3945483"><ele>178.66666666666666</ele><time>2026-04-12T07:37:51.599Z</time></trkpt><trkpt lat="44.958385" lon="1.3944644"><ele>179.0</ele><time>2026-04-12T07:37:52.599Z</time></trkpt><trkpt lat="44.9582315" lon="1.3943653"><ele>179.0</ele><time>2026-04-12T07:37:53.599Z</time></trkpt><trkpt lat="44.9580847" lon="1.3942683"><ele>179.0</ele><time>2026-04-12T07:37:54.598Z</time></trkpt><trkpt lat="44.9579435" lon="1.3941436"><ele>179.0</ele><time>2026-04-12T07:37:55.599Z</time></trkpt><trkpt lat="44.9578063" lon="1.3940003"><ele>179.0</ele><time>2026-04-12T07:37:56.599Z</time></trkpt><trkpt lat="44.9576756" lon="1.3938499"><ele>179.0</ele><time>2026-04-12T07:37:57.599Z</time></trkpt><trkpt lat="44.9575534" lon="1.3936872"><ele>179.0</ele><time>2026-04-12T07:37:58.599Z</time></trkpt><trkpt lat="44.9574321" lon="1.3935287"><ele>177.66666666666666</ele><time>2026-04-12T07:37:59.599Z</time></trkpt><trkpt lat="44.9573128" lon="1.3933724"><ele>176.33333333333334</ele><time>2026-04-12T07:38:00.598Z</time></trkpt><trkpt lat="44.9572085" lon="1.3932192"><ele>175.0</ele><time>2026-04-12T07:38:01.599Z</time></trkpt><trkpt lat="44.9571191" lon="1.3930585"><ele>178.0</ele><time>2026-04-12T07:38:02.599Z</time></trkpt><trkpt lat="44.9570495" lon="1.392883"><ele>181.0</ele><time>2026-04-12T07:38:03.599Z</time></trkpt><trkpt lat="44.9569939" lon="1.3926923"><ele>184.0</ele><time>2026-04-12T07:38:04.599Z</time></trkpt><trkpt lat="44.9569498" lon="1.392495"><ele>187.0</ele><time>2026-04-12T07:38:05.599Z</time></trkpt><trkpt lat="44.9569231" lon="1.3922993"><ele>190.25</ele><time>2026-04-12T07:38:06.6Z</time></trkpt><trkpt lat="44.9569009" lon="1.3921041"><ele>193.5</ele><time>2026-04-12T07:38:07.598Z</time></trkpt><trkpt lat="44.9568702" lon="1.3918982"><ele>196.75</ele><time>2026-04-12T07:38:08.599Z</time></trkpt><trkpt lat="44.956824" lon="1.3916879"><ele>200.0</ele><time>2026-04-12T07:38:09.599Z</time></trkpt><trkpt lat="44.9567715" lon="1.3914681"><ele>200.66666666666669</ele><time>2026-04-12T07:38:10.599Z</time></trkpt><trkpt lat="44.9567101" lon="1.3912503"><ele>201.33333333333331</ele><time>2026-04-12T07:38:11.599Z</time></trkpt><trkpt lat="44.9566486" lon="1.391027"><ele>202.0</ele><time>2026-04-12T07:38:12.599Z</time></trkpt><trkpt lat="44.9565945" lon="1.3908071"><ele>191.33333333333331</ele><time>2026-04-12T07:38:13.598Z</time></trkpt><trkpt lat="44.9565417" lon="1.3906037"><ele>180.66666666666666</ele><time>2026-04-12T07:38:14.599Z</time></trkpt><trkpt lat="44.9564793" lon="1.3904027"><ele>170.0</ele><time>2026-04-12T07:38:15.599Z</time></trkpt><trkpt lat="44.9564076" lon="1.3902078"><ele>170.0</ele><time>2026-04-12T07:38:16.599Z</time></trkpt><trkpt lat="44.9563318" lon="1.3900219"><ele>170.0</ele><time>2026-04-12T07:38:17.599Z</time></trkpt><trkpt lat="44.9562496" lon="1.3898465"><ele>170.0</ele><time>2026-04-12T07:38:18.599Z</time></trkpt><trkpt lat="44.9561695" lon="1.3896731"><ele>170.0</ele><time>2026-04-12T07:38:19.599Z</time></trkpt><trkpt lat="44.9561012" lon="1.3895202"><ele>169.0</ele><time>2026-04-12T07:38:20.6Z</time></trkpt><trkpt lat="44.9560369" lon="1.38937"><ele>168.0</ele><time>2026-04-12T07:38:21.599Z</time></trkpt><trkpt lat="44.9559885" lon="1.3892559"><ele>167.0</ele><time>2026-04-12T07:38:22.599Z</time></trkpt><trkpt lat="44.9559515" lon="1.3891832"><ele>166.0</ele><time>2026-04-12T07:38:23.599Z</time></trkpt><trkpt lat="44.9558842" lon="1.3891343"><ele>165.0</ele><time>2026-04-12T07:38:25.599Z</time></trkpt><trkpt lat="44.9557907" lon="1.3891673"><ele>163.83333333333334</ele><time>2026-04-12T07:38:27.599Z</time></trkpt><trkpt lat="44.9557259" lon="1.3891877"><ele>162.66666666666666</ele><time>2026-04-12T07:38:28.598Z</time></trkpt><trkpt lat="44.955651" lon="1.3892096"><ele>161.5</ele><time>2026-04-12T07:38:29.599Z</time></trkpt><trkpt lat="44.9555715" lon="1.3892366"><ele>160.33333333333331</ele><time>2026-04-12T07:38:30.599Z</time></trkpt><trkpt lat="44.9554876" lon="1.3892562"><ele>159.16666666666666</ele><time>2026-04-12T07:38:31.6Z</time></trkpt><trkpt lat="44.9553993" lon="1.3892727"><ele>158.0</ele><time>2026-04-12T07:38:32.6Z</time></trkpt><trkpt lat="44.9553089" lon="1.3892793"><ele>158.0</ele><time>2026-04-12T07:38:33.599Z</time></trkpt><trkpt lat="44.9552227" lon="1.3892698"><ele>158.0</ele><time>2026-04-12T07:38:34.599Z</time></trkpt><trkpt lat="44.9551365" lon="1.3892512"><ele>158.0</ele><time>2026-04-12T07:38:35.598Z</time></trkpt><trkpt lat="44.9550521" lon="1.3892276"><ele>158.0</ele><time>2026-04-12T07:38:36.598Z</time></trkpt><trkpt lat="44.9549671" lon="1.3891996"><ele>158.0</ele><time>2026-04-12T07:38:37.599Z</time></trkpt><trkpt lat="44.9548819" lon="1.3891717"><ele>158.0</ele><time>2026-04-12T07:38:38.6Z</time></trkpt><trkpt lat="44.9547997" lon="1.3891416"><ele>157.5</ele><time>2026-04-12T07:38:39.599Z</time></trkpt><trkpt lat="44.9547235" lon="1.3891113"><ele>157.0</ele><time>2026-04-12T07:38:40.599Z</time></trkpt><trkpt lat="44.9546514" lon="1.3890851"><ele>156.5</ele><time>2026-04-12T07:38:41.599Z</time></trkpt><trkpt lat="44.9545855" lon="1.3890602"><ele>156.0</ele><time>2026-04-12T07:38:42.599Z</time></trkpt><trkpt lat="44.9545037" lon="1.3889319"><ele>155.5</ele><time>2026-04-12T07:38:44.599Z</time></trkpt><trkpt lat="44.9544856" lon="1.3888353"><ele>155.0</ele><time>2026-04-12T07:38:45.599Z</time></trkpt><trkpt lat="44.9544689" lon="1.3887328"><ele>154.5</ele><time>2026-04-12T07:38:46.599Z</time></trkpt><trkpt lat="44.9544525" lon="1.3886205"><ele>154.0</ele><time>2026-04-12T07:38:47.599Z</time></trkpt><trkpt lat="44.9544319" lon="1.3885087"><ele>153.5</ele><time>2026-04-12T07:38:48.598Z</time></trkpt><trkpt lat="44.9544078" lon="1.3883953"><ele>153.0</ele><time>2026-04-12T07:38:49.598Z</time></trkpt><trkpt lat="44.9543841" lon="1.3882821"><ele>152.5</ele><time>2026-04-12T07:38:50.599Z</time></trkpt><trkpt lat="44.9543571" lon="1.3881708"><ele>152.0</ele><time>2026-04-12T07:38:51.599Z</time></trkpt><trkpt lat="44.9543344" lon="1.3880649"><ele>152.0</ele><time>2026-04-12T07:38:52.599Z</time></trkpt><trkpt lat="44.9543074" lon="1.3879684"><ele>152.0</ele><time>2026-04-12T07:38:53.599Z</time></trkpt><trkpt lat="44.9542737" lon="1.3878811"><ele>152.0</ele><time>2026-04-12T07:38:54.599Z</time></trkpt><trkpt lat="44.9542053" lon="1.387748"><ele>152.0</ele><time>2026-04-12T07:38:56.6Z</time></trkpt><trkpt lat="44.9541561" lon="1.3876911"><ele>152.0</ele><time>2026-04-12T07:38:57.599Z</time></trkpt><trkpt lat="44.9540558" lon="1.3875952"><ele>152.0</ele><time>2026-04-12T07:38:59.599Z</time></trkpt><trkpt lat="44.9540046" lon="1.387542"><ele>152.2</ele><time>2026-04-12T07:39:00.599Z</time></trkpt><trkpt lat="44.9539112" lon="1.3874695"><ele>152.39999999999998</ele><time>2026-04-12T07:39:02.599Z</time></trkpt><trkpt lat="44.9538231" lon="1.3873944"><ele>152.60000000000002</ele><time>2026-04-12T07:39:05.599Z</time></trkpt><trkpt lat="44.9538059" lon="1.3872362"><ele>152.8</ele><time>2026-04-12T07:39:07.599Z</time></trkpt><trkpt lat="44.9538038" lon="1.3871466"><ele>153.0</ele><time>2026-04-12T07:39:08.598Z</time></trkpt><trkpt lat="44.9537956" lon="1.3870475"><ele>153.0</ele><time>2026-04-12T07:39:09.599Z</time></trkpt><trkpt lat="44.9537831" lon="1.3869461"><ele>153.0</ele><time>2026-04-12T07:39:10.599Z</time></trkpt><trkpt lat="44.9537659" lon="1.3868455"><ele>153.0</ele><time>2026-04-12T07:39:11.598Z</time></trkpt><trkpt lat="44.9537429" lon="1.3867519"><ele>153.0</ele><time>2026-04-12T07:39:12.6Z</time></trkpt><trkpt lat="44.9537172" lon="1.3866598"><ele>153.0</ele><time>2026-04-12T07:39:13.599Z</time></trkpt><trkpt lat="44.9536957" lon="1.3865609"><ele>153.0</ele><time>2026-04-12T07:39:14.599Z</time></trkpt><trkpt lat="44.9536802" lon="1.3864632"><ele>153.0</ele><time>2026-04-12T07:39:15.599Z</time></trkpt><trkpt lat="44.9536722" lon="1.3863675"><ele>152.8</ele><time>2026-04-12T07:39:16.599Z</time></trkpt><trkpt lat="44.9536654" lon="1.3862758"><ele>152.60000000000002</ele><time>2026-04-12T07:39:17.598Z</time></trkpt><trkpt lat="44.9536079" lon="1.3861427"><ele>152.39999999999998</ele><time>2026-04-12T07:39:19.599Z</time></trkpt><trkpt lat="44.9535046" lon="1.3861704"><ele>152.2</ele><time>2026-04-12T07:39:21.599Z</time></trkpt><trkpt lat="44.9534149" lon="1.3862917"><ele>152.0</ele><time>2026-04-12T07:39:23.598Z</time></trkpt><trkpt lat="44.953342" lon="1.3863177"><ele>154.16666666666666</ele><time>2026-04-12T07:39:24.599Z</time></trkpt><trkpt lat="44.9532645" lon="1.3863239"><ele>156.33333333333331</ele><time>2026-04-12T07:39:25.599Z</time></trkpt><trkpt lat="44.9531876" lon="1.3863342"><ele>158.5</ele><time>2026-04-12T07:39:26.599Z</time></trkpt><trkpt lat="44.9531107" lon="1.3863364"><ele>160.66666666666666</ele><time>2026-04-12T07:39:27.6Z</time></trkpt><trkpt lat="44.9530266" lon="1.3863111"><ele>162.83333333333334</ele><time>2026-04-12T07:39:28.6Z</time></trkpt><trkpt lat="44.9529435" lon="1.3862744"><ele>165.0</ele><time>2026-04-12T07:39:29.599Z</time></trkpt><trkpt lat="44.952867" lon="1.3862209"><ele>165.0</ele><time>2026-04-12T07:39:30.599Z</time></trkpt><trkpt lat="44.9527906" lon="1.3861402"><ele>165.0</ele><time>2026-04-12T07:39:31.599Z</time></trkpt><trkpt lat="44.9527127" lon="1.3860488"><ele>165.0</ele><time>2026-04-12T07:39:32.599Z</time></trkpt><trkpt lat="44.9526479" lon="1.3859337"><ele>165.0</ele><time>2026-04-12T07:39:33.6Z</time></trkpt><trkpt lat="44.9525772" lon="1.3858178"><ele>165.0</ele><time>2026-04-12T07:39:34.599Z</time></trkpt><trkpt lat="44.9525003" lon="1.3857058"><ele>164.6</ele><time>2026-04-12T07:39:35.599Z</time></trkpt><trkpt lat="44.9524031" lon="1.3855996"><ele>164.2</ele><time>2026-04-12T07:39:36.6Z</time></trkpt><trkpt lat="44.9523349" lon="1.3855049"><ele>163.8</ele><time>2026-04-12T07:39:37.599Z</time></trkpt><trkpt lat="44.9522715" lon="1.3854183"><ele>163.4</ele><time>2026-04-12T07:39:38.599Z</time></trkpt><trkpt lat="44.9522063" lon="1.3853542"><ele>163.0</ele><time>2026-04-12T07:39:39.599Z</time></trkpt><trkpt lat="44.9521338" lon="1.3853296"><ele>163.0</ele><time>2026-04-12T07:39:40.599Z</time></trkpt><trkpt lat="44.9520543" lon="1.3853463"><ele>163.0</ele><time>2026-04-12T07:39:41.6Z</time></trkpt><trkpt lat="44.9519766" lon="1.3854072"><ele>163.0</ele><time>2026-04-12T07:39:42.598Z</time></trkpt><trkpt lat="44.9518984" lon="1.3854963"><ele>163.0</ele><time>2026-04-12T07:39:43.599Z</time></trkpt><trkpt lat="44.9518081" lon="1.3855463"><ele>163.0</ele><time>2026-04-12T07:39:44.599Z</time></trkpt><trkpt lat="44.9517142" lon="1.3855549"><ele>163.5</ele><time>2026-04-12T07:39:45.599Z</time></trkpt><trkpt lat="44.9516085" lon="1.385534"><ele>164.0</ele><time>2026-04-12T07:39:46.6Z</time></trkpt><trkpt lat="44.9515002" lon="1.3855015"><ele>164.5</ele><time>2026-04-12T07:39:47.599Z</time></trkpt><trkpt lat="44.9513817" lon="1.3854825"><ele>165.0</ele><time>2026-04-12T07:39:48.6Z</time></trkpt><trkpt lat="44.9512643" lon="1.3854652"><ele>166.5</ele><time>2026-04-12T07:39:49.599Z</time></trkpt><trkpt lat="44.9511653" lon="1.3854259"><ele>168.0</ele><time>2026-04-12T07:39:50.599Z</time></trkpt><trkpt lat="44.9510255" lon="1.3854293"><ele>169.5</ele><time>2026-04-12T07:39:51.599Z</time></trkpt><trkpt lat="44.9509004" lon="1.3854318"><ele>171.0</ele><time>2026-04-12T07:39:52.598Z</time></trkpt><trkpt lat="44.9507769" lon="1.3854309"><ele>173.0</ele><time>2026-04-12T07:39:53.599Z</time></trkpt><trkpt lat="44.9506512" lon="1.385425"><ele>175.0</ele><time>2026-04-12T07:39:54.599Z</time></trkpt><trkpt lat="44.9505297" lon="1.3853757"><ele>177.0</ele><time>2026-04-12T07:39:55.599Z</time></trkpt><trkpt lat="44.9504082" lon="1.3853471"><ele>179.0</ele><time>2026-04-12T07:39:56.599Z</time></trkpt><trkpt lat="44.9502638" lon="1.385322"><ele>179.0</ele><time>2026-04-12T07:39:57.599Z</time></trkpt><trkpt lat="44.9501228" lon="1.3852664"><ele>179.0</ele><time>2026-04-12T07:39:58.598Z</time></trkpt><trkpt lat="44.9499696" lon="1.3852344"><ele>179.0</ele><time>2026-04-12T07:39:59.599Z</time></trkpt><trkpt lat="44.949833" lon="1.3851843"><ele>179.0</ele><time>2026-04-12T07:40:00.599Z</time></trkpt><trkpt lat="44.949687" lon="1.3851116"><ele>183.66666666666666</ele><time>2026-04-12T07:40:01.598Z</time></trkpt><trkpt lat="44.9495383" lon="1.3850149"><ele>188.33333333333331</ele><time>2026-04-12T07:40:02.599Z</time></trkpt><trkpt lat="44.9493824" lon="1.3849006"><ele>193.0</ele><time>2026-04-12T07:40:03.599Z</time></trkpt><trkpt lat="44.9492296" lon="1.3847646"><ele>194.4</ele><time>2026-04-12T07:40:04.598Z</time></trkpt><trkpt lat="44.9490935" lon="1.3846285"><ele>195.8</ele><time>2026-04-12T07:40:05.599Z</time></trkpt><trkpt lat="44.9490229" lon="1.3845319"><ele>197.2</ele><time>2026-04-12T07:40:06.599Z</time></trkpt><trkpt lat="44.9489592" lon="1.3844806"><ele>198.6</ele><time>2026-04-12T07:40:07.599Z</time></trkpt><trkpt lat="44.9490016" lon="1.3845513"><ele>200.0</ele><time>2026-04-12T07:43:44.6Z</time></trkpt><trkpt lat="44.9490628" lon="1.3845826"><ele>200.00000000000003</ele><time>2026-04-12T07:53:39.603Z</time></trkpt><trkpt lat="44.9490153" lon="1.3845241"><ele>200.0</ele><time>2026-04-12T07:54:16.603Z</time></trkpt><trkpt lat="44.9490617" lon="1.3846009"><ele>200.0</ele><time>2026-04-12T08:00:22.604Z</time></trkpt><trkpt lat="44.9491175" lon="1.3846531"><ele>200.0</ele><time>2026-04-12T08:00:28.604Z</time></trkpt><trkpt lat="44.9491732" lon="1.3847019"><ele>200.0</ele><time>2026-04-12T08:00:37.605Z</time></trkpt><trkpt lat="44.9492327" lon="1.3847531"><ele>200.00000000000003</ele><time>2026-04-12T08:00:41.604Z</time></trkpt><trkpt lat="44.9492916" lon="1.3847913"><ele>200.0</ele><time>2026-04-12T08:00:46.605Z</time></trkpt><trkpt lat="44.9493435" lon="1.384848"><ele>198.83333333333334</ele><time>2026-04-12T08:00:52.605Z</time></trkpt><trkpt lat="44.949406" lon="1.384908"><ele>197.66666666666669</ele><time>2026-04-12T08:01:00.605Z</time></trkpt><trkpt lat="44.949472" lon="1.3849627"><ele>196.5</ele><time>2026-04-12T08:01:06.605Z</time></trkpt><trkpt lat="44.9495331" lon="1.3850093"><ele>195.33333333333331</ele><time>2026-04-12T08:01:11.605Z</time></trkpt><trkpt lat="44.9495954" lon="1.3850455"><ele>194.16666666666666</ele><time>2026-04-12T08:01:15.605Z</time></trkpt><trkpt lat="44.9496673" lon="1.3850912"><ele>193.0</ele><time>2026-04-12T08:01:19.605Z</time></trkpt><trkpt lat="44.9497411" lon="1.3851415"><ele>192.99999999999997</ele><time>2026-04-12T08:01:23.605Z</time></trkpt><trkpt lat="44.9498133" lon="1.3851743"><ele>193.0</ele><time>2026-04-12T08:01:26.605Z</time></trkpt><trkpt lat="44.9498922" lon="1.3852002"><ele>193.0</ele><time>2026-04-12T08:01:29.605Z</time></trkpt><trkpt lat="44.949977" lon="1.385224"><ele>193.0</ele><time>2026-04-12T08:01:32.604Z</time></trkpt><trkpt lat="44.9500514" lon="1.3852425"><ele>192.99999999999997</ele><time>2026-04-12T08:01:34.604Z</time></trkpt><trkpt lat="44.9501647" lon="1.3852803"><ele>193.0</ele><time>2026-04-12T08:01:36.605Z</time></trkpt><trkpt lat="44.9502252" lon="1.3853121"><ele>190.66666666666666</ele><time>2026-04-12T08:01:37.605Z</time></trkpt><trkpt lat="44.9503208" lon="1.3853503"><ele>188.33333333333331</ele><time>2026-04-12T08:01:38.605Z</time></trkpt><trkpt lat="44.95039" lon="1.3853644"><ele>186.0</ele><time>2026-04-12T08:01:39.605Z</time></trkpt><trkpt lat="44.9504543" lon="1.3853696"><ele>183.66666666666666</ele><time>2026-04-12T08:01:40.605Z</time></trkpt><trkpt lat="44.9505306" lon="1.385386"><ele>181.33333333333331</ele><time>2026-04-12T08:01:41.606Z</time></trkpt><trkpt lat="44.9506081" lon="1.3854032"><ele>179.0</ele><time>2026-04-12T08:01:42.604Z</time></trkpt><trkpt lat="44.9507217" lon="1.3854489"><ele>179.0</ele><time>2026-04-12T08:01:44.605Z</time></trkpt><trkpt lat="44.9508177" lon="1.3854566"><ele>179.0</ele><time>2026-04-12T08:01:45.604Z</time></trkpt><trkpt lat="44.9509066" lon="1.385459"><ele>179.0</ele><time>2026-04-12T08:01:46.605Z</time></trkpt><trkpt lat="44.9509926" lon="1.3854626"><ele>179.0</ele><time>2026-04-12T08:01:47.605Z</time></trkpt><trkpt lat="44.9510797" lon="1.3854627"><ele>179.0</ele><time>2026-04-12T08:01:48.605Z</time></trkpt><trkpt lat="44.9511632" lon="1.3854733"><ele>179.0</ele><time>2026-04-12T08:01:49.605Z</time></trkpt><trkpt lat="44.9512486" lon="1.3854821"><ele>177.66666666666666</ele><time>2026-04-12T08:01:50.605Z</time></trkpt><trkpt lat="44.9513344" lon="1.3854777"><ele>176.33333333333331</ele><time>2026-04-12T08:01:51.606Z</time></trkpt><trkpt lat="44.9514332" lon="1.3854802"><ele>175.0</ele><time>2026-04-12T08:01:52.604Z</time></trkpt><trkpt lat="44.9515204" lon="1.3854986"><ele>173.66666666666666</ele><time>2026-04-12T08:01:53.605Z</time></trkpt><trkpt lat="44.9516091" lon="1.3855241"><ele>172.33333333333334</ele><time>2026-04-12T08:01:54.605Z</time></trkpt><trkpt lat="44.9516835" lon="1.3855413"><ele>171.0</ele><time>2026-04-12T08:01:55.605Z</time></trkpt><trkpt lat="44.9517635" lon="1.3855558"><ele>169.66666666666666</ele><time>2026-04-12T08:01:56.605Z</time></trkpt><trkpt lat="44.9518449" lon="1.3855336"><ele>168.33333333333334</ele><time>2026-04-12T08:01:57.605Z</time></trkpt><trkpt lat="44.9519187" lon="1.3854896"><ele>167.0</ele><time>2026-04-12T08:01:58.604Z</time></trkpt><trkpt lat="44.9519814" lon="1.3854217"><ele>165.66666666666669</ele><time>2026-04-12T08:01:59.606Z</time></trkpt><trkpt lat="44.9520427" lon="1.3853689"><ele>164.33333333333334</ele><time>2026-04-12T08:02:00.605Z</time></trkpt><trkpt lat="44.9521041" lon="1.3853372"><ele>163.0</ele><time>2026-04-12T08:02:01.605Z</time></trkpt><trkpt lat="44.952212" lon="1.3853535"><ele>163.0</ele><time>2026-04-12T08:02:03.605Z</time></trkpt><trkpt lat="44.9522787" lon="1.3854165"><ele>163.0</ele><time>2026-04-12T08:02:05.604Z</time></trkpt><trkpt lat="44.9523274" lon="1.3854817"><ele>163.0</ele><time>2026-04-12T08:02:07.605Z</time></trkpt><trkpt lat="44.9523838" lon="1.3855605"><ele>163.0</ele><time>2026-04-12T08:02:10.605Z</time></trkpt><trkpt lat="44.952432" lon="1.3856186"><ele>163.0</ele><time>2026-04-12T08:02:13.605Z</time></trkpt><trkpt lat="44.9524918" lon="1.3856824"><ele>163.0</ele><time>2026-04-12T08:02:17.605Z</time></trkpt><trkpt lat="44.9525412" lon="1.385742"><ele>163.0</ele><time>2026-04-12T08:02:21.605Z</time></trkpt><trkpt lat="44.9525842" lon="1.3858095"><ele>163.33333333333334</ele><time>2026-04-12T08:02:24.605Z</time></trkpt><trkpt lat="44.952639" lon="1.3859266"><ele>163.66666666666669</ele><time>2026-04-12T08:02:26.604Z</time></trkpt><trkpt lat="44.9526857" lon="1.3859973"><ele>164.0</ele><time>2026-04-12T08:02:27.605Z</time></trkpt><trkpt lat="44.9527345" lon="1.3860651"><ele>164.33333333333334</ele><time>2026-04-12T08:02:28.605Z</time></trkpt><trkpt lat="44.9527887" lon="1.3861317"><ele>164.66666666666666</ele><time>2026-04-12T08:02:29.604Z</time></trkpt><trkpt lat="44.9528423" lon="1.3861928"><ele>165.0</ele><time>2026-04-12T08:02:30.606Z</time></trkpt><trkpt lat="44.9529036" lon="1.3862496"><ele>165.00000000000003</ele><time>2026-04-12T08:02:31.605Z</time></trkpt><trkpt lat="44.952967" lon="1.3862925"><ele>165.0</ele><time>2026-04-12T08:02:32.605Z</time></trkpt><trkpt lat="44.9530315" lon="1.3863169"><ele>165.0</ele><time>2026-04-12T08:02:33.604Z</time></trkpt><trkpt lat="44.9530961" lon="1.3863346"><ele>165.0</ele><time>2026-04-12T08:02:34.605Z</time></trkpt><trkpt lat="44.9531667" lon="1.3863282"><ele>165.0</ele><time>2026-04-12T08:02:35.604Z</time></trkpt><trkpt lat="44.9532306" lon="1.3863199"><ele>165.00000000000003</ele><time>2026-04-12T08:02:36.605Z</time></trkpt><trkpt lat="44.9532958" lon="1.3863069"><ele>165.0</ele><time>2026-04-12T08:02:37.605Z</time></trkpt><trkpt lat="44.9533678" lon="1.3862956"><ele>162.83333333333334</ele><time>2026-04-12T08:02:38.606Z</time></trkpt><trkpt lat="44.9534944" lon="1.3862281"><ele>160.66666666666666</ele><time>2026-04-12T08:02:40.605Z</time></trkpt><trkpt lat="44.9535583" lon="1.3861443"><ele>158.5</ele><time>2026-04-12T08:02:42.604Z</time></trkpt><trkpt lat="44.953614" lon="1.3860967"><ele>156.33333333333331</ele><time>2026-04-12T08:03:06.605Z</time></trkpt><trkpt lat="44.9536151" lon="1.3859999"><ele>154.16666666666666</ele><time>2026-04-12T08:11:10.607Z</time></trkpt><trkpt lat="44.9536739" lon="1.3860536"><ele>152.0</ele><time>2026-04-12T08:11:32.592Z</time></trkpt><trkpt lat="44.9536255" lon="1.3859933"><ele>152.0</ele><time>2026-04-12T08:13:32.607Z</time></trkpt><trkpt lat="44.9535695" lon="1.3860419"><ele>152.0</ele><time>2026-04-12T08:15:49.608Z</time></trkpt><trkpt lat="44.953594" lon="1.3861332"><ele>152.0</ele><time>2026-04-12T08:15:54.607Z</time></trkpt><trkpt lat="44.9536686" lon="1.3861335"><ele>152.0</ele><time>2026-04-12T08:16:09.608Z</time></trkpt><trkpt lat="44.953717" lon="1.3860054"><ele>152.0</ele><time>2026-04-12T08:16:12.607Z</time></trkpt><trkpt lat="44.9537584" lon="1.3858627"><ele>152.0</ele><time>2026-04-12T08:16:14.608Z</time></trkpt><trkpt lat="44.9538246" lon="1.3857172"><ele>152.0</ele><time>2026-04-12T08:16:16.608Z</time></trkpt><trkpt lat="44.9538636" lon="1.3856368"><ele>152.0</ele><time>2026-04-12T08:16:17.608Z</time></trkpt><trkpt lat="44.9539063" lon="1.3855544"><ele>152.0</ele><time>2026-04-12T08:16:18.607Z</time></trkpt><trkpt lat="44.95395" lon="1.3854728"><ele>152.0</ele><time>2026-04-12T08:16:19.608Z</time></trkpt><trkpt lat="44.9539916" lon="1.3853765"><ele>152.0</ele><time>2026-04-12T08:16:20.607Z</time></trkpt><trkpt lat="44.9540376" lon="1.3852729"><ele>152.0</ele><time>2026-04-12T08:16:21.608Z</time></trkpt><trkpt lat="44.9540864" lon="1.3851679"><ele>151.79999999999998</ele><time>2026-04-12T08:16:22.608Z</time></trkpt><trkpt lat="44.9541368" lon="1.3850583"><ele>151.6</ele><time>2026-04-12T08:16:23.608Z</time></trkpt><trkpt lat="44.9541862" lon="1.3849445"><ele>151.39999999999998</ele><time>2026-04-12T08:16:24.608Z</time></trkpt><trkpt lat="44.9542387" lon="1.3848233"><ele>151.2</ele><time>2026-04-12T08:16:25.608Z</time></trkpt><trkpt lat="44.9542913" lon="1.3846985"><ele>151.0</ele><time>2026-04-12T08:16:26.608Z</time></trkpt><trkpt lat="44.9543446" lon="1.3845686"><ele>151.4</ele><time>2026-04-12T08:16:27.608Z</time></trkpt><trkpt lat="44.9543926" lon="1.3844319"><ele>151.8</ele><time>2026-04-12T08:16:28.607Z</time></trkpt><trkpt lat="44.9544376" lon="1.3842933"><ele>152.20000000000002</ele><time>2026-04-12T08:16:29.608Z</time></trkpt><trkpt lat="44.9544813" lon="1.3841503"><ele>152.6</ele><time>2026-04-12T08:16:30.608Z</time></trkpt><trkpt lat="44.9545201" lon="1.384008"><ele>153.0</ele><time>2026-04-12T08:16:31.608Z</time></trkpt><trkpt lat="44.9545589" lon="1.3838584"><ele>153.5</ele><time>2026-04-12T08:16:32.608Z</time></trkpt><trkpt lat="44.9545957" lon="1.3837057"><ele>154.0</ele><time>2026-04-12T08:16:33.607Z</time></trkpt><trkpt lat="44.9546324" lon="1.3835505"><ele>154.5</ele><time>2026-04-12T08:16:34.609Z</time></trkpt><trkpt lat="44.9546622" lon="1.3833911"><ele>155.0</ele><time>2026-04-12T08:16:35.608Z</time></trkpt><trkpt lat="44.9546908" lon="1.3832246"><ele>155.0</ele><time>2026-04-12T08:16:36.608Z</time></trkpt><trkpt lat="44.9547144" lon="1.383054"><ele>155.0</ele><time>2026-04-12T08:16:37.608Z</time></trkpt><trkpt lat="44.9547309" lon="1.382884"><ele>155.0</ele><time>2026-04-12T08:16:38.608Z</time></trkpt><trkpt lat="44.9547448" lon="1.3827132"><ele>155.0</ele><time>2026-04-12T08:16:39.608Z</time></trkpt><trkpt lat="44.9547567" lon="1.3825353"><ele>155.5</ele><time>2026-04-12T08:16:40.608Z</time></trkpt><trkpt lat="44.9547694" lon="1.3823569"><ele>156.0</ele><time>2026-04-12T08:16:41.609Z</time></trkpt><trkpt lat="44.9547804" lon="1.3821745"><ele>156.5</ele><time>2026-04-12T08:16:42.607Z</time></trkpt><trkpt lat="44.9547917" lon="1.3819908"><ele>157.0</ele><time>2026-04-12T08:16:43.608Z</time></trkpt><trkpt lat="44.9548039" lon="1.3818065"><ele>157.0</ele><time>2026-04-12T08:16:44.609Z</time></trkpt><trkpt lat="44.9548155" lon="1.3816165"><ele>157.0</ele><time>2026-04-12T08:16:45.607Z</time></trkpt><trkpt lat="44.9548287" lon="1.3814281"><ele>157.0</ele><time>2026-04-12T08:16:46.608Z</time></trkpt><trkpt lat="44.9548408" lon="1.3812391"><ele>157.0</ele><time>2026-04-12T08:16:47.608Z</time></trkpt><trkpt lat="44.9548556" lon="1.3810437"><ele>157.0</ele><time>2026-04-12T08:16:48.608Z</time></trkpt><trkpt lat="44.9548709" lon="1.3808441"><ele>157.0</ele><time>2026-04-12T08:16:49.608Z</time></trkpt><trkpt lat="44.9548876" lon="1.3806372"><ele>157.0</ele><time>2026-04-12T08:16:50.608Z</time></trkpt><trkpt lat="44.954905" lon="1.3804233"><ele>157.0</ele><time>2026-04-12T08:16:51.608Z</time></trkpt><trkpt lat="44.9549233" lon="1.3802013"><ele>157.0</ele><time>2026-04-12T08:16:52.608Z</time></trkpt><trkpt lat="44.9549403" lon="1.3799769"><ele>157.0</ele><time>2026-04-12T08:16:53.608Z</time></trkpt><trkpt lat="44.9549568" lon="1.3797531"><ele>157.0</ele><time>2026-04-12T08:16:54.608Z</time></trkpt><trkpt lat="44.9549734" lon="1.3795295"><ele>157.0</ele><time>2026-04-12T08:16:55.608Z</time></trkpt><trkpt lat="44.9549897" lon="1.3793063"><ele>157.0</ele><time>2026-04-12T08:16:56.608Z</time></trkpt><trkpt lat="44.9550067" lon="1.37908"><ele>157.0</ele><time>2026-04-12T08:16:57.608Z</time></trkpt><trkpt lat="44.9550228" lon="1.378853"><ele>156.33333333333334</ele><time>2026-04-12T08:16:58.608Z</time></trkpt><trkpt lat="44.9550418" lon="1.3786222"><ele>155.66666666666666</ele><time>2026-04-12T08:16:59.608Z</time></trkpt><trkpt lat="44.9550598" lon="1.3783889"><ele>155.0</ele><time>2026-04-12T08:17:00.607Z</time></trkpt><trkpt lat="44.9550827" lon="1.3781558"><ele>155.66666666666666</ele><time>2026-04-12T08:17:01.608Z</time></trkpt><trkpt lat="44.9551178" lon="1.3779218"><ele>156.33333333333334</ele><time>2026-04-12T08:17:02.608Z</time></trkpt><trkpt lat="44.9551682" lon="1.3776968"><ele>157.0</ele><time>2026-04-12T08:17:03.608Z</time></trkpt><trkpt lat="44.9552334" lon="1.3774815"><ele>157.0</ele><time>2026-04-12T08:17:04.608Z</time></trkpt><trkpt lat="44.9553096" lon="1.3772718"><ele>157.0</ele><time>2026-04-12T08:17:05.608Z</time></trkpt><trkpt lat="44.9553941" lon="1.3770646"><ele>157.0</ele><time>2026-04-12T08:17:06.607Z</time></trkpt><trkpt lat="44.9554829" lon="1.3768587"><ele>158.33333333333334</ele><time>2026-04-12T08:17:07.608Z</time></trkpt><trkpt lat="44.955574" lon="1.3766559"><ele>159.66666666666666</ele><time>2026-04-12T08:17:08.608Z</time></trkpt><trkpt lat="44.9556673" lon="1.3764551"><ele>161.0</ele><time>2026-04-12T08:17:09.608Z</time></trkpt><trkpt lat="44.9557699" lon="1.3762628"><ele>160.33333333333331</ele><time>2026-04-12T08:17:10.608Z</time></trkpt><trkpt lat="44.955877" lon="1.3760749"><ele>159.66666666666666</ele><time>2026-04-12T08:17:11.608Z</time></trkpt><trkpt lat="44.9559963" lon="1.3759001"><ele>159.0</ele><time>2026-04-12T08:17:12.609Z</time></trkpt><trkpt lat="44.9561235" lon="1.3757365"><ele>159.0</ele><time>2026-04-12T08:17:13.609Z</time></trkpt><trkpt lat="44.9562622" lon="1.3755888"><ele>159.0</ele><time>2026-04-12T08:17:14.607Z</time></trkpt><trkpt lat="44.9564081" lon="1.3754618"><ele>159.0</ele><time>2026-04-12T08:17:15.608Z</time></trkpt><trkpt lat="44.9565627" lon="1.3753538"><ele>160.66666666666666</ele><time>2026-04-12T08:17:16.609Z</time></trkpt><trkpt lat="44.956726" lon="1.3752688"><ele>162.33333333333331</ele><time>2026-04-12T08:17:17.608Z</time></trkpt><trkpt lat="44.9568956" lon="1.3751931"><ele>164.0</ele><time>2026-04-12T08:17:18.608Z</time></trkpt><trkpt lat="44.9570656" lon="1.3751223"><ele>164.0</ele><time>2026-04-12T08:17:19.608Z</time></trkpt><trkpt lat="44.9572357" lon="1.3750483"><ele>164.0</ele><time>2026-04-12T08:17:20.608Z</time></trkpt><trkpt lat="44.9574067" lon="1.3749722"><ele>164.0</ele><time>2026-04-12T08:17:21.608Z</time></trkpt><trkpt lat="44.9575774" lon="1.3748975"><ele>163.33333333333331</ele><time>2026-04-12T08:17:22.608Z</time></trkpt><trkpt lat="44.9577432" lon="1.3748188"><ele>162.66666666666666</ele><time>2026-04-12T08:17:23.607Z</time></trkpt><trkpt lat="44.9579154" lon="1.3747426"><ele>162.0</ele><time>2026-04-12T08:17:24.608Z</time></trkpt><trkpt lat="44.9580868" lon="1.3746783"><ele>168.66666666666666</ele><time>2026-04-12T08:17:25.608Z</time></trkpt><trkpt lat="44.9582654" lon="1.374644"><ele>175.33333333333331</ele><time>2026-04-12T08:17:26.608Z</time></trkpt><trkpt lat="44.958446" lon="1.3746391"><ele>182.0</ele><time>2026-04-12T08:17:27.607Z</time></trkpt><trkpt lat="44.958627" lon="1.3746552"><ele>182.0</ele><time>2026-04-12T08:17:28.608Z</time></trkpt><trkpt lat="44.958809" lon="1.3746816"><ele>182.0</ele><time>2026-04-12T08:17:29.608Z</time></trkpt><trkpt lat="44.9589903" lon="1.3747086"><ele>182.0</ele><time>2026-04-12T08:17:30.609Z</time></trkpt><trkpt lat="44.9591742" lon="1.3747317"><ele>175.66666666666666</ele><time>2026-04-12T08:17:31.608Z</time></trkpt><trkpt lat="44.9593586" lon="1.3747527"><ele>169.33333333333334</ele><time>2026-04-12T08:17:32.608Z</time></trkpt><trkpt lat="44.9595425" lon="1.3747751"><ele>163.0</ele><time>2026-04-12T08:17:33.607Z</time></trkpt><trkpt lat="44.9597278" lon="1.3748099"><ele>163.0</ele><time>2026-04-12T08:17:34.608Z</time></trkpt><trkpt lat="44.959911" lon="1.3748488"><ele>163.0</ele><time>2026-04-12T08:17:35.609Z</time></trkpt><trkpt lat="44.9600956" lon="1.3748946"><ele>163.0</ele><time>2026-04-12T08:17:36.607Z</time></trkpt><trkpt lat="44.9602794" lon="1.3749446"><ele>165.33333333333334</ele><time>2026-04-12T08:17:37.608Z</time></trkpt><trkpt lat="44.9604629" lon="1.3749933"><ele>167.66666666666666</ele><time>2026-04-12T08:17:38.608Z</time></trkpt><trkpt lat="44.9606451" lon="1.3750449"><ele>170.0</ele><time>2026-04-12T08:17:39.608Z</time></trkpt><trkpt lat="44.960827" lon="1.3750936"><ele>172.0</ele><time>2026-04-12T08:17:40.609Z</time></trkpt><trkpt lat="44.9610097" lon="1.3751464"><ele>174.0</ele><time>2026-04-12T08:17:41.608Z</time></trkpt><trkpt lat="44.961187" lon="1.3751975"><ele>176.0</ele><time>2026-04-12T08:17:42.608Z</time></trkpt><trkpt lat="44.9613607" lon="1.3752361"><ele>176.0</ele><time>2026-04-12T08:17:43.608Z</time></trkpt><trkpt lat="44.961538" lon="1.3752554"><ele>176.0</ele><time>2026-04-12T08:17:44.608Z</time></trkpt><trkpt lat="44.9617167" lon="1.3752571"><ele>176.0</ele><time>2026-04-12T08:17:45.608Z</time></trkpt><trkpt lat="44.9618939" lon="1.3752406"><ele>175.0</ele><time>2026-04-12T08:17:46.608Z</time></trkpt><trkpt lat="44.9620703" lon="1.3752103"><ele>174.0</ele><time>2026-04-12T08:17:47.608Z</time></trkpt><trkpt lat="44.9622455" lon="1.3751609"><ele>173.0</ele><time>2026-04-12T08:17:48.609Z</time></trkpt><trkpt lat="44.962419" lon="1.3751034"><ele>171.33333333333331</ele><time>2026-04-12T08:17:49.609Z</time></trkpt><trkpt lat="44.9625897" lon="1.3750382"><ele>169.66666666666666</ele><time>2026-04-12T08:17:50.607Z</time></trkpt><trkpt lat="44.9627558" lon="1.3749614"><ele>168.0</ele><time>2026-04-12T08:17:51.608Z</time></trkpt><trkpt lat="44.9629123" lon="1.374868"><ele>168.0</ele><time>2026-04-12T08:17:52.608Z</time></trkpt><trkpt lat="44.963058" lon="1.3747591"><ele>168.0</ele><time>2026-04-12T08:17:53.609Z</time></trkpt><trkpt lat="44.9631933" lon="1.3746288"><ele>168.0</ele><time>2026-04-12T08:17:54.608Z</time></trkpt><trkpt lat="44.9633182" lon="1.3744785"><ele>168.66666666666666</ele><time>2026-04-12T08:17:55.608Z</time></trkpt><trkpt lat="44.9634299" lon="1.3743108"><ele>169.33333333333331</ele><time>2026-04-12T08:17:56.608Z</time></trkpt><trkpt lat="44.9635337" lon="1.3741333"><ele>170.0</ele><time>2026-04-12T08:17:57.608Z</time></trkpt><trkpt lat="44.9636275" lon="1.3739431"><ele>169.66666666666666</ele><time>2026-04-12T08:17:58.608Z</time></trkpt><trkpt lat="44.9637095" lon="1.3737347"><ele>169.33333333333334</ele><time>2026-04-12T08:17:59.609Z</time></trkpt><trkpt lat="44.9637891" lon="1.3735227"><ele>169.0</ele><time>2026-04-12T08:18:00.608Z</time></trkpt><trkpt lat="44.963863" lon="1.3733054"><ele>169.0</ele><time>2026-04-12T08:18:01.608Z</time></trkpt><trkpt lat="44.9639376" lon="1.3730864"><ele>169.0</ele><time>2026-04-12T08:18:02.608Z</time></trkpt><trkpt lat="44.9640072" lon="1.3728681"><ele>169.0</ele><time>2026-04-12T08:18:03.608Z</time></trkpt><trkpt lat="44.9640756" lon="1.3726519"><ele>170.66666666666669</ele><time>2026-04-12T08:18:04.608Z</time></trkpt><trkpt lat="44.9641419" lon="1.3724362"><ele>172.33333333333334</ele><time>2026-04-12T08:18:05.608Z</time></trkpt><trkpt lat="44.9642008" lon="1.3722187"><ele>174.0</ele><time>2026-04-12T08:18:06.608Z</time></trkpt><trkpt lat="44.9642552" lon="1.3719999"><ele>174.33333333333334</ele><time>2026-04-12T08:18:07.609Z</time></trkpt><trkpt lat="44.9643116" lon="1.371778"><ele>174.66666666666669</ele><time>2026-04-12T08:18:08.608Z</time></trkpt><trkpt lat="44.9643639" lon="1.3715597"><ele>175.0</ele><time>2026-04-12T08:18:09.608Z</time></trkpt><trkpt lat="44.96441" lon="1.3713379"><ele>175.0</ele><time>2026-04-12T08:18:10.607Z</time></trkpt><trkpt lat="44.9644517" lon="1.3711122"><ele>175.0</ele><time>2026-04-12T08:18:11.607Z</time></trkpt><trkpt lat="44.964489" lon="1.3708794"><ele>175.0</ele><time>2026-04-12T08:18:12.607Z</time></trkpt><trkpt lat="44.9645167" lon="1.3706396"><ele>175.33333333333334</ele><time>2026-04-12T08:18:13.607Z</time></trkpt><trkpt lat="44.9645282" lon="1.3703961"><ele>175.66666666666666</ele><time>2026-04-12T08:18:14.608Z</time></trkpt><trkpt lat="44.9645239" lon="1.3701513"><ele>176.0</ele><time>2026-04-12T08:18:15.608Z</time></trkpt><trkpt lat="44.9645096" lon="1.3699051"><ele>174.66666666666666</ele><time>2026-04-12T08:18:16.608Z</time></trkpt><trkpt lat="44.9644934" lon="1.3696572"><ele>173.33333333333334</ele><time>2026-04-12T08:18:17.608Z</time></trkpt><trkpt lat="44.9644821" lon="1.3694082"><ele>172.0</ele><time>2026-04-12T08:18:18.608Z</time></trkpt><trkpt lat="44.9644888" lon="1.3691608"><ele>172.0</ele><time>2026-04-12T08:18:19.608Z</time></trkpt><trkpt lat="44.9645182" lon="1.3689189"><ele>172.0</ele><time>2026-04-12T08:18:20.607Z</time></trkpt><trkpt lat="44.9645719" lon="1.3686808"><ele>172.0</ele><time>2026-04-12T08:18:21.608Z</time></trkpt><trkpt lat="44.9646427" lon="1.3684501"><ele>173.33333333333334</ele><time>2026-04-12T08:18:22.608Z</time></trkpt><trkpt lat="44.9647224" lon="1.3682201"><ele>174.66666666666666</ele><time>2026-04-12T08:18:23.607Z</time></trkpt><trkpt lat="44.9648063" lon="1.3679861"><ele>176.0</ele><time>2026-04-12T08:18:24.608Z</time></trkpt><trkpt lat="44.9648754" lon="1.3677418"><ele>177.0</ele><time>2026-04-12T08:18:25.608Z</time></trkpt><trkpt lat="44.964928" lon="1.3674879"><ele>178.0</ele><time>2026-04-12T08:18:26.609Z</time></trkpt><trkpt lat="44.9649689" lon="1.3672242"><ele>179.0</ele><time>2026-04-12T08:18:27.608Z</time></trkpt><trkpt lat="44.9650012" lon="1.3669618"><ele>179.0</ele><time>2026-04-12T08:18:28.607Z</time></trkpt><trkpt lat="44.9650257" lon="1.3667002"><ele>179.0</ele><time>2026-04-12T08:18:29.609Z</time></trkpt><trkpt lat="44.9650298" lon="1.3664381"><ele>179.0</ele><time>2026-04-12T08:18:30.608Z</time></trkpt><trkpt lat="44.965007" lon="1.3661839"><ele>179.0</ele><time>2026-04-12T08:18:31.609Z</time></trkpt><trkpt lat="44.9649558" lon="1.3659349"><ele>179.0</ele><time>2026-04-12T08:18:32.609Z</time></trkpt><trkpt lat="44.9648966" lon="1.3656928"><ele>179.0</ele><time>2026-04-12T08:18:33.609Z</time></trkpt><trkpt lat="44.9648487" lon="1.3654436"><ele>179.33333333333331</ele><time>2026-04-12T08:18:34.609Z</time></trkpt><trkpt lat="44.9648209" lon="1.3651914"><ele>179.66666666666666</ele><time>2026-04-12T08:18:35.609Z</time></trkpt><trkpt lat="44.9648187" lon="1.3649338"><ele>180.0</ele><time>2026-04-12T08:18:36.608Z</time></trkpt><trkpt lat="44.964834" lon="1.3646721"><ele>180.0</ele><time>2026-04-12T08:18:37.609Z</time></trkpt><trkpt lat="44.9648567" lon="1.3644045"><ele>180.0</ele><time>2026-04-12T08:18:38.609Z</time></trkpt><trkpt lat="44.9648817" lon="1.3641361"><ele>180.0</ele><time>2026-04-12T08:18:39.609Z</time></trkpt><trkpt lat="44.9649107" lon="1.3638603"><ele>178.66666666666666</ele><time>2026-04-12T08:18:40.608Z</time></trkpt><trkpt lat="44.9649375" lon="1.363585"><ele>177.33333333333331</ele><time>2026-04-12T08:18:41.609Z</time></trkpt><trkpt lat="44.9649661" lon="1.3633114"><ele>176.0</ele><time>2026-04-12T08:18:42.609Z</time></trkpt><trkpt lat="44.9649958" lon="1.363043"><ele>174.66666666666666</ele><time>2026-04-12T08:18:43.609Z</time></trkpt><trkpt lat="44.9650287" lon="1.3627801"><ele>173.33333333333334</ele><time>2026-04-12T08:18:44.609Z</time></trkpt><trkpt lat="44.9650676" lon="1.3625277"><ele>172.0</ele><time>2026-04-12T08:18:45.608Z</time></trkpt><trkpt lat="44.9651243" lon="1.3622882"><ele>177.0</ele><time>2026-04-12T08:18:46.609Z</time></trkpt><trkpt lat="44.9652003" lon="1.3620579"><ele>182.0</ele><time>2026-04-12T08:18:47.608Z</time></trkpt><trkpt lat="44.9653051" lon="1.3618459"><ele>187.0</ele><time>2026-04-12T08:18:48.609Z</time></trkpt><trkpt lat="44.9654254" lon="1.3616598"><ele>187.0</ele><time>2026-04-12T08:18:49.61Z</time></trkpt><trkpt lat="44.9655647" lon="1.3614912"><ele>187.0</ele><time>2026-04-12T08:18:50.609Z</time></trkpt><trkpt lat="44.9657146" lon="1.3613401"><ele>187.0</ele><time>2026-04-12T08:18:51.609Z</time></trkpt><trkpt lat="44.9658733" lon="1.3611948"><ele>188.66666666666669</ele><time>2026-04-12T08:18:52.609Z</time></trkpt><trkpt lat="44.966025" lon="1.3610528"><ele>190.33333333333334</ele><time>2026-04-12T08:18:53.609Z</time></trkpt><trkpt lat="44.9661811" lon="1.3608974"><ele>192.0</ele><time>2026-04-12T08:18:54.609Z</time></trkpt><trkpt lat="44.9663306" lon="1.3607301"><ele>192.0</ele><time>2026-04-12T08:18:55.609Z</time></trkpt><trkpt lat="44.9664769" lon="1.3605573"><ele>192.0</ele><time>2026-04-12T08:18:56.608Z</time></trkpt><trkpt lat="44.9666172" lon="1.3603721"><ele>192.0</ele><time>2026-04-12T08:18:57.608Z</time></trkpt><trkpt lat="44.9667573" lon="1.3601866"><ele>194.0</ele><time>2026-04-12T08:18:58.609Z</time></trkpt><trkpt lat="44.9668959" lon="1.3599979"><ele>196.0</ele><time>2026-04-12T08:18:59.609Z</time></trkpt><trkpt lat="44.9670349" lon="1.3598087"><ele>198.0</ele><time>2026-04-12T08:19:00.609Z</time></trkpt><trkpt lat="44.967169" lon="1.3596118"><ele>192.66666666666666</ele><time>2026-04-12T08:19:01.609Z</time></trkpt><trkpt lat="44.9672923" lon="1.3594023"><ele>187.33333333333331</ele><time>2026-04-12T08:19:02.61Z</time></trkpt><trkpt lat="44.9674048" lon="1.3591834"><ele>182.0</ele><time>2026-04-12T08:19:03.609Z</time></trkpt><trkpt lat="44.9675092" lon="1.3589541"><ele>186.33333333333331</ele><time>2026-04-12T08:19:04.609Z</time></trkpt><trkpt lat="44.9676083" lon="1.358718"><ele>190.66666666666666</ele><time>2026-04-12T08:19:05.608Z</time></trkpt><trkpt lat="44.9677081" lon="1.3584891"><ele>195.0</ele><time>2026-04-12T08:19:06.609Z</time></trkpt><trkpt lat="44.9678039" lon="1.3582522"><ele>190.66666666666666</ele><time>2026-04-12T08:19:07.609Z</time></trkpt><trkpt lat="44.9679122" lon="1.3580304"><ele>186.33333333333331</ele><time>2026-04-12T08:19:08.609Z</time></trkpt><trkpt lat="44.9680355" lon="1.357821"><ele>182.0</ele><time>2026-04-12T08:19:09.609Z</time></trkpt><trkpt lat="44.9681724" lon="1.3576309"><ele>182.0</ele><time>2026-04-12T08:19:10.609Z</time></trkpt><trkpt lat="44.9683252" lon="1.3574577"><ele>182.0</ele><time>2026-04-12T08:19:11.609Z</time></trkpt><trkpt lat="44.9684864" lon="1.3572997"><ele>182.0</ele><time>2026-04-12T08:19:12.609Z</time></trkpt><trkpt lat="44.9686578" lon="1.3571556"><ele>182.66666666666666</ele><time>2026-04-12T08:19:13.609Z</time></trkpt><trkpt lat="44.9688281" lon="1.3570144"><ele>183.33333333333334</ele><time>2026-04-12T08:19:14.608Z</time></trkpt><trkpt lat="44.9689941" lon="1.3568558"><ele>184.0</ele><time>2026-04-12T08:19:15.609Z</time></trkpt><trkpt lat="44.9691568" lon="1.3566891"><ele>185.0</ele><time>2026-04-12T08:19:16.609Z</time></trkpt><trkpt lat="44.9693143" lon="1.3565122"><ele>186.0</ele><time>2026-04-12T08:19:17.608Z</time></trkpt><trkpt lat="44.969468" lon="1.3563226"><ele>187.0</ele><time>2026-04-12T08:19:18.608Z</time></trkpt><trkpt lat="44.9696204" lon="1.3561326"><ele>187.0</ele><time>2026-04-12T08:19:19.608Z</time></trkpt><trkpt lat="44.9697733" lon="1.3559355"><ele>187.0</ele><time>2026-04-12T08:19:20.609Z</time></trkpt><trkpt lat="44.9699184" lon="1.3557348"><ele>187.0</ele><time>2026-04-12T08:19:21.608Z</time></trkpt><trkpt lat="44.9700709" lon="1.3555323"><ele>187.0</ele><time>2026-04-12T08:19:22.609Z</time></trkpt><trkpt lat="44.9702188" lon="1.3553318"><ele>187.0</ele><time>2026-04-12T08:19:23.609Z</time></trkpt><trkpt lat="44.9703653" lon="1.3551298"><ele>187.0</ele><time>2026-04-12T08:19:24.61Z</time></trkpt><trkpt lat="44.9705102" lon="1.3549261"><ele>187.0</ele><time>2026-04-12T08:19:25.609Z</time></trkpt><trkpt lat="44.9706521" lon="1.3547269"><ele>187.0</ele><time>2026-04-12T08:19:26.61Z</time></trkpt><trkpt lat="44.97079" lon="1.3545317"><ele>187.0</ele><time>2026-04-12T08:19:27.609Z</time></trkpt><trkpt lat="44.9709201" lon="1.3543322"><ele>188.0</ele><time>2026-04-12T08:19:28.609Z</time></trkpt><trkpt lat="44.971041" lon="1.354124"><ele>189.0</ele><time>2026-04-12T08:19:29.609Z</time></trkpt><trkpt lat="44.9711493" lon="1.3539071"><ele>190.0</ele><time>2026-04-12T08:19:30.609Z</time></trkpt><trkpt lat="44.9712481" lon="1.353675"><ele>189.66666666666669</ele><time>2026-04-12T08:19:31.609Z</time></trkpt><trkpt lat="44.9713401" lon="1.3534321"><ele>189.33333333333334</ele><time>2026-04-12T08:19:32.609Z</time></trkpt><trkpt lat="44.9714236" lon="1.3531803"><ele>189.0</ele><time>2026-04-12T08:19:33.609Z</time></trkpt><trkpt lat="44.9715059" lon="1.3529264"><ele>189.0</ele><time>2026-04-12T08:19:34.61Z</time></trkpt><trkpt lat="44.9715907" lon="1.3526691"><ele>189.0</ele><time>2026-04-12T08:19:35.609Z</time></trkpt><trkpt lat="44.9716764" lon="1.3524139"><ele>189.0</ele><time>2026-04-12T08:19:36.608Z</time></trkpt><trkpt lat="44.9717659" lon="1.3521654"><ele>194.33333333333331</ele><time>2026-04-12T08:19:37.609Z</time></trkpt><trkpt lat="44.971851" lon="1.3519134"><ele>199.66666666666666</ele><time>2026-04-12T08:19:38.609Z</time></trkpt><trkpt lat="44.9719421" lon="1.3516627"><ele>205.0</ele><time>2026-04-12T08:19:39.61Z</time></trkpt><trkpt lat="44.9720362" lon="1.3514136"><ele>201.0</ele><time>2026-04-12T08:19:40.61Z</time></trkpt><trkpt lat="44.9721304" lon="1.3511754"><ele>197.0</ele><time>2026-04-12T08:19:41.609Z</time></trkpt><trkpt lat="44.9722287" lon="1.3509406"><ele>193.0</ele><time>2026-04-12T08:19:42.608Z</time></trkpt><trkpt lat="44.9723279" lon="1.3507099"><ele>190.33333333333331</ele><time>2026-04-12T08:19:43.609Z</time></trkpt><trkpt lat="44.9724295" lon="1.350483"><ele>187.66666666666666</ele><time>2026-04-12T08:19:44.608Z</time></trkpt><trkpt lat="44.9725374" lon="1.350262"><ele>185.0</ele><time>2026-04-12T08:19:45.609Z</time></trkpt><trkpt lat="44.9726567" lon="1.3500494"><ele>186.0</ele><time>2026-04-12T08:19:46.609Z</time></trkpt><trkpt lat="44.9727886" lon="1.3498543"><ele>187.0</ele><time>2026-04-12T08:19:47.609Z</time></trkpt><trkpt lat="44.9729297" lon="1.3496773"><ele>188.0</ele><time>2026-04-12T08:19:48.608Z</time></trkpt><trkpt lat="44.9730817" lon="1.3495107"><ele>188.0</ele><time>2026-04-12T08:19:49.608Z</time></trkpt><trkpt lat="44.9732434" lon="1.3493522"><ele>188.0</ele><time>2026-04-12T08:19:50.609Z</time></trkpt><trkpt lat="44.9734055" lon="1.3491999"><ele>188.0</ele><time>2026-04-12T08:19:51.609Z</time></trkpt><trkpt lat="44.9735761" lon="1.3490537"><ele>187.0</ele><time>2026-04-12T08:19:52.608Z</time></trkpt><trkpt lat="44.9737477" lon="1.3489108"><ele>186.0</ele><time>2026-04-12T08:19:53.608Z</time></trkpt><trkpt lat="44.9739269" lon="1.3487764"><ele>185.0</ele><time>2026-04-12T08:19:54.608Z</time></trkpt><trkpt lat="44.9741072" lon="1.3486486"><ele>188.33333333333331</ele><time>2026-04-12T08:19:55.609Z</time></trkpt><trkpt lat="44.9742893" lon="1.3485305"><ele>191.66666666666666</ele><time>2026-04-12T08:19:56.61Z</time></trkpt><trkpt lat="44.9744725" lon="1.348419"><ele>195.0</ele><time>2026-04-12T08:19:57.609Z</time></trkpt><trkpt lat="44.9746606" lon="1.3483264"><ele>195.0</ele><time>2026-04-12T08:19:58.609Z</time></trkpt><trkpt lat="44.9748506" lon="1.3482375"><ele>195.0</ele><time>2026-04-12T08:19:59.609Z</time></trkpt><trkpt lat="44.9750388" lon="1.3481514"><ele>195.0</ele><time>2026-04-12T08:20:00.609Z</time></trkpt><trkpt lat="44.9752244" lon="1.3480661"><ele>193.0</ele><time>2026-04-12T08:20:01.609Z</time></trkpt><trkpt lat="44.9754125" lon="1.3479816"><ele>191.0</ele><time>2026-04-12T08:20:02.609Z</time></trkpt><trkpt lat="44.9755978" lon="1.3479042"><ele>189.0</ele><time>2026-04-12T08:20:03.609Z</time></trkpt><trkpt lat="44.9757816" lon="1.3478146"><ele>192.33333333333331</ele><time>2026-04-12T08:20:04.609Z</time></trkpt><trkpt lat="44.9759641" lon="1.3477098"><ele>195.66666666666666</ele><time>2026-04-12T08:20:05.609Z</time></trkpt><trkpt lat="44.9761417" lon="1.3475957"><ele>199.0</ele><time>2026-04-12T08:20:06.608Z</time></trkpt><trkpt lat="44.9763188" lon="1.3474794"><ele>199.0</ele><time>2026-04-12T08:20:07.609Z</time></trkpt><trkpt lat="44.9764975" lon="1.3473774"><ele>199.0</ele><time>2026-04-12T08:20:08.609Z</time></trkpt><trkpt lat="44.9766851" lon="1.3472976"><ele>199.0</ele><time>2026-04-12T08:20:09.609Z</time></trkpt><trkpt lat="44.9768743" lon="1.3472489"><ele>196.0</ele><time>2026-04-12T08:20:10.609Z</time></trkpt><trkpt lat="44.9770702" lon="1.3472083"><ele>193.0</ele><time>2026-04-12T08:20:11.609Z</time></trkpt><trkpt lat="44.9772707" lon="1.3471701"><ele>190.0</ele><time>2026-04-12T08:20:12.609Z</time></trkpt><trkpt lat="44.9774748" lon="1.3471387"><ele>190.0</ele><time>2026-04-12T08:20:13.608Z</time></trkpt><trkpt lat="44.9776788" lon="1.3471111"><ele>190.0</ele><time>2026-04-12T08:20:14.608Z</time></trkpt><trkpt lat="44.9778819" lon="1.3470814"><ele>190.0</ele><time>2026-04-12T08:20:15.609Z</time></trkpt><trkpt lat="44.9780842" lon="1.347046"><ele>190.0</ele><time>2026-04-12T08:20:16.61Z</time></trkpt><trkpt lat="44.9782902" lon="1.3469849"><ele>190.0</ele><time>2026-04-12T08:20:17.609Z</time></trkpt><trkpt lat="44.9784818" lon="1.3469196"><ele>190.0</ele><time>2026-04-12T08:20:18.608Z</time></trkpt><trkpt lat="44.9786675" lon="1.3468357"><ele>193.33333333333334</ele><time>2026-04-12T08:20:19.609Z</time></trkpt><trkpt lat="44.9788508" lon="1.3467369"><ele>196.66666666666669</ele><time>2026-04-12T08:20:20.609Z</time></trkpt><trkpt lat="44.979027" lon="1.3466175"><ele>200.0</ele><time>2026-04-12T08:20:21.608Z</time></trkpt><trkpt lat="44.9791976" lon="1.3464935"><ele>198.33333333333334</ele><time>2026-04-12T08:20:22.609Z</time></trkpt><trkpt lat="44.9793654" lon="1.3463579"><ele>196.66666666666669</ele><time>2026-04-12T08:20:23.609Z</time></trkpt><trkpt lat="44.9795263" lon="1.3462188"><ele>195.0</ele><time>2026-04-12T08:20:24.609Z</time></trkpt><trkpt lat="44.9796898" lon="1.346091"><ele>195.0</ele><time>2026-04-12T08:20:25.609Z</time></trkpt><trkpt lat="44.9798581" lon="1.3459814"><ele>195.0</ele><time>2026-04-12T08:20:26.608Z</time></trkpt><trkpt lat="44.980029" lon="1.3458944"><ele>195.0</ele><time>2026-04-12T08:20:27.609Z</time></trkpt><trkpt lat="44.9802007" lon="1.3458198"><ele>196.33333333333331</ele><time>2026-04-12T08:20:28.609Z</time></trkpt><trkpt lat="44.9803648" lon="1.3457525"><ele>197.66666666666666</ele><time>2026-04-12T08:20:29.609Z</time></trkpt><trkpt lat="44.9805249" lon="1.3456545"><ele>199.0</ele><time>2026-04-12T08:20:30.609Z</time></trkpt><trkpt lat="44.9806732" lon="1.3455322"><ele>198.33333333333331</ele><time>2026-04-12T08:20:31.609Z</time></trkpt><trkpt lat="44.9808009" lon="1.3453751"><ele>197.66666666666669</ele><time>2026-04-12T08:20:32.609Z</time></trkpt><trkpt lat="44.9809233" lon="1.345188"><ele>197.0</ele><time>2026-04-12T08:20:33.609Z</time></trkpt><trkpt lat="44.981017" lon="1.3449911"><ele>197.0</ele><time>2026-04-12T08:20:34.609Z</time></trkpt><trkpt lat="44.9811016" lon="1.3447653"><ele>197.0</ele><time>2026-04-12T08:20:35.609Z</time></trkpt><trkpt lat="44.9811748" lon="1.3445304"><ele>197.0</ele><time>2026-04-12T08:20:36.61Z</time></trkpt><trkpt lat="44.9812287" lon="1.3442849"><ele>199.33333333333334</ele><time>2026-04-12T08:20:37.609Z</time></trkpt><trkpt lat="44.9812627" lon="1.3440397"><ele>201.66666666666669</ele><time>2026-04-12T08:20:38.61Z</time></trkpt><trkpt lat="44.9812875" lon="1.3437951"><ele>204.0</ele><time>2026-04-12T08:20:39.61Z</time></trkpt><trkpt lat="44.9813096" lon="1.3435509"><ele>204.0</ele><time>2026-04-12T08:20:40.609Z</time></trkpt><trkpt lat="44.9813737" lon="1.3433196"><ele>204.0</ele><time>2026-04-12T08:20:41.609Z</time></trkpt><trkpt lat="44.9814685" lon="1.3431151"><ele>204.0</ele><time>2026-04-12T08:20:42.608Z</time></trkpt><trkpt lat="44.9815716" lon="1.3429266"><ele>205.33333333333331</ele><time>2026-04-12T08:20:43.609Z</time></trkpt><trkpt lat="44.9816729" lon="1.3427232"><ele>206.66666666666666</ele><time>2026-04-12T08:20:44.609Z</time></trkpt><trkpt lat="44.9817652" lon="1.3425164"><ele>208.0</ele><time>2026-04-12T08:20:45.609Z</time></trkpt><trkpt lat="44.9818491" lon="1.3423045"><ele>204.0</ele><time>2026-04-12T08:20:46.609Z</time></trkpt><trkpt lat="44.9819098" lon="1.3420812"><ele>200.0</ele><time>2026-04-12T08:20:47.609Z</time></trkpt><trkpt lat="44.9819607" lon="1.3418704"><ele>196.0</ele><time>2026-04-12T08:20:48.609Z</time></trkpt><trkpt lat="44.9820066" lon="1.3416774"><ele>196.0</ele><time>2026-04-12T08:20:49.608Z</time></trkpt><trkpt lat="44.9820567" lon="1.3414896"><ele>196.0</ele><time>2026-04-12T08:20:50.609Z</time></trkpt><trkpt lat="44.9821094" lon="1.3413305"><ele>196.0</ele><time>2026-04-12T08:20:51.608Z</time></trkpt><trkpt lat="44.9821925" lon="1.3412403"><ele>196.0</ele><time>2026-04-12T08:20:52.609Z</time></trkpt><trkpt lat="44.9822705" lon="1.3411386"><ele>197.16666666666666</ele><time>2026-04-12T08:20:53.609Z</time></trkpt><trkpt lat="44.9823224" lon="1.3410804"><ele>198.33333333333331</ele><time>2026-04-12T08:20:55.608Z</time></trkpt><trkpt lat="44.982414" lon="1.3410689"><ele>199.5</ele><time>2026-04-12T08:20:59.61Z</time></trkpt><trkpt lat="44.9825096" lon="1.3411567"><ele>200.66666666666669</ele><time>2026-04-12T08:21:01.609Z</time></trkpt><trkpt lat="44.9825817" lon="1.3412265"><ele>201.83333333333334</ele><time>2026-04-12T08:21:02.608Z</time></trkpt><trkpt lat="44.9826545" lon="1.3412969"><ele>203.0</ele><time>2026-04-12T08:21:03.608Z</time></trkpt><trkpt lat="44.9827403" lon="1.341378"><ele>201.5</ele><time>2026-04-12T08:21:04.609Z</time></trkpt><trkpt lat="44.982844" lon="1.3414774"><ele>200.0</ele><time>2026-04-12T08:21:05.608Z</time></trkpt><trkpt lat="44.9829557" lon="1.3415689"><ele>198.5</ele><time>2026-04-12T08:21:06.609Z</time></trkpt><trkpt lat="44.983067" lon="1.3416735"><ele>197.0</ele><time>2026-04-12T08:21:07.609Z</time></trkpt><trkpt lat="44.9831841" lon="1.3417746"><ele>197.0</ele><time>2026-04-12T08:21:08.609Z</time></trkpt><trkpt lat="44.9833066" lon="1.3418861"><ele>197.0</ele><time>2026-04-12T08:21:09.608Z</time></trkpt><trkpt lat="44.983432" lon="1.3420122"><ele>197.0</ele><time>2026-04-12T08:21:10.609Z</time></trkpt><trkpt lat="44.9835502" lon="1.3421613"><ele>200.0</ele><time>2026-04-12T08:21:11.61Z</time></trkpt><trkpt lat="44.9836602" lon="1.3423265"><ele>203.0</ele><time>2026-04-12T08:21:12.608Z</time></trkpt><trkpt lat="44.9837695" lon="1.3425201"><ele>206.0</ele><time>2026-04-12T08:21:13.609Z</time></trkpt><trkpt lat="44.9838837" lon="1.3427087"><ele>206.0</ele><time>2026-04-12T08:21:14.609Z</time></trkpt><trkpt lat="44.9840216" lon="1.3428628"><ele>206.0</ele><time>2026-04-12T08:21:15.609Z</time></trkpt><trkpt lat="44.9841706" lon="1.3429911"><ele>206.0</ele><time>2026-04-12T08:21:16.609Z</time></trkpt><trkpt lat="44.9843295" lon="1.3430711"><ele>207.33333333333334</ele><time>2026-04-12T08:21:17.61Z</time></trkpt><trkpt lat="44.9845236" lon="1.3430849"><ele>208.66666666666669</ele><time>2026-04-12T08:21:18.609Z</time></trkpt><trkpt lat="44.9847137" lon="1.3430757"><ele>210.0</ele><time>2026-04-12T08:21:19.609Z</time></trkpt><trkpt lat="44.9849085" lon="1.3430336"><ele>212.0</ele><time>2026-04-12T08:21:20.609Z</time></trkpt><trkpt lat="44.9850985" lon="1.3429614"><ele>214.0</ele><time>2026-04-12T08:21:21.609Z</time></trkpt><trkpt lat="44.9852928" lon="1.3428622"><ele>216.0</ele><time>2026-04-12T08:21:22.61Z</time></trkpt><trkpt lat="44.9854732" lon="1.3427527"><ele>216.0</ele><time>2026-04-12T08:21:23.609Z</time></trkpt><trkpt lat="44.9856576" lon="1.3426413"><ele>216.0</ele><time>2026-04-12T08:21:24.609Z</time></trkpt><trkpt lat="44.9858364" lon="1.3425351"><ele>216.0</ele><time>2026-04-12T08:21:25.609Z</time></trkpt><trkpt lat="44.9860188" lon="1.3424302"><ele>217.66666666666669</ele><time>2026-04-12T08:21:26.608Z</time></trkpt><trkpt lat="44.9862047" lon="1.3423592"><ele>219.33333333333334</ele><time>2026-04-12T08:21:27.609Z</time></trkpt><trkpt lat="44.9863928" lon="1.3423417"><ele>221.0</ele><time>2026-04-12T08:21:28.609Z</time></trkpt><trkpt lat="44.9865727" lon="1.3423281"><ele>218.66666666666669</ele><time>2026-04-12T08:21:29.609Z</time></trkpt><trkpt lat="44.9867493" lon="1.3422942"><ele>216.33333333333331</ele><time>2026-04-12T08:21:30.608Z</time></trkpt><trkpt lat="44.9869239" lon="1.3422249"><ele>214.0</ele><time>2026-04-12T08:21:31.609Z</time></trkpt><trkpt lat="44.9870899" lon="1.3421235"><ele>214.0</ele><time>2026-04-12T08:21:32.609Z</time></trkpt><trkpt lat="44.9872529" lon="1.342025"><ele>214.0</ele><time>2026-04-12T08:21:33.609Z</time></trkpt><trkpt lat="44.9874217" lon="1.3419679"><ele>214.0</ele><time>2026-04-12T08:21:34.609Z</time></trkpt><trkpt lat="44.9875917" lon="1.3419553"><ele>214.33333333333331</ele><time>2026-04-12T08:21:35.61Z</time></trkpt><trkpt lat="44.9877823" lon="1.3419858"><ele>214.66666666666669</ele><time>2026-04-12T08:21:36.608Z</time></trkpt><trkpt lat="44.9879666" lon="1.3420424"><ele>215.0</ele><time>2026-04-12T08:21:37.609Z</time></trkpt><trkpt lat="44.9881448" lon="1.3421174"><ele>215.0</ele><time>2026-04-12T08:21:38.609Z</time></trkpt><trkpt lat="44.9883229" lon="1.3422104"><ele>215.0</ele><time>2026-04-12T08:21:39.609Z</time></trkpt><trkpt lat="44.9884982" lon="1.3423351"><ele>215.0</ele><time>2026-04-12T08:21:40.609Z</time></trkpt><trkpt lat="44.9886693" lon="1.3424855"><ele>217.66666666666669</ele><time>2026-04-12T08:21:41.61Z</time></trkpt><trkpt lat="44.9888372" lon="1.3426516"><ele>220.33333333333331</ele><time>2026-04-12T08:21:42.608Z</time></trkpt><trkpt lat="44.9890022" lon="1.3428236"><ele>223.0</ele><time>2026-04-12T08:21:43.609Z</time></trkpt><trkpt lat="44.9891719" lon="1.342988"><ele>228.0</ele><time>2026-04-12T08:21:44.61Z</time></trkpt><trkpt lat="44.9893457" lon="1.3431587"><ele>233.0</ele><time>2026-04-12T08:21:45.609Z</time></trkpt><trkpt lat="44.9895222" lon="1.3433348"><ele>238.0</ele><time>2026-04-12T08:21:46.609Z</time></trkpt><trkpt lat="44.9896999" lon="1.3435073"><ele>238.0</ele><time>2026-04-12T08:21:47.609Z</time></trkpt><trkpt lat="44.9898708" lon="1.3436821"><ele>238.0</ele><time>2026-04-12T08:21:48.609Z</time></trkpt><trkpt lat="44.9900453" lon="1.3438573"><ele>238.0</ele><time>2026-04-12T08:21:49.609Z</time></trkpt><trkpt lat="44.9902243" lon="1.3440338"><ele>239.0</ele><time>2026-04-12T08:21:50.609Z</time></trkpt><trkpt lat="44.9904036" lon="1.3442113"><ele>240.0</ele><time>2026-04-12T08:21:51.609Z</time></trkpt><trkpt lat="44.990579" lon="1.3443886"><ele>241.0</ele><time>2026-04-12T08:21:52.609Z</time></trkpt><trkpt lat="44.9907511" lon="1.3445762"><ele>241.0</ele><time>2026-04-12T08:21:53.61Z</time></trkpt><trkpt lat="44.9909088" lon="1.3447793"><ele>241.0</ele><time>2026-04-12T08:21:54.609Z</time></trkpt><trkpt lat="44.991054" lon="1.3450035"><ele>241.0</ele><time>2026-04-12T08:21:55.609Z</time></trkpt><trkpt lat="44.9911841" lon="1.3452448"><ele>241.0</ele><time>2026-04-12T08:21:56.608Z</time></trkpt><trkpt lat="44.9913065" lon="1.3454973"><ele>241.0</ele><time>2026-04-12T08:21:57.609Z</time></trkpt><trkpt lat="44.9914155" lon="1.3457641"><ele>241.0</ele><time>2026-04-12T08:21:58.609Z</time></trkpt><trkpt lat="44.9915262" lon="1.3460338"><ele>244.33333333333331</ele><time>2026-04-12T08:21:59.609Z</time></trkpt><trkpt lat="44.9916374" lon="1.3462928"><ele>247.66666666666669</ele><time>2026-04-12T08:22:00.609Z</time></trkpt><trkpt lat="44.9917603" lon="1.3465392"><ele>251.0</ele><time>2026-04-12T08:22:01.61Z</time></trkpt><trkpt lat="44.9919065" lon="1.3467514"><ele>251.66666666666669</ele><time>2026-04-12T08:22:02.609Z</time></trkpt><trkpt lat="44.9920681" lon="1.3469276"><ele>252.33333333333331</ele><time>2026-04-12T08:22:03.609Z</time></trkpt><trkpt lat="44.9922488" lon="1.347069"><ele>253.0</ele><time>2026-04-12T08:22:04.608Z</time></trkpt><trkpt lat="44.9924452" lon="1.347166"><ele>257.0</ele><time>2026-04-12T08:22:05.609Z</time></trkpt><trkpt lat="44.9926519" lon="1.3472181"><ele>261.0</ele><time>2026-04-12T08:22:06.61Z</time></trkpt><trkpt lat="44.9928625" lon="1.3472314"><ele>265.0</ele><time>2026-04-12T08:22:07.609Z</time></trkpt><trkpt lat="44.9930793" lon="1.3472332"><ele>265.0</ele><time>2026-04-12T08:22:08.609Z</time></trkpt><trkpt lat="44.9932977" lon="1.3472269"><ele>265.0</ele><time>2026-04-12T08:22:09.609Z</time></trkpt><trkpt lat="44.9935126" lon="1.3472197"><ele>265.0</ele><time>2026-04-12T08:22:10.609Z</time></trkpt><trkpt lat="44.9937216" lon="1.3472137"><ele>266.3333333333333</ele><time>2026-04-12T08:22:11.609Z</time></trkpt><trkpt lat="44.9939245" lon="1.3472193"><ele>267.6666666666667</ele><time>2026-04-12T08:22:12.609Z</time></trkpt><trkpt lat="44.9941188" lon="1.3472584"><ele>269.0</ele><time>2026-04-12T08:22:13.609Z</time></trkpt><trkpt lat="44.9943093" lon="1.3473411"><ele>270.0</ele><time>2026-04-12T08:22:14.609Z</time></trkpt><trkpt lat="44.9944796" lon="1.3474717"><ele>271.0</ele><time>2026-04-12T08:22:15.609Z</time></trkpt><trkpt lat="44.9946453" lon="1.3476377"><ele>272.0</ele><time>2026-04-12T08:22:16.609Z</time></trkpt><trkpt lat="44.9948023" lon="1.3478198"><ele>272.0</ele><time>2026-04-12T08:22:17.609Z</time></trkpt><trkpt lat="44.9949599" lon="1.3480083"><ele>272.0</ele><time>2026-04-12T08:22:18.609Z</time></trkpt><trkpt lat="44.9951162" lon="1.3481914"><ele>272.0</ele><time>2026-04-12T08:22:19.609Z</time></trkpt><trkpt lat="44.9952778" lon="1.3483639"><ele>274.6666666666667</ele><time>2026-04-12T08:22:20.609Z</time></trkpt><trkpt lat="44.9954449" lon="1.3485149"><ele>277.3333333333333</ele><time>2026-04-12T08:22:21.609Z</time></trkpt><trkpt lat="44.9956249" lon="1.3486254"><ele>280.0</ele><time>2026-04-12T08:22:22.609Z</time></trkpt><trkpt lat="44.9958134" lon="1.3486931"><ele>280.66666666666663</ele><time>2026-04-12T08:22:23.609Z</time></trkpt><trkpt lat="44.9960121" lon="1.348692"><ele>281.3333333333333</ele><time>2026-04-12T08:22:24.609Z</time></trkpt><trkpt lat="44.9962087" lon="1.3486693"><ele>282.0</ele><time>2026-04-12T08:22:25.608Z</time></trkpt><trkpt lat="44.9964197" lon="1.3485594"><ele>282.0</ele><time>2026-04-12T08:22:26.61Z</time></trkpt><trkpt lat="44.9966241" lon="1.3484476"><ele>282.0</ele><time>2026-04-12T08:22:27.609Z</time></trkpt><trkpt lat="44.9968376" lon="1.3483299"><ele>282.0</ele><time>2026-04-12T08:22:28.609Z</time></trkpt><trkpt lat="44.9970541" lon="1.3482075"><ele>278.5</ele><time>2026-04-12T08:22:29.609Z</time></trkpt><trkpt lat="44.9972696" lon="1.3480771"><ele>275.0</ele><time>2026-04-12T08:22:30.609Z</time></trkpt><trkpt lat="44.997494" lon="1.3479412"><ele>279.5</ele><time>2026-04-12T08:22:31.609Z</time></trkpt><trkpt lat="44.9977164" lon="1.3478129"><ele>284.0</ele><time>2026-04-12T08:22:32.609Z</time></trkpt><trkpt lat="44.9979333" lon="1.3476989"><ele>284.0</ele><time>2026-04-12T08:22:33.609Z</time></trkpt><trkpt lat="44.9981601" lon="1.3476108"><ele>284.0</ele><time>2026-04-12T08:22:34.61Z</time></trkpt><trkpt lat="44.9983841" lon="1.3475429"><ele>285.0</ele><time>2026-04-12T08:22:35.609Z</time></trkpt><trkpt lat="44.9986017" lon="1.3475029"><ele>286.0</ele><time>2026-04-12T08:22:36.609Z</time></trkpt><trkpt lat="44.9988155" lon="1.3474717"><ele>287.0</ele><time>2026-04-12T08:22:37.609Z</time></trkpt><trkpt lat="44.9990123" lon="1.3474851"><ele>290.0</ele><time>2026-04-12T08:22:38.609Z</time></trkpt><trkpt lat="44.9991937" lon="1.3475147"><ele>293.0</ele><time>2026-04-12T08:22:39.609Z</time></trkpt><trkpt lat="44.9993565" lon="1.3475677"><ele>296.0</ele><time>2026-04-12T08:22:40.609Z</time></trkpt><trkpt lat="44.9995049" lon="1.3476292"><ele>296.0</ele><time>2026-04-12T08:22:41.608Z</time></trkpt><trkpt lat="44.9996459" lon="1.3477386"><ele>296.0</ele><time>2026-04-12T08:22:42.609Z</time></trkpt><trkpt lat="44.9997494" lon="1.3479136"><ele>296.0</ele><time>2026-04-12T08:22:43.609Z</time></trkpt><trkpt lat="44.9998355" lon="1.348123"><ele>292.0</ele><time>2026-04-12T08:22:44.609Z</time></trkpt><trkpt lat="44.999926" lon="1.3483329"><ele>288.0</ele><time>2026-04-12T08:22:45.608Z</time></trkpt><trkpt lat="45.0000166" lon="1.3485066"><ele>284.0</ele><time>2026-04-12T08:22:46.609Z</time></trkpt><trkpt lat="45.0001166" lon="1.3486406"><ele>284.0</ele><time>2026-04-12T08:22:47.609Z</time></trkpt><trkpt lat="45.0002363" lon="1.3487164"><ele>284.0</ele><time>2026-04-12T08:22:48.609Z</time></trkpt><trkpt lat="45.0003648" lon="1.3487353"><ele>284.0</ele><time>2026-04-12T08:22:49.608Z</time></trkpt><trkpt lat="45.0004977" lon="1.3486835"><ele>284.0</ele><time>2026-04-12T08:22:50.61Z</time></trkpt><trkpt lat="45.0006244" lon="1.3486163"><ele>284.0</ele><time>2026-04-12T08:22:51.609Z</time></trkpt><trkpt lat="45.0007715" lon="1.348575"><ele>284.0</ele><time>2026-04-12T08:22:52.609Z</time></trkpt><trkpt lat="45.0009214" lon="1.3485526"><ele>284.0</ele><time>2026-04-12T08:22:53.609Z</time></trkpt><trkpt lat="45.001092" lon="1.3485816"><ele>286.33333333333337</ele><time>2026-04-12T08:22:54.609Z</time></trkpt><trkpt lat="45.001264" lon="1.3486246"><ele>288.6666666666667</ele><time>2026-04-12T08:22:55.609Z</time></trkpt><trkpt lat="45.0014386" lon="1.3486668"><ele>291.0</ele><time>2026-04-12T08:22:56.61Z</time></trkpt><trkpt lat="45.0016185" lon="1.3487098"><ele>290.6666666666667</ele><time>2026-04-12T08:22:57.608Z</time></trkpt><trkpt lat="45.0017905" lon="1.3487553"><ele>290.33333333333337</ele><time>2026-04-12T08:22:58.608Z</time></trkpt><trkpt lat="45.0019528" lon="1.3487914"><ele>290.0</ele><time>2026-04-12T08:22:59.608Z</time></trkpt><trkpt lat="45.0021293" lon="1.348797"><ele>290.0</ele><time>2026-04-12T08:23:00.61Z</time></trkpt><trkpt lat="45.0022869" lon="1.3487779"><ele>290.0</ele><time>2026-04-12T08:23:01.609Z</time></trkpt><trkpt lat="45.0024549" lon="1.3487135"><ele>290.0</ele><time>2026-04-12T08:23:02.609Z</time></trkpt><trkpt lat="45.0026118" lon="1.348584"><ele>289.6666666666667</ele><time>2026-04-12T08:23:03.609Z</time></trkpt><trkpt lat="45.0027705" lon="1.3484583"><ele>289.3333333333333</ele><time>2026-04-12T08:23:04.609Z</time></trkpt><trkpt lat="45.0029307" lon="1.3483442"><ele>289.0</ele><time>2026-04-12T08:23:05.609Z</time></trkpt><trkpt lat="45.0030992" lon="1.3482504"><ele>289.0</ele><time>2026-04-12T08:23:06.609Z</time></trkpt><trkpt lat="45.0032799" lon="1.3482076"><ele>289.0</ele><time>2026-04-12T08:23:07.609Z</time></trkpt><trkpt lat="45.0034568" lon="1.3482163"><ele>289.0</ele><time>2026-04-12T08:23:08.608Z</time></trkpt><trkpt lat="45.0036241" lon="1.3482647"><ele>286.3333333333333</ele><time>2026-04-12T08:23:09.609Z</time></trkpt><trkpt lat="45.0037969" lon="1.3483322"><ele>283.6666666666667</ele><time>2026-04-12T08:23:10.609Z</time></trkpt><trkpt lat="45.0039727" lon="1.3483782"><ele>281.0</ele><time>2026-04-12T08:23:11.609Z</time></trkpt><trkpt lat="45.0041496" lon="1.348385"><ele>281.33333333333337</ele><time>2026-04-12T08:23:12.609Z</time></trkpt><trkpt lat="45.0043334" lon="1.3483618"><ele>281.6666666666667</ele><time>2026-04-12T08:23:13.609Z</time></trkpt><trkpt lat="45.00452" lon="1.3483066"><ele>282.0</ele><time>2026-04-12T08:23:14.609Z</time></trkpt><trkpt lat="45.0047136" lon="1.3482344"><ele>282.0</ele><time>2026-04-12T08:23:15.609Z</time></trkpt><trkpt lat="45.0049117" lon="1.3481611"><ele>282.0</ele><time>2026-04-12T08:23:16.609Z</time></trkpt><trkpt lat="45.005117" lon="1.3480861"><ele>282.0</ele><time>2026-04-12T08:23:17.611Z</time></trkpt><trkpt lat="45.0053209" lon="1.3480121"><ele>284.0</ele><time>2026-04-12T08:23:18.61Z</time></trkpt><trkpt lat="45.005529" lon="1.3479355"><ele>286.0</ele><time>2026-04-12T08:23:19.61Z</time></trkpt><trkpt lat="45.0057328" lon="1.347861"><ele>288.0</ele><time>2026-04-12T08:23:20.61Z</time></trkpt><trkpt lat="45.0059357" lon="1.3477945"><ele>288.0</ele><time>2026-04-12T08:23:21.609Z</time></trkpt><trkpt lat="45.0061323" lon="1.3477255"><ele>288.0</ele><time>2026-04-12T08:23:22.61Z</time></trkpt><trkpt lat="45.0063183" lon="1.3476359"><ele>288.0</ele><time>2026-04-12T08:23:23.61Z</time></trkpt><trkpt lat="45.0065026" lon="1.3475351"><ele>287.0</ele><time>2026-04-12T08:23:24.61Z</time></trkpt><trkpt lat="45.0066768" lon="1.3474241"><ele>286.0</ele><time>2026-04-12T08:23:25.61Z</time></trkpt><trkpt lat="45.0068394" lon="1.3473072"><ele>285.0</ele><time>2026-04-12T08:23:26.61Z</time></trkpt><trkpt lat="45.007005" lon="1.3471959"><ele>288.3333333333333</ele><time>2026-04-12T08:23:27.609Z</time></trkpt><trkpt lat="45.0071727" lon="1.3471091"><ele>291.66666666666663</ele><time>2026-04-12T08:23:28.61Z</time></trkpt><trkpt lat="45.0073241" lon="1.3470491"><ele>295.0</ele><time>2026-04-12T08:23:29.61Z</time></trkpt><trkpt lat="45.0074767" lon="1.3470467"><ele>294.75</ele><time>2026-04-12T08:23:30.611Z</time></trkpt><trkpt lat="45.0076205" lon="1.3470802"><ele>294.5</ele><time>2026-04-12T08:23:31.61Z</time></trkpt><trkpt lat="45.0077438" lon="1.3471791"><ele>294.25</ele><time>2026-04-12T08:23:32.609Z</time></trkpt><trkpt lat="45.0078069" lon="1.3472928"><ele>294.0</ele><time>2026-04-12T08:23:33.61Z</time></trkpt><trkpt lat="45.0078643" lon="1.3474984"><ele>291.25</ele><time>2026-04-12T08:23:34.61Z</time></trkpt><trkpt lat="45.0079447" lon="1.3476701"><ele>288.5</ele><time>2026-04-12T08:23:35.61Z</time></trkpt><trkpt lat="45.0080423" lon="1.3477999"><ele>285.75</ele><time>2026-04-12T08:23:36.61Z</time></trkpt><trkpt lat="45.0081634" lon="1.347897"><ele>283.0</ele><time>2026-04-12T08:23:37.61Z</time></trkpt><trkpt lat="45.008294" lon="1.3479601"><ele>285.0</ele><time>2026-04-12T08:23:38.611Z</time></trkpt><trkpt lat="45.0084292" lon="1.3479885"><ele>287.0</ele><time>2026-04-12T08:23:39.609Z</time></trkpt><trkpt lat="45.0085677" lon="1.3479637"><ele>289.0</ele><time>2026-04-12T08:23:40.61Z</time></trkpt><trkpt lat="45.0087033" lon="1.3478935"><ele>291.0</ele><time>2026-04-12T08:23:41.609Z</time></trkpt><trkpt lat="45.0088389" lon="1.3478155"><ele>291.0</ele><time>2026-04-12T08:23:42.61Z</time></trkpt><trkpt lat="45.0089797" lon="1.3477619"><ele>291.0</ele><time>2026-04-12T08:23:43.611Z</time></trkpt><trkpt lat="45.0091232" lon="1.3477333"><ele>291.0</ele><time>2026-04-12T08:23:44.61Z</time></trkpt><trkpt lat="45.0092627" lon="1.3477307"><ele>291.0</ele><time>2026-04-12T08:23:45.61Z</time></trkpt><trkpt lat="45.0094007" lon="1.3477286"><ele>292.25</ele><time>2026-04-12T08:23:46.61Z</time></trkpt><trkpt lat="45.009536" lon="1.3477211"><ele>293.5</ele><time>2026-04-12T08:23:47.61Z</time></trkpt><trkpt lat="45.0096643" lon="1.347703"><ele>294.75</ele><time>2026-04-12T08:23:48.61Z</time></trkpt><trkpt lat="45.0097845" lon="1.3476324"><ele>296.0</ele><time>2026-04-12T08:23:49.61Z</time></trkpt><trkpt lat="45.0098841" lon="1.3475527"><ele>294.0</ele><time>2026-04-12T08:23:50.61Z</time></trkpt><trkpt lat="45.0099928" lon="1.3474978"><ele>292.0</ele><time>2026-04-12T08:23:51.61Z</time></trkpt><trkpt lat="45.0101079" lon="1.3475025"><ele>290.0</ele><time>2026-04-12T08:23:52.61Z</time></trkpt><trkpt lat="45.0102008" lon="1.3475424"><ele>288.0</ele><time>2026-04-12T08:23:53.61Z</time></trkpt><trkpt lat="45.0102926" lon="1.3476417"><ele>286.0</ele><time>2026-04-12T08:23:54.609Z</time></trkpt><trkpt lat="45.0103512" lon="1.3477657"><ele>286.0</ele><time>2026-04-12T08:23:55.61Z</time></trkpt><trkpt lat="45.0103773" lon="1.3479239"><ele>286.0</ele><time>2026-04-12T08:23:56.611Z</time></trkpt><trkpt lat="45.0103745" lon="1.3480885"><ele>286.0</ele><time>2026-04-12T08:23:57.61Z</time></trkpt><trkpt lat="45.0103619" lon="1.3482612"><ele>286.0</ele><time>2026-04-12T08:23:58.61Z</time></trkpt><trkpt lat="45.0103388" lon="1.3484519"><ele>285.25</ele><time>2026-04-12T08:23:59.61Z</time></trkpt><trkpt lat="45.0103177" lon="1.3486482"><ele>284.5</ele><time>2026-04-12T08:24:00.61Z</time></trkpt><trkpt lat="45.0103004" lon="1.3488464"><ele>283.75</ele><time>2026-04-12T08:24:01.61Z</time></trkpt><trkpt lat="45.0102911" lon="1.3490515"><ele>283.0</ele><time>2026-04-12T08:24:02.61Z</time></trkpt><trkpt lat="45.0103036" lon="1.3492528"><ele>283.0</ele><time>2026-04-12T08:24:03.61Z</time></trkpt><trkpt lat="45.0103406" lon="1.3494493"><ele>283.0</ele><time>2026-04-12T08:24:04.61Z</time></trkpt><trkpt lat="45.0104077" lon="1.3496427"><ele>283.0</ele><time>2026-04-12T08:24:05.609Z</time></trkpt><trkpt lat="45.0104944" lon="1.3498185"><ele>283.0</ele><time>2026-04-12T08:24:06.61Z</time></trkpt><trkpt lat="45.0105822" lon="1.3499964"><ele>282.66666666666663</ele><time>2026-04-12T08:24:07.61Z</time></trkpt><trkpt lat="45.0106623" lon="1.3501873"><ele>282.3333333333333</ele><time>2026-04-12T08:24:08.61Z</time></trkpt><trkpt lat="45.0107266" lon="1.3503913"><ele>282.0</ele><time>2026-04-12T08:24:09.61Z</time></trkpt><trkpt lat="45.0107726" lon="1.3505976"><ele>282.0</ele><time>2026-04-12T08:24:10.61Z</time></trkpt><trkpt lat="45.0107922" lon="1.3508064"><ele>282.0</ele><time>2026-04-12T08:24:11.61Z</time></trkpt><trkpt lat="45.0107855" lon="1.3510155"><ele>282.0</ele><time>2026-04-12T08:24:12.61Z</time></trkpt><trkpt lat="45.0107679" lon="1.3512248"><ele>282.0</ele><time>2026-04-12T08:24:13.61Z</time></trkpt><trkpt lat="45.0107546" lon="1.3514234"><ele>282.0</ele><time>2026-04-12T08:24:14.611Z</time></trkpt><trkpt lat="45.0107622" lon="1.3516097"><ele>282.0</ele><time>2026-04-12T08:24:15.61Z</time></trkpt><trkpt lat="45.0108023" lon="1.3517853"><ele>282.0</ele><time>2026-04-12T08:24:16.61Z</time></trkpt><trkpt lat="45.0108754" lon="1.3519376"><ele>282.0</ele><time>2026-04-12T08:24:17.61Z</time></trkpt><trkpt lat="45.0109798" lon="1.3520659"><ele>286.6666666666667</ele><time>2026-04-12T08:24:18.61Z</time></trkpt><trkpt lat="45.0110836" lon="1.3522129"><ele>291.33333333333337</ele><time>2026-04-12T08:24:19.609Z</time></trkpt><trkpt lat="45.011183" lon="1.3523756"><ele>296.0</ele><time>2026-04-12T08:24:20.61Z</time></trkpt><trkpt lat="45.011286" lon="1.3525505"><ele>296.0</ele><time>2026-04-12T08:24:21.61Z</time></trkpt><trkpt lat="45.0113995" lon="1.3527283"><ele>296.0</ele><time>2026-04-12T08:24:22.61Z</time></trkpt><trkpt lat="45.0115232" lon="1.3528907"><ele>296.0</ele><time>2026-04-12T08:24:23.611Z</time></trkpt><trkpt lat="45.011661" lon="1.3530249"><ele>300.0</ele><time>2026-04-12T08:24:24.61Z</time></trkpt><trkpt lat="45.0118137" lon="1.3531165"><ele>304.0</ele><time>2026-04-12T08:24:25.61Z</time></trkpt><trkpt lat="45.0119646" lon="1.3531953"><ele>308.0</ele><time>2026-04-12T08:24:26.61Z</time></trkpt><trkpt lat="45.0121123" lon="1.3532349"><ele>308.0</ele><time>2026-04-12T08:24:27.611Z</time></trkpt><trkpt lat="45.0122652" lon="1.3532679"><ele>308.0</ele><time>2026-04-12T08:24:28.61Z</time></trkpt><trkpt lat="45.0124178" lon="1.3532893"><ele>308.0</ele><time>2026-04-12T08:24:29.611Z</time></trkpt><trkpt lat="45.0125735" lon="1.3533202"><ele>307.5</ele><time>2026-04-12T08:24:30.61Z</time></trkpt><trkpt lat="45.0127136" lon="1.353376"><ele>307.0</ele><time>2026-04-12T08:24:31.61Z</time></trkpt><trkpt lat="45.0128455" lon="1.3534762"><ele>306.5</ele><time>2026-04-12T08:24:32.61Z</time></trkpt><trkpt lat="45.0129509" lon="1.3536267"><ele>306.0</ele><time>2026-04-12T08:24:33.609Z</time></trkpt><trkpt lat="45.013041" lon="1.3538119"><ele>305.0</ele><time>2026-04-12T08:24:34.609Z</time></trkpt><trkpt lat="45.0131282" lon="1.3540068"><ele>304.0</ele><time>2026-04-12T08:24:35.609Z</time></trkpt><trkpt lat="45.0132248" lon="1.3542005"><ele>303.0</ele><time>2026-04-12T08:24:36.61Z</time></trkpt><trkpt lat="45.01336" lon="1.3543554"><ele>303.0</ele><time>2026-04-12T08:24:37.61Z</time></trkpt><trkpt lat="45.0135038" lon="1.3545205"><ele>303.0</ele><time>2026-04-12T08:24:38.61Z</time></trkpt><trkpt lat="45.0136456" lon="1.3546779"><ele>303.0</ele><time>2026-04-12T08:24:39.61Z</time></trkpt><trkpt lat="45.0137899" lon="1.3548525"><ele>299.3333333333333</ele><time>2026-04-12T08:24:40.609Z</time></trkpt><trkpt lat="45.0139296" lon="1.3550271"><ele>295.66666666666663</ele><time>2026-04-12T08:24:41.609Z</time></trkpt><trkpt lat="45.0140686" lon="1.3552069"><ele>292.0</ele><time>2026-04-12T08:24:42.611Z</time></trkpt><trkpt lat="45.0142069" lon="1.3553839"><ele>290.0</ele><time>2026-04-12T08:24:43.61Z</time></trkpt><trkpt lat="45.014339" lon="1.3555703"><ele>288.0</ele><time>2026-04-12T08:24:44.61Z</time></trkpt><trkpt lat="45.0144708" lon="1.3557585"><ele>286.0</ele><time>2026-04-12T08:24:45.61Z</time></trkpt><trkpt lat="45.0146047" lon="1.3559461"><ele>286.0</ele><time>2026-04-12T08:24:46.61Z</time></trkpt><trkpt lat="45.0147376" lon="1.356133"><ele>286.0</ele><time>2026-04-12T08:24:47.61Z</time></trkpt><trkpt lat="45.0148707" lon="1.3563162"><ele>286.0</ele><time>2026-04-12T08:24:48.61Z</time></trkpt><trkpt lat="45.0150035" lon="1.3565034"><ele>285.3333333333333</ele><time>2026-04-12T08:24:49.61Z</time></trkpt><trkpt lat="45.0151379" lon="1.3566807"><ele>284.6666666666667</ele><time>2026-04-12T08:24:50.61Z</time></trkpt><trkpt lat="45.0152697" lon="1.3568546"><ele>284.0</ele><time>2026-04-12T08:24:51.609Z</time></trkpt><trkpt lat="45.0153949" lon="1.3570259"><ele>284.0</ele><time>2026-04-12T08:24:52.61Z</time></trkpt><trkpt lat="45.0155037" lon="1.3571926"><ele>284.0</ele><time>2026-04-12T08:24:53.611Z</time></trkpt><trkpt lat="45.0155908" lon="1.3573763"><ele>284.0</ele><time>2026-04-12T08:24:54.61Z</time></trkpt><trkpt lat="45.0156494" lon="1.3575708"><ele>282.6666666666667</ele><time>2026-04-12T08:24:55.61Z</time></trkpt><trkpt lat="45.0156775" lon="1.3577921"><ele>281.3333333333333</ele><time>2026-04-12T08:24:56.609Z</time></trkpt><trkpt lat="45.0156837" lon="1.3580236"><ele>280.0</ele><time>2026-04-12T08:24:57.61Z</time></trkpt><trkpt lat="45.0156789" lon="1.3582625"><ele>278.3333333333333</ele><time>2026-04-12T08:24:58.61Z</time></trkpt><trkpt lat="45.01567" lon="1.3584994"><ele>276.6666666666667</ele><time>2026-04-12T08:24:59.611Z</time></trkpt><trkpt lat="45.015666" lon="1.358743"><ele>275.0</ele><time>2026-04-12T08:25:00.61Z</time></trkpt><trkpt lat="45.015689" lon="1.3589668"><ele>274.33333333333337</ele><time>2026-04-12T08:25:01.61Z</time></trkpt><trkpt lat="45.0157408" lon="1.3591708"><ele>273.6666666666667</ele><time>2026-04-12T08:25:02.61Z</time></trkpt><trkpt lat="45.0158313" lon="1.3593542"><ele>273.0</ele><time>2026-04-12T08:25:03.61Z</time></trkpt><trkpt lat="45.0159527" lon="1.3595104"><ele>273.3333333333333</ele><time>2026-04-12T08:25:04.609Z</time></trkpt><trkpt lat="45.0160905" lon="1.3596474"><ele>273.66666666666663</ele><time>2026-04-12T08:25:05.61Z</time></trkpt><trkpt lat="45.0162349" lon="1.3597814"><ele>274.0</ele><time>2026-04-12T08:25:06.61Z</time></trkpt><trkpt lat="45.0163819" lon="1.3599084"><ele>274.0</ele><time>2026-04-12T08:25:07.611Z</time></trkpt><trkpt lat="45.0165324" lon="1.3600285"><ele>274.0</ele><time>2026-04-12T08:25:08.61Z</time></trkpt><trkpt lat="45.0166939" lon="1.3601313"><ele>274.0</ele><time>2026-04-12T08:25:09.61Z</time></trkpt><trkpt lat="45.0168583" lon="1.3602201"><ele>276.0</ele><time>2026-04-12T08:25:10.61Z</time></trkpt><trkpt lat="45.0170228" lon="1.3602879"><ele>278.0</ele><time>2026-04-12T08:25:11.61Z</time></trkpt><trkpt lat="45.0171922" lon="1.3603441"><ele>280.0</ele><time>2026-04-12T08:25:12.61Z</time></trkpt><trkpt lat="45.0173571" lon="1.360386"><ele>280.0</ele><time>2026-04-12T08:25:13.61Z</time></trkpt><trkpt lat="45.017521" lon="1.3604203"><ele>280.0</ele><time>2026-04-12T08:25:14.609Z</time></trkpt><trkpt lat="45.017672" lon="1.3604603"><ele>280.0</ele><time>2026-04-12T08:25:15.61Z</time></trkpt><trkpt lat="45.017804" lon="1.3605238"><ele>277.75</ele><time>2026-04-12T08:25:16.611Z</time></trkpt><trkpt lat="45.0179244" lon="1.3606251"><ele>275.5</ele><time>2026-04-12T08:25:17.609Z</time></trkpt><trkpt lat="45.018027" lon="1.3607715"><ele>273.25</ele><time>2026-04-12T08:25:18.61Z</time></trkpt><trkpt lat="45.0181089" lon="1.3609462"><ele>271.0</ele><time>2026-04-12T08:25:19.61Z</time></trkpt><trkpt lat="45.0181841" lon="1.3611389"><ele>271.0</ele><time>2026-04-12T08:25:20.61Z</time></trkpt><trkpt lat="45.0182556" lon="1.3613286"><ele>271.0</ele><time>2026-04-12T08:25:21.609Z</time></trkpt><trkpt lat="45.0183422" lon="1.3614997"><ele>271.0</ele><time>2026-04-12T08:25:22.611Z</time></trkpt><trkpt lat="45.0184481" lon="1.3616427"><ele>271.0</ele><time>2026-04-12T08:25:23.61Z</time></trkpt><trkpt lat="45.0185751" lon="1.3617636"><ele>270.0</ele><time>2026-04-12T08:25:24.61Z</time></trkpt><trkpt lat="45.0187138" lon="1.3618498"><ele>269.0</ele><time>2026-04-12T08:25:25.611Z</time></trkpt><trkpt lat="45.0188683" lon="1.3618886"><ele>268.0</ele><time>2026-04-12T08:25:26.61Z</time></trkpt><trkpt lat="45.0190288" lon="1.3618901"><ele>269.0</ele><time>2026-04-12T08:25:27.61Z</time></trkpt><trkpt lat="45.0191818" lon="1.3618779"><ele>270.0</ele><time>2026-04-12T08:25:28.61Z</time></trkpt><trkpt lat="45.019334" lon="1.361874"><ele>271.0</ele><time>2026-04-12T08:25:29.611Z</time></trkpt><trkpt lat="45.0194761" lon="1.3619064"><ele>272.0</ele><time>2026-04-12T08:25:30.61Z</time></trkpt><trkpt lat="45.0196176" lon="1.3619887"><ele>272.0</ele><time>2026-04-12T08:25:31.61Z</time></trkpt><trkpt lat="45.0197592" lon="1.3620916"><ele>272.0</ele><time>2026-04-12T08:25:32.611Z</time></trkpt><trkpt lat="45.0199098" lon="1.3622219"><ele>272.0</ele><time>2026-04-12T08:25:33.61Z</time></trkpt><trkpt lat="45.0200584" lon="1.3623428"><ele>270.33333333333337</ele><time>2026-04-12T08:25:34.611Z</time></trkpt><trkpt lat="45.0202246" lon="1.3624428"><ele>268.6666666666667</ele><time>2026-04-12T08:25:35.61Z</time></trkpt><trkpt lat="45.0203877" lon="1.3625194"><ele>267.0</ele><time>2026-04-12T08:25:36.61Z</time></trkpt><trkpt lat="45.0205558" lon="1.3625959"><ele>267.0</ele><time>2026-04-12T08:25:37.61Z</time></trkpt><trkpt lat="45.0207203" lon="1.3626838"><ele>267.0</ele><time>2026-04-12T08:25:38.61Z</time></trkpt><trkpt lat="45.0208739" lon="1.3627942"><ele>267.0</ele><time>2026-04-12T08:25:39.61Z</time></trkpt><trkpt lat="45.0210284" lon="1.3629429"><ele>266.0</ele><time>2026-04-12T08:25:40.609Z</time></trkpt><trkpt lat="45.0211801" lon="1.3631106"><ele>265.0</ele><time>2026-04-12T08:25:41.61Z</time></trkpt><trkpt lat="45.0213336" lon="1.3632902"><ele>264.0</ele><time>2026-04-12T08:25:42.61Z</time></trkpt><trkpt lat="45.0214932" lon="1.3634712"><ele>262.3333333333333</ele><time>2026-04-12T08:25:43.609Z</time></trkpt><trkpt lat="45.0216598" lon="1.3636374"><ele>260.66666666666663</ele><time>2026-04-12T08:25:44.61Z</time></trkpt><trkpt lat="45.021832" lon="1.3637929"><ele>259.0</ele><time>2026-04-12T08:25:45.61Z</time></trkpt><trkpt lat="45.0220143" lon="1.3639292"><ele>257.3333333333333</ele><time>2026-04-12T08:25:46.61Z</time></trkpt><trkpt lat="45.0222006" lon="1.3640547"><ele>255.66666666666669</ele><time>2026-04-12T08:25:47.609Z</time></trkpt><trkpt lat="45.0223782" lon="1.3641811"><ele>254.0</ele><time>2026-04-12T08:25:48.61Z</time></trkpt><trkpt lat="45.0225596" lon="1.3642957"><ele>253.66666666666669</ele><time>2026-04-12T08:25:49.61Z</time></trkpt><trkpt lat="45.0227399" lon="1.3644033"><ele>253.33333333333331</ele><time>2026-04-12T08:25:50.61Z</time></trkpt><trkpt lat="45.0229135" lon="1.3645187"><ele>253.0</ele><time>2026-04-12T08:25:51.61Z</time></trkpt><trkpt lat="45.0230911" lon="1.3646409"><ele>252.33333333333331</ele><time>2026-04-12T08:25:52.61Z</time></trkpt><trkpt lat="45.0232619" lon="1.3647506"><ele>251.66666666666669</ele><time>2026-04-12T08:25:53.609Z</time></trkpt><trkpt lat="45.0234243" lon="1.3648542"><ele>251.0</ele><time>2026-04-12T08:25:54.611Z</time></trkpt><trkpt lat="45.0235887" lon="1.3649749"><ele>251.0</ele><time>2026-04-12T08:25:55.61Z</time></trkpt><trkpt lat="45.0237232" lon="1.3651208"><ele>251.0</ele><time>2026-04-12T08:25:56.61Z</time></trkpt><trkpt lat="45.0238739" lon="1.365252"><ele>251.0</ele><time>2026-04-12T08:25:57.61Z</time></trkpt><trkpt lat="45.024001" lon="1.3653911"><ele>251.0</ele><time>2026-04-12T08:25:58.611Z</time></trkpt><trkpt lat="45.0241366" lon="1.3654872"><ele>251.0</ele><time>2026-04-12T08:25:59.61Z</time></trkpt><trkpt lat="45.0242742" lon="1.3655574"><ele>251.0</ele><time>2026-04-12T08:26:00.61Z</time></trkpt><trkpt lat="45.0244207" lon="1.3656027"><ele>251.0</ele><time>2026-04-12T08:26:01.61Z</time></trkpt><trkpt lat="45.0245679" lon="1.3656094"><ele>251.0</ele><time>2026-04-12T08:26:02.61Z</time></trkpt><trkpt lat="45.0247247" lon="1.3655957"><ele>251.0</ele><time>2026-04-12T08:26:03.61Z</time></trkpt><trkpt lat="45.0248806" lon="1.3655854"><ele>251.0</ele><time>2026-04-12T08:26:04.609Z</time></trkpt><trkpt lat="45.0250407" lon="1.3655983"><ele>251.33333333333334</ele><time>2026-04-12T08:26:05.61Z</time></trkpt><trkpt lat="45.0251935" lon="1.3656286"><ele>251.66666666666669</ele><time>2026-04-12T08:26:06.611Z</time></trkpt><trkpt lat="45.0253265" lon="1.3656975"><ele>252.0</ele><time>2026-04-12T08:26:07.61Z</time></trkpt><trkpt lat="45.0254719" lon="1.3658169"><ele>252.0</ele><time>2026-04-12T08:26:08.609Z</time></trkpt><trkpt lat="45.0256756" lon="1.3659397"><ele>252.0</ele><time>2026-04-12T08:26:09.61Z</time></trkpt><trkpt lat="45.0258429" lon="1.3660372"><ele>252.0</ele><time>2026-04-12T08:26:10.611Z</time></trkpt><trkpt lat="45.0260126" lon="1.3661189"><ele>253.0</ele><time>2026-04-12T08:26:11.61Z</time></trkpt><trkpt lat="45.026167" lon="1.3662076"><ele>254.0</ele><time>2026-04-12T08:26:12.61Z</time></trkpt><trkpt lat="45.0263082" lon="1.3663058"><ele>255.0</ele><time>2026-04-12T08:26:13.611Z</time></trkpt><trkpt lat="45.0264343" lon="1.3664465"><ele>255.0</ele><time>2026-04-12T08:26:14.61Z</time></trkpt><trkpt lat="45.0265343" lon="1.3666431"><ele>255.0</ele><time>2026-04-12T08:26:15.61Z</time></trkpt><trkpt lat="45.0266383" lon="1.3668504"><ele>255.0</ele><time>2026-04-12T08:26:16.61Z</time></trkpt><trkpt lat="45.0267498" lon="1.3670632"><ele>255.0</ele><time>2026-04-12T08:26:17.61Z</time></trkpt><trkpt lat="45.0268599" lon="1.3672618"><ele>255.0</ele><time>2026-04-12T08:26:18.609Z</time></trkpt><trkpt lat="45.0269934" lon="1.3674584"><ele>255.0</ele><time>2026-04-12T08:26:19.61Z</time></trkpt><trkpt lat="45.0271343" lon="1.3676398"><ele>255.0</ele><time>2026-04-12T08:26:20.61Z</time></trkpt><trkpt lat="45.0272914" lon="1.3678085"><ele>255.0</ele><time>2026-04-12T08:26:21.611Z</time></trkpt><trkpt lat="45.0274557" lon="1.3679622"><ele>255.0</ele><time>2026-04-12T08:26:22.61Z</time></trkpt><trkpt lat="45.0277982" lon="1.3682456"><ele>253.66666666666669</ele><time>2026-04-12T08:26:24.611Z</time></trkpt><trkpt lat="45.027883" lon="1.368366"><ele>252.33333333333334</ele><time>2026-04-12T08:26:25.661Z</time></trkpt><trkpt lat="45.0281185" lon="1.3686279"><ele>251.0</ele><time>2026-04-12T08:26:26.611Z</time></trkpt><trkpt lat="45.0282658" lon="1.3688395"><ele>249.33333333333334</ele><time>2026-04-12T08:26:27.61Z</time></trkpt><trkpt lat="45.0284196" lon="1.3690529"><ele>247.66666666666669</ele><time>2026-04-12T08:26:28.609Z</time></trkpt><trkpt lat="45.0285749" lon="1.3692645"><ele>246.0</ele><time>2026-04-12T08:26:29.61Z</time></trkpt><trkpt lat="45.0287257" lon="1.3694669"><ele>246.0</ele><time>2026-04-12T08:26:30.61Z</time></trkpt><trkpt lat="45.0288717" lon="1.3696794"><ele>246.0</ele><time>2026-04-12T08:26:31.61Z</time></trkpt><trkpt lat="45.0290219" lon="1.3698803"><ele>246.0</ele><time>2026-04-12T08:26:32.61Z</time></trkpt><trkpt lat="45.0291465" lon="1.3701069"><ele>245.66666666666669</ele><time>2026-04-12T08:26:33.61Z</time></trkpt><trkpt lat="45.029259" lon="1.3703254"><ele>245.33333333333334</ele><time>2026-04-12T08:26:34.61Z</time></trkpt><trkpt lat="45.0293479" lon="1.3705894"><ele>245.0</ele><time>2026-04-12T08:26:35.609Z</time></trkpt><trkpt lat="45.0294363" lon="1.3708542"><ele>246.0</ele><time>2026-04-12T08:26:36.611Z</time></trkpt><trkpt lat="45.0295413" lon="1.3710985"><ele>247.0</ele><time>2026-04-12T08:26:37.611Z</time></trkpt><trkpt lat="45.0296562" lon="1.3713383"><ele>248.0</ele><time>2026-04-12T08:26:38.611Z</time></trkpt><trkpt lat="45.0297795" lon="1.3715725"><ele>249.0</ele><time>2026-04-12T08:26:39.61Z</time></trkpt><trkpt lat="45.0299644" lon="1.3717019"><ele>250.0</ele><time>2026-04-12T08:26:40.61Z</time></trkpt><trkpt lat="45.0301331" lon="1.3718426"><ele>251.0</ele><time>2026-04-12T08:26:41.61Z</time></trkpt><trkpt lat="45.030315" lon="1.3719529"><ele>247.0</ele><time>2026-04-12T08:26:42.61Z</time></trkpt><trkpt lat="45.0304978" lon="1.3720147"><ele>243.0</ele><time>2026-04-12T08:26:43.61Z</time></trkpt><trkpt lat="45.0306677" lon="1.37212"><ele>239.0</ele><time>2026-04-12T08:26:44.609Z</time></trkpt><trkpt lat="45.0308338" lon="1.3722373"><ele>238.66666666666669</ele><time>2026-04-12T08:26:45.61Z</time></trkpt><trkpt lat="45.0309927" lon="1.3724012"><ele>238.33333333333331</ele><time>2026-04-12T08:26:46.61Z</time></trkpt><trkpt lat="45.0311289" lon="1.3725855"><ele>238.0</ele><time>2026-04-12T08:26:47.61Z</time></trkpt><trkpt lat="45.0312459" lon="1.3728139"><ele>238.33333333333331</ele><time>2026-04-12T08:26:48.61Z</time></trkpt><trkpt lat="45.0313437" lon="1.3730607"><ele>238.66666666666669</ele><time>2026-04-12T08:26:49.61Z</time></trkpt><trkpt lat="45.0314243" lon="1.3733168"><ele>239.0</ele><time>2026-04-12T08:26:50.61Z</time></trkpt><trkpt lat="45.0315045" lon="1.3735759"><ele>239.0</ele><time>2026-04-12T08:26:51.61Z</time></trkpt><trkpt lat="45.0315974" lon="1.3738279"><ele>239.0</ele><time>2026-04-12T08:26:52.61Z</time></trkpt><trkpt lat="45.0317106" lon="1.3740407"><ele>239.0</ele><time>2026-04-12T08:26:53.61Z</time></trkpt><trkpt lat="45.0318454" lon="1.3742177"><ele>235.33333333333334</ele><time>2026-04-12T08:26:54.609Z</time></trkpt><trkpt lat="45.0319957" lon="1.3743648"><ele>231.66666666666669</ele><time>2026-04-12T08:26:55.61Z</time></trkpt><trkpt lat="45.0321469" lon="1.3744506"><ele>228.0</ele><time>2026-04-12T08:26:56.61Z</time></trkpt><trkpt lat="45.0323374" lon="1.3745132"><ele>228.66666666666669</ele><time>2026-04-12T08:26:57.61Z</time></trkpt><trkpt lat="45.0325358" lon="1.3745101"><ele>229.33333333333334</ele><time>2026-04-12T08:26:58.61Z</time></trkpt><trkpt lat="45.0327199" lon="1.3744632"><ele>230.0</ele><time>2026-04-12T08:26:59.609Z</time></trkpt><trkpt lat="45.0329008" lon="1.3743363"><ele>230.0</ele><time>2026-04-12T08:27:00.61Z</time></trkpt><trkpt lat="45.0330866" lon="1.3742425"><ele>230.0</ele><time>2026-04-12T08:27:01.61Z</time></trkpt><trkpt lat="45.0332703" lon="1.3741771"><ele>230.0</ele><time>2026-04-12T08:27:02.61Z</time></trkpt><trkpt lat="45.0334494" lon="1.374136"><ele>229.0</ele><time>2026-04-12T08:27:03.611Z</time></trkpt><trkpt lat="45.0336385" lon="1.3741197"><ele>228.0</ele><time>2026-04-12T08:27:04.61Z</time></trkpt><trkpt lat="45.0338462" lon="1.3742066"><ele>227.0</ele><time>2026-04-12T08:27:05.61Z</time></trkpt><trkpt lat="45.0340297" lon="1.3742992"><ele>226.0</ele><time>2026-04-12T08:27:06.61Z</time></trkpt><trkpt lat="45.0342208" lon="1.3744256"><ele>225.0</ele><time>2026-04-12T08:27:07.609Z</time></trkpt><trkpt lat="45.0344119" lon="1.3745568"><ele>224.0</ele><time>2026-04-12T08:27:08.611Z</time></trkpt><trkpt lat="45.0346019" lon="1.3746957"><ele>224.0</ele><time>2026-04-12T08:27:09.61Z</time></trkpt><trkpt lat="45.0347907" lon="1.3748376"><ele>224.0</ele><time>2026-04-12T08:27:10.61Z</time></trkpt><trkpt lat="45.0349806" lon="1.3749643"><ele>224.0</ele><time>2026-04-12T08:27:11.61Z</time></trkpt><trkpt lat="45.0351681" lon="1.3750672"><ele>224.0</ele><time>2026-04-12T08:27:12.611Z</time></trkpt><trkpt lat="45.0353623" lon="1.3751365"><ele>224.0</ele><time>2026-04-12T08:27:13.61Z</time></trkpt><trkpt lat="45.0355469" lon="1.3751636"><ele>224.0</ele><time>2026-04-12T08:27:14.61Z</time></trkpt><trkpt lat="45.0357362" lon="1.3751475"><ele>223.33333333333334</ele><time>2026-04-12T08:27:15.61Z</time></trkpt><trkpt lat="45.0359139" lon="1.3750997"><ele>222.66666666666669</ele><time>2026-04-12T08:27:16.61Z</time></trkpt><trkpt lat="45.036084" lon="1.3750553"><ele>222.0</ele><time>2026-04-12T08:27:17.611Z</time></trkpt><trkpt lat="45.0362774" lon="1.3750308"><ele>222.0</ele><time>2026-04-12T08:27:18.61Z</time></trkpt><trkpt lat="45.036455" lon="1.3750292"><ele>222.0</ele><time>2026-04-12T08:27:19.61Z</time></trkpt><trkpt lat="45.0366218" lon="1.3750858"><ele>222.0</ele><time>2026-04-12T08:27:20.61Z</time></trkpt><trkpt lat="45.0367781" lon="1.3751663"><ele>222.33333333333331</ele><time>2026-04-12T08:27:21.61Z</time></trkpt><trkpt lat="45.0369275" lon="1.3752707"><ele>222.66666666666666</ele><time>2026-04-12T08:27:22.609Z</time></trkpt><trkpt lat="45.0370717" lon="1.3754005"><ele>223.0</ele><time>2026-04-12T08:27:23.61Z</time></trkpt><trkpt lat="45.0372076" lon="1.375548"><ele>223.33333333333331</ele><time>2026-04-12T08:27:24.61Z</time></trkpt><trkpt lat="45.0373455" lon="1.3757116"><ele>223.66666666666669</ele><time>2026-04-12T08:27:25.61Z</time></trkpt><trkpt lat="45.0374851" lon="1.3758701"><ele>224.0</ele><time>2026-04-12T08:27:26.61Z</time></trkpt><trkpt lat="45.0376339" lon="1.3760302"><ele>224.0</ele><time>2026-04-12T08:27:27.611Z</time></trkpt><trkpt lat="45.0377883" lon="1.3761735"><ele>224.0</ele><time>2026-04-12T08:27:28.61Z</time></trkpt><trkpt lat="45.0379528" lon="1.3762978"><ele>224.0</ele><time>2026-04-12T08:27:29.61Z</time></trkpt><trkpt lat="45.0381245" lon="1.3764019"><ele>226.33333333333334</ele><time>2026-04-12T08:27:30.61Z</time></trkpt><trkpt lat="45.0383374" lon="1.3764842"><ele>228.66666666666669</ele><time>2026-04-12T08:27:31.61Z</time></trkpt><trkpt lat="45.0385462" lon="1.3765283"><ele>231.0</ele><time>2026-04-12T08:27:32.61Z</time></trkpt><trkpt lat="45.0387442" lon="1.3765518"><ele>231.0</ele><time>2026-04-12T08:27:33.61Z</time></trkpt><trkpt lat="45.0389567" lon="1.3765486"><ele>231.0</ele><time>2026-04-12T08:27:34.61Z</time></trkpt><trkpt lat="45.0391542" lon="1.3765546"><ele>231.0</ele><time>2026-04-12T08:27:35.61Z</time></trkpt><trkpt lat="45.0393674" lon="1.3765728"><ele>230.66666666666669</ele><time>2026-04-12T08:27:36.611Z</time></trkpt><trkpt lat="45.0395615" lon="1.3766072"><ele>230.33333333333334</ele><time>2026-04-12T08:27:37.61Z</time></trkpt><trkpt lat="45.0397543" lon="1.3766533"><ele>230.0</ele><time>2026-04-12T08:27:38.61Z</time></trkpt><trkpt lat="45.0399457" lon="1.3766849"><ele>229.33333333333334</ele><time>2026-04-12T08:27:39.61Z</time></trkpt><trkpt lat="45.0401361" lon="1.3766621"><ele>228.66666666666669</ele><time>2026-04-12T08:27:40.61Z</time></trkpt><trkpt lat="45.0403183" lon="1.3765979"><ele>228.0</ele><time>2026-04-12T08:27:41.61Z</time></trkpt><trkpt lat="45.0404962" lon="1.3764633"><ele>227.0</ele><time>2026-04-12T08:27:42.61Z</time></trkpt><trkpt lat="45.0406744" lon="1.3763249"><ele>226.0</ele><time>2026-04-12T08:27:43.61Z</time></trkpt><trkpt lat="45.0408539" lon="1.3761884"><ele>225.0</ele><time>2026-04-12T08:27:44.61Z</time></trkpt><trkpt lat="45.0410173" lon="1.3760403"><ele>225.0</ele><time>2026-04-12T08:27:45.61Z</time></trkpt><trkpt lat="45.0411587" lon="1.3758672"><ele>225.0</ele><time>2026-04-12T08:27:46.61Z</time></trkpt><trkpt lat="45.0412807" lon="1.3756742"><ele>225.0</ele><time>2026-04-12T08:27:47.611Z</time></trkpt><trkpt lat="45.0413758" lon="1.3754664"><ele>221.33333333333331</ele><time>2026-04-12T08:27:48.61Z</time></trkpt><trkpt lat="45.0414569" lon="1.3752506"><ele>217.66666666666666</ele><time>2026-04-12T08:27:49.61Z</time></trkpt><trkpt lat="45.0415305" lon="1.3750388"><ele>214.0</ele><time>2026-04-12T08:27:50.611Z</time></trkpt><trkpt lat="45.0416127" lon="1.3748374"><ele>216.0</ele><time>2026-04-12T08:27:51.609Z</time></trkpt><trkpt lat="45.0417238" lon="1.3746542"><ele>218.0</ele><time>2026-04-12T08:27:52.61Z</time></trkpt><trkpt lat="45.0418641" lon="1.374508"><ele>220.0</ele><time>2026-04-12T08:27:53.61Z</time></trkpt><trkpt lat="45.0420298" lon="1.3744034"><ele>220.0</ele><time>2026-04-12T08:27:54.61Z</time></trkpt><trkpt lat="45.0422099" lon="1.3743289"><ele>220.0</ele><time>2026-04-12T08:27:55.61Z</time></trkpt><trkpt lat="45.0424037" lon="1.374254"><ele>220.0</ele><time>2026-04-12T08:27:56.609Z</time></trkpt><trkpt lat="45.0426022" lon="1.3741777"><ele>225.0</ele><time>2026-04-12T08:27:57.61Z</time></trkpt><trkpt lat="45.0428134" lon="1.3741034"><ele>230.0</ele><time>2026-04-12T08:27:58.611Z</time></trkpt><trkpt lat="45.0430227" lon="1.3740238"><ele>235.0</ele><time>2026-04-12T08:27:59.611Z</time></trkpt><trkpt lat="45.0432292" lon="1.3739439"><ele>236.66666666666666</ele><time>2026-04-12T08:28:00.611Z</time></trkpt><trkpt lat="45.0434481" lon="1.3738622"><ele>238.33333333333331</ele><time>2026-04-12T08:28:01.611Z</time></trkpt><trkpt lat="45.0436597" lon="1.3737802"><ele>240.0</ele><time>2026-04-12T08:28:02.611Z</time></trkpt><trkpt lat="45.0438683" lon="1.3736997"><ele>238.0</ele><time>2026-04-12T08:28:03.611Z</time></trkpt><trkpt lat="45.044072" lon="1.3736229"><ele>236.0</ele><time>2026-04-12T08:28:04.611Z</time></trkpt><trkpt lat="45.044271" lon="1.3735602"><ele>234.0</ele><time>2026-04-12T08:28:05.611Z</time></trkpt><trkpt lat="45.0444782" lon="1.3735185"><ele>234.0</ele><time>2026-04-12T08:28:06.611Z</time></trkpt><trkpt lat="45.0446861" lon="1.3735116"><ele>234.0</ele><time>2026-04-12T08:28:07.611Z</time></trkpt><trkpt lat="45.0448911" lon="1.3735306"><ele>234.0</ele><time>2026-04-12T08:28:08.61Z</time></trkpt><trkpt lat="45.0451005" lon="1.3735818"><ele>234.33333333333331</ele><time>2026-04-12T08:28:09.611Z</time></trkpt><trkpt lat="45.0452989" lon="1.3736715"><ele>234.66666666666666</ele><time>2026-04-12T08:28:10.611Z</time></trkpt><trkpt lat="45.0454879" lon="1.3737882"><ele>235.0</ele><time>2026-04-12T08:28:11.611Z</time></trkpt><trkpt lat="45.0456615" lon="1.3739339"><ele>237.33333333333331</ele><time>2026-04-12T08:28:12.611Z</time></trkpt><trkpt lat="45.0458212" lon="1.3741226"><ele>239.66666666666669</ele><time>2026-04-12T08:28:13.611Z</time></trkpt><trkpt lat="45.0459645" lon="1.3743233"><ele>242.0</ele><time>2026-04-12T08:28:14.611Z</time></trkpt><trkpt lat="45.0460924" lon="1.3745512"><ele>243.33333333333334</ele><time>2026-04-12T08:28:15.612Z</time></trkpt><trkpt lat="45.0462015" lon="1.3747917"><ele>244.66666666666669</ele><time>2026-04-12T08:28:16.611Z</time></trkpt><trkpt lat="45.0462822" lon="1.3750571"><ele>246.0</ele><time>2026-04-12T08:28:17.611Z</time></trkpt><trkpt lat="45.0463371" lon="1.3753291"><ele>246.0</ele><time>2026-04-12T08:28:18.611Z</time></trkpt><trkpt lat="45.0463881" lon="1.3755991"><ele>246.0</ele><time>2026-04-12T08:28:19.611Z</time></trkpt><trkpt lat="45.0464482" lon="1.3758498"><ele>246.0</ele><time>2026-04-12T08:28:20.611Z</time></trkpt><trkpt lat="45.0465333" lon="1.3760778"><ele>244.66666666666669</ele><time>2026-04-12T08:28:21.611Z</time></trkpt><trkpt lat="45.0466423" lon="1.37629"><ele>243.33333333333334</ele><time>2026-04-12T08:28:22.611Z</time></trkpt><trkpt lat="45.0467814" lon="1.3764535"><ele>242.0</ele><time>2026-04-12T08:28:23.611Z</time></trkpt><trkpt lat="45.0469361" lon="1.3765997"><ele>242.0</ele><time>2026-04-12T08:28:24.61Z</time></trkpt><trkpt lat="45.047095" lon="1.3767104"><ele>242.0</ele><time>2026-04-12T08:28:25.61Z</time></trkpt><trkpt lat="45.0472695" lon="1.3767994"><ele>242.0</ele><time>2026-04-12T08:28:26.61Z</time></trkpt><trkpt lat="45.0474356" lon="1.3768937"><ele>242.66666666666669</ele><time>2026-04-12T08:28:27.612Z</time></trkpt><trkpt lat="45.0476034" lon="1.3769889"><ele>243.33333333333331</ele><time>2026-04-12T08:28:28.611Z</time></trkpt><trkpt lat="45.0477313" lon="1.3771119"><ele>244.0</ele><time>2026-04-12T08:28:29.611Z</time></trkpt><trkpt lat="45.0478379" lon="1.3772713"><ele>242.0</ele><time>2026-04-12T08:28:30.611Z</time></trkpt><trkpt lat="45.0479157" lon="1.3774589"><ele>240.0</ele><time>2026-04-12T08:28:31.611Z</time></trkpt><trkpt lat="45.0479918" lon="1.3776445"><ele>238.0</ele><time>2026-04-12T08:28:32.612Z</time></trkpt><trkpt lat="45.0480907" lon="1.3778103"><ele>238.0</ele><time>2026-04-12T08:28:33.611Z</time></trkpt><trkpt lat="45.0482104" lon="1.3779663"><ele>238.0</ele><time>2026-04-12T08:28:34.612Z</time></trkpt><trkpt lat="45.0483484" lon="1.3780908"><ele>238.0</ele><time>2026-04-12T08:28:35.611Z</time></trkpt><trkpt lat="45.0484854" lon="1.3782179"><ele>237.33333333333331</ele><time>2026-04-12T08:28:36.61Z</time></trkpt><trkpt lat="45.0486809" lon="1.3782759"><ele>236.66666666666669</ele><time>2026-04-12T08:28:37.611Z</time></trkpt><trkpt lat="45.0488821" lon="1.3783431"><ele>236.0</ele><time>2026-04-12T08:28:38.611Z</time></trkpt><trkpt lat="45.0490771" lon="1.3784187"><ele>236.0</ele><time>2026-04-12T08:28:39.611Z</time></trkpt><trkpt lat="45.0492757" lon="1.378482"><ele>236.0</ele><time>2026-04-12T08:28:40.611Z</time></trkpt><trkpt lat="45.0494901" lon="1.3785522"><ele>236.0</ele><time>2026-04-12T08:28:41.612Z</time></trkpt><trkpt lat="45.0496912" lon="1.3786465"><ele>236.0</ele><time>2026-04-12T08:28:42.611Z</time></trkpt><trkpt lat="45.0498895" lon="1.3787566"><ele>236.0</ele><time>2026-04-12T08:28:43.612Z</time></trkpt><trkpt lat="45.0500783" lon="1.3788919"><ele>236.0</ele><time>2026-04-12T08:28:44.611Z</time></trkpt><trkpt lat="45.0502601" lon="1.3790297"><ele>234.33333333333334</ele><time>2026-04-12T08:28:45.61Z</time></trkpt><trkpt lat="45.0504453" lon="1.3791727"><ele>232.66666666666669</ele><time>2026-04-12T08:28:46.611Z</time></trkpt><trkpt lat="45.0506344" lon="1.3793133"><ele>231.0</ele><time>2026-04-12T08:28:47.611Z</time></trkpt><trkpt lat="45.0508166" lon="1.3794547"><ele>231.0</ele><time>2026-04-12T08:28:48.61Z</time></trkpt><trkpt lat="45.0509942" lon="1.3795952"><ele>231.0</ele><time>2026-04-12T08:28:49.611Z</time></trkpt><trkpt lat="45.0511752" lon="1.3797359"><ele>231.0</ele><time>2026-04-12T08:28:50.61Z</time></trkpt><trkpt lat="45.051351" lon="1.379873"><ele>231.33333333333331</ele><time>2026-04-12T08:28:51.611Z</time></trkpt><trkpt lat="45.0515236" lon="1.3800049"><ele>231.66666666666666</ele><time>2026-04-12T08:28:52.61Z</time></trkpt><trkpt lat="45.0517001" lon="1.3801417"><ele>232.0</ele><time>2026-04-12T08:28:53.61Z</time></trkpt><trkpt lat="45.0518766" lon="1.3802782"><ele>234.0</ele><time>2026-04-12T08:28:54.611Z</time></trkpt><trkpt lat="45.0520418" lon="1.3804069"><ele>236.0</ele><time>2026-04-12T08:28:55.611Z</time></trkpt><trkpt lat="45.0522208" lon="1.3805524"><ele>238.0</ele><time>2026-04-12T08:28:56.611Z</time></trkpt><trkpt lat="45.0523912" lon="1.3806887"><ele>238.66666666666666</ele><time>2026-04-12T08:28:57.612Z</time></trkpt><trkpt lat="45.0525543" lon="1.3808132"><ele>239.33333333333331</ele><time>2026-04-12T08:28:58.611Z</time></trkpt><trkpt lat="45.0527159" lon="1.3809304"><ele>240.0</ele><time>2026-04-12T08:28:59.611Z</time></trkpt><trkpt lat="45.0528851" lon="1.3810276"><ele>240.0</ele><time>2026-04-12T08:29:00.611Z</time></trkpt><trkpt lat="45.0530467" lon="1.3810677"><ele>240.0</ele><time>2026-04-12T08:29:01.611Z</time></trkpt><trkpt lat="45.0532237" lon="1.3810751"><ele>240.0</ele><time>2026-04-12T08:29:02.611Z</time></trkpt><trkpt lat="45.0534048" lon="1.3810339"><ele>241.33333333333331</ele><time>2026-04-12T08:29:03.611Z</time></trkpt><trkpt lat="45.0536108" lon="1.3809763"><ele>242.66666666666666</ele><time>2026-04-12T08:29:04.611Z</time></trkpt><trkpt lat="45.0538095" lon="1.3809202"><ele>244.0</ele><time>2026-04-12T08:29:05.611Z</time></trkpt><trkpt lat="45.0540089" lon="1.3808806"><ele>244.66666666666666</ele><time>2026-04-12T08:29:06.611Z</time></trkpt><trkpt lat="45.054206" lon="1.3808315"><ele>245.33333333333331</ele><time>2026-04-12T08:29:07.61Z</time></trkpt><trkpt lat="45.0544089" lon="1.3807861"><ele>246.0</ele><time>2026-04-12T08:29:08.611Z</time></trkpt><trkpt lat="45.0546059" lon="1.380728"><ele>246.0</ele><time>2026-04-12T08:29:09.611Z</time></trkpt><trkpt lat="45.0548008" lon="1.3806767"><ele>246.0</ele><time>2026-04-12T08:29:10.611Z</time></trkpt><trkpt lat="45.0549789" lon="1.38063"><ele>246.0</ele><time>2026-04-12T08:29:11.611Z</time></trkpt><trkpt lat="45.0551537" lon="1.3805998"><ele>247.0</ele><time>2026-04-12T08:29:12.61Z</time></trkpt><trkpt lat="45.0553263" lon="1.3805888"><ele>248.0</ele><time>2026-04-12T08:29:13.611Z</time></trkpt><trkpt lat="45.0554959" lon="1.3806354"><ele>249.0</ele><time>2026-04-12T08:29:14.611Z</time></trkpt><trkpt lat="45.0556637" lon="1.3807281"><ele>250.33333333333331</ele><time>2026-04-12T08:29:15.61Z</time></trkpt><trkpt lat="45.0558273" lon="1.3808498"><ele>251.66666666666666</ele><time>2026-04-12T08:29:16.611Z</time></trkpt><trkpt lat="45.0559924" lon="1.3809897"><ele>253.0</ele><time>2026-04-12T08:29:17.612Z</time></trkpt><trkpt lat="45.0561579" lon="1.381132"><ele>253.0</ele><time>2026-04-12T08:29:18.611Z</time></trkpt><trkpt lat="45.0563294" lon="1.3812748"><ele>253.0</ele><time>2026-04-12T08:29:19.611Z</time></trkpt><trkpt lat="45.0564955" lon="1.381417"><ele>253.0</ele><time>2026-04-12T08:29:20.611Z</time></trkpt><trkpt lat="45.0566575" lon="1.3815502"><ele>254.0</ele><time>2026-04-12T08:29:21.611Z</time></trkpt><trkpt lat="45.0568306" lon="1.3816725"><ele>255.0</ele><time>2026-04-12T08:29:22.611Z</time></trkpt><trkpt lat="45.0570038" lon="1.3817775"><ele>256.0</ele><time>2026-04-12T08:29:23.611Z</time></trkpt><trkpt lat="45.0571855" lon="1.3818579"><ele>256.0</ele><time>2026-04-12T08:29:24.611Z</time></trkpt><trkpt lat="45.0573603" lon="1.3819223"><ele>256.0</ele><time>2026-04-12T08:29:25.611Z</time></trkpt><trkpt lat="45.0575257" lon="1.3819519"><ele>256.0</ele><time>2026-04-12T08:29:26.611Z</time></trkpt><trkpt lat="45.0576863" lon="1.3819787"><ele>256.40000000000003</ele><time>2026-04-12T08:29:27.611Z</time></trkpt><trkpt lat="45.0577956" lon="1.3819773"><ele>256.8</ele><time>2026-04-12T08:29:28.611Z</time></trkpt><trkpt lat="45.0578878" lon="1.3819644"><ele>257.20000000000005</ele><time>2026-04-12T08:29:29.611Z</time></trkpt><trkpt lat="45.0580108" lon="1.3819926"><ele>257.6</ele><time>2026-04-12T08:29:30.61Z</time></trkpt><trkpt lat="45.0581121" lon="1.3820464"><ele>258.0</ele><time>2026-04-12T08:29:31.61Z</time></trkpt><trkpt lat="45.0582264" lon="1.3821125"><ele>258.5</ele><time>2026-04-12T08:29:32.611Z</time></trkpt><trkpt lat="45.0583356" lon="1.382181"><ele>259.0</ele><time>2026-04-12T08:29:33.611Z</time></trkpt><trkpt lat="45.0584461" lon="1.3822424"><ele>259.5</ele><time>2026-04-12T08:29:34.611Z</time></trkpt><trkpt lat="45.0585615" lon="1.3823071"><ele>260.0</ele><time>2026-04-12T08:29:35.611Z</time></trkpt><trkpt lat="45.0586996" lon="1.3823734"><ele>260.25</ele><time>2026-04-12T08:29:36.611Z</time></trkpt><trkpt lat="45.0588236" lon="1.3824267"><ele>260.5</ele><time>2026-04-12T08:29:37.611Z</time></trkpt><trkpt lat="45.0589465" lon="1.3824737"><ele>260.75</ele><time>2026-04-12T08:29:38.611Z</time></trkpt><trkpt lat="45.0591055" lon="1.3825316"><ele>261.0</ele><time>2026-04-12T08:29:39.611Z</time></trkpt><trkpt lat="45.0592439" lon="1.3825922"><ele>261.5</ele><time>2026-04-12T08:29:40.611Z</time></trkpt><trkpt lat="45.05935" lon="1.3826435"><ele>262.0</ele><time>2026-04-12T08:29:41.611Z</time></trkpt><trkpt lat="45.0594708" lon="1.3827129"><ele>262.5</ele><time>2026-04-12T08:29:42.61Z</time></trkpt><trkpt lat="45.0595851" lon="1.3827886"><ele>263.0</ele><time>2026-04-12T08:29:43.61Z</time></trkpt><trkpt lat="45.0597095" lon="1.3828838"><ele>263.0</ele><time>2026-04-12T08:29:44.611Z</time></trkpt><trkpt lat="45.0597958" lon="1.3829541"><ele>263.0</ele><time>2026-04-12T08:29:45.611Z</time></trkpt><trkpt lat="45.0598707" lon="1.3830157"><ele>263.0</ele><time>2026-04-12T08:29:46.611Z</time></trkpt><trkpt lat="45.0599404" lon="1.3830742"><ele>263.0</ele><time>2026-04-12T08:29:47.611Z</time></trkpt><trkpt lat="45.0600404" lon="1.3831229"><ele>263.0</ele><time>2026-04-12T08:29:49.61Z</time></trkpt><trkpt lat="45.0601113" lon="1.3831757"><ele>263.33333333333337</ele><time>2026-04-12T08:29:51.611Z</time></trkpt><trkpt lat="45.0601877" lon="1.3832313"><ele>263.6666666666667</ele><time>2026-04-12T08:29:54.611Z</time></trkpt><trkpt lat="45.0602586" lon="1.3831887"><ele>264.0</ele><time>2026-04-12T08:29:57.611Z</time></trkpt><trkpt lat="45.0603006" lon="1.3830878"><ele>264.3333333333333</ele><time>2026-04-12T08:30:11.611Z</time></trkpt><trkpt lat="45.0603302" lon="1.3829945"><ele>264.66666666666663</ele><time>2026-04-12T08:30:14.61Z</time></trkpt><trkpt lat="45.0603674" lon="1.3828802"><ele>265.0</ele><time>2026-04-12T08:30:17.611Z</time></trkpt><trkpt lat="45.0603936" lon="1.3827876"><ele>264.99999999999994</ele><time>2026-04-12T08:30:20.611Z</time></trkpt><trkpt lat="45.0603654" lon="1.3828737"><ele>265.0</ele><time>2026-04-12T08:30:39.61Z</time></trkpt><trkpt lat="45.0603493" lon="1.3827811"><ele>265.0</ele><time>2026-04-12T08:31:00.612Z</time></trkpt><trkpt lat="45.0602789" lon="1.3826908"><ele>265.0</ele><time>2026-04-12T08:31:34.611Z</time></trkpt><trkpt lat="45.0602524" lon="1.3826017"><ele>265.0</ele><time>2026-04-12T08:31:59.611Z</time></trkpt><trkpt lat="45.0603047" lon="1.382664"><ele>264.99999999999994</ele><time>2026-04-12T08:37:50.612Z</time></trkpt><trkpt lat="45.0603458" lon="1.3827462"><ele>265.0</ele><time>2026-04-12T08:38:58.612Z</time></trkpt><trkpt lat="45.0603086" lon="1.382827"><ele>264.99999999999994</ele><time>2026-04-12T08:46:52.614Z</time></trkpt><trkpt lat="45.0602951" lon="1.3829164"><ele>265.0</ele><time>2026-04-12T08:50:12.614Z</time></trkpt><trkpt lat="45.0602574" lon="1.3829995"><ele>265.0</ele><time>2026-04-12T08:50:15.615Z</time></trkpt><trkpt lat="45.0602509" lon="1.3830925"><ele>265.0</ele><time>2026-04-12T08:50:28.615Z</time></trkpt><trkpt lat="45.0601885" lon="1.3831466"><ele>265.0</ele><time>2026-04-12T08:50:36.615Z</time></trkpt><trkpt lat="45.0601067" lon="1.3831242"><ele>264.99999999999994</ele><time>2026-04-12T08:50:37.615Z</time></trkpt><trkpt lat="45.0600286" lon="1.383084"><ele>265.0</ele><time>2026-04-12T08:50:38.615Z</time></trkpt><trkpt lat="45.0599566" lon="1.3830419"><ele>264.6</ele><time>2026-04-12T08:50:39.615Z</time></trkpt><trkpt lat="45.0598834" lon="1.382996"><ele>264.2</ele><time>2026-04-12T08:50:40.615Z</time></trkpt><trkpt lat="45.0598013" lon="1.3829417"><ele>263.8</ele><time>2026-04-12T08:50:41.614Z</time></trkpt><trkpt lat="45.0597181" lon="1.3828834"><ele>263.4</ele><time>2026-04-12T08:50:42.615Z</time></trkpt><trkpt lat="45.0596287" lon="1.3828208"><ele>263.0</ele><time>2026-04-12T08:50:43.615Z</time></trkpt><trkpt lat="45.0595308" lon="1.3827586"><ele>263.0</ele><time>2026-04-12T08:50:44.615Z</time></trkpt><trkpt lat="45.0594271" lon="1.3826974"><ele>263.0</ele><time>2026-04-12T08:50:45.615Z</time></trkpt><trkpt lat="45.0593163" lon="1.3826381"><ele>263.0</ele><time>2026-04-12T08:50:46.615Z</time></trkpt><trkpt lat="45.0591994" lon="1.3825799"><ele>263.0</ele><time>2026-04-12T08:50:47.614Z</time></trkpt><trkpt lat="45.0590789" lon="1.3825196"><ele>262.5</ele><time>2026-04-12T08:50:48.615Z</time></trkpt><trkpt lat="45.0589557" lon="1.3824597"><ele>262.0</ele><time>2026-04-12T08:50:49.615Z</time></trkpt><trkpt lat="45.0588331" lon="1.3824009"><ele>261.5</ele><time>2026-04-12T08:50:50.616Z</time></trkpt><trkpt lat="45.0587113" lon="1.3823418"><ele>261.0</ele><time>2026-04-12T08:50:51.615Z</time></trkpt><trkpt lat="45.0585952" lon="1.3822846"><ele>261.0</ele><time>2026-04-12T08:50:52.614Z</time></trkpt><trkpt lat="45.0584887" lon="1.3822327"><ele>261.0</ele><time>2026-04-12T08:50:53.614Z</time></trkpt><trkpt lat="45.0583972" lon="1.3821852"><ele>261.0</ele><time>2026-04-12T08:50:54.615Z</time></trkpt><trkpt lat="45.058317" lon="1.3821388"><ele>261.0</ele><time>2026-04-12T08:50:55.615Z</time></trkpt><trkpt lat="45.0582827" lon="1.382005"><ele>261.0</ele><time>2026-04-12T08:50:57.615Z</time></trkpt><trkpt lat="45.0583231" lon="1.3819132"><ele>260.8333333333333</ele><time>2026-04-12T08:51:01.615Z</time></trkpt><trkpt lat="45.0584057" lon="1.3818763"><ele>260.6666666666667</ele><time>2026-04-12T08:51:03.615Z</time></trkpt><trkpt lat="45.0584721" lon="1.3818655"><ele>260.5</ele><time>2026-04-12T08:51:04.615Z</time></trkpt><trkpt lat="45.0585577" lon="1.3818502"><ele>260.33333333333337</ele><time>2026-04-12T08:51:05.615Z</time></trkpt><trkpt lat="45.0586531" lon="1.3818217"><ele>260.1666666666667</ele><time>2026-04-12T08:51:06.615Z</time></trkpt><trkpt lat="45.058759" lon="1.3817917"><ele>260.0</ele><time>2026-04-12T08:51:07.615Z</time></trkpt><trkpt lat="45.0588776" lon="1.3817616"><ele>260.0</ele><time>2026-04-12T08:51:08.615Z</time></trkpt><trkpt lat="45.0590077" lon="1.3817292"><ele>260.0</ele><time>2026-04-12T08:51:09.615Z</time></trkpt><trkpt lat="45.0591453" lon="1.3816952"><ele>260.0</ele><time>2026-04-12T08:51:10.614Z</time></trkpt><trkpt lat="45.0592911" lon="1.3816568"><ele>260.0</ele><time>2026-04-12T08:51:11.615Z</time></trkpt><trkpt lat="45.0594441" lon="1.3816268"><ele>260.0</ele><time>2026-04-12T08:51:12.615Z</time></trkpt><trkpt lat="45.0596069" lon="1.3816011"><ele>260.0</ele><time>2026-04-12T08:51:13.615Z</time></trkpt><trkpt lat="45.0597766" lon="1.3815696"><ele>260.0</ele><time>2026-04-12T08:51:14.615Z</time></trkpt><trkpt lat="45.0599535" lon="1.3815318"><ele>260.0</ele><time>2026-04-12T08:51:15.615Z</time></trkpt><trkpt lat="45.060138" lon="1.3814906"><ele>260.0</ele><time>2026-04-12T08:51:16.616Z</time></trkpt><trkpt lat="45.0603236" lon="1.3814478"><ele>260.0</ele><time>2026-04-12T08:51:17.614Z</time></trkpt><trkpt lat="45.0605107" lon="1.381412"><ele>260.0</ele><time>2026-04-12T08:51:18.615Z</time></trkpt><trkpt lat="45.0607015" lon="1.3813743"><ele>260.0</ele><time>2026-04-12T08:51:19.614Z</time></trkpt><trkpt lat="45.0609023" lon="1.3813381"><ele>260.0</ele><time>2026-04-12T08:51:20.616Z</time></trkpt><trkpt lat="45.0611082" lon="1.3813052"><ele>259.6666666666667</ele><time>2026-04-12T08:51:21.616Z</time></trkpt><trkpt lat="45.0613229" lon="1.3812661"><ele>259.3333333333333</ele><time>2026-04-12T08:51:22.615Z</time></trkpt><trkpt lat="45.0615449" lon="1.3812413"><ele>259.0</ele><time>2026-04-12T08:51:23.615Z</time></trkpt><trkpt lat="45.061771" lon="1.3812171"><ele>259.0</ele><time>2026-04-12T08:51:24.615Z</time></trkpt><trkpt lat="45.061998" lon="1.3811926"><ele>259.0</ele><time>2026-04-12T08:51:25.614Z</time></trkpt><trkpt lat="45.0622257" lon="1.3811665"><ele>258.0</ele><time>2026-04-12T08:51:26.615Z</time></trkpt><trkpt lat="45.0624544" lon="1.38114"><ele>257.0</ele><time>2026-04-12T08:51:27.615Z</time></trkpt><trkpt lat="45.0626867" lon="1.3811157"><ele>257.0</ele><time>2026-04-12T08:51:28.614Z</time></trkpt><trkpt lat="45.0629206" lon="1.3810807"><ele>257.0</ele><time>2026-04-12T08:51:29.615Z</time></trkpt><trkpt lat="45.0631498" lon="1.3810219"><ele>257.0</ele><time>2026-04-12T08:51:30.614Z</time></trkpt><trkpt lat="45.0633724" lon="1.3809331"><ele>257.0</ele><time>2026-04-12T08:51:31.614Z</time></trkpt><trkpt lat="45.0635832" lon="1.3808016"><ele>257.0</ele><time>2026-04-12T08:51:32.614Z</time></trkpt><trkpt lat="45.0637892" lon="1.3806468"><ele>257.0</ele><time>2026-04-12T08:51:33.616Z</time></trkpt><trkpt lat="45.0639909" lon="1.3804793"><ele>258.5</ele><time>2026-04-12T08:51:34.615Z</time></trkpt><trkpt lat="45.0641915" lon="1.3803059"><ele>260.0</ele><time>2026-04-12T08:51:35.615Z</time></trkpt><trkpt lat="45.0643922" lon="1.3801382"><ele>260.0</ele><time>2026-04-12T08:51:36.615Z</time></trkpt><trkpt lat="45.0645905" lon="1.3799641"><ele>260.0</ele><time>2026-04-12T08:51:37.615Z</time></trkpt><trkpt lat="45.0647909" lon="1.3797953"><ele>261.5</ele><time>2026-04-12T08:51:38.615Z</time></trkpt><trkpt lat="45.0649916" lon="1.3796265"><ele>263.0</ele><time>2026-04-12T08:51:39.615Z</time></trkpt><trkpt lat="45.065196" lon="1.3794604"><ele>263.0</ele><time>2026-04-12T08:51:40.614Z</time></trkpt><trkpt lat="45.0654009" lon="1.379308"><ele>263.0</ele><time>2026-04-12T08:51:41.616Z</time></trkpt><trkpt lat="45.0656019" lon="1.3791645"><ele>262.0</ele><time>2026-04-12T08:51:42.616Z</time></trkpt><trkpt lat="45.0658089" lon="1.3790403"><ele>261.0</ele><time>2026-04-12T08:51:43.615Z</time></trkpt><trkpt lat="45.0660456" lon="1.3790166"><ele>261.0</ele><time>2026-04-12T08:51:44.615Z</time></trkpt><trkpt lat="45.0662847" lon="1.3789832"><ele>261.0</ele><time>2026-04-12T08:51:45.615Z</time></trkpt><trkpt lat="45.066517" lon="1.3789376"><ele>262.5</ele><time>2026-04-12T08:51:46.615Z</time></trkpt><trkpt lat="45.0667465" lon="1.3788898"><ele>264.0</ele><time>2026-04-12T08:51:47.616Z</time></trkpt><trkpt lat="45.066978" lon="1.3788465"><ele>265.0</ele><time>2026-04-12T08:51:48.615Z</time></trkpt><trkpt lat="45.0672105" lon="1.3788016"><ele>266.0</ele><time>2026-04-12T08:51:49.615Z</time></trkpt><trkpt lat="45.0674443" lon="1.3787549"><ele>263.0</ele><time>2026-04-12T08:51:50.615Z</time></trkpt><trkpt lat="45.0676777" lon="1.3787096"><ele>260.0</ele><time>2026-04-12T08:51:51.615Z</time></trkpt><trkpt lat="45.0679085" lon="1.3786635"><ele>260.0</ele><time>2026-04-12T08:51:52.615Z</time></trkpt><trkpt lat="45.0681446" lon="1.3786183"><ele>260.0</ele><time>2026-04-12T08:51:53.615Z</time></trkpt><trkpt lat="45.0683802" lon="1.3785707"><ele>259.0</ele><time>2026-04-12T08:51:54.615Z</time></trkpt><trkpt lat="45.0686174" lon="1.3785261"><ele>258.0</ele><time>2026-04-12T08:51:55.616Z</time></trkpt><trkpt lat="45.0688535" lon="1.3784782"><ele>258.0</ele><time>2026-04-12T08:51:56.615Z</time></trkpt><trkpt lat="45.0690922" lon="1.3784283"><ele>258.0</ele><time>2026-04-12T08:51:57.616Z</time></trkpt><trkpt lat="45.0693325" lon="1.3783839"><ele>261.0</ele><time>2026-04-12T08:51:58.615Z</time></trkpt><trkpt lat="45.0695743" lon="1.3783409"><ele>264.0</ele><time>2026-04-12T08:51:59.615Z</time></trkpt><trkpt lat="45.0698176" lon="1.3782955"><ele>265.0</ele><time>2026-04-12T08:52:00.615Z</time></trkpt><trkpt lat="45.07006" lon="1.3782499"><ele>266.0</ele><time>2026-04-12T08:52:01.615Z</time></trkpt><trkpt lat="45.0703012" lon="1.378204"><ele>266.0</ele><time>2026-04-12T08:52:02.616Z</time></trkpt><trkpt lat="45.070548" lon="1.3781524"><ele>266.0</ele><time>2026-04-12T08:52:03.615Z</time></trkpt><trkpt lat="45.0707904" lon="1.3781016"><ele>266.0</ele><time>2026-04-12T08:52:04.614Z</time></trkpt><trkpt lat="45.0710345" lon="1.3780477"><ele>266.0</ele><time>2026-04-12T08:52:05.616Z</time></trkpt><trkpt lat="45.0712802" lon="1.377999"><ele>265.5</ele><time>2026-04-12T08:52:06.615Z</time></trkpt><trkpt lat="45.071525" lon="1.3779531"><ele>265.0</ele><time>2026-04-12T08:52:07.615Z</time></trkpt><trkpt lat="45.0717721" lon="1.3779036"><ele>265.0</ele><time>2026-04-12T08:52:08.615Z</time></trkpt><trkpt lat="45.0720183" lon="1.3778531"><ele>265.0</ele><time>2026-04-12T08:52:09.616Z</time></trkpt><trkpt lat="45.0722639" lon="1.3778032"><ele>267.5</ele><time>2026-04-12T08:52:10.616Z</time></trkpt><trkpt lat="45.0725089" lon="1.3777544"><ele>270.0</ele><time>2026-04-12T08:52:11.616Z</time></trkpt><trkpt lat="45.0727534" lon="1.3777053"><ele>270.0</ele><time>2026-04-12T08:52:12.615Z</time></trkpt><trkpt lat="45.0729967" lon="1.3776582"><ele>270.0</ele><time>2026-04-12T08:52:13.616Z</time></trkpt><trkpt lat="45.0732413" lon="1.3776087"><ele>271.0</ele><time>2026-04-12T08:52:14.614Z</time></trkpt><trkpt lat="45.0734833" lon="1.3775611"><ele>272.0</ele><time>2026-04-12T08:52:15.616Z</time></trkpt><trkpt lat="45.0737266" lon="1.3775144"><ele>272.0</ele><time>2026-04-12T08:52:16.614Z</time></trkpt><trkpt lat="45.0739688" lon="1.3774681"><ele>272.0</ele><time>2026-04-12T08:52:17.616Z</time></trkpt><trkpt lat="45.0742118" lon="1.3774204"><ele>274.5</ele><time>2026-04-12T08:52:18.615Z</time></trkpt><trkpt lat="45.0744537" lon="1.3773758"><ele>277.0</ele><time>2026-04-12T08:52:19.616Z</time></trkpt><trkpt lat="45.0746908" lon="1.377318"><ele>277.0</ele><time>2026-04-12T08:52:20.615Z</time></trkpt><trkpt lat="45.0749295" lon="1.3772253"><ele>277.0</ele><time>2026-04-12T08:52:21.614Z</time></trkpt><trkpt lat="45.0751496" lon="1.3770893"><ele>277.0</ele><time>2026-04-12T08:52:22.615Z</time></trkpt><trkpt lat="45.0753666" lon="1.3769404"><ele>277.0</ele><time>2026-04-12T08:52:23.615Z</time></trkpt><trkpt lat="45.0755951" lon="1.3768195"><ele>278.0</ele><time>2026-04-12T08:52:24.615Z</time></trkpt><trkpt lat="45.0758349" lon="1.3767562"><ele>279.0</ele><time>2026-04-12T08:52:25.615Z</time></trkpt><trkpt lat="45.0760773" lon="1.3767529"><ele>279.0</ele><time>2026-04-12T08:52:26.614Z</time></trkpt><trkpt lat="45.076322" lon="1.3768093"><ele>279.0</ele><time>2026-04-12T08:52:27.614Z</time></trkpt><trkpt lat="45.0765555" lon="1.3769178"><ele>280.0</ele><time>2026-04-12T08:52:28.615Z</time></trkpt><trkpt lat="45.0767796" lon="1.3770529"><ele>281.0</ele><time>2026-04-12T08:52:29.614Z</time></trkpt><trkpt lat="45.077007" lon="1.377202"><ele>283.5</ele><time>2026-04-12T08:52:30.615Z</time></trkpt><trkpt lat="45.0772369" lon="1.3773506"><ele>286.0</ele><time>2026-04-12T08:52:31.615Z</time></trkpt><trkpt lat="45.0774673" lon="1.3775036"><ele>286.0</ele><time>2026-04-12T08:52:32.615Z</time></trkpt><trkpt lat="45.0777001" lon="1.3776542"><ele>286.0</ele><time>2026-04-12T08:52:33.615Z</time></trkpt><trkpt lat="45.0779364" lon="1.3778073"><ele>286.0</ele><time>2026-04-12T08:52:34.615Z</time></trkpt><trkpt lat="45.0781666" lon="1.3779582"><ele>286.0</ele><time>2026-04-12T08:52:35.614Z</time></trkpt><trkpt lat="45.078392" lon="1.3781029"><ele>287.5</ele><time>2026-04-12T08:52:36.614Z</time></trkpt><trkpt lat="45.0786094" lon="1.3782392"><ele>289.0</ele><time>2026-04-12T08:52:37.615Z</time></trkpt><trkpt lat="45.0788235" lon="1.3783424"><ele>289.0</ele><time>2026-04-12T08:52:38.615Z</time></trkpt><trkpt lat="45.0790451" lon="1.3783995"><ele>289.0</ele><time>2026-04-12T08:52:39.615Z</time></trkpt><trkpt lat="45.0792845" lon="1.3784235"><ele>290.0</ele><time>2026-04-12T08:52:40.615Z</time></trkpt><trkpt lat="45.079507" lon="1.378405"><ele>291.0</ele><time>2026-04-12T08:52:41.615Z</time></trkpt><trkpt lat="45.0797276" lon="1.3783434"><ele>292.0</ele><time>2026-04-12T08:52:42.616Z</time></trkpt><trkpt lat="45.079939" lon="1.3782357"><ele>292.0</ele><time>2026-04-12T08:52:43.615Z</time></trkpt><trkpt lat="45.0801015" lon="1.3780234"><ele>292.0</ele><time>2026-04-12T08:52:44.616Z</time></trkpt><trkpt lat="45.0802628" lon="1.3778524"><ele>292.0</ele><time>2026-04-12T08:52:45.616Z</time></trkpt><trkpt lat="45.0804247" lon="1.3777096"><ele>291.66666666666663</ele><time>2026-04-12T08:52:46.616Z</time></trkpt><trkpt lat="45.0805925" lon="1.3776355"><ele>291.3333333333333</ele><time>2026-04-12T08:52:47.615Z</time></trkpt><trkpt lat="45.0807551" lon="1.3776175"><ele>291.0</ele><time>2026-04-12T08:52:48.615Z</time></trkpt><trkpt lat="45.0809066" lon="1.377585"><ele>291.0</ele><time>2026-04-12T08:52:49.615Z</time></trkpt><trkpt lat="45.0810301" lon="1.3774945"><ele>291.0</ele><time>2026-04-12T08:52:50.615Z</time></trkpt><trkpt lat="45.0811385" lon="1.3773517"><ele>291.0</ele><time>2026-04-12T08:52:51.616Z</time></trkpt><trkpt lat="45.0812137" lon="1.3771606"><ele>291.0</ele><time>2026-04-12T08:52:52.616Z</time></trkpt><trkpt lat="45.0812742" lon="1.3769455"><ele>290.3333333333333</ele><time>2026-04-12T08:52:53.616Z</time></trkpt><trkpt lat="45.0813361" lon="1.3767071"><ele>289.66666666666663</ele><time>2026-04-12T08:52:54.616Z</time></trkpt><trkpt lat="45.0814031" lon="1.3764581"><ele>289.0</ele><time>2026-04-12T08:52:55.615Z</time></trkpt><trkpt lat="45.081472" lon="1.3761988"><ele>286.0</ele><time>2026-04-12T08:52:56.614Z</time></trkpt><trkpt lat="45.0815362" lon="1.3759238"><ele>283.0</ele><time>2026-04-12T08:52:57.615Z</time></trkpt><trkpt lat="45.0815768" lon="1.3756361"><ele>280.0</ele><time>2026-04-12T08:52:58.615Z</time></trkpt><trkpt lat="45.0815793" lon="1.3753195"><ele>280.0</ele><time>2026-04-12T08:52:59.615Z</time></trkpt><trkpt lat="45.0815685" lon="1.375021"><ele>280.0</ele><time>2026-04-12T08:53:00.615Z</time></trkpt><trkpt lat="45.0815289" lon="1.3747362"><ele>280.0</ele><time>2026-04-12T08:53:01.615Z</time></trkpt><trkpt lat="45.0814822" lon="1.3744743"><ele>280.0</ele><time>2026-04-12T08:53:02.615Z</time></trkpt><trkpt lat="45.0814453" lon="1.3742214"><ele>280.0</ele><time>2026-04-12T08:53:03.614Z</time></trkpt><trkpt lat="45.0814292" lon="1.3739604"><ele>280.0</ele><time>2026-04-12T08:53:04.615Z</time></trkpt><trkpt lat="45.0815483" lon="1.3737718"><ele>284.0</ele><time>2026-04-12T08:53:05.615Z</time></trkpt><trkpt lat="45.0816499" lon="1.3735829"><ele>288.0</ele><time>2026-04-12T08:53:06.615Z</time></trkpt><trkpt lat="45.081788" lon="1.3734466"><ele>292.0</ele><time>2026-04-12T08:53:07.615Z</time></trkpt><trkpt lat="45.0819524" lon="1.3733679"><ele>292.0</ele><time>2026-04-12T08:53:08.615Z</time></trkpt><trkpt lat="45.0821085" lon="1.3733537"><ele>292.0</ele><time>2026-04-12T08:53:09.615Z</time></trkpt><trkpt lat="45.0822834" lon="1.3733835"><ele>292.0</ele><time>2026-04-12T08:53:10.616Z</time></trkpt><trkpt lat="45.0824547" lon="1.373414"><ele>293.3333333333333</ele><time>2026-04-12T08:53:11.615Z</time></trkpt><trkpt lat="45.0826502" lon="1.3735612"><ele>294.6666666666667</ele><time>2026-04-12T08:53:12.615Z</time></trkpt><trkpt lat="45.0828361" lon="1.3736833"><ele>296.0</ele><time>2026-04-12T08:53:13.615Z</time></trkpt><trkpt lat="45.083044" lon="1.3737798"><ele>296.0</ele><time>2026-04-12T08:53:14.615Z</time></trkpt><trkpt lat="45.0832406" lon="1.373833"><ele>296.0</ele><time>2026-04-12T08:53:15.615Z</time></trkpt><trkpt lat="45.0834463" lon="1.3738667"><ele>296.0</ele><time>2026-04-12T08:53:16.615Z</time></trkpt><trkpt lat="45.0836645" lon="1.3739335"><ele>299.0</ele><time>2026-04-12T08:53:17.616Z</time></trkpt><trkpt lat="45.0838653" lon="1.3739841"><ele>302.0</ele><time>2026-04-12T08:53:18.615Z</time></trkpt><trkpt lat="45.0840662" lon="1.374048"><ele>305.0</ele><time>2026-04-12T08:53:19.615Z</time></trkpt><trkpt lat="45.0842583" lon="1.3741384"><ele>305.0</ele><time>2026-04-12T08:53:20.616Z</time></trkpt><trkpt lat="45.0844367" lon="1.3742913"><ele>305.0</ele><time>2026-04-12T08:53:21.615Z</time></trkpt><trkpt lat="45.084628" lon="1.3743988"><ele>305.0</ele><time>2026-04-12T08:53:22.614Z</time></trkpt><trkpt lat="45.0848234" lon="1.3744885"><ele>302.6666666666667</ele><time>2026-04-12T08:53:23.615Z</time></trkpt><trkpt lat="45.0850477" lon="1.3746129"><ele>300.3333333333333</ele><time>2026-04-12T08:53:24.616Z</time></trkpt><trkpt lat="45.085221" lon="1.3746814"><ele>298.0</ele><time>2026-04-12T08:53:25.615Z</time></trkpt><trkpt lat="45.0854324" lon="1.3747032"><ele>298.0</ele><time>2026-04-12T08:53:26.615Z</time></trkpt><trkpt lat="45.0856421" lon="1.3745714"><ele>298.0</ele><time>2026-04-12T08:53:27.615Z</time></trkpt><trkpt lat="45.0858385" lon="1.3744913"><ele>298.0</ele><time>2026-04-12T08:53:28.616Z</time></trkpt><trkpt lat="45.0860396" lon="1.374436"><ele>299.0</ele><time>2026-04-12T08:53:29.615Z</time></trkpt><trkpt lat="45.0862235" lon="1.374362"><ele>300.0</ele><time>2026-04-12T08:53:30.615Z</time></trkpt><trkpt lat="45.086395" lon="1.3742968"><ele>301.0</ele><time>2026-04-12T08:53:31.615Z</time></trkpt><trkpt lat="45.0865656" lon="1.3742305"><ele>302.0</ele><time>2026-04-12T08:53:32.615Z</time></trkpt><trkpt lat="45.0867229" lon="1.3741981"><ele>303.0</ele><time>2026-04-12T08:53:33.615Z</time></trkpt><trkpt lat="45.0868748" lon="1.3741528"><ele>304.0</ele><time>2026-04-12T08:53:34.615Z</time></trkpt><trkpt lat="45.0870103" lon="1.3741023"><ele>304.0</ele><time>2026-04-12T08:53:35.615Z</time></trkpt><trkpt lat="45.0871414" lon="1.3740572"><ele>304.0</ele><time>2026-04-12T08:53:36.615Z</time></trkpt><trkpt lat="45.0872621" lon="1.374016"><ele>304.0</ele><time>2026-04-12T08:53:37.615Z</time></trkpt><trkpt lat="45.087376" lon="1.3739807"><ele>304.0</ele><time>2026-04-12T08:53:38.615Z</time></trkpt><trkpt lat="45.0874933" lon="1.3739338"><ele>305.2</ele><time>2026-04-12T08:53:39.615Z</time></trkpt><trkpt lat="45.0875928" lon="1.3738997"><ele>306.4</ele><time>2026-04-12T08:53:40.616Z</time></trkpt><trkpt lat="45.0876981" lon="1.3738606"><ele>307.6</ele><time>2026-04-12T08:53:41.615Z</time></trkpt><trkpt lat="45.0878033" lon="1.3738223"><ele>308.8</ele><time>2026-04-12T08:53:42.615Z</time></trkpt><trkpt lat="45.0879061" lon="1.3737876"><ele>310.0</ele><time>2026-04-12T08:53:43.615Z</time></trkpt><trkpt lat="45.0880084" lon="1.3737542"><ele>310.2</ele><time>2026-04-12T08:53:44.614Z</time></trkpt><trkpt lat="45.0881113" lon="1.3737221"><ele>310.4</ele><time>2026-04-12T08:53:45.615Z</time></trkpt><trkpt lat="45.08821" lon="1.3736899"><ele>310.6</ele><time>2026-04-12T08:53:46.615Z</time></trkpt><trkpt lat="45.088304" lon="1.3736559"><ele>310.8</ele><time>2026-04-12T08:53:47.616Z</time></trkpt><trkpt lat="45.0883981" lon="1.3736106"><ele>311.0</ele><time>2026-04-12T08:53:48.615Z</time></trkpt><trkpt lat="45.0884893" lon="1.3735568"><ele>313.0</ele><time>2026-04-12T08:53:49.615Z</time></trkpt><trkpt lat="45.0885783" lon="1.3734828"><ele>315.0</ele><time>2026-04-12T08:53:50.616Z</time></trkpt><trkpt lat="45.0886593" lon="1.3733957"><ele>317.0</ele><time>2026-04-12T08:53:51.615Z</time></trkpt><trkpt lat="45.0887194" lon="1.3732951"><ele>319.0</ele><time>2026-04-12T08:53:52.615Z</time></trkpt><trkpt lat="45.0887589" lon="1.3731801"><ele>321.0</ele><time>2026-04-12T08:53:53.615Z</time></trkpt><trkpt lat="45.0887824" lon="1.3730626"><ele>320.6666666666667</ele><time>2026-04-12T08:53:54.615Z</time></trkpt><trkpt lat="45.0888097" lon="1.372944"><ele>320.3333333333333</ele><time>2026-04-12T08:53:55.615Z</time></trkpt><trkpt lat="45.0888651" lon="1.3728519"><ele>320.0</ele><time>2026-04-12T08:53:56.615Z</time></trkpt><trkpt lat="45.0889276" lon="1.3727814"><ele>319.66666666666663</ele><time>2026-04-12T08:53:57.615Z</time></trkpt><trkpt lat="45.0889986" lon="1.3727401"><ele>319.3333333333333</ele><time>2026-04-12T08:53:58.615Z</time></trkpt><trkpt lat="45.0890747" lon="1.3727246"><ele>319.0</ele><time>2026-04-12T08:53:59.615Z</time></trkpt><trkpt lat="45.0891552" lon="1.372727"><ele>320.0</ele><time>2026-04-12T08:54:00.614Z</time></trkpt><trkpt lat="45.0892394" lon="1.3727384"><ele>321.0</ele><time>2026-04-12T08:54:01.614Z</time></trkpt><trkpt lat="45.0893234" lon="1.3727644"><ele>322.0</ele><time>2026-04-12T08:54:02.614Z</time></trkpt><trkpt lat="45.0893943" lon="1.3727999"><ele>323.0</ele><time>2026-04-12T08:54:03.615Z</time></trkpt><trkpt lat="45.0894707" lon="1.3728502"><ele>324.0</ele><time>2026-04-12T08:54:04.615Z</time></trkpt><trkpt lat="45.0895443" lon="1.3729075"><ele>325.0</ele><time>2026-04-12T08:54:05.615Z</time></trkpt><trkpt lat="45.08962" lon="1.3729687"><ele>324.8333333333333</ele><time>2026-04-12T08:54:06.615Z</time></trkpt><trkpt lat="45.0896945" lon="1.3730329"><ele>324.66666666666663</ele><time>2026-04-12T08:54:07.615Z</time></trkpt><trkpt lat="45.0897675" lon="1.3730958"><ele>324.5</ele><time>2026-04-12T08:54:08.615Z</time></trkpt><trkpt lat="45.0898402" lon="1.3731606"><ele>324.3333333333333</ele><time>2026-04-12T08:54:09.615Z</time></trkpt><trkpt lat="45.0899084" lon="1.3732219"><ele>324.1666666666667</ele><time>2026-04-12T08:54:10.615Z</time></trkpt><trkpt lat="45.0899773" lon="1.3732889"><ele>324.0</ele><time>2026-04-12T08:54:11.615Z</time></trkpt><trkpt lat="45.09005" lon="1.3733542"><ele>324.0</ele><time>2026-04-12T08:54:12.615Z</time></trkpt><trkpt lat="45.0901295" lon="1.3734249"><ele>324.0</ele><time>2026-04-12T08:54:13.616Z</time></trkpt><trkpt lat="45.0902141" lon="1.373498"><ele>324.0</ele><time>2026-04-12T08:54:14.615Z</time></trkpt><trkpt lat="45.0903105" lon="1.3735801"><ele>324.0</ele><time>2026-04-12T08:54:15.615Z</time></trkpt><trkpt lat="45.0904177" lon="1.3736704"><ele>324.0</ele><time>2026-04-12T08:54:16.615Z</time></trkpt><trkpt lat="45.0905294" lon="1.3737608"><ele>324.0</ele><time>2026-04-12T08:54:17.614Z</time></trkpt><trkpt lat="45.0906433" lon="1.3738537"><ele>324.0</ele><time>2026-04-12T08:54:18.615Z</time></trkpt><trkpt lat="45.0907508" lon="1.3739485"><ele>324.0</ele><time>2026-04-12T08:54:19.614Z</time></trkpt><trkpt lat="45.0908567" lon="1.3740504"><ele>324.0</ele><time>2026-04-12T08:54:20.615Z</time></trkpt><trkpt lat="45.0909484" lon="1.3741773"><ele>323.75</ele><time>2026-04-12T08:54:21.615Z</time></trkpt><trkpt lat="45.0910163" lon="1.3743364"><ele>323.5</ele><time>2026-04-12T08:54:22.615Z</time></trkpt><trkpt lat="45.0910511" lon="1.3745065"><ele>323.25</ele><time>2026-04-12T08:54:23.615Z</time></trkpt><trkpt lat="45.0910545" lon="1.3746817"><ele>323.0</ele><time>2026-04-12T08:54:24.614Z</time></trkpt><trkpt lat="45.0910297" lon="1.3748597"><ele>323.0</ele><time>2026-04-12T08:54:25.615Z</time></trkpt><trkpt lat="45.0909774" lon="1.3750368"><ele>323.0</ele><time>2026-04-12T08:54:26.615Z</time></trkpt><trkpt lat="45.09091" lon="1.3752123"><ele>323.0</ele><time>2026-04-12T08:54:27.615Z</time></trkpt><trkpt lat="45.0908373" lon="1.3753911"><ele>323.0</ele><time>2026-04-12T08:54:28.615Z</time></trkpt><trkpt lat="45.090763" lon="1.3755741"><ele>321.0</ele><time>2026-04-12T08:54:29.615Z</time></trkpt><trkpt lat="45.0906916" lon="1.3757594"><ele>319.0</ele><time>2026-04-12T08:54:30.614Z</time></trkpt><trkpt lat="45.0906263" lon="1.3759414"><ele>317.0</ele><time>2026-04-12T08:54:31.615Z</time></trkpt><trkpt lat="45.0905648" lon="1.3761192"><ele>315.0</ele><time>2026-04-12T08:54:32.616Z</time></trkpt><trkpt lat="45.0905238" lon="1.3763069"><ele>314.6666666666667</ele><time>2026-04-12T08:54:33.615Z</time></trkpt><trkpt lat="45.0904952" lon="1.3765136"><ele>314.33333333333337</ele><time>2026-04-12T08:54:34.615Z</time></trkpt><trkpt lat="45.0905411" lon="1.3767198"><ele>314.0</ele><time>2026-04-12T08:54:35.615Z</time></trkpt><trkpt lat="45.0906035" lon="1.3769187"><ele>314.0</ele><time>2026-04-12T08:54:36.614Z</time></trkpt><trkpt lat="45.0906843" lon="1.3771106"><ele>314.0</ele><time>2026-04-12T08:54:37.616Z</time></trkpt><trkpt lat="45.0907641" lon="1.3773146"><ele>314.0</ele><time>2026-04-12T08:54:38.615Z</time></trkpt><trkpt lat="45.0908485" lon="1.3775232"><ele>315.33333333333337</ele><time>2026-04-12T08:54:39.615Z</time></trkpt><trkpt lat="45.0909321" lon="1.3777345"><ele>316.6666666666667</ele><time>2026-04-12T08:54:40.615Z</time></trkpt><trkpt lat="45.0910173" lon="1.3779436"><ele>318.0</ele><time>2026-04-12T08:54:41.615Z</time></trkpt><trkpt lat="45.0910999" lon="1.3781514"><ele>318.0</ele><time>2026-04-12T08:54:42.616Z</time></trkpt><trkpt lat="45.0911806" lon="1.3783611"><ele>318.0</ele><time>2026-04-12T08:54:43.615Z</time></trkpt><trkpt lat="45.0912595" lon="1.3785668"><ele>318.0</ele><time>2026-04-12T08:54:44.615Z</time></trkpt><trkpt lat="45.0913429" lon="1.3787606"><ele>318.6666666666667</ele><time>2026-04-12T08:54:45.615Z</time></trkpt><trkpt lat="45.0914422" lon="1.3789358"><ele>319.33333333333337</ele><time>2026-04-12T08:54:46.615Z</time></trkpt><trkpt lat="45.0915588" lon="1.379077"><ele>320.0</ele><time>2026-04-12T08:54:47.616Z</time></trkpt><trkpt lat="45.0916894" lon="1.3791863"><ele>320.0</ele><time>2026-04-12T08:54:48.615Z</time></trkpt><trkpt lat="45.0918191" lon="1.3792802"><ele>320.0</ele><time>2026-04-12T08:54:49.616Z</time></trkpt><trkpt lat="45.0919428" lon="1.3793869"><ele>320.0</ele><time>2026-04-12T08:54:50.615Z</time></trkpt><trkpt lat="45.0920467" lon="1.3795244"><ele>320.0</ele><time>2026-04-12T08:54:51.614Z</time></trkpt><trkpt lat="45.0921154" lon="1.3797006"><ele>318.0</ele><time>2026-04-12T08:54:52.616Z</time></trkpt><trkpt lat="45.0921428" lon="1.3798964"><ele>316.0</ele><time>2026-04-12T08:54:53.615Z</time></trkpt><trkpt lat="45.0921379" lon="1.3801074"><ele>314.0</ele><time>2026-04-12T08:54:54.615Z</time></trkpt><trkpt lat="45.0921091" lon="1.3803236"><ele>312.0</ele><time>2026-04-12T08:54:55.614Z</time></trkpt><trkpt lat="45.0920807" lon="1.380546"><ele>312.0</ele><time>2026-04-12T08:54:56.615Z</time></trkpt><trkpt lat="45.0920511" lon="1.3807771"><ele>312.0</ele><time>2026-04-12T08:54:57.615Z</time></trkpt><trkpt lat="45.0920202" lon="1.3810142"><ele>312.0</ele><time>2026-04-12T08:54:58.615Z</time></trkpt><trkpt lat="45.0919922" lon="1.3812539"><ele>311.6666666666667</ele><time>2026-04-12T08:54:59.616Z</time></trkpt><trkpt lat="45.0919627" lon="1.381493"><ele>311.33333333333337</ele><time>2026-04-12T08:55:00.614Z</time></trkpt><trkpt lat="45.0919333" lon="1.3817289"><ele>311.0</ele><time>2026-04-12T08:55:01.616Z</time></trkpt><trkpt lat="45.0919112" lon="1.381969"><ele>311.0</ele><time>2026-04-12T08:55:02.615Z</time></trkpt><trkpt lat="45.0918978" lon="1.3821853"><ele>311.0</ele><time>2026-04-12T08:55:03.615Z</time></trkpt><trkpt lat="45.0918996" lon="1.3824022"><ele>311.0</ele><time>2026-04-12T08:55:04.614Z</time></trkpt><trkpt lat="45.0919325" lon="1.3826031"><ele>311.0</ele><time>2026-04-12T08:55:05.615Z</time></trkpt><trkpt lat="45.0920029" lon="1.3827842"><ele>311.0</ele><time>2026-04-12T08:55:06.615Z</time></trkpt><trkpt lat="45.0921084" lon="1.3829238"><ele>311.0</ele><time>2026-04-12T08:55:07.615Z</time></trkpt><trkpt lat="45.0922317" lon="1.3830262"><ele>311.0</ele><time>2026-04-12T08:55:08.615Z</time></trkpt><trkpt lat="45.0923773" lon="1.383083"><ele>310.6666666666667</ele><time>2026-04-12T08:55:09.614Z</time></trkpt><trkpt lat="45.0925309" lon="1.383121"><ele>310.3333333333333</ele><time>2026-04-12T08:55:10.614Z</time></trkpt><trkpt lat="45.0926914" lon="1.3831603"><ele>310.0</ele><time>2026-04-12T08:55:11.615Z</time></trkpt><trkpt lat="45.0928488" lon="1.3832049"><ele>310.0</ele><time>2026-04-12T08:55:12.615Z</time></trkpt><trkpt lat="45.0930011" lon="1.3832765"><ele>310.0</ele><time>2026-04-12T08:55:13.614Z</time></trkpt><trkpt lat="45.0931408" lon="1.3833774"><ele>310.0</ele><time>2026-04-12T08:55:14.615Z</time></trkpt><trkpt lat="45.0932684" lon="1.3835098"><ele>310.0</ele><time>2026-04-12T08:55:15.614Z</time></trkpt><trkpt lat="45.0933727" lon="1.3836831"><ele>310.0</ele><time>2026-04-12T08:55:16.615Z</time></trkpt><trkpt lat="45.0934562" lon="1.3838858"><ele>310.0</ele><time>2026-04-12T08:55:17.615Z</time></trkpt><trkpt lat="45.0935223" lon="1.3841055"><ele>307.66666666666663</ele><time>2026-04-12T08:55:18.615Z</time></trkpt><trkpt lat="45.0935826" lon="1.3843367"><ele>305.3333333333333</ele><time>2026-04-12T08:55:19.615Z</time></trkpt><trkpt lat="45.0936417" lon="1.3845743"><ele>303.0</ele><time>2026-04-12T08:55:20.614Z</time></trkpt><trkpt lat="45.0936962" lon="1.3848171"><ele>302.3333333333333</ele><time>2026-04-12T08:55:21.615Z</time></trkpt><trkpt lat="45.0937525" lon="1.3850622"><ele>301.66666666666663</ele><time>2026-04-12T08:55:22.615Z</time></trkpt><trkpt lat="45.0938116" lon="1.3853112"><ele>301.0</ele><time>2026-04-12T08:55:23.615Z</time></trkpt><trkpt lat="45.0938732" lon="1.385562"><ele>300.0</ele><time>2026-04-12T08:55:24.615Z</time></trkpt><trkpt lat="45.0939379" lon="1.3858163"><ele>299.0</ele><time>2026-04-12T08:55:25.616Z</time></trkpt><trkpt lat="45.0939996" lon="1.3860698"><ele>298.0</ele><time>2026-04-12T08:55:26.614Z</time></trkpt><trkpt lat="45.0940591" lon="1.3863195"><ele>300.0</ele><time>2026-04-12T08:55:27.615Z</time></trkpt><trkpt lat="45.0941189" lon="1.3865635"><ele>302.0</ele><time>2026-04-12T08:55:28.615Z</time></trkpt><trkpt lat="45.0941764" lon="1.3868037"><ele>304.0</ele><time>2026-04-12T08:55:29.615Z</time></trkpt><trkpt lat="45.0942293" lon="1.3870333"><ele>303.66666666666663</ele><time>2026-04-12T08:55:30.615Z</time></trkpt><trkpt lat="45.0942797" lon="1.3872517"><ele>303.3333333333333</ele><time>2026-04-12T08:55:31.615Z</time></trkpt><trkpt lat="45.0943296" lon="1.3874582"><ele>303.0</ele><time>2026-04-12T08:55:32.616Z</time></trkpt><trkpt lat="45.0943947" lon="1.3876462"><ele>303.0</ele><time>2026-04-12T08:55:33.615Z</time></trkpt><trkpt lat="45.0944887" lon="1.3878034"><ele>303.0</ele><time>2026-04-12T08:55:34.615Z</time></trkpt><trkpt lat="45.0946031" lon="1.3879292"><ele>303.0</ele><time>2026-04-12T08:55:35.615Z</time></trkpt><trkpt lat="45.0947264" lon="1.3880314"><ele>303.0</ele><time>2026-04-12T08:55:36.615Z</time></trkpt><trkpt lat="45.0948546" lon="1.3881329"><ele>303.25</ele><time>2026-04-12T08:55:37.614Z</time></trkpt><trkpt lat="45.0949857" lon="1.388236"><ele>303.5</ele><time>2026-04-12T08:55:38.616Z</time></trkpt><trkpt lat="45.0951138" lon="1.3883376"><ele>303.75</ele><time>2026-04-12T08:55:39.614Z</time></trkpt><trkpt lat="45.0952346" lon="1.3884427"><ele>304.0</ele><time>2026-04-12T08:55:40.614Z</time></trkpt><trkpt lat="45.095337" lon="1.3885664"><ele>304.0</ele><time>2026-04-12T08:55:41.615Z</time></trkpt><trkpt lat="45.0954066" lon="1.3887114"><ele>304.0</ele><time>2026-04-12T08:55:42.614Z</time></trkpt><trkpt lat="45.0954427" lon="1.3888727"><ele>304.0</ele><time>2026-04-12T08:55:43.615Z</time></trkpt><trkpt lat="45.0954396" lon="1.3890444"><ele>304.0</ele><time>2026-04-12T08:55:44.616Z</time></trkpt><trkpt lat="45.095403" lon="1.3892158"><ele>303.75</ele><time>2026-04-12T08:55:45.615Z</time></trkpt><trkpt lat="45.0953359" lon="1.3893869"><ele>303.5</ele><time>2026-04-12T08:55:46.616Z</time></trkpt><trkpt lat="45.095253" lon="1.389559"><ele>303.25</ele><time>2026-04-12T08:55:47.615Z</time></trkpt><trkpt lat="45.0951665" lon="1.3897483"><ele>303.0</ele><time>2026-04-12T08:55:48.616Z</time></trkpt><trkpt lat="45.0950743" lon="1.3899342"><ele>303.0</ele><time>2026-04-12T08:55:49.615Z</time></trkpt><trkpt lat="45.0949867" lon="1.3901162"><ele>303.0</ele><time>2026-04-12T08:55:50.615Z</time></trkpt><trkpt lat="45.09491" lon="1.3902951"><ele>303.0</ele><time>2026-04-12T08:55:51.615Z</time></trkpt><trkpt lat="45.0948472" lon="1.3904717"><ele>303.0</ele><time>2026-04-12T08:55:52.615Z</time></trkpt><trkpt lat="45.0948163" lon="1.3906628"><ele>303.25</ele><time>2026-04-12T08:55:53.615Z</time></trkpt><trkpt lat="45.0948251" lon="1.3908602"><ele>303.5</ele><time>2026-04-12T08:55:54.616Z</time></trkpt><trkpt lat="45.0948636" lon="1.3910562"><ele>303.75</ele><time>2026-04-12T08:55:55.615Z</time></trkpt><trkpt lat="45.0949286" lon="1.3911947"><ele>304.0</ele><time>2026-04-12T08:55:56.615Z</time></trkpt><trkpt lat="45.0950545" lon="1.3913123"><ele>303.5</ele><time>2026-04-12T08:55:57.614Z</time></trkpt><trkpt lat="45.0951629" lon="1.3914146"><ele>303.0</ele><time>2026-04-12T08:55:58.615Z</time></trkpt><trkpt lat="45.0953034" lon="1.3914759"><ele>302.5</ele><time>2026-04-12T08:55:59.615Z</time></trkpt><trkpt lat="45.0954282" lon="1.3915853"><ele>302.0</ele><time>2026-04-12T08:56:00.615Z</time></trkpt><trkpt lat="45.0955278" lon="1.3917369"><ele>302.0</ele><time>2026-04-12T08:56:01.614Z</time></trkpt><trkpt lat="45.0956018" lon="1.391923"><ele>302.0</ele><time>2026-04-12T08:56:02.615Z</time></trkpt><trkpt lat="45.0956671" lon="1.3921146"><ele>302.0</ele><time>2026-04-12T08:56:03.615Z</time></trkpt><trkpt lat="45.0957079" lon="1.3923653"><ele>302.0</ele><time>2026-04-12T08:56:04.615Z</time></trkpt><trkpt lat="45.0957435" lon="1.3926105"><ele>302.0</ele><time>2026-04-12T08:56:05.616Z</time></trkpt><trkpt lat="45.0957833" lon="1.3928491"><ele>302.0</ele><time>2026-04-12T08:56:06.616Z</time></trkpt><trkpt lat="45.0958244" lon="1.3930791"><ele>302.0</ele><time>2026-04-12T08:56:07.615Z</time></trkpt><trkpt lat="45.0958601" lon="1.393297"><ele>302.0</ele><time>2026-04-12T08:56:08.615Z</time></trkpt><trkpt lat="45.0958971" lon="1.393492"><ele>302.0</ele><time>2026-04-12T08:56:09.615Z</time></trkpt><trkpt lat="45.0959435" lon="1.3936679"><ele>302.0</ele><time>2026-04-12T08:56:10.615Z</time></trkpt><trkpt lat="45.0960191" lon="1.3938243"><ele>302.25</ele><time>2026-04-12T08:56:11.616Z</time></trkpt><trkpt lat="45.0961288" lon="1.3939354"><ele>302.5</ele><time>2026-04-12T08:56:12.615Z</time></trkpt><trkpt lat="45.0962406" lon="1.3940245"><ele>302.75</ele><time>2026-04-12T08:56:13.616Z</time></trkpt><trkpt lat="45.0963852" lon="1.3940511"><ele>303.0</ele><time>2026-04-12T08:56:14.614Z</time></trkpt><trkpt lat="45.0965768" lon="1.3938855"><ele>302.3333333333333</ele><time>2026-04-12T08:56:15.615Z</time></trkpt><trkpt lat="45.0967401" lon="1.3937999"><ele>301.66666666666663</ele><time>2026-04-12T08:56:16.615Z</time></trkpt><trkpt lat="45.0969103" lon="1.3936949"><ele>301.0</ele><time>2026-04-12T08:56:17.614Z</time></trkpt><trkpt lat="45.0970805" lon="1.3935865"><ele>301.0</ele><time>2026-04-12T08:56:18.615Z</time></trkpt><trkpt lat="45.0972537" lon="1.3934755"><ele>301.0</ele><time>2026-04-12T08:56:19.615Z</time></trkpt><trkpt lat="45.0974262" lon="1.3933663"><ele>301.0</ele><time>2026-04-12T08:56:20.615Z</time></trkpt><trkpt lat="45.0975985" lon="1.3932544"><ele>301.66666666666663</ele><time>2026-04-12T08:56:21.615Z</time></trkpt><trkpt lat="45.0977697" lon="1.3931397"><ele>302.3333333333333</ele><time>2026-04-12T08:56:22.615Z</time></trkpt><trkpt lat="45.0979355" lon="1.3930197"><ele>303.0</ele><time>2026-04-12T08:56:23.614Z</time></trkpt><trkpt lat="45.0980941" lon="1.39289"><ele>295.0</ele><time>2026-04-12T08:56:24.615Z</time></trkpt><trkpt lat="45.098255" lon="1.3927429"><ele>287.0</ele><time>2026-04-12T08:56:26.25Z</time></trkpt><trkpt lat="45.0985168" lon="1.3925514"><ele>287.0</ele><time>2026-04-12T08:56:27.615Z</time></trkpt><trkpt lat="45.0986631" lon="1.3925085"><ele>287.0</ele><time>2026-04-12T08:56:28.614Z</time></trkpt><trkpt lat="45.0988102" lon="1.3925239"><ele>287.0</ele><time>2026-04-12T08:56:29.615Z</time></trkpt><trkpt lat="45.0989437" lon="1.3925557"><ele>287.0</ele><time>2026-04-12T08:56:30.615Z</time></trkpt><trkpt lat="45.0990302" lon="1.39274"><ele>286.25</ele><time>2026-04-12T08:56:31.615Z</time></trkpt><trkpt lat="45.0991111" lon="1.3928988"><ele>285.5</ele><time>2026-04-12T08:56:32.615Z</time></trkpt><trkpt lat="45.0991968" lon="1.3930539"><ele>284.75</ele><time>2026-04-12T08:56:33.614Z</time></trkpt><trkpt lat="45.0993017" lon="1.3931946"><ele>284.0</ele><time>2026-04-12T08:56:34.614Z</time></trkpt><trkpt lat="45.0994355" lon="1.3933263"><ele>283.33333333333337</ele><time>2026-04-12T08:56:36.243Z</time></trkpt><trkpt lat="45.0996943" lon="1.3934884"><ele>282.6666666666667</ele><time>2026-04-12T08:56:37.616Z</time></trkpt><trkpt lat="45.0998356" lon="1.3935715"><ele>282.0</ele><time>2026-04-12T08:56:38.616Z</time></trkpt><trkpt lat="45.0999712" lon="1.3936487"><ele>282.0</ele><time>2026-04-12T08:56:39.616Z</time></trkpt><trkpt lat="45.1000937" lon="1.3937176"><ele>282.0</ele><time>2026-04-12T08:56:40.617Z</time></trkpt><trkpt lat="45.1002185" lon="1.3937804"><ele>282.0</ele><time>2026-04-12T08:56:41.616Z</time></trkpt><trkpt lat="45.1003506" lon="1.3938068"><ele>282.0</ele><time>2026-04-12T08:56:42.616Z</time></trkpt><trkpt lat="45.1004727" lon="1.3937227"><ele>282.0</ele><time>2026-04-12T08:56:43.616Z</time></trkpt><trkpt lat="45.1005518" lon="1.39368"><ele>282.0</ele><time>2026-04-12T08:56:44.754Z</time></trkpt><trkpt lat="45.1006777" lon="1.3935667"><ele>282.0</ele><time>2026-04-12T08:56:45.827Z</time></trkpt><trkpt lat="45.1009374" lon="1.3932493"><ele>282.0</ele><time>2026-04-12T08:56:47.615Z</time></trkpt><trkpt lat="45.101025" lon="1.393075"><ele>282.0</ele><time>2026-04-12T08:56:48.615Z</time></trkpt><trkpt lat="45.1011065" lon="1.3928844"><ele>282.0</ele><time>2026-04-12T08:56:49.614Z</time></trkpt><trkpt lat="45.1011767" lon="1.3926836"><ele>282.0</ele><time>2026-04-12T08:56:50.615Z</time></trkpt><trkpt lat="45.1012364" lon="1.3924657"><ele>282.0</ele><time>2026-04-12T08:56:51.615Z</time></trkpt><trkpt lat="45.1012996" lon="1.3922499"><ele>282.0</ele><time>2026-04-12T08:56:52.615Z</time></trkpt><trkpt lat="45.1013615" lon="1.3920236"><ele>284.0</ele><time>2026-04-12T08:56:53.615Z</time></trkpt><trkpt lat="45.1014135" lon="1.3917984"><ele>286.0</ele><time>2026-04-12T08:56:54.615Z</time></trkpt><trkpt lat="45.10146" lon="1.3915801"><ele>288.0</ele><time>2026-04-12T08:56:55.615Z</time></trkpt><trkpt lat="45.1014508" lon="1.3913276"><ele>288.0</ele><time>2026-04-12T08:56:56.615Z</time></trkpt><trkpt lat="45.1014562" lon="1.3910984"><ele>288.0</ele><time>2026-04-12T08:56:57.615Z</time></trkpt><trkpt lat="45.1014409" lon="1.3908719"><ele>288.0</ele><time>2026-04-12T08:56:58.615Z</time></trkpt><trkpt lat="45.1014334" lon="1.3906367"><ele>288.3333333333333</ele><time>2026-04-12T08:56:59.615Z</time></trkpt><trkpt lat="45.1014327" lon="1.3903976"><ele>288.66666666666663</ele><time>2026-04-12T08:57:00.615Z</time></trkpt><trkpt lat="45.1014366" lon="1.3901522"><ele>289.0</ele><time>2026-04-12T08:57:01.615Z</time></trkpt><trkpt lat="45.1014473" lon="1.3899108"><ele>288.3333333333333</ele><time>2026-04-12T08:57:02.615Z</time></trkpt><trkpt lat="45.1014558" lon="1.3896743"><ele>287.6666666666667</ele><time>2026-04-12T08:57:03.614Z</time></trkpt><trkpt lat="45.1014475" lon="1.3894419"><ele>287.0</ele><time>2026-04-12T08:57:04.615Z</time></trkpt><trkpt lat="45.1014381" lon="1.3892079"><ele>287.0</ele><time>2026-04-12T08:57:05.615Z</time></trkpt><trkpt lat="45.1013618" lon="1.3890009"><ele>287.0</ele><time>2026-04-12T08:57:06.615Z</time></trkpt><trkpt lat="45.1013053" lon="1.3888052"><ele>287.0</ele><time>2026-04-12T08:57:07.615Z</time></trkpt><trkpt lat="45.1012713" lon="1.3886106"><ele>285.75</ele><time>2026-04-12T08:57:08.615Z</time></trkpt><trkpt lat="45.1012387" lon="1.3884184"><ele>284.5</ele><time>2026-04-12T08:57:09.615Z</time></trkpt><trkpt lat="45.1012902" lon="1.3882137"><ele>283.25</ele><time>2026-04-12T08:57:10.615Z</time></trkpt><trkpt lat="45.1013446" lon="1.3880337"><ele>282.0</ele><time>2026-04-12T08:57:11.615Z</time></trkpt><trkpt lat="45.1014102" lon="1.3878614"><ele>282.0</ele><time>2026-04-12T08:57:12.615Z</time></trkpt><trkpt lat="45.1015106" lon="1.387711"><ele>282.0</ele><time>2026-04-12T08:57:13.615Z</time></trkpt><trkpt lat="45.1016308" lon="1.3875848"><ele>282.0</ele><time>2026-04-12T08:57:14.615Z</time></trkpt><trkpt lat="45.1017637" lon="1.3874734"><ele>279.3333333333333</ele><time>2026-04-12T08:57:15.615Z</time></trkpt><trkpt lat="45.1019052" lon="1.3873664"><ele>276.66666666666663</ele><time>2026-04-12T08:57:16.615Z</time></trkpt><trkpt lat="45.1020545" lon="1.3872674"><ele>274.0</ele><time>2026-04-12T08:57:17.615Z</time></trkpt><trkpt lat="45.102204" lon="1.3871715"><ele>274.0</ele><time>2026-04-12T08:57:18.615Z</time></trkpt><trkpt lat="45.1023564" lon="1.3870959"><ele>274.0</ele><time>2026-04-12T08:57:19.614Z</time></trkpt><trkpt lat="45.1025092" lon="1.3870383"><ele>274.0</ele><time>2026-04-12T08:57:20.614Z</time></trkpt><trkpt lat="45.1026659" lon="1.3870437"><ele>271.75</ele><time>2026-04-12T08:57:21.616Z</time></trkpt><trkpt lat="45.1028181" lon="1.3870416"><ele>269.5</ele><time>2026-04-12T08:57:22.615Z</time></trkpt><trkpt lat="45.1029663" lon="1.3870506"><ele>267.25</ele><time>2026-04-12T08:57:23.615Z</time></trkpt><trkpt lat="45.103108" lon="1.3870557"><ele>265.0</ele><time>2026-04-12T08:57:24.614Z</time></trkpt><trkpt lat="45.1032489" lon="1.3870358"><ele>261.25</ele><time>2026-04-12T08:57:25.615Z</time></trkpt><trkpt lat="45.1033841" lon="1.3869604"><ele>257.5</ele><time>2026-04-12T08:57:26.615Z</time></trkpt><trkpt lat="45.1035043" lon="1.3868445"><ele>253.75</ele><time>2026-04-12T08:57:27.615Z</time></trkpt><trkpt lat="45.1036146" lon="1.3867029"><ele>250.0</ele><time>2026-04-12T08:57:28.615Z</time></trkpt><trkpt lat="45.1037252" lon="1.3865519"><ele>250.0</ele><time>2026-04-12T08:57:29.615Z</time></trkpt><trkpt lat="45.1038407" lon="1.3863966"><ele>250.0</ele><time>2026-04-12T08:57:30.615Z</time></trkpt><trkpt lat="45.1039605" lon="1.3862375"><ele>250.0</ele><time>2026-04-12T08:57:31.614Z</time></trkpt><trkpt lat="45.1040859" lon="1.3860748"><ele>247.0</ele><time>2026-04-12T08:57:32.615Z</time></trkpt><trkpt lat="45.1042115" lon="1.3859109"><ele>244.0</ele><time>2026-04-12T08:57:33.615Z</time></trkpt><trkpt lat="45.1043345" lon="1.3857489"><ele>241.0</ele><time>2026-04-12T08:57:34.615Z</time></trkpt><trkpt lat="45.1044551" lon="1.3855914"><ele>244.66666666666666</ele><time>2026-04-12T08:57:35.615Z</time></trkpt><trkpt lat="45.1045731" lon="1.3854338"><ele>248.33333333333331</ele><time>2026-04-12T08:57:36.615Z</time></trkpt><trkpt lat="45.1046861" lon="1.3852736"><ele>252.0</ele><time>2026-04-12T08:57:37.615Z</time></trkpt><trkpt lat="45.1047941" lon="1.3851158"><ele>252.0</ele><time>2026-04-12T08:57:38.615Z</time></trkpt><trkpt lat="45.1049013" lon="1.3849685"><ele>252.0</ele><time>2026-04-12T08:57:39.615Z</time></trkpt><trkpt lat="45.1050081" lon="1.3848372"><ele>252.0</ele><time>2026-04-12T08:57:40.616Z</time></trkpt><trkpt lat="45.1051122" lon="1.3847177"><ele>252.0</ele><time>2026-04-12T08:57:41.615Z</time></trkpt><trkpt lat="45.1052234" lon="1.3846438"><ele>251.75</ele><time>2026-04-12T08:57:42.616Z</time></trkpt><trkpt lat="45.105352" lon="1.3846195"><ele>251.5</ele><time>2026-04-12T08:57:43.615Z</time></trkpt><trkpt lat="45.1054843" lon="1.3846009"><ele>251.25</ele><time>2026-04-12T08:57:44.615Z</time></trkpt><trkpt lat="45.1056465" lon="1.3846491"><ele>251.0</ele><time>2026-04-12T08:57:45.615Z</time></trkpt><trkpt lat="45.105761" lon="1.3847256"><ele>244.66666666666669</ele><time>2026-04-12T08:57:46.615Z</time></trkpt><trkpt lat="45.1058696" lon="1.3849549"><ele>238.33333333333331</ele><time>2026-04-12T08:57:47.614Z</time></trkpt><trkpt lat="45.1059987" lon="1.3851123"><ele>232.0</ele><time>2026-04-12T08:57:48.615Z</time></trkpt><trkpt lat="45.1061173" lon="1.3852955"><ele>232.0</ele><time>2026-04-12T08:57:49.615Z</time></trkpt><trkpt lat="45.106229" lon="1.3854944"><ele>232.0</ele><time>2026-04-12T08:57:50.614Z</time></trkpt><trkpt lat="45.1063341" lon="1.3856958"><ele>232.0</ele><time>2026-04-12T08:57:51.616Z</time></trkpt><trkpt lat="45.1064393" lon="1.3859065"><ele>227.33333333333331</ele><time>2026-04-12T08:57:52.615Z</time></trkpt><trkpt lat="45.1065468" lon="1.3861304"><ele>222.66666666666669</ele><time>2026-04-12T08:57:53.615Z</time></trkpt><trkpt lat="45.1066577" lon="1.3863517"><ele>218.0</ele><time>2026-04-12T08:57:54.615Z</time></trkpt><trkpt lat="45.1067696" lon="1.3865784"><ele>218.0</ele><time>2026-04-12T08:57:55.615Z</time></trkpt><trkpt lat="45.1068825" lon="1.3868057"><ele>218.0</ele><time>2026-04-12T08:57:56.615Z</time></trkpt><trkpt lat="45.1069916" lon="1.3870275"><ele>218.0</ele><time>2026-04-12T08:57:57.614Z</time></trkpt><trkpt lat="45.1070987" lon="1.387241"><ele>211.0</ele><time>2026-04-12T08:57:58.615Z</time></trkpt><trkpt lat="45.1072022" lon="1.3874469"><ele>204.0</ele><time>2026-04-12T08:57:59.615Z</time></trkpt><trkpt lat="45.1073022" lon="1.3876565"><ele>197.0</ele><time>2026-04-12T08:58:00.616Z</time></trkpt><trkpt lat="45.1074059" lon="1.3878281"><ele>199.66666666666669</ele><time>2026-04-12T08:58:01.615Z</time></trkpt><trkpt lat="45.10751" lon="1.3879832"><ele>202.33333333333331</ele><time>2026-04-12T08:58:02.615Z</time></trkpt><trkpt lat="45.1076147" lon="1.3881364"><ele>205.0</ele><time>2026-04-12T08:58:03.615Z</time></trkpt><trkpt lat="45.1077881" lon="1.3881893"><ele>205.0</ele><time>2026-04-12T08:58:04.614Z</time></trkpt><trkpt lat="45.107931" lon="1.388289"><ele>205.0</ele><time>2026-04-12T08:58:05.615Z</time></trkpt><trkpt lat="45.1080788" lon="1.3883815"><ele>205.0</ele><time>2026-04-12T08:58:06.615Z</time></trkpt><trkpt lat="45.1082145" lon="1.3884842"><ele>206.66666666666666</ele><time>2026-04-12T08:58:07.615Z</time></trkpt><trkpt lat="45.1083347" lon="1.3886094"><ele>208.33333333333331</ele><time>2026-04-12T08:58:08.614Z</time></trkpt><trkpt lat="45.1084365" lon="1.388766"><ele>210.0</ele><time>2026-04-12T08:58:09.615Z</time></trkpt><trkpt lat="45.1085097" lon="1.3889626"><ele>206.33333333333331</ele><time>2026-04-12T08:58:10.615Z</time></trkpt><trkpt lat="45.108567" lon="1.3891732"><ele>202.66666666666666</ele><time>2026-04-12T08:58:11.614Z</time></trkpt><trkpt lat="45.108629" lon="1.3893929"><ele>199.0</ele><time>2026-04-12T08:58:12.615Z</time></trkpt><trkpt lat="45.1086971" lon="1.3896245"><ele>196.33333333333331</ele><time>2026-04-12T08:58:13.615Z</time></trkpt><trkpt lat="45.1087656" lon="1.3898659"><ele>193.66666666666666</ele><time>2026-04-12T08:58:14.616Z</time></trkpt><trkpt lat="45.1088364" lon="1.3901148"><ele>191.0</ele><time>2026-04-12T08:58:15.615Z</time></trkpt><trkpt lat="45.1089074" lon="1.3903671"><ele>192.0</ele><time>2026-04-12T08:58:16.616Z</time></trkpt><trkpt lat="45.1089774" lon="1.3906198"><ele>193.0</ele><time>2026-04-12T08:58:17.615Z</time></trkpt><trkpt lat="45.1090491" lon="1.3908654"><ele>194.0</ele><time>2026-04-12T08:58:18.616Z</time></trkpt><trkpt lat="45.1091178" lon="1.3911097"><ele>193.33333333333334</ele><time>2026-04-12T08:58:19.615Z</time></trkpt><trkpt lat="45.1091851" lon="1.3913506"><ele>192.66666666666669</ele><time>2026-04-12T08:58:20.615Z</time></trkpt><trkpt lat="45.1092586" lon="1.3915843"><ele>192.0</ele><time>2026-04-12T08:58:21.615Z</time></trkpt><trkpt lat="45.1093343" lon="1.3918167"><ele>192.0</ele><time>2026-04-12T08:58:22.615Z</time></trkpt><trkpt lat="45.1094164" lon="1.39204"><ele>192.0</ele><time>2026-04-12T08:58:23.615Z</time></trkpt><trkpt lat="45.1095076" lon="1.39225"><ele>192.0</ele><time>2026-04-12T08:58:24.615Z</time></trkpt><trkpt lat="45.1096081" lon="1.3924467"><ele>191.0</ele><time>2026-04-12T08:58:25.615Z</time></trkpt><trkpt lat="45.109721" lon="1.3926279"><ele>190.0</ele><time>2026-04-12T08:58:26.615Z</time></trkpt><trkpt lat="45.1098469" lon="1.3927934"><ele>189.0</ele><time>2026-04-12T08:58:27.616Z</time></trkpt><trkpt lat="45.1099884" lon="1.392939"><ele>190.66666666666669</ele><time>2026-04-12T08:58:28.614Z</time></trkpt><trkpt lat="45.1101438" lon="1.3930615"><ele>192.33333333333334</ele><time>2026-04-12T08:58:29.615Z</time></trkpt><trkpt lat="45.1102954" lon="1.393177"><ele>194.0</ele><time>2026-04-12T08:58:30.615Z</time></trkpt><trkpt lat="45.1104535" lon="1.3932883"><ele>194.0</ele><time>2026-04-12T08:58:31.615Z</time></trkpt><trkpt lat="45.110612" lon="1.3933981"><ele>194.0</ele><time>2026-04-12T08:58:32.615Z</time></trkpt><trkpt lat="45.1107638" lon="1.3935135"><ele>194.0</ele><time>2026-04-12T08:58:33.615Z</time></trkpt><trkpt lat="45.1109048" lon="1.3936472"><ele>193.33333333333334</ele><time>2026-04-12T08:58:34.615Z</time></trkpt><trkpt lat="45.1110269" lon="1.3938073"><ele>192.66666666666669</ele><time>2026-04-12T08:58:35.615Z</time></trkpt><trkpt lat="45.1111337" lon="1.3939871"><ele>192.0</ele><time>2026-04-12T08:58:36.615Z</time></trkpt><trkpt lat="45.1112244" lon="1.3941801"><ele>192.0</ele><time>2026-04-12T08:58:37.615Z</time></trkpt><trkpt lat="45.1113044" lon="1.3943816"><ele>192.0</ele><time>2026-04-12T08:58:38.615Z</time></trkpt><trkpt lat="45.1113816" lon="1.3945891"><ele>192.0</ele><time>2026-04-12T08:58:39.615Z</time></trkpt><trkpt lat="45.1114375" lon="1.3948053"><ele>191.66666666666666</ele><time>2026-04-12T08:58:40.614Z</time></trkpt><trkpt lat="45.1114691" lon="1.3950297"><ele>191.33333333333331</ele><time>2026-04-12T08:58:41.615Z</time></trkpt><trkpt lat="45.1114757" lon="1.3952553"><ele>191.0</ele><time>2026-04-12T08:58:42.615Z</time></trkpt><trkpt lat="45.1114762" lon="1.3954795"><ele>190.33333333333331</ele><time>2026-04-12T08:58:43.615Z</time></trkpt><trkpt lat="45.1114967" lon="1.3956999"><ele>189.66666666666666</ele><time>2026-04-12T08:58:44.615Z</time></trkpt><trkpt lat="45.1115443" lon="1.3959147"><ele>189.0</ele><time>2026-04-12T08:58:45.615Z</time></trkpt><trkpt lat="45.1116221" lon="1.396103"><ele>185.66666666666666</ele><time>2026-04-12T08:58:46.615Z</time></trkpt><trkpt lat="45.1117209" lon="1.3962786"><ele>182.33333333333331</ele><time>2026-04-12T08:58:47.615Z</time></trkpt><trkpt lat="45.1118433" lon="1.3964213"><ele>179.0</ele><time>2026-04-12T08:58:48.615Z</time></trkpt><trkpt lat="45.1119881" lon="1.3965203"><ele>179.0</ele><time>2026-04-12T08:58:49.615Z</time></trkpt><trkpt lat="45.1121461" lon="1.3965918"><ele>179.0</ele><time>2026-04-12T08:58:50.615Z</time></trkpt><trkpt lat="45.1123084" lon="1.3966454"><ele>179.0</ele><time>2026-04-12T08:58:51.615Z</time></trkpt><trkpt lat="45.1124763" lon="1.3967003"><ele>177.0</ele><time>2026-04-12T08:58:52.615Z</time></trkpt><trkpt lat="45.1126483" lon="1.3967583"><ele>175.0</ele><time>2026-04-12T08:58:53.615Z</time></trkpt><trkpt lat="45.1128188" lon="1.3968204"><ele>173.0</ele><time>2026-04-12T08:58:54.615Z</time></trkpt><trkpt lat="45.1129829" lon="1.3968723"><ele>173.0</ele><time>2026-04-12T08:58:55.615Z</time></trkpt><trkpt lat="45.1131447" lon="1.3969111"><ele>173.0</ele><time>2026-04-12T08:58:56.615Z</time></trkpt><trkpt lat="45.1133106" lon="1.396915"><ele>173.0</ele><time>2026-04-12T08:58:57.615Z</time></trkpt><trkpt lat="45.1134692" lon="1.3968916"><ele>171.75</ele><time>2026-04-12T08:58:58.616Z</time></trkpt><trkpt lat="45.1136179" lon="1.3968616"><ele>170.5</ele><time>2026-04-12T08:58:59.615Z</time></trkpt><trkpt lat="45.1137581" lon="1.3968229"><ele>169.25</ele><time>2026-04-12T08:59:00.615Z</time></trkpt><trkpt lat="45.1138889" lon="1.3967879"><ele>168.0</ele><time>2026-04-12T08:59:01.615Z</time></trkpt><trkpt lat="45.1140183" lon="1.3967685"><ele>166.75</ele><time>2026-04-12T08:59:02.615Z</time></trkpt><trkpt lat="45.1141383" lon="1.3967851"><ele>165.5</ele><time>2026-04-12T08:59:03.615Z</time></trkpt><trkpt lat="45.1142453" lon="1.3968568"><ele>164.25</ele><time>2026-04-12T08:59:04.615Z</time></trkpt><trkpt lat="45.1143361" lon="1.3969638"><ele>163.0</ele><time>2026-04-12T08:59:05.616Z</time></trkpt><trkpt lat="45.1144032" lon="1.397109"><ele>163.25</ele><time>2026-04-12T08:59:06.615Z</time></trkpt><trkpt lat="45.1144489" lon="1.3972713"><ele>163.5</ele><time>2026-04-12T08:59:07.614Z</time></trkpt><trkpt lat="45.1144719" lon="1.3974523"><ele>163.75</ele><time>2026-04-12T08:59:08.615Z</time></trkpt><trkpt lat="45.1144798" lon="1.3976435"><ele>164.0</ele><time>2026-04-12T08:59:09.615Z</time></trkpt><trkpt lat="45.1144744" lon="1.397848"><ele>164.0</ele><time>2026-04-12T08:59:10.615Z</time></trkpt><trkpt lat="45.114461" lon="1.3980524"><ele>164.0</ele><time>2026-04-12T08:59:11.615Z</time></trkpt><trkpt lat="45.1144438" lon="1.3982474"><ele>164.0</ele><time>2026-04-12T08:59:12.615Z</time></trkpt><trkpt lat="45.1144302" lon="1.3984348"><ele>164.0</ele><time>2026-04-12T08:59:13.616Z</time></trkpt><trkpt lat="45.1144275" lon="1.3986247"><ele>164.0</ele><time>2026-04-12T08:59:14.615Z</time></trkpt><trkpt lat="45.1144546" lon="1.3988089"><ele>164.0</ele><time>2026-04-12T08:59:15.614Z</time></trkpt><trkpt lat="45.1145156" lon="1.3989776"><ele>164.0</ele><time>2026-04-12T08:59:16.615Z</time></trkpt><trkpt lat="45.1145936" lon="1.3991219"><ele>164.0</ele><time>2026-04-12T08:59:17.616Z</time></trkpt><trkpt lat="45.1146769" lon="1.3992493"><ele>164.39999999999998</ele><time>2026-04-12T08:59:18.614Z</time></trkpt><trkpt lat="45.1147597" lon="1.3993659"><ele>164.8</ele><time>2026-04-12T08:59:19.615Z</time></trkpt><trkpt lat="45.1148357" lon="1.3994691"><ele>165.2</ele><time>2026-04-12T08:59:20.614Z</time></trkpt><trkpt lat="45.1149058" lon="1.399569"><ele>165.60000000000002</ele><time>2026-04-12T08:59:21.616Z</time></trkpt><trkpt lat="45.114962" lon="1.3996556"><ele>166.0</ele><time>2026-04-12T08:59:22.615Z</time></trkpt><trkpt lat="45.1150097" lon="1.3997231"><ele>163.4</ele><time>2026-04-12T08:59:23.615Z</time></trkpt><trkpt lat="45.1150768" lon="1.3998248"><ele>160.8</ele><time>2026-04-12T08:59:25.615Z</time></trkpt><trkpt lat="45.1151204" lon="1.3998993"><ele>158.20000000000002</ele><time>2026-04-12T08:59:26.615Z</time></trkpt><trkpt lat="45.115173" lon="1.399991"><ele>155.60000000000002</ele><time>2026-04-12T08:59:27.615Z</time></trkpt><trkpt lat="45.1152306" lon="1.4000973"><ele>153.0</ele><time>2026-04-12T08:59:28.615Z</time></trkpt><trkpt lat="45.1153005" lon="1.4002177"><ele>153.0</ele><time>2026-04-12T08:59:29.616Z</time></trkpt><trkpt lat="45.1153641" lon="1.4003315"><ele>153.0</ele><time>2026-04-12T08:59:30.615Z</time></trkpt><trkpt lat="45.1154238" lon="1.4004273"><ele>153.0</ele><time>2026-04-12T08:59:31.615Z</time></trkpt><trkpt lat="45.1154714" lon="1.4005092"><ele>153.0</ele><time>2026-04-12T08:59:32.615Z</time></trkpt><trkpt lat="45.1155121" lon="1.4005829"><ele>153.0</ele><time>2026-04-12T08:59:33.615Z</time></trkpt><trkpt lat="45.1155531" lon="1.4006711"><ele>153.0</ele><time>2026-04-12T08:59:34.615Z</time></trkpt><trkpt lat="45.1156022" lon="1.4007821"><ele>152.0</ele><time>2026-04-12T08:59:35.615Z</time></trkpt><trkpt lat="45.1156616" lon="1.4009242"><ele>151.0</ele><time>2026-04-12T08:59:36.616Z</time></trkpt><trkpt lat="45.1157278" lon="1.4010875"><ele>150.0</ele><time>2026-04-12T08:59:37.615Z</time></trkpt><trkpt lat="45.1157922" lon="1.4012614"><ele>149.0</ele><time>2026-04-12T08:59:38.615Z</time></trkpt><trkpt lat="45.1158538" lon="1.4014562"><ele>147.66666666666666</ele><time>2026-04-12T08:59:39.615Z</time></trkpt><trkpt lat="45.1159165" lon="1.4016733"><ele>146.33333333333334</ele><time>2026-04-12T08:59:40.614Z</time></trkpt><trkpt lat="45.1159813" lon="1.4019026"><ele>145.0</ele><time>2026-04-12T08:59:41.615Z</time></trkpt><trkpt lat="45.1160388" lon="1.4021397"><ele>143.66666666666669</ele><time>2026-04-12T08:59:42.615Z</time></trkpt><trkpt lat="45.1160841" lon="1.4023918"><ele>142.33333333333334</ele><time>2026-04-12T08:59:43.615Z</time></trkpt><trkpt lat="45.1161181" lon="1.4026467"><ele>141.0</ele><time>2026-04-12T08:59:44.615Z</time></trkpt><trkpt lat="45.1161453" lon="1.4029098"><ele>139.33333333333334</ele><time>2026-04-12T08:59:45.614Z</time></trkpt><trkpt lat="45.1161583" lon="1.4031811"><ele>137.66666666666669</ele><time>2026-04-12T08:59:46.614Z</time></trkpt><trkpt lat="45.116158" lon="1.4034565"><ele>136.0</ele><time>2026-04-12T08:59:47.615Z</time></trkpt><trkpt lat="45.1161454" lon="1.4037285"><ele>134.66666666666669</ele><time>2026-04-12T08:59:48.614Z</time></trkpt><trkpt lat="45.1161232" lon="1.4040003"><ele>133.33333333333334</ele><time>2026-04-12T08:59:49.615Z</time></trkpt><trkpt lat="45.1161042" lon="1.4042715"><ele>132.0</ele><time>2026-04-12T08:59:50.615Z</time></trkpt><trkpt lat="45.116081" lon="1.4045434"><ele>131.0</ele><time>2026-04-12T08:59:51.614Z</time></trkpt><trkpt lat="45.1160596" lon="1.4048133"><ele>130.0</ele><time>2026-04-12T08:59:52.616Z</time></trkpt><trkpt lat="45.1160384" lon="1.405085"><ele>129.0</ele><time>2026-04-12T08:59:53.616Z</time></trkpt><trkpt lat="45.1160174" lon="1.4053487"><ele>129.0</ele><time>2026-04-12T08:59:54.616Z</time></trkpt><trkpt lat="45.115999" lon="1.4056135"><ele>129.0</ele><time>2026-04-12T08:59:55.615Z</time></trkpt><trkpt lat="45.115978" lon="1.4058593"><ele>129.0</ele><time>2026-04-12T08:59:56.615Z</time></trkpt><trkpt lat="45.1159556" lon="1.406094"><ele>129.0</ele><time>2026-04-12T08:59:57.615Z</time></trkpt><trkpt lat="45.115935" lon="1.4063212"><ele>129.0</ele><time>2026-04-12T08:59:58.614Z</time></trkpt><trkpt lat="45.1159144" lon="1.4065396"><ele>129.0</ele><time>2026-04-12T08:59:59.615Z</time></trkpt><trkpt lat="45.1158966" lon="1.4067489"><ele>129.0</ele><time>2026-04-12T09:00:00.615Z</time></trkpt><trkpt lat="45.1158954" lon="1.4069519"><ele>129.0</ele><time>2026-04-12T09:00:01.615Z</time></trkpt><trkpt lat="45.1159003" lon="1.4071542"><ele>129.0</ele><time>2026-04-12T09:00:02.615Z</time></trkpt><trkpt lat="45.1159584" lon="1.407334"><ele>129.0</ele><time>2026-04-12T09:00:03.615Z</time></trkpt><trkpt lat="45.1160117" lon="1.4075152"><ele>127.75</ele><time>2026-04-12T09:00:04.615Z</time></trkpt><trkpt lat="45.116085" lon="1.4076887"><ele>126.5</ele><time>2026-04-12T09:00:05.615Z</time></trkpt><trkpt lat="45.116176" lon="1.4078495"><ele>125.25</ele><time>2026-04-12T09:00:06.615Z</time></trkpt><trkpt lat="45.1162843" lon="1.4080007"><ele>124.0</ele><time>2026-04-12T09:00:07.615Z</time></trkpt><trkpt lat="45.116399" lon="1.4081494"><ele>124.0</ele><time>2026-04-12T09:00:08.615Z</time></trkpt><trkpt lat="45.1165209" lon="1.4082989"><ele>124.0</ele><time>2026-04-12T09:00:09.615Z</time></trkpt><trkpt lat="45.1166407" lon="1.4084486"><ele>124.0</ele><time>2026-04-12T09:00:10.615Z</time></trkpt><trkpt lat="45.1167571" lon="1.4086036"><ele>124.0</ele><time>2026-04-12T09:00:11.615Z</time></trkpt><trkpt lat="45.1168635" lon="1.408773"><ele>124.0</ele><time>2026-04-12T09:00:12.615Z</time></trkpt><trkpt lat="45.1169566" lon="1.408944"><ele>124.0</ele><time>2026-04-12T09:00:13.614Z</time></trkpt><trkpt lat="45.1170342" lon="1.4091253"><ele>121.25</ele><time>2026-04-12T09:00:14.615Z</time></trkpt><trkpt lat="45.1170968" lon="1.4093102"><ele>118.5</ele><time>2026-04-12T09:00:15.616Z</time></trkpt><trkpt lat="45.1171522" lon="1.4094978"><ele>115.75</ele><time>2026-04-12T09:00:16.615Z</time></trkpt><trkpt lat="45.1171956" lon="1.409686"><ele>113.0</ele><time>2026-04-12T09:00:17.615Z</time></trkpt><trkpt lat="45.1172443" lon="1.409857"><ele>113.0</ele><time>2026-04-12T09:00:18.615Z</time></trkpt><trkpt lat="45.1173032" lon="1.4100164"><ele>113.0</ele><time>2026-04-12T09:00:19.615Z</time></trkpt><trkpt lat="45.1173773" lon="1.4101481"><ele>113.0</ele><time>2026-04-12T09:00:20.615Z</time></trkpt><trkpt lat="45.117473" lon="1.410246"><ele>113.0</ele><time>2026-04-12T09:00:21.615Z</time></trkpt><trkpt lat="45.1175806" lon="1.4103117"><ele>113.0</ele><time>2026-04-12T09:00:22.615Z</time></trkpt><trkpt lat="45.1177001" lon="1.4103363"><ele>113.0</ele><time>2026-04-12T09:00:23.615Z</time></trkpt><trkpt lat="45.1178238" lon="1.4103269"><ele>113.0</ele><time>2026-04-12T09:00:24.615Z</time></trkpt><trkpt lat="45.1179521" lon="1.4103082"><ele>113.0</ele><time>2026-04-12T09:00:25.615Z</time></trkpt><trkpt lat="45.1180854" lon="1.4102906"><ele>113.0</ele><time>2026-04-12T09:00:26.616Z</time></trkpt><trkpt lat="45.1182195" lon="1.410272"><ele>113.0</ele><time>2026-04-12T09:00:27.615Z</time></trkpt><trkpt lat="45.1183513" lon="1.4102506"><ele>113.0</ele><time>2026-04-12T09:00:28.616Z</time></trkpt><trkpt lat="45.1184774" lon="1.4102306"><ele>113.0</ele><time>2026-04-12T09:00:29.615Z</time></trkpt><trkpt lat="45.1185919" lon="1.4102166"><ele>113.2</ele><time>2026-04-12T09:00:30.615Z</time></trkpt><trkpt lat="45.1187024" lon="1.4102036"><ele>113.4</ele><time>2026-04-12T09:00:31.615Z</time></trkpt><trkpt lat="45.1188034" lon="1.4101995"><ele>113.60000000000001</ele><time>2026-04-12T09:00:32.615Z</time></trkpt><trkpt lat="45.1188941" lon="1.4102053"><ele>113.80000000000001</ele><time>2026-04-12T09:00:33.615Z</time></trkpt><trkpt lat="45.1190116" lon="1.4102226"><ele>114.0</ele><time>2026-04-12T09:00:35.615Z</time></trkpt><trkpt lat="45.1190778" lon="1.4102388"><ele>113.0</ele><time>2026-04-12T09:00:38.615Z</time></trkpt><trkpt lat="45.119182" lon="1.4102756"><ele>112.0</ele><time>2026-04-12T09:00:41.615Z</time></trkpt><trkpt lat="45.1192425" lon="1.4103061"><ele>111.0</ele><time>2026-04-12T09:00:42.615Z</time></trkpt><trkpt lat="45.1193087" lon="1.4103424"><ele>110.0</ele><time>2026-04-12T09:00:43.615Z</time></trkpt><trkpt lat="45.1193687" lon="1.4103766"><ele>109.0</ele><time>2026-04-12T09:00:44.614Z</time></trkpt><trkpt lat="45.1194514" lon="1.4104327"><ele>108.0</ele><time>2026-04-12T09:00:46.616Z</time></trkpt><trkpt lat="45.1195437" lon="1.4104971"><ele>106.2</ele><time>2026-04-12T09:00:48.615Z</time></trkpt><trkpt lat="45.1196167" lon="1.4105438"><ele>104.4</ele><time>2026-04-12T09:00:49.614Z</time></trkpt><trkpt lat="45.1196937" lon="1.41059"><ele>102.60000000000001</ele><time>2026-04-12T09:00:50.615Z</time></trkpt><trkpt lat="45.1197794" lon="1.4106405"><ele>100.80000000000001</ele><time>2026-04-12T09:00:51.615Z</time></trkpt><trkpt lat="45.1198691" lon="1.4106895"><ele>99.0</ele><time>2026-04-12T09:00:52.615Z</time></trkpt><trkpt lat="45.1199627" lon="1.410734"><ele>99.0</ele><time>2026-04-12T09:00:53.615Z</time></trkpt><trkpt lat="45.1200555" lon="1.4107718"><ele>99.0</ele><time>2026-04-12T09:00:54.615Z</time></trkpt><trkpt lat="45.1201511" lon="1.4108069"><ele>99.0</ele><time>2026-04-12T09:00:55.615Z</time></trkpt><trkpt lat="45.1202455" lon="1.4108388"><ele>99.0</ele><time>2026-04-12T09:00:56.615Z</time></trkpt><trkpt lat="45.1203403" lon="1.4108699"><ele>99.0</ele><time>2026-04-12T09:00:57.614Z</time></trkpt><trkpt lat="45.1204362" lon="1.4108987"><ele>99.0</ele><time>2026-04-12T09:00:58.615Z</time></trkpt><trkpt lat="45.1205332" lon="1.4109266"><ele>99.0</ele><time>2026-04-12T09:00:59.615Z</time></trkpt><trkpt lat="45.1206303" lon="1.4109548"><ele>99.0</ele><time>2026-04-12T09:01:00.615Z</time></trkpt><trkpt lat="45.12073" lon="1.4109885"><ele>99.0</ele><time>2026-04-12T09:01:01.614Z</time></trkpt><trkpt lat="45.1208301" lon="1.4110195"><ele>99.0</ele><time>2026-04-12T09:01:02.615Z</time></trkpt><trkpt lat="45.12093" lon="1.4110518"><ele>98.6</ele><time>2026-04-12T09:01:03.614Z</time></trkpt><trkpt lat="45.1210357" lon="1.4110879"><ele>98.2</ele><time>2026-04-12T09:01:04.615Z</time></trkpt><trkpt lat="45.1211414" lon="1.4111237"><ele>97.8</ele><time>2026-04-12T09:01:05.614Z</time></trkpt><trkpt lat="45.1212481" lon="1.4111541"><ele>97.39999999999999</ele><time>2026-04-12T09:01:06.615Z</time></trkpt><trkpt lat="45.1213588" lon="1.4111911"><ele>97.0</ele><time>2026-04-12T09:01:07.615Z</time></trkpt><trkpt lat="45.1214733" lon="1.4112269"><ele>96.5</ele><time>2026-04-12T09:01:08.615Z</time></trkpt><trkpt lat="45.12159" lon="1.4112696"><ele>96.0</ele><time>2026-04-12T09:01:09.615Z</time></trkpt><trkpt lat="45.1217075" lon="1.4112995"><ele>95.5</ele><time>2026-04-12T09:01:10.616Z</time></trkpt><trkpt lat="45.1218264" lon="1.4113376"><ele>95.0</ele><time>2026-04-12T09:01:11.615Z</time></trkpt><trkpt lat="45.1219468" lon="1.4113749"><ele>94.75</ele><time>2026-04-12T09:01:12.616Z</time></trkpt><trkpt lat="45.122066" lon="1.411413"><ele>94.5</ele><time>2026-04-12T09:01:13.615Z</time></trkpt><trkpt lat="45.1221847" lon="1.4114469"><ele>94.25</ele><time>2026-04-12T09:01:14.615Z</time></trkpt><trkpt lat="45.1223055" lon="1.411481"><ele>94.0</ele><time>2026-04-12T09:01:15.614Z</time></trkpt><trkpt lat="45.1224258" lon="1.4115133"><ele>94.0</ele><time>2026-04-12T09:01:16.615Z</time></trkpt><trkpt lat="45.1225432" lon="1.411548"><ele>94.0</ele><time>2026-04-12T09:01:17.614Z</time></trkpt><trkpt lat="45.122652" lon="1.4115791"><ele>94.0</ele><time>2026-04-12T09:01:18.615Z</time></trkpt><trkpt lat="45.1227572" lon="1.4116062"><ele>94.0</ele><time>2026-04-12T09:01:19.615Z</time></trkpt><trkpt lat="45.1228515" lon="1.4116395"><ele>94.0</ele><time>2026-04-12T09:01:20.615Z</time></trkpt><trkpt lat="45.1229355" lon="1.4116918"><ele>94.0</ele><time>2026-04-12T09:01:21.615Z</time></trkpt><trkpt lat="45.1230019" lon="1.4117558"><ele>94.0</ele><time>2026-04-12T09:01:22.615Z</time></trkpt><trkpt lat="45.123073" lon="1.4118129"><ele>94.0</ele><time>2026-04-12T09:01:23.616Z</time></trkpt><trkpt lat="45.1231333" lon="1.4118784"><ele>94.0</ele><time>2026-04-12T09:01:28.615Z</time></trkpt><trkpt lat="45.1231181" lon="1.4120209"><ele>94.0</ele><time>2026-04-12T09:01:30.615Z</time></trkpt><trkpt lat="45.1231018" lon="1.4121257"><ele>94.0</ele><time>2026-04-12T09:01:31.616Z</time></trkpt><trkpt lat="45.1230768" lon="1.4122536"><ele>94.2</ele><time>2026-04-12T09:01:32.615Z</time></trkpt><trkpt lat="45.1230498" lon="1.4123865"><ele>94.4</ele><time>2026-04-12T09:01:33.615Z</time></trkpt><trkpt lat="45.1230202" lon="1.4125383"><ele>94.6</ele><time>2026-04-12T09:01:34.615Z</time></trkpt><trkpt lat="45.1229917" lon="1.4126993"><ele>94.8</ele><time>2026-04-12T09:01:35.615Z</time></trkpt><trkpt lat="45.1229669" lon="1.4128558"><ele>95.0</ele><time>2026-04-12T09:01:36.615Z</time></trkpt><trkpt lat="45.1229421" lon="1.4130056"><ele>95.2</ele><time>2026-04-12T09:01:37.615Z</time></trkpt><trkpt lat="45.1229165" lon="1.413151"><ele>95.4</ele><time>2026-04-12T09:01:38.616Z</time></trkpt><trkpt lat="45.1228931" lon="1.4132892"><ele>95.6</ele><time>2026-04-12T09:01:39.614Z</time></trkpt><trkpt lat="45.1228689" lon="1.4134202"><ele>95.8</ele><time>2026-04-12T09:01:40.614Z</time></trkpt><trkpt lat="45.1228472" lon="1.4135404"><ele>96.0</ele><time>2026-04-12T09:01:41.615Z</time></trkpt><trkpt lat="45.1228275" lon="1.4136426"><ele>96.0</ele><time>2026-04-12T09:01:42.615Z</time></trkpt><trkpt lat="45.1228096" lon="1.4137422"><ele>96.0</ele><time>2026-04-12T09:01:43.615Z</time></trkpt><trkpt lat="45.1227918" lon="1.4138398"><ele>96.0</ele><time>2026-04-12T09:01:44.615Z</time></trkpt><trkpt lat="45.1227735" lon="1.4139473"><ele>96.0</ele><time>2026-04-12T09:01:45.615Z</time></trkpt><trkpt lat="45.122755" lon="1.4140702"><ele>96.0</ele><time>2026-04-12T09:01:46.615Z</time></trkpt><trkpt lat="45.1227328" lon="1.4141925"><ele>96.0</ele><time>2026-04-12T09:01:47.615Z</time></trkpt><trkpt lat="45.1227052" lon="1.4143051"><ele>96.33333333333333</ele><time>2026-04-12T09:01:48.615Z</time></trkpt><trkpt lat="45.1226807" lon="1.4144044"><ele>96.66666666666666</ele><time>2026-04-12T09:01:49.615Z</time></trkpt><trkpt lat="45.1226439" lon="1.4145279"><ele>97.0</ele><time>2026-04-12T09:01:51.615Z</time></trkpt><trkpt lat="45.1226083" lon="1.4146159"><ele>97.33333333333333</ele><time>2026-04-12T09:01:54.615Z</time></trkpt><trkpt lat="45.1225895" lon="1.4147022"><ele>97.66666666666666</ele><time>2026-04-12T09:01:56.616Z</time></trkpt><trkpt lat="45.1225795" lon="1.4148249"><ele>98.0</ele><time>2026-04-12T09:01:58.615Z</time></trkpt><trkpt lat="45.1225712" lon="1.4149692"><ele>98.16666666666666</ele><time>2026-04-12T09:02:00.616Z</time></trkpt><trkpt lat="45.1225461" lon="1.4151411"><ele>98.33333333333333</ele><time>2026-04-12T09:02:02.615Z</time></trkpt><trkpt lat="45.122524" lon="1.4152369"><ele>98.5</ele><time>2026-04-12T09:02:03.615Z</time></trkpt><trkpt lat="45.1224988" lon="1.4153288"><ele>98.66666666666666</ele><time>2026-04-12T09:02:04.615Z</time></trkpt><trkpt lat="45.1224583" lon="1.4154221"><ele>98.83333333333333</ele><time>2026-04-12T09:02:05.615Z</time></trkpt><trkpt lat="45.1224175" lon="1.4155171"><ele>99.0</ele><time>2026-04-12T09:02:06.615Z</time></trkpt><trkpt lat="45.1223722" lon="1.4156179"><ele>99.6</ele><time>2026-04-12T09:02:07.615Z</time></trkpt><trkpt lat="45.1223217" lon="1.4157257"><ele>100.2</ele><time>2026-04-12T09:02:08.615Z</time></trkpt><trkpt lat="45.1222706" lon="1.4158361"><ele>100.8</ele><time>2026-04-12T09:02:09.615Z</time></trkpt><trkpt lat="45.1222199" lon="1.4159459"><ele>101.39999999999999</ele><time>2026-04-12T09:02:10.615Z</time></trkpt><trkpt lat="45.1221693" lon="1.4160529"><ele>102.0</ele><time>2026-04-12T09:02:11.615Z</time></trkpt><trkpt lat="45.1221123" lon="1.4161535"><ele>102.0</ele><time>2026-04-12T09:02:12.614Z</time></trkpt><trkpt lat="45.122059" lon="1.4162538"><ele>102.0</ele><time>2026-04-12T09:02:13.616Z</time></trkpt><trkpt lat="45.1220105" lon="1.4163488"><ele>102.0</ele><time>2026-04-12T09:02:14.615Z</time></trkpt><trkpt lat="45.1219637" lon="1.4164428"><ele>102.0</ele><time>2026-04-12T09:02:15.615Z</time></trkpt><trkpt lat="45.1219194" lon="1.4165375"><ele>102.0</ele><time>2026-04-12T09:02:16.615Z</time></trkpt><trkpt lat="45.1218701" lon="1.4166381"><ele>102.0</ele><time>2026-04-12T09:02:17.615Z</time></trkpt><trkpt lat="45.1218236" lon="1.4167483"><ele>102.0</ele><time>2026-04-12T09:02:18.615Z</time></trkpt><trkpt lat="45.1217742" lon="1.4168621"><ele>102.0</ele><time>2026-04-12T09:02:19.615Z</time></trkpt><trkpt lat="45.1217293" lon="1.416978"><ele>102.0</ele><time>2026-04-12T09:02:20.615Z</time></trkpt><trkpt lat="45.1216846" lon="1.4170919"><ele>102.0</ele><time>2026-04-12T09:02:21.616Z</time></trkpt><trkpt lat="45.1216363" lon="1.4172095"><ele>102.0</ele><time>2026-04-12T09:02:22.615Z</time></trkpt><trkpt lat="45.1215922" lon="1.4173291"><ele>104.6</ele><time>2026-04-12T09:02:23.616Z</time></trkpt><trkpt lat="45.1215485" lon="1.4174503"><ele>107.19999999999999</ele><time>2026-04-12T09:02:24.615Z</time></trkpt><trkpt lat="45.1215014" lon="1.4175732"><ele>109.8</ele><time>2026-04-12T09:02:25.615Z</time></trkpt><trkpt lat="45.1214635" lon="1.4177136"><ele>112.4</ele><time>2026-04-12T09:02:26.615Z</time></trkpt><trkpt lat="45.1214193" lon="1.4178536"><ele>115.0</ele><time>2026-04-12T09:02:27.615Z</time></trkpt><trkpt lat="45.1213752" lon="1.4179939"><ele>115.25</ele><time>2026-04-12T09:02:28.615Z</time></trkpt><trkpt lat="45.1213262" lon="1.4181288"><ele>115.5</ele><time>2026-04-12T09:02:29.615Z</time></trkpt><trkpt lat="45.1212714" lon="1.4182821"><ele>115.75</ele><time>2026-04-12T09:02:30.615Z</time></trkpt><trkpt lat="45.1212246" lon="1.4184427"><ele>116.0</ele><time>2026-04-12T09:02:31.615Z</time></trkpt><trkpt lat="45.121173" lon="1.4186082"><ele>116.0</ele><time>2026-04-12T09:02:32.616Z</time></trkpt><trkpt lat="45.121127" lon="1.4187886"><ele>116.0</ele><time>2026-04-12T09:02:33.615Z</time></trkpt><trkpt lat="45.1210842" lon="1.4189726"><ele>116.0</ele><time>2026-04-12T09:02:34.615Z</time></trkpt><trkpt lat="45.1210332" lon="1.4191637"><ele>116.0</ele><time>2026-04-12T09:02:35.615Z</time></trkpt><trkpt lat="45.1209951" lon="1.4193613"><ele>115.33333333333333</ele><time>2026-04-12T09:02:36.615Z</time></trkpt><trkpt lat="45.1209521" lon="1.4195704"><ele>114.66666666666666</ele><time>2026-04-12T09:02:37.615Z</time></trkpt><trkpt lat="45.1209138" lon="1.4197875"><ele>114.0</ele><time>2026-04-12T09:02:38.615Z</time></trkpt><trkpt lat="45.1208747" lon="1.4200087"><ele>113.33333333333334</ele><time>2026-04-12T09:02:39.615Z</time></trkpt><trkpt lat="45.1208429" lon="1.4202315"><ele>112.66666666666667</ele><time>2026-04-12T09:02:40.614Z</time></trkpt><trkpt lat="45.1208115" lon="1.4204593"><ele>112.0</ele><time>2026-04-12T09:02:41.615Z</time></trkpt><trkpt lat="45.1207852" lon="1.4206865"><ele>113.0</ele><time>2026-04-12T09:02:42.615Z</time></trkpt><trkpt lat="45.1207612" lon="1.4209106"><ele>114.0</ele><time>2026-04-12T09:02:43.615Z</time></trkpt><trkpt lat="45.1207409" lon="1.421134"><ele>115.0</ele><time>2026-04-12T09:02:44.614Z</time></trkpt><trkpt lat="45.1207252" lon="1.4213656"><ele>115.0</ele><time>2026-04-12T09:02:45.614Z</time></trkpt><trkpt lat="45.120711" lon="1.4216053"><ele>115.0</ele><time>2026-04-12T09:02:46.614Z</time></trkpt><trkpt lat="45.1207036" lon="1.4218421"><ele>115.0</ele><time>2026-04-12T09:02:47.614Z</time></trkpt><trkpt lat="45.1206957" lon="1.422091"><ele>113.0</ele><time>2026-04-12T09:02:48.615Z</time></trkpt><trkpt lat="45.1206854" lon="1.4223433"><ele>111.0</ele><time>2026-04-12T09:02:49.615Z</time></trkpt><trkpt lat="45.1206856" lon="1.4226082"><ele>109.0</ele><time>2026-04-12T09:02:50.616Z</time></trkpt><trkpt lat="45.1206899" lon="1.4228776"><ele>107.66666666666667</ele><time>2026-04-12T09:02:51.616Z</time></trkpt><trkpt lat="45.12069" lon="1.4231472"><ele>106.33333333333334</ele><time>2026-04-12T09:02:52.615Z</time></trkpt><trkpt lat="45.1206914" lon="1.4234146"><ele>105.0</ele><time>2026-04-12T09:02:53.616Z</time></trkpt><trkpt lat="45.1206943" lon="1.4236951"><ele>104.33333333333334</ele><time>2026-04-12T09:02:54.616Z</time></trkpt><trkpt lat="45.1207008" lon="1.4239726"><ele>103.66666666666667</ele><time>2026-04-12T09:02:55.615Z</time></trkpt><trkpt lat="45.1207298" lon="1.4242412"><ele>103.0</ele><time>2026-04-12T09:02:56.616Z</time></trkpt><trkpt lat="45.1207671" lon="1.4245152"><ele>101.33333333333334</ele><time>2026-04-12T09:02:57.615Z</time></trkpt><trkpt lat="45.1208245" lon="1.4247859"><ele>99.66666666666666</ele><time>2026-04-12T09:02:58.616Z</time></trkpt><trkpt lat="45.1208906" lon="1.4250381"><ele>98.0</ele><time>2026-04-12T09:02:59.616Z</time></trkpt><trkpt lat="45.1209663" lon="1.4253048"><ele>100.33333333333333</ele><time>2026-04-12T09:03:00.616Z</time></trkpt><trkpt lat="45.1210389" lon="1.4255501"><ele>102.66666666666666</ele><time>2026-04-12T09:03:01.616Z</time></trkpt><trkpt lat="45.1210989" lon="1.4258122"><ele>105.0</ele><time>2026-04-12T09:03:02.616Z</time></trkpt><trkpt lat="45.1211432" lon="1.4260781"><ele>107.66666666666666</ele><time>2026-04-12T09:03:03.616Z</time></trkpt><trkpt lat="45.121182" lon="1.4263425"><ele>110.33333333333333</ele><time>2026-04-12T09:03:04.616Z</time></trkpt><trkpt lat="45.1212077" lon="1.4266101"><ele>113.0</ele><time>2026-04-12T09:03:05.616Z</time></trkpt><trkpt lat="45.121237" lon="1.4268774"><ele>113.33333333333333</ele><time>2026-04-12T09:03:06.616Z</time></trkpt><trkpt lat="45.1212638" lon="1.4271447"><ele>113.66666666666666</ele><time>2026-04-12T09:03:07.616Z</time></trkpt><trkpt lat="45.1213078" lon="1.4274156"><ele>114.0</ele><time>2026-04-12T09:03:08.616Z</time></trkpt><trkpt lat="45.1213636" lon="1.4276845"><ele>114.0</ele><time>2026-04-12T09:03:09.616Z</time></trkpt><trkpt lat="45.1214253" lon="1.4279534"><ele>114.0</ele><time>2026-04-12T09:03:10.616Z</time></trkpt><trkpt lat="45.121505" lon="1.4282199"><ele>114.0</ele><time>2026-04-12T09:03:11.617Z</time></trkpt><trkpt lat="45.1215821" lon="1.4284899"><ele>110.0</ele><time>2026-04-12T09:03:12.616Z</time></trkpt><trkpt lat="45.1216655" lon="1.4287617"><ele>106.0</ele><time>2026-04-12T09:03:13.616Z</time></trkpt><trkpt lat="45.1217552" lon="1.4290337"><ele>102.0</ele><time>2026-04-12T09:03:14.616Z</time></trkpt><trkpt lat="45.1218467" lon="1.4293034"><ele>102.0</ele><time>2026-04-12T09:03:15.616Z</time></trkpt><trkpt lat="45.1219458" lon="1.4295717"><ele>102.0</ele><time>2026-04-12T09:03:16.616Z</time></trkpt><trkpt lat="45.1220486" lon="1.4298379"><ele>102.0</ele><time>2026-04-12T09:03:17.616Z</time></trkpt><trkpt lat="45.1221596" lon="1.4300991"><ele>101.33333333333334</ele><time>2026-04-12T09:03:18.616Z</time></trkpt><trkpt lat="45.1222859" lon="1.430347"><ele>100.66666666666667</ele><time>2026-04-12T09:03:19.617Z</time></trkpt><trkpt lat="45.1224237" lon="1.430585"><ele>100.0</ele><time>2026-04-12T09:03:20.616Z</time></trkpt><trkpt lat="45.1225684" lon="1.430815"><ele>100.33333333333334</ele><time>2026-04-12T09:03:21.616Z</time></trkpt><trkpt lat="45.1227205" lon="1.4310455"><ele>100.66666666666666</ele><time>2026-04-12T09:03:22.615Z</time></trkpt><trkpt lat="45.1228778" lon="1.4312704"><ele>101.0</ele><time>2026-04-12T09:03:23.617Z</time></trkpt><trkpt lat="45.1230345" lon="1.4314999"><ele>101.0</ele><time>2026-04-12T09:03:24.616Z</time></trkpt><trkpt lat="45.1231846" lon="1.4317333"><ele>101.0</ele><time>2026-04-12T09:03:25.616Z</time></trkpt><trkpt lat="45.1233234" lon="1.4319765"><ele>101.0</ele><time>2026-04-12T09:03:26.617Z</time></trkpt><trkpt lat="45.1234535" lon="1.4322294"><ele>105.0</ele><time>2026-04-12T09:03:27.616Z</time></trkpt><trkpt lat="45.1235781" lon="1.4324858"><ele>109.0</ele><time>2026-04-12T09:03:28.616Z</time></trkpt><trkpt lat="45.1237015" lon="1.4327435"><ele>113.0</ele><time>2026-04-12T09:03:29.616Z</time></trkpt><trkpt lat="45.1238269" lon="1.4329937"><ele>110.33333333333333</ele><time>2026-04-12T09:03:30.616Z</time></trkpt><trkpt lat="45.1239507" lon="1.4332431"><ele>107.66666666666666</ele><time>2026-04-12T09:03:31.616Z</time></trkpt><trkpt lat="45.1240833" lon="1.4334886"><ele>105.0</ele><time>2026-04-12T09:03:32.616Z</time></trkpt><trkpt lat="45.1242254" lon="1.4337242"><ele>110.0</ele><time>2026-04-12T09:03:33.616Z</time></trkpt><trkpt lat="45.1243719" lon="1.4339535"><ele>115.0</ele><time>2026-04-12T09:03:34.616Z</time></trkpt><trkpt lat="45.1245217" lon="1.4341866"><ele>120.0</ele><time>2026-04-12T09:03:35.616Z</time></trkpt><trkpt lat="45.1246712" lon="1.4344207"><ele>118.66666666666666</ele><time>2026-04-12T09:03:36.616Z</time></trkpt><trkpt lat="45.1248175" lon="1.4346595"><ele>117.33333333333333</ele><time>2026-04-12T09:03:37.616Z</time></trkpt><trkpt lat="45.1249702" lon="1.4348863"><ele>116.0</ele><time>2026-04-12T09:03:38.616Z</time></trkpt><trkpt lat="45.1251366" lon="1.4351033"><ele>116.0</ele><time>2026-04-12T09:03:39.617Z</time></trkpt><trkpt lat="45.1253113" lon="1.4353121"><ele>116.0</ele><time>2026-04-12T09:03:40.617Z</time></trkpt><trkpt lat="45.1254892" lon="1.4355137"><ele>114.5</ele><time>2026-04-12T09:03:41.615Z</time></trkpt><trkpt lat="45.1256816" lon="1.4356935"><ele>113.0</ele><time>2026-04-12T09:03:42.615Z</time></trkpt><trkpt lat="45.1258689" lon="1.4358688"><ele>113.0</ele><time>2026-04-12T09:03:43.616Z</time></trkpt><trkpt lat="45.1260549" lon="1.4360472"><ele>113.0</ele><time>2026-04-12T09:03:44.616Z</time></trkpt><trkpt lat="45.1262396" lon="1.4362293"><ele>112.0</ele><time>2026-04-12T09:03:45.616Z</time></trkpt><trkpt lat="45.1264197" lon="1.4364146"><ele>111.0</ele><time>2026-04-12T09:03:46.616Z</time></trkpt><trkpt lat="45.1265976" lon="1.4366044"><ele>110.0</ele><time>2026-04-12T09:03:47.616Z</time></trkpt><trkpt lat="45.1267705" lon="1.4367966"><ele>110.0</ele><time>2026-04-12T09:03:48.616Z</time></trkpt><trkpt lat="45.1269367" lon="1.4369855"><ele>110.0</ele><time>2026-04-12T09:03:49.616Z</time></trkpt><trkpt lat="45.1270962" lon="1.4371809"><ele>110.0</ele><time>2026-04-12T09:03:50.615Z</time></trkpt><trkpt lat="45.1272544" lon="1.4373658"><ele>109.33333333333333</ele><time>2026-04-12T09:03:51.615Z</time></trkpt><trkpt lat="45.1274063" lon="1.4375453"><ele>108.66666666666666</ele><time>2026-04-12T09:03:52.616Z</time></trkpt><trkpt lat="45.1275466" lon="1.4377175"><ele>108.0</ele><time>2026-04-12T09:03:53.616Z</time></trkpt><trkpt lat="45.1276788" lon="1.4378771"><ele>110.25</ele><time>2026-04-12T09:03:54.616Z</time></trkpt><trkpt lat="45.1277972" lon="1.438023"><ele>112.5</ele><time>2026-04-12T09:03:55.617Z</time></trkpt><trkpt lat="45.1278972" lon="1.4381424"><ele>114.75</ele><time>2026-04-12T09:03:56.615Z</time></trkpt><trkpt lat="45.1279769" lon="1.4382186"><ele>117.0</ele><time>2026-04-12T09:03:57.616Z</time></trkpt><trkpt lat="45.1280439" lon="1.4382548"><ele>117.0</ele><time>2026-04-12T09:03:58.616Z</time></trkpt><trkpt lat="45.1281462" lon="1.4382954"><ele>116.99999999999999</ele><time>2026-04-12T09:04:00.616Z</time></trkpt><trkpt lat="45.1282664" lon="1.43837"><ele>116.99999999999999</ele><time>2026-04-12T09:04:02.616Z</time></trkpt><trkpt lat="45.1283305" lon="1.438422"><ele>117.0</ele><time>2026-04-12T09:04:03.617Z</time></trkpt><trkpt lat="45.1283991" lon="1.4384949"><ele>117.0</ele><time>2026-04-12T09:04:04.616Z</time></trkpt><trkpt lat="45.1284609" lon="1.4385875"><ele>114.75</ele><time>2026-04-12T09:04:05.617Z</time></trkpt><trkpt lat="45.128517" lon="1.4387118"><ele>112.5</ele><time>2026-04-12T09:04:06.616Z</time></trkpt><trkpt lat="45.1285657" lon="1.4388569"><ele>110.25</ele><time>2026-04-12T09:04:07.616Z</time></trkpt><trkpt lat="45.1286195" lon="1.4390226"><ele>108.0</ele><time>2026-04-12T09:04:08.617Z</time></trkpt><trkpt lat="45.1286743" lon="1.439193"><ele>108.0</ele><time>2026-04-12T09:04:09.616Z</time></trkpt><trkpt lat="45.1287338" lon="1.439375"><ele>108.0</ele><time>2026-04-12T09:04:10.616Z</time></trkpt><trkpt lat="45.1287948" lon="1.4395696"><ele>108.0</ele><time>2026-04-12T09:04:11.616Z</time></trkpt><trkpt lat="45.1288607" lon="1.4397725"><ele>108.0</ele><time>2026-04-12T09:04:12.616Z</time></trkpt><trkpt lat="45.1289302" lon="1.4399951"><ele>108.0</ele><time>2026-04-12T09:04:13.617Z</time></trkpt><trkpt lat="45.129002" lon="1.4402305"><ele>108.0</ele><time>2026-04-12T09:04:14.616Z</time></trkpt><trkpt lat="45.1290725" lon="1.4404633"><ele>108.0</ele><time>2026-04-12T09:04:15.616Z</time></trkpt><trkpt lat="45.1291494" lon="1.4406962"><ele>108.0</ele><time>2026-04-12T09:04:16.616Z</time></trkpt><trkpt lat="45.1292284" lon="1.440936"><ele>108.0</ele><time>2026-04-12T09:04:17.616Z</time></trkpt><trkpt lat="45.1293189" lon="1.4411675"><ele>108.0</ele><time>2026-04-12T09:04:18.617Z</time></trkpt><trkpt lat="45.129418" lon="1.4413909"><ele>109.66666666666666</ele><time>2026-04-12T09:04:19.616Z</time></trkpt><trkpt lat="45.1295157" lon="1.4416074"><ele>111.33333333333333</ele><time>2026-04-12T09:04:20.616Z</time></trkpt><trkpt lat="45.1296268" lon="1.4418116"><ele>113.0</ele><time>2026-04-12T09:04:21.616Z</time></trkpt><trkpt lat="45.1297327" lon="1.4420147"><ele>111.0</ele><time>2026-04-12T09:04:22.616Z</time></trkpt><trkpt lat="45.1298293" lon="1.4422192"><ele>109.0</ele><time>2026-04-12T09:04:23.616Z</time></trkpt><trkpt lat="45.1299332" lon="1.4424194"><ele>107.0</ele><time>2026-04-12T09:04:24.616Z</time></trkpt><trkpt lat="45.1300306" lon="1.4426155"><ele>107.0</ele><time>2026-04-12T09:04:25.616Z</time></trkpt><trkpt lat="45.1301287" lon="1.4428052"><ele>107.0</ele><time>2026-04-12T09:04:26.616Z</time></trkpt><trkpt lat="45.1302237" lon="1.4429899"><ele>107.0</ele><time>2026-04-12T09:04:27.616Z</time></trkpt><trkpt lat="45.1303176" lon="1.4431721"><ele>111.0</ele><time>2026-04-12T09:04:28.616Z</time></trkpt><trkpt lat="45.130412" lon="1.4433587"><ele>115.0</ele><time>2026-04-12T09:04:29.617Z</time></trkpt><trkpt lat="45.1305144" lon="1.4435412"><ele>119.0</ele><time>2026-04-12T09:04:30.615Z</time></trkpt><trkpt lat="45.1306243" lon="1.4437107"><ele>118.0</ele><time>2026-04-12T09:04:31.615Z</time></trkpt><trkpt lat="45.1307493" lon="1.4438681"><ele>117.0</ele><time>2026-04-12T09:04:32.615Z</time></trkpt><trkpt lat="45.130883" lon="1.4440147"><ele>116.0</ele><time>2026-04-12T09:04:33.616Z</time></trkpt><trkpt lat="45.1310261" lon="1.4441463"><ele>116.0</ele><time>2026-04-12T09:04:34.616Z</time></trkpt><trkpt lat="45.1311789" lon="1.444264"><ele>116.0</ele><time>2026-04-12T09:04:35.616Z</time></trkpt><trkpt lat="45.1313425" lon="1.4443591"><ele>116.0</ele><time>2026-04-12T09:04:36.615Z</time></trkpt><trkpt lat="45.1315097" lon="1.4444304"><ele>111.0</ele><time>2026-04-12T09:04:37.616Z</time></trkpt><trkpt lat="45.1316813" lon="1.4444873"><ele>106.0</ele><time>2026-04-12T09:04:38.616Z</time></trkpt><trkpt lat="45.1318564" lon="1.4445281"><ele>101.0</ele><time>2026-04-12T09:04:39.616Z</time></trkpt><trkpt lat="45.1320374" lon="1.4445555"><ele>101.0</ele><time>2026-04-12T09:04:40.616Z</time></trkpt><trkpt lat="45.1322205" lon="1.4445714"><ele>101.0</ele><time>2026-04-12T09:04:41.616Z</time></trkpt><trkpt lat="45.1324064" lon="1.4445787"><ele>101.0</ele><time>2026-04-12T09:04:42.616Z</time></trkpt><trkpt lat="45.1325929" lon="1.4445775"><ele>100.33333333333333</ele><time>2026-04-12T09:04:43.616Z</time></trkpt><trkpt lat="45.1327812" lon="1.4445678"><ele>99.66666666666666</ele><time>2026-04-12T09:04:44.616Z</time></trkpt><trkpt lat="45.1329742" lon="1.4445555"><ele>99.0</ele><time>2026-04-12T09:04:45.615Z</time></trkpt><trkpt lat="45.1331696" lon="1.4445557"><ele>98.0</ele><time>2026-04-12T09:04:46.617Z</time></trkpt><trkpt lat="45.1333659" lon="1.4445641"><ele>97.0</ele><time>2026-04-12T09:04:47.616Z</time></trkpt><trkpt lat="45.1335615" lon="1.4445865"><ele>96.0</ele><time>2026-04-12T09:04:48.616Z</time></trkpt><trkpt lat="45.1337552" lon="1.4446187"><ele>98.66666666666666</ele><time>2026-04-12T09:04:49.617Z</time></trkpt><trkpt lat="45.1339442" lon="1.4446697"><ele>101.33333333333333</ele><time>2026-04-12T09:04:50.616Z</time></trkpt><trkpt lat="45.1341289" lon="1.4447286"><ele>104.0</ele><time>2026-04-12T09:04:51.617Z</time></trkpt><trkpt lat="45.134311" lon="1.4448011"><ele>104.66666666666666</ele><time>2026-04-12T09:04:52.616Z</time></trkpt><trkpt lat="45.1344864" lon="1.4448924"><ele>105.33333333333334</ele><time>2026-04-12T09:04:53.616Z</time></trkpt><trkpt lat="45.1346576" lon="1.4450057"><ele>106.0</ele><time>2026-04-12T09:04:54.616Z</time></trkpt><trkpt lat="45.1348252" lon="1.445133"><ele>104.0</ele><time>2026-04-12T09:04:55.616Z</time></trkpt><trkpt lat="45.1349874" lon="1.4452765"><ele>102.0</ele><time>2026-04-12T09:04:56.616Z</time></trkpt><trkpt lat="45.1351434" lon="1.4454331"><ele>100.0</ele><time>2026-04-12T09:04:57.616Z</time></trkpt><trkpt lat="45.1352942" lon="1.4455944"><ele>100.66666666666667</ele><time>2026-04-12T09:04:58.616Z</time></trkpt><trkpt lat="45.1354389" lon="1.445757"><ele>101.33333333333334</ele><time>2026-04-12T09:04:59.615Z</time></trkpt><trkpt lat="45.1355814" lon="1.4459203"><ele>102.0</ele><time>2026-04-12T09:05:00.616Z</time></trkpt><trkpt lat="45.1357228" lon="1.4460815"><ele>102.0</ele><time>2026-04-12T09:05:01.616Z</time></trkpt><trkpt lat="45.1358601" lon="1.4462426"><ele>102.0</ele><time>2026-04-12T09:05:02.616Z</time></trkpt><trkpt lat="45.1360014" lon="1.4464022"><ele>102.0</ele><time>2026-04-12T09:05:03.616Z</time></trkpt><trkpt lat="45.1361454" lon="1.4465622"><ele>101.0</ele><time>2026-04-12T09:05:04.615Z</time></trkpt><trkpt lat="45.1362917" lon="1.4467303"><ele>100.0</ele><time>2026-04-12T09:05:05.616Z</time></trkpt><trkpt lat="45.1364394" lon="1.4468971"><ele>99.0</ele><time>2026-04-12T09:05:06.616Z</time></trkpt><trkpt lat="45.136583" lon="1.4470736"><ele>102.33333333333334</ele><time>2026-04-12T09:05:07.616Z</time></trkpt><trkpt lat="45.1367231" lon="1.4472547"><ele>105.66666666666667</ele><time>2026-04-12T09:05:08.615Z</time></trkpt><trkpt lat="45.1368621" lon="1.4474417"><ele>109.0</ele><time>2026-04-12T09:05:09.616Z</time></trkpt><trkpt lat="45.1369975" lon="1.4476357"><ele>109.0</ele><time>2026-04-12T09:05:10.616Z</time></trkpt><trkpt lat="45.1371305" lon="1.4478299"><ele>109.0</ele><time>2026-04-12T09:05:11.616Z</time></trkpt><trkpt lat="45.1372581" lon="1.4480346"><ele>109.0</ele><time>2026-04-12T09:05:12.616Z</time></trkpt><trkpt lat="45.1373788" lon="1.4482463"><ele>108.33333333333334</ele><time>2026-04-12T09:05:13.616Z</time></trkpt><trkpt lat="45.1374945" lon="1.4484643"><ele>107.66666666666666</ele><time>2026-04-12T09:05:14.616Z</time></trkpt><trkpt lat="45.1376007" lon="1.4486945"><ele>107.0</ele><time>2026-04-12T09:05:15.616Z</time></trkpt><trkpt lat="45.1377006" lon="1.4489256"><ele>107.0</ele><time>2026-04-12T09:05:16.616Z</time></trkpt><trkpt lat="45.1377943" lon="1.4491502"><ele>107.0</ele><time>2026-04-12T09:05:17.615Z</time></trkpt><trkpt lat="45.1378864" lon="1.4493737"><ele>107.0</ele><time>2026-04-12T09:05:18.616Z</time></trkpt><trkpt lat="45.1379775" lon="1.4495958"><ele>106.33333333333333</ele><time>2026-04-12T09:05:19.616Z</time></trkpt><trkpt lat="45.1380693" lon="1.4498195"><ele>105.66666666666666</ele><time>2026-04-12T09:05:20.615Z</time></trkpt><trkpt lat="45.1381607" lon="1.4500535"><ele>105.0</ele><time>2026-04-12T09:05:21.616Z</time></trkpt><trkpt lat="45.1382549" lon="1.4502908"><ele>105.33333333333334</ele><time>2026-04-12T09:05:22.616Z</time></trkpt><trkpt lat="45.1383493" lon="1.4505346"><ele>105.66666666666667</ele><time>2026-04-12T09:05:23.616Z</time></trkpt><trkpt lat="45.1384448" lon="1.4507829"><ele>106.0</ele><time>2026-04-12T09:05:24.616Z</time></trkpt><trkpt lat="45.1385351" lon="1.4510369"><ele>108.0</ele><time>2026-04-12T09:05:25.616Z</time></trkpt><trkpt lat="45.1386136" lon="1.4512985"><ele>110.0</ele><time>2026-04-12T09:05:26.616Z</time></trkpt><trkpt lat="45.1386852" lon="1.4515714"><ele>112.0</ele><time>2026-04-12T09:05:27.616Z</time></trkpt><trkpt lat="45.1387475" lon="1.4518422"><ele>112.0</ele><time>2026-04-12T09:05:28.617Z</time></trkpt><trkpt lat="45.1388008" lon="1.452116"><ele>112.0</ele><time>2026-04-12T09:05:29.617Z</time></trkpt><trkpt lat="45.1388463" lon="1.452393"><ele>112.0</ele><time>2026-04-12T09:05:30.617Z</time></trkpt><trkpt lat="45.1388832" lon="1.4526742"><ele>113.33333333333334</ele><time>2026-04-12T09:05:31.616Z</time></trkpt><trkpt lat="45.13892" lon="1.4529557"><ele>114.66666666666666</ele><time>2026-04-12T09:05:32.616Z</time></trkpt><trkpt lat="45.1389553" lon="1.4532397"><ele>116.0</ele><time>2026-04-12T09:05:33.616Z</time></trkpt><trkpt lat="45.1389906" lon="1.4535247"><ele>117.33333333333333</ele><time>2026-04-12T09:05:34.616Z</time></trkpt><trkpt lat="45.1390282" lon="1.4538027"><ele>118.66666666666666</ele><time>2026-04-12T09:05:35.616Z</time></trkpt><trkpt lat="45.1390632" lon="1.454082"><ele>120.0</ele><time>2026-04-12T09:05:36.615Z</time></trkpt><trkpt lat="45.1390977" lon="1.454358"><ele>121.66666666666666</ele><time>2026-04-12T09:05:37.616Z</time></trkpt><trkpt lat="45.1391343" lon="1.4546291"><ele>123.33333333333333</ele><time>2026-04-12T09:05:38.616Z</time></trkpt><trkpt lat="45.1391751" lon="1.4549008"><ele>125.0</ele><time>2026-04-12T09:05:39.616Z</time></trkpt><trkpt lat="45.1392174" lon="1.4551672"><ele>125.0</ele><time>2026-04-12T09:05:40.616Z</time></trkpt><trkpt lat="45.1392709" lon="1.4554265"><ele>125.0</ele><time>2026-04-12T09:05:41.616Z</time></trkpt><trkpt lat="45.1393273" lon="1.4556737"><ele>125.0</ele><time>2026-04-12T09:05:42.616Z</time></trkpt><trkpt lat="45.1393866" lon="1.4559102"><ele>125.5</ele><time>2026-04-12T09:05:43.615Z</time></trkpt><trkpt lat="45.1394423" lon="1.4561133"><ele>126.0</ele><time>2026-04-12T09:05:44.616Z</time></trkpt><trkpt lat="45.1394886" lon="1.4562951"><ele>126.5</ele><time>2026-04-12T09:05:45.617Z</time></trkpt><trkpt lat="45.1395346" lon="1.4564621"><ele>127.0</ele><time>2026-04-12T09:05:46.615Z</time></trkpt><trkpt lat="45.1395783" lon="1.4566205"><ele>127.0</ele><time>2026-04-12T09:05:47.616Z</time></trkpt><trkpt lat="45.139614" lon="1.4567648"><ele>126.99999999999999</ele><time>2026-04-12T09:05:48.616Z</time></trkpt><trkpt lat="45.139648" lon="1.456901"><ele>126.99999999999999</ele><time>2026-04-12T09:05:49.616Z</time></trkpt><trkpt lat="45.1396814" lon="1.4570281"><ele>127.0</ele><time>2026-04-12T09:05:50.617Z</time></trkpt><trkpt lat="45.1397164" lon="1.4571563"><ele>127.0</ele><time>2026-04-12T09:05:51.616Z</time></trkpt><trkpt lat="45.1397509" lon="1.45728"><ele>127.6</ele><time>2026-04-12T09:05:52.616Z</time></trkpt><trkpt lat="45.1397861" lon="1.4574054"><ele>128.2</ele><time>2026-04-12T09:05:53.617Z</time></trkpt><trkpt lat="45.1398188" lon="1.4575331"><ele>128.8</ele><time>2026-04-12T09:05:54.617Z</time></trkpt><trkpt lat="45.1398437" lon="1.4576578"><ele>129.4</ele><time>2026-04-12T09:05:55.617Z</time></trkpt><trkpt lat="45.1398579" lon="1.4577891"><ele>130.0</ele><time>2026-04-12T09:05:56.617Z</time></trkpt><trkpt lat="45.1398551" lon="1.4579305"><ele>130.25</ele><time>2026-04-12T09:05:57.617Z</time></trkpt><trkpt lat="45.1398569" lon="1.4580911"><ele>130.5</ele><time>2026-04-12T09:05:58.616Z</time></trkpt><trkpt lat="45.1398861" lon="1.4582597"><ele>130.75</ele><time>2026-04-12T09:05:59.616Z</time></trkpt><trkpt lat="45.139935" lon="1.4584278"><ele>131.0</ele><time>2026-04-12T09:06:00.616Z</time></trkpt><trkpt lat="45.1399757" lon="1.4586156"><ele>130.0</ele><time>2026-04-12T09:06:01.617Z</time></trkpt><trkpt lat="45.1400178" lon="1.4588185"><ele>129.0</ele><time>2026-04-12T09:06:02.615Z</time></trkpt><trkpt lat="45.1400627" lon="1.4590264"><ele>128.0</ele><time>2026-04-12T09:06:03.616Z</time></trkpt><trkpt lat="45.1401086" lon="1.459234"><ele>128.0</ele><time>2026-04-12T09:06:04.616Z</time></trkpt><trkpt lat="45.1401567" lon="1.4594511"><ele>128.0</ele><time>2026-04-12T09:06:05.616Z</time></trkpt><trkpt lat="45.1402101" lon="1.4596749"><ele>128.0</ele><time>2026-04-12T09:06:06.615Z</time></trkpt><trkpt lat="45.1402645" lon="1.4599004"><ele>128.33333333333331</ele><time>2026-04-12T09:06:07.616Z</time></trkpt><trkpt lat="45.1403251" lon="1.4601337"><ele>128.66666666666666</ele><time>2026-04-12T09:06:08.617Z</time></trkpt><trkpt lat="45.140387" lon="1.4603662"><ele>129.0</ele><time>2026-04-12T09:06:09.615Z</time></trkpt><trkpt lat="45.1404476" lon="1.4605888"><ele>129.66666666666666</ele><time>2026-04-12T09:06:10.616Z</time></trkpt><trkpt lat="45.1405111" lon="1.4608119"><ele>130.33333333333331</ele><time>2026-04-12T09:06:11.616Z</time></trkpt><trkpt lat="45.1405724" lon="1.461046"><ele>131.0</ele><time>2026-04-12T09:06:12.616Z</time></trkpt><trkpt lat="45.1406371" lon="1.4612978"><ele>131.33333333333331</ele><time>2026-04-12T09:06:13.616Z</time></trkpt><trkpt lat="45.1407043" lon="1.4615504"><ele>131.66666666666666</ele><time>2026-04-12T09:06:14.616Z</time></trkpt><trkpt lat="45.1407754" lon="1.4618131"><ele>132.0</ele><time>2026-04-12T09:06:15.615Z</time></trkpt><trkpt lat="45.1408484" lon="1.4620849"><ele>131.66666666666666</ele><time>2026-04-12T09:06:16.616Z</time></trkpt><trkpt lat="45.1409234" lon="1.4623614"><ele>131.33333333333331</ele><time>2026-04-12T09:06:17.616Z</time></trkpt><trkpt lat="45.1409966" lon="1.4626435"><ele>131.0</ele><time>2026-04-12T09:06:18.616Z</time></trkpt><trkpt lat="45.1410757" lon="1.4629314"><ele>131.0</ele><time>2026-04-12T09:06:19.616Z</time></trkpt><trkpt lat="45.1411485" lon="1.4632342"><ele>131.0</ele><time>2026-04-12T09:06:20.615Z</time></trkpt><trkpt lat="45.1412239" lon="1.4635053"><ele>131.0</ele><time>2026-04-12T09:06:21.616Z</time></trkpt><trkpt lat="45.1412927" lon="1.4637801"><ele>130.66666666666666</ele><time>2026-04-12T09:06:22.616Z</time></trkpt><trkpt lat="45.1413676" lon="1.4640516"><ele>130.33333333333334</ele><time>2026-04-12T09:06:23.616Z</time></trkpt><trkpt lat="45.1414386" lon="1.4643213"><ele>130.0</ele><time>2026-04-12T09:06:24.616Z</time></trkpt><trkpt lat="45.14151" lon="1.4645919"><ele>129.33333333333334</ele><time>2026-04-12T09:06:25.616Z</time></trkpt><trkpt lat="45.1415832" lon="1.4648658"><ele>128.66666666666666</ele><time>2026-04-12T09:06:26.616Z</time></trkpt><trkpt lat="45.1416572" lon="1.4651449"><ele>128.0</ele><time>2026-04-12T09:06:27.617Z</time></trkpt><trkpt lat="45.1417305" lon="1.4654208"><ele>127.0</ele><time>2026-04-12T09:06:28.616Z</time></trkpt><trkpt lat="45.1418049" lon="1.4657003"><ele>126.0</ele><time>2026-04-12T09:06:29.615Z</time></trkpt><trkpt lat="45.1418795" lon="1.4659822"><ele>125.0</ele><time>2026-04-12T09:06:30.616Z</time></trkpt><trkpt lat="45.1419554" lon="1.4662619"><ele>124.33333333333333</ele><time>2026-04-12T09:06:31.615Z</time></trkpt><trkpt lat="45.1420313" lon="1.4665383"><ele>123.66666666666666</ele><time>2026-04-12T09:06:32.616Z</time></trkpt><trkpt lat="45.1421077" lon="1.4668158"><ele>123.0</ele><time>2026-04-12T09:06:33.616Z</time></trkpt><trkpt lat="45.1421834" lon="1.467087"><ele>123.33333333333334</ele><time>2026-04-12T09:06:34.616Z</time></trkpt><trkpt lat="45.1422547" lon="1.467361"><ele>123.66666666666667</ele><time>2026-04-12T09:06:35.616Z</time></trkpt><trkpt lat="45.1423219" lon="1.4676106"><ele>124.0</ele><time>2026-04-12T09:06:36.616Z</time></trkpt><trkpt lat="45.1423804" lon="1.4678345"><ele>122.33333333333334</ele><time>2026-04-12T09:06:37.616Z</time></trkpt><trkpt lat="45.1424358" lon="1.4680433"><ele>120.66666666666666</ele><time>2026-04-12T09:06:38.616Z</time></trkpt><trkpt lat="45.1424884" lon="1.4682435"><ele>119.0</ele><time>2026-04-12T09:06:39.616Z</time></trkpt><trkpt lat="45.1425375" lon="1.4684339"><ele>119.0</ele><time>2026-04-12T09:06:40.616Z</time></trkpt><trkpt lat="45.142587" lon="1.4686151"><ele>119.0</ele><time>2026-04-12T09:06:41.616Z</time></trkpt><trkpt lat="45.1426333" lon="1.4687834"><ele>119.0</ele><time>2026-04-12T09:06:42.616Z</time></trkpt><trkpt lat="45.1426786" lon="1.4689453"><ele>119.0</ele><time>2026-04-12T09:06:43.615Z</time></trkpt><trkpt lat="45.1427229" lon="1.4691016"><ele>119.80000000000001</ele><time>2026-04-12T09:06:44.616Z</time></trkpt><trkpt lat="45.1427613" lon="1.4692378"><ele>120.60000000000001</ele><time>2026-04-12T09:06:45.616Z</time></trkpt><trkpt lat="45.1428012" lon="1.4693655"><ele>121.4</ele><time>2026-04-12T09:06:46.616Z</time></trkpt><trkpt lat="45.1428414" lon="1.4694873"><ele>122.2</ele><time>2026-04-12T09:06:47.616Z</time></trkpt><trkpt lat="45.1428813" lon="1.4695973"><ele>123.0</ele><time>2026-04-12T09:06:48.616Z</time></trkpt><trkpt lat="45.1429192" lon="1.4697035"><ele>122.83333333333333</ele><time>2026-04-12T09:06:49.615Z</time></trkpt><trkpt lat="45.1429559" lon="1.4697987"><ele>122.66666666666666</ele><time>2026-04-12T09:06:50.617Z</time></trkpt><trkpt lat="45.1429888" lon="1.4698786"><ele>122.5</ele><time>2026-04-12T09:06:51.617Z</time></trkpt><trkpt lat="45.1430366" lon="1.4699968"><ele>122.33333333333333</ele><time>2026-04-12T09:06:53.615Z</time></trkpt><trkpt lat="45.1430609" lon="1.4701174"><ele>122.16666666666666</ele><time>2026-04-12T09:06:55.617Z</time></trkpt><trkpt lat="45.1430464" lon="1.4702812"><ele>122.0</ele><time>2026-04-12T09:06:57.616Z</time></trkpt><trkpt lat="45.143014" lon="1.4704487"><ele>121.99999999999999</ele><time>2026-04-12T09:06:59.616Z</time></trkpt><trkpt lat="45.1430114" lon="1.4705441"><ele>122.0</ele><time>2026-04-12T09:07:00.616Z</time></trkpt><trkpt lat="45.1430546" lon="1.4706411"><ele>122.0</ele><time>2026-04-12T09:07:01.616Z</time></trkpt><trkpt lat="45.1431079" lon="1.4707219"><ele>122.0</ele><time>2026-04-12T09:07:02.617Z</time></trkpt><trkpt lat="45.1431566" lon="1.4708187"><ele>121.99999999999999</ele><time>2026-04-12T09:07:03.616Z</time></trkpt><trkpt lat="45.1431979" lon="1.4709526"><ele>122.0</ele><time>2026-04-12T09:07:04.616Z</time></trkpt><trkpt lat="45.1432378" lon="1.4710948"><ele>121.5</ele><time>2026-04-12T09:07:05.616Z</time></trkpt><trkpt lat="45.143281" lon="1.471247"><ele>121.0</ele><time>2026-04-12T09:07:06.616Z</time></trkpt><trkpt lat="45.1433281" lon="1.4714079"><ele>120.5</ele><time>2026-04-12T09:07:07.616Z</time></trkpt><trkpt lat="45.1433712" lon="1.4715755"><ele>120.0</ele><time>2026-04-12T09:07:08.616Z</time></trkpt><trkpt lat="45.1434169" lon="1.4717463"><ele>120.0</ele><time>2026-04-12T09:07:09.616Z</time></trkpt><trkpt lat="45.1434656" lon="1.4719201"><ele>120.0</ele><time>2026-04-12T09:07:10.616Z</time></trkpt><trkpt lat="45.1435165" lon="1.4720952"><ele>120.0</ele><time>2026-04-12T09:07:11.616Z</time></trkpt><trkpt lat="45.143568" lon="1.47226"><ele>120.0</ele><time>2026-04-12T09:07:12.616Z</time></trkpt><trkpt lat="45.1436145" lon="1.4724389"><ele>120.5</ele><time>2026-04-12T09:07:13.615Z</time></trkpt><trkpt lat="45.1436588" lon="1.4726115"><ele>121.0</ele><time>2026-04-12T09:07:14.616Z</time></trkpt><trkpt lat="45.1437055" lon="1.4727919"><ele>121.5</ele><time>2026-04-12T09:07:15.616Z</time></trkpt><trkpt lat="45.1437535" lon="1.472973"><ele>122.0</ele><time>2026-04-12T09:07:16.616Z</time></trkpt><trkpt lat="45.1437972" lon="1.4731465"><ele>122.0</ele><time>2026-04-12T09:07:17.616Z</time></trkpt><trkpt lat="45.1438411" lon="1.4733144"><ele>122.0</ele><time>2026-04-12T09:07:18.616Z</time></trkpt><trkpt lat="45.1438863" lon="1.4734778"><ele>122.0</ele><time>2026-04-12T09:07:19.615Z</time></trkpt><trkpt lat="45.1439288" lon="1.4736371"><ele>122.0</ele><time>2026-04-12T09:07:20.616Z</time></trkpt><trkpt lat="45.1439675" lon="1.4737959"><ele>121.8</ele><time>2026-04-12T09:07:21.616Z</time></trkpt><trkpt lat="45.1440073" lon="1.4739473"><ele>121.6</ele><time>2026-04-12T09:07:22.615Z</time></trkpt><trkpt lat="45.1440508" lon="1.4740982"><ele>121.39999999999999</ele><time>2026-04-12T09:07:23.616Z</time></trkpt><trkpt lat="45.1440854" lon="1.474253"><ele>121.19999999999999</ele><time>2026-04-12T09:07:24.616Z</time></trkpt><trkpt lat="45.1441128" lon="1.4743962"><ele>121.0</ele><time>2026-04-12T09:07:25.615Z</time></trkpt><trkpt lat="45.1441322" lon="1.4745303"><ele>120.4</ele><time>2026-04-12T09:07:26.616Z</time></trkpt><trkpt lat="45.1441439" lon="1.4746587"><ele>119.8</ele><time>2026-04-12T09:07:27.616Z</time></trkpt><trkpt lat="45.1441603" lon="1.4747877"><ele>119.20000000000002</ele><time>2026-04-12T09:07:28.616Z</time></trkpt><trkpt lat="45.1441735" lon="1.4749118"><ele>118.60000000000001</ele><time>2026-04-12T09:07:29.616Z</time></trkpt><trkpt lat="45.1441872" lon="1.4750386"><ele>118.0</ele><time>2026-04-12T09:07:30.617Z</time></trkpt><trkpt lat="45.1441989" lon="1.4751639"><ele>118.0</ele><time>2026-04-12T09:07:31.616Z</time></trkpt><trkpt lat="45.1442005" lon="1.4752825"><ele>118.00000000000001</ele><time>2026-04-12T09:07:32.615Z</time></trkpt><trkpt lat="45.1441968" lon="1.475403"><ele>118.00000000000001</ele><time>2026-04-12T09:07:33.617Z</time></trkpt><trkpt lat="45.1441586" lon="1.4755257"><ele>118.0</ele><time>2026-04-12T09:07:34.617Z</time></trkpt><trkpt lat="45.1441328" lon="1.475658"><ele>118.0</ele><time>2026-04-12T09:07:35.616Z</time></trkpt><trkpt lat="45.1441308" lon="1.475791"><ele>118.00000000000001</ele><time>2026-04-12T09:07:36.616Z</time></trkpt><trkpt lat="45.1441628" lon="1.4759131"><ele>118.0</ele><time>2026-04-12T09:07:37.615Z</time></trkpt><trkpt lat="45.1442121" lon="1.4760163"><ele>118.0</ele><time>2026-04-12T09:07:38.616Z</time></trkpt><trkpt lat="45.1442768" lon="1.4760887"><ele>118.0</ele><time>2026-04-12T09:07:39.615Z</time></trkpt><trkpt lat="45.1443532" lon="1.4761302"><ele>118.00000000000001</ele><time>2026-04-12T09:07:40.616Z</time></trkpt><trkpt lat="45.1444395" lon="1.4761657"><ele>118.0</ele><time>2026-04-12T09:07:41.616Z</time></trkpt><trkpt lat="45.144526" lon="1.476222"><ele>117.83333333333334</ele><time>2026-04-12T09:07:42.616Z</time></trkpt><trkpt lat="45.1446047" lon="1.4762885"><ele>117.66666666666667</ele><time>2026-04-12T09:07:43.615Z</time></trkpt><trkpt lat="45.144653" lon="1.4763822"><ele>117.5</ele><time>2026-04-12T09:07:44.616Z</time></trkpt><trkpt lat="45.1446984" lon="1.4764725"><ele>117.33333333333334</ele><time>2026-04-12T09:07:45.617Z</time></trkpt><trkpt lat="45.1447386" lon="1.4765679"><ele>117.16666666666667</ele><time>2026-04-12T09:07:46.616Z</time></trkpt><trkpt lat="45.1447767" lon="1.4766565"><ele>117.0</ele><time>2026-04-12T09:07:47.616Z</time></trkpt><trkpt lat="45.1448127" lon="1.4767539"><ele>117.0</ele><time>2026-04-12T09:07:48.616Z</time></trkpt><trkpt lat="45.1448496" lon="1.4768587"><ele>116.99999999999999</ele><time>2026-04-12T09:07:49.616Z</time></trkpt><trkpt lat="45.1448837" lon="1.476976"><ele>116.99999999999999</ele><time>2026-04-12T09:07:50.616Z</time></trkpt><trkpt lat="45.1449235" lon="1.4771136"><ele>117.0</ele><time>2026-04-12T09:07:51.616Z</time></trkpt><trkpt lat="45.1449618" lon="1.4772496"><ele>117.0</ele><time>2026-04-12T09:07:52.616Z</time></trkpt><trkpt lat="45.1449988" lon="1.4773867"><ele>116.39999999999999</ele><time>2026-04-12T09:07:53.616Z</time></trkpt><trkpt lat="45.1450355" lon="1.477518"><ele>115.79999999999998</ele><time>2026-04-12T09:07:54.617Z</time></trkpt><trkpt lat="45.1450701" lon="1.4776511"><ele>115.2</ele><time>2026-04-12T09:07:55.617Z</time></trkpt><trkpt lat="45.1451044" lon="1.4777815"><ele>114.6</ele><time>2026-04-12T09:07:56.616Z</time></trkpt><trkpt lat="45.1451407" lon="1.4779153"><ele>114.0</ele><time>2026-04-12T09:07:57.616Z</time></trkpt><trkpt lat="45.1451763" lon="1.4780535"><ele>114.2</ele><time>2026-04-12T09:07:58.616Z</time></trkpt><trkpt lat="45.1452128" lon="1.4781889"><ele>114.4</ele><time>2026-04-12T09:07:59.616Z</time></trkpt><trkpt lat="45.1452492" lon="1.4783257"><ele>114.6</ele><time>2026-04-12T09:08:00.615Z</time></trkpt><trkpt lat="45.1452889" lon="1.4784748"><ele>114.8</ele><time>2026-04-12T09:08:01.616Z</time></trkpt><trkpt lat="45.1453306" lon="1.4786278"><ele>115.0</ele><time>2026-04-12T09:08:02.617Z</time></trkpt><trkpt lat="45.1453708" lon="1.478781"><ele>115.0</ele><time>2026-04-12T09:08:03.615Z</time></trkpt><trkpt lat="45.1454127" lon="1.4789394"><ele>115.0</ele><time>2026-04-12T09:08:04.616Z</time></trkpt><trkpt lat="45.1454578" lon="1.479106"><ele>115.0</ele><time>2026-04-12T09:08:05.616Z</time></trkpt><trkpt lat="45.145507" lon="1.4792836"><ele>115.0</ele><time>2026-04-12T09:08:06.616Z</time></trkpt><trkpt lat="45.1455511" lon="1.4794619"><ele>115.0</ele><time>2026-04-12T09:08:07.616Z</time></trkpt><trkpt lat="45.1455971" lon="1.4796414"><ele>115.0</ele><time>2026-04-12T09:08:08.616Z</time></trkpt><trkpt lat="45.1456443" lon="1.479823"><ele>115.0</ele><time>2026-04-12T09:08:09.616Z</time></trkpt><trkpt lat="45.1456924" lon="1.4800048"><ele>115.0</ele><time>2026-04-12T09:08:10.616Z</time></trkpt><trkpt lat="45.1457385" lon="1.4801906"><ele>115.0</ele><time>2026-04-12T09:08:11.616Z</time></trkpt><trkpt lat="45.1457865" lon="1.4803761"><ele>115.0</ele><time>2026-04-12T09:08:12.616Z</time></trkpt><trkpt lat="45.1458336" lon="1.4805541"><ele>115.0</ele><time>2026-04-12T09:08:13.616Z</time></trkpt><trkpt lat="45.1458793" lon="1.4807316"><ele>115.0</ele><time>2026-04-12T09:08:14.615Z</time></trkpt><trkpt lat="45.1459266" lon="1.480906"><ele>115.25</ele><time>2026-04-12T09:08:15.617Z</time></trkpt><trkpt lat="45.1459734" lon="1.4810756"><ele>115.5</ele><time>2026-04-12T09:08:16.615Z</time></trkpt><trkpt lat="45.1460178" lon="1.4812408"><ele>115.75</ele><time>2026-04-12T09:08:17.616Z</time></trkpt><trkpt lat="45.1460598" lon="1.4814027"><ele>116.0</ele><time>2026-04-12T09:08:18.616Z</time></trkpt><trkpt lat="45.146102" lon="1.4815612"><ele>116.0</ele><time>2026-04-12T09:08:19.616Z</time></trkpt><trkpt lat="45.1461462" lon="1.4817147"><ele>116.0</ele><time>2026-04-12T09:08:20.616Z</time></trkpt><trkpt lat="45.1461889" lon="1.4818687"><ele>116.0</ele><time>2026-04-12T09:08:21.617Z</time></trkpt><trkpt lat="45.1462263" lon="1.4820263"><ele>116.0</ele><time>2026-04-12T09:08:22.615Z</time></trkpt><trkpt lat="45.1462579" lon="1.4821576"><ele>116.0</ele><time>2026-04-12T09:08:23.616Z</time></trkpt><trkpt lat="45.1462882" lon="1.4822562"><ele>115.99999999999999</ele><time>2026-04-12T09:08:24.615Z</time></trkpt><trkpt lat="45.1463195" lon="1.4823602"><ele>116.0</ele><time>2026-04-12T09:08:25.616Z</time></trkpt><trkpt lat="45.146349" lon="1.4824703"><ele>116.0</ele><time>2026-04-12T09:08:26.616Z</time></trkpt><trkpt lat="45.1463631" lon="1.482574"><ele>116.0</ele><time>2026-04-12T09:08:27.616Z</time></trkpt><trkpt lat="45.1463411" lon="1.4827117"><ele>115.99999999999999</ele><time>2026-04-12T09:08:28.616Z</time></trkpt><trkpt lat="45.1462986" lon="1.4828215"><ele>116.0</ele><time>2026-04-12T09:08:29.616Z</time></trkpt><trkpt lat="45.1462724" lon="1.4829464"><ele>116.0</ele><time>2026-04-12T09:08:30.616Z</time></trkpt><trkpt lat="45.1462722" lon="1.4830796"><ele>116.0</ele><time>2026-04-12T09:08:31.616Z</time></trkpt><trkpt lat="45.1463021" lon="1.4832007"><ele>116.0</ele><time>2026-04-12T09:08:32.616Z</time></trkpt><trkpt lat="45.1463679" lon="1.483292"><ele>116.0</ele><time>2026-04-12T09:08:33.616Z</time></trkpt><trkpt lat="45.1464508" lon="1.4833688"><ele>116.0</ele><time>2026-04-12T09:08:34.615Z</time></trkpt><trkpt lat="45.1465362" lon="1.4834551"><ele>115.4</ele><time>2026-04-12T09:08:35.616Z</time></trkpt><trkpt lat="45.1466075" lon="1.4835557"><ele>114.8</ele><time>2026-04-12T09:08:36.616Z</time></trkpt><trkpt lat="45.1466661" lon="1.4836729"><ele>114.20000000000002</ele><time>2026-04-12T09:08:37.616Z</time></trkpt><trkpt lat="45.1467134" lon="1.483786"><ele>113.60000000000001</ele><time>2026-04-12T09:08:38.616Z</time></trkpt><trkpt lat="45.146747" lon="1.4839347"><ele>113.0</ele><time>2026-04-12T09:08:39.616Z</time></trkpt><trkpt lat="45.1467901" lon="1.4840876"><ele>113.0</ele><time>2026-04-12T09:08:40.616Z</time></trkpt><trkpt lat="45.1468267" lon="1.4842392"><ele>113.0</ele><time>2026-04-12T09:08:41.616Z</time></trkpt><trkpt lat="45.1468646" lon="1.4843881"><ele>113.0</ele><time>2026-04-12T09:08:42.616Z</time></trkpt><trkpt lat="45.1469047" lon="1.4845392"><ele>113.0</ele><time>2026-04-12T09:08:43.615Z</time></trkpt><trkpt lat="45.1469436" lon="1.4846903"><ele>112.4</ele><time>2026-04-12T09:08:44.616Z</time></trkpt><trkpt lat="45.1469848" lon="1.4848376"><ele>111.80000000000001</ele><time>2026-04-12T09:08:45.615Z</time></trkpt><trkpt lat="45.1470259" lon="1.4849799"><ele>111.2</ele><time>2026-04-12T09:08:46.616Z</time></trkpt><trkpt lat="45.1470688" lon="1.4851266"><ele>110.6</ele><time>2026-04-12T09:08:47.616Z</time></trkpt><trkpt lat="45.1471119" lon="1.4852713"><ele>110.0</ele><time>2026-04-12T09:08:48.616Z</time></trkpt><trkpt lat="45.1471512" lon="1.485417"><ele>110.2</ele><time>2026-04-12T09:08:49.616Z</time></trkpt><trkpt lat="45.1471907" lon="1.4855571"><ele>110.4</ele><time>2026-04-12T09:08:50.616Z</time></trkpt><trkpt lat="45.1472278" lon="1.4856886"><ele>110.6</ele><time>2026-04-12T09:08:51.615Z</time></trkpt><trkpt lat="45.1472603" lon="1.4857967"><ele>110.8</ele><time>2026-04-12T09:08:52.616Z</time></trkpt><trkpt lat="45.1472841" lon="1.4858907"><ele>111.0</ele><time>2026-04-12T09:08:53.616Z</time></trkpt><trkpt lat="45.1473138" lon="1.4860641"><ele>111.0</ele><time>2026-04-12T09:08:55.616Z</time></trkpt><trkpt lat="45.1473184" lon="1.4861746"><ele>111.0</ele><time>2026-04-12T09:08:56.616Z</time></trkpt><trkpt lat="45.1473166" lon="1.4862752"><ele>111.0</ele><time>2026-04-12T09:08:57.616Z</time></trkpt><trkpt lat="45.1473201" lon="1.4863734"><ele>111.0</ele><time>2026-04-12T09:08:58.616Z</time></trkpt><trkpt lat="45.1473475" lon="1.4864586"><ele>111.0</ele><time>2026-04-12T09:08:59.616Z</time></trkpt><trkpt lat="45.1473835" lon="1.4865322"><ele>111.0</ele><time>2026-04-12T09:09:00.616Z</time></trkpt><trkpt lat="45.1474331" lon="1.4865987"><ele>111.0</ele><time>2026-04-12T09:09:01.616Z</time></trkpt><trkpt lat="45.1474851" lon="1.4866717"><ele>111.33333333333333</ele><time>2026-04-12T09:09:02.616Z</time></trkpt><trkpt lat="45.147528" lon="1.4867667"><ele>111.66666666666666</ele><time>2026-04-12T09:09:03.616Z</time></trkpt><trkpt lat="45.147561" lon="1.486865"><ele>112.0</ele><time>2026-04-12T09:09:04.616Z</time></trkpt><trkpt lat="45.1475874" lon="1.4869699"><ele>112.33333333333333</ele><time>2026-04-12T09:09:05.616Z</time></trkpt><trkpt lat="45.1476149" lon="1.4870758"><ele>112.66666666666666</ele><time>2026-04-12T09:09:06.616Z</time></trkpt><trkpt lat="45.1476479" lon="1.4871885"><ele>113.0</ele><time>2026-04-12T09:09:07.616Z</time></trkpt><trkpt lat="45.1476779" lon="1.4873137"><ele>113.4</ele><time>2026-04-12T09:09:08.617Z</time></trkpt><trkpt lat="45.1477053" lon="1.4874352"><ele>113.80000000000001</ele><time>2026-04-12T09:09:09.616Z</time></trkpt><trkpt lat="45.1477367" lon="1.4875613"><ele>114.2</ele><time>2026-04-12T09:09:10.615Z</time></trkpt><trkpt lat="45.1477758" lon="1.4876957"><ele>114.6</ele><time>2026-04-12T09:09:11.616Z</time></trkpt><trkpt lat="45.1478115" lon="1.4878296"><ele>115.0</ele><time>2026-04-12T09:09:12.616Z</time></trkpt><trkpt lat="45.1478478" lon="1.4879624"><ele>115.2</ele><time>2026-04-12T09:09:13.615Z</time></trkpt><trkpt lat="45.1478839" lon="1.4880914"><ele>115.4</ele><time>2026-04-12T09:09:14.616Z</time></trkpt><trkpt lat="45.147921" lon="1.488226"><ele>115.6</ele><time>2026-04-12T09:09:15.616Z</time></trkpt><trkpt lat="45.1479553" lon="1.4883605"><ele>115.8</ele><time>2026-04-12T09:09:16.616Z</time></trkpt><trkpt lat="45.1479843" lon="1.4884786"><ele>116.0</ele><time>2026-04-12T09:09:17.616Z</time></trkpt><trkpt lat="45.1480169" lon="1.4886046"><ele>115.99999999999999</ele><time>2026-04-12T09:09:18.617Z</time></trkpt><trkpt lat="45.1480471" lon="1.4887344"><ele>116.0</ele><time>2026-04-12T09:09:19.616Z</time></trkpt><trkpt lat="45.1480768" lon="1.488846"><ele>116.0</ele><time>2026-04-12T09:09:20.616Z</time></trkpt><trkpt lat="45.1480995" lon="1.4889561"><ele>116.0</ele><time>2026-04-12T09:09:21.616Z</time></trkpt><trkpt lat="45.1481259" lon="1.4890392"><ele>115.99999999999999</ele><time>2026-04-12T09:09:22.616Z</time></trkpt><trkpt lat="45.1481538" lon="1.4891519"><ele>116.0</ele><time>2026-04-12T09:09:24.615Z</time></trkpt><trkpt lat="45.1481686" lon="1.4892493"><ele>116.8</ele><time>2026-04-12T09:09:26.616Z</time></trkpt><trkpt lat="45.1481681" lon="1.4894068"><ele>117.6</ele><time>2026-04-12T09:09:28.616Z</time></trkpt><trkpt lat="45.1481255" lon="1.4895779"><ele>118.4</ele><time>2026-04-12T09:09:30.616Z</time></trkpt><trkpt lat="45.1481207" lon="1.489679"><ele>119.2</ele><time>2026-04-12T09:09:31.615Z</time></trkpt><trkpt lat="45.1481429" lon="1.4897755"><ele>120.0</ele><time>2026-04-12T09:09:32.615Z</time></trkpt><trkpt lat="45.1481984" lon="1.4898562"><ele>119.4</ele><time>2026-04-12T09:09:33.615Z</time></trkpt><trkpt lat="45.1482674" lon="1.4899185"><ele>118.8</ele><time>2026-04-12T09:09:34.616Z</time></trkpt><trkpt lat="45.1483426" lon="1.4900021"><ele>118.19999999999999</ele><time>2026-04-12T09:09:35.615Z</time></trkpt><trkpt lat="45.1483993" lon="1.4901092"><ele>117.6</ele><time>2026-04-12T09:09:36.616Z</time></trkpt><trkpt lat="45.1484462" lon="1.4902332"><ele>117.0</ele><time>2026-04-12T09:09:37.616Z</time></trkpt><trkpt lat="45.1484939" lon="1.4903674"><ele>117.39999999999999</ele><time>2026-04-12T09:09:38.615Z</time></trkpt><trkpt lat="45.1485324" lon="1.4904798"><ele>117.79999999999998</ele><time>2026-04-12T09:09:39.616Z</time></trkpt><trkpt lat="45.1485624" lon="1.4905979"><ele>118.2</ele><time>2026-04-12T09:09:40.615Z</time></trkpt><trkpt lat="45.1485942" lon="1.4907314"><ele>118.6</ele><time>2026-04-12T09:09:41.615Z</time></trkpt><trkpt lat="45.148632" lon="1.4908693"><ele>119.0</ele><time>2026-04-12T09:09:42.616Z</time></trkpt><trkpt lat="45.1486594" lon="1.4910024"><ele>118.99999999999999</ele><time>2026-04-12T09:09:43.616Z</time></trkpt><trkpt lat="45.1486895" lon="1.4911301"><ele>119.0</ele><time>2026-04-12T09:09:44.616Z</time></trkpt><trkpt lat="45.1487208" lon="1.4912541"><ele>119.0</ele><time>2026-04-12T09:09:45.616Z</time></trkpt><trkpt lat="45.1487468" lon="1.4913677"><ele>119.0</ele><time>2026-04-12T09:09:46.616Z</time></trkpt><trkpt lat="45.1487764" lon="1.4914811"><ele>118.99999999999999</ele><time>2026-04-12T09:09:47.616Z</time></trkpt><trkpt lat="45.1488067" lon="1.4915942"><ele>119.0</ele><time>2026-04-12T09:09:48.615Z</time></trkpt><trkpt lat="45.14884" lon="1.4917216"><ele>119.0</ele><time>2026-04-12T09:09:49.616Z</time></trkpt><trkpt lat="45.1488745" lon="1.4918491"><ele>119.0</ele><time>2026-04-12T09:09:50.617Z</time></trkpt><trkpt lat="45.1489095" lon="1.4919821"><ele>119.0</ele><time>2026-04-12T09:09:51.617Z</time></trkpt><trkpt lat="45.1489447" lon="1.4921064"><ele>119.0</ele><time>2026-04-12T09:09:52.616Z</time></trkpt><trkpt lat="45.1489793" lon="1.4922335"><ele>119.0</ele><time>2026-04-12T09:09:53.616Z</time></trkpt><trkpt lat="45.1490171" lon="1.4923694"><ele>118.80000000000001</ele><time>2026-04-12T09:09:54.616Z</time></trkpt><trkpt lat="45.1490561" lon="1.4925106"><ele>118.60000000000001</ele><time>2026-04-12T09:09:55.617Z</time></trkpt><trkpt lat="45.1490958" lon="1.4926568"><ele>118.4</ele><time>2026-04-12T09:09:56.615Z</time></trkpt><trkpt lat="45.1491345" lon="1.4927965"><ele>118.2</ele><time>2026-04-12T09:09:57.617Z</time></trkpt><trkpt lat="45.1491741" lon="1.4929341"><ele>118.0</ele><time>2026-04-12T09:09:58.615Z</time></trkpt><trkpt lat="45.14921" lon="1.4930703"><ele>118.0</ele><time>2026-04-12T09:09:59.616Z</time></trkpt><trkpt lat="45.1492464" lon="1.4932003"><ele>118.00000000000001</ele><time>2026-04-12T09:10:00.615Z</time></trkpt><trkpt lat="45.149277" lon="1.4933184"><ele>118.00000000000001</ele><time>2026-04-12T09:10:01.616Z</time></trkpt><trkpt lat="45.149306" lon="1.4934397"><ele>118.0</ele><time>2026-04-12T09:10:02.616Z</time></trkpt><trkpt lat="45.1493275" lon="1.4935472"><ele>118.0</ele><time>2026-04-12T09:10:03.616Z</time></trkpt><trkpt lat="45.1493727" lon="1.4936855"><ele>118.0</ele><time>2026-04-12T09:10:05.615Z</time></trkpt><trkpt lat="45.1493819" lon="1.4938416"><ele>118.00000000000001</ele><time>2026-04-12T09:10:07.616Z</time></trkpt><trkpt lat="45.1493849" lon="1.493953"><ele>118.00000000000001</ele><time>2026-04-12T09:10:08.616Z</time></trkpt><trkpt lat="45.1494117" lon="1.4940701"><ele>118.0</ele><time>2026-04-12T09:10:09.616Z</time></trkpt><trkpt lat="45.1494596" lon="1.4941771"><ele>118.0</ele><time>2026-04-12T09:10:10.616Z</time></trkpt><trkpt lat="45.1495175" lon="1.4942849"><ele>118.0</ele><time>2026-04-12T09:10:11.616Z</time></trkpt><trkpt lat="45.1495647" lon="1.4944121"><ele>118.00000000000001</ele><time>2026-04-12T09:10:12.616Z</time></trkpt><trkpt lat="45.1496044" lon="1.49455"><ele>118.00000000000001</ele><time>2026-04-12T09:10:13.615Z</time></trkpt><trkpt lat="45.1496425" lon="1.4946912"><ele>118.0</ele><time>2026-04-12T09:10:14.615Z</time></trkpt><trkpt lat="45.1496809" lon="1.4948331"><ele>118.0</ele><time>2026-04-12T09:10:15.615Z</time></trkpt><trkpt lat="45.1497195" lon="1.4949757"><ele>118.0</ele><time>2026-04-12T09:10:16.616Z</time></trkpt><trkpt lat="45.1497551" lon="1.495112"><ele>118.00000000000001</ele><time>2026-04-12T09:10:17.615Z</time></trkpt><trkpt lat="45.1497901" lon="1.4952495"><ele>118.00000000000001</ele><time>2026-04-12T09:10:18.616Z</time></trkpt><trkpt lat="45.1498231" lon="1.4953866"><ele>118.0</ele><time>2026-04-12T09:10:19.616Z</time></trkpt><trkpt lat="45.1498562" lon="1.4955196"><ele>118.0</ele><time>2026-04-12T09:10:20.615Z</time></trkpt><trkpt lat="45.1498913" lon="1.4956598"><ele>118.0</ele><time>2026-04-12T09:10:21.616Z</time></trkpt><trkpt lat="45.1499303" lon="1.4958116"><ele>118.0</ele><time>2026-04-12T09:10:22.615Z</time></trkpt><trkpt lat="45.149974" lon="1.4959624"><ele>118.0</ele><time>2026-04-12T09:10:23.616Z</time></trkpt><trkpt lat="45.1500207" lon="1.496124"><ele>118.0</ele><time>2026-04-12T09:10:24.615Z</time></trkpt><trkpt lat="45.1500652" lon="1.4962891"><ele>117.75</ele><time>2026-04-12T09:10:25.617Z</time></trkpt><trkpt lat="45.1501066" lon="1.496451"><ele>117.5</ele><time>2026-04-12T09:10:26.615Z</time></trkpt><trkpt lat="45.1501506" lon="1.4966104"><ele>117.25</ele><time>2026-04-12T09:10:27.616Z</time></trkpt><trkpt lat="45.150193" lon="1.4967712"><ele>117.0</ele><time>2026-04-12T09:10:28.616Z</time></trkpt><trkpt lat="45.1502361" lon="1.4969348"><ele>117.0</ele><time>2026-04-12T09:10:29.617Z</time></trkpt><trkpt lat="45.1502782" lon="1.4970892"><ele>117.0</ele><time>2026-04-12T09:10:30.616Z</time></trkpt><trkpt lat="45.1503188" lon="1.4972444"><ele>117.0</ele><time>2026-04-12T09:10:31.615Z</time></trkpt><trkpt lat="45.1503551" lon="1.4974001"><ele>117.0</ele><time>2026-04-12T09:10:32.616Z</time></trkpt><trkpt lat="45.1503941" lon="1.4975481"><ele>117.0</ele><time>2026-04-12T09:10:33.616Z</time></trkpt><trkpt lat="45.1504358" lon="1.4976989"><ele>116.99999999999999</ele><time>2026-04-12T09:10:34.617Z</time></trkpt><trkpt lat="45.1504792" lon="1.4978516"><ele>116.99999999999999</ele><time>2026-04-12T09:10:35.617Z</time></trkpt><trkpt lat="45.1505181" lon="1.497996"><ele>117.0</ele><time>2026-04-12T09:10:36.616Z</time></trkpt><trkpt lat="45.1505563" lon="1.4981402"><ele>117.0</ele><time>2026-04-12T09:10:37.615Z</time></trkpt><trkpt lat="45.1505923" lon="1.4982808"><ele>117.0</ele><time>2026-04-12T09:10:38.617Z</time></trkpt><trkpt lat="45.150627" lon="1.4984268"><ele>116.99999999999999</ele><time>2026-04-12T09:10:39.615Z</time></trkpt><trkpt lat="45.1506639" lon="1.498556"><ele>116.99999999999999</ele><time>2026-04-12T09:10:40.615Z</time></trkpt><trkpt lat="45.150699" lon="1.4986906"><ele>117.0</ele><time>2026-04-12T09:10:41.615Z</time></trkpt><trkpt lat="45.150732" lon="1.4988231"><ele>117.0</ele><time>2026-04-12T09:10:42.616Z</time></trkpt><trkpt lat="45.1507665" lon="1.4989533"><ele>117.0</ele><time>2026-04-12T09:10:43.616Z</time></trkpt><trkpt lat="45.1507988" lon="1.4990828"><ele>116.99999999999999</ele><time>2026-04-12T09:10:44.615Z</time></trkpt><trkpt lat="45.1508334" lon="1.4992092"><ele>116.99999999999999</ele><time>2026-04-12T09:10:45.616Z</time></trkpt><trkpt lat="45.1508681" lon="1.4993305"><ele>117.0</ele><time>2026-04-12T09:10:46.616Z</time></trkpt><trkpt lat="45.1509002" lon="1.4994492"><ele>117.0</ele><time>2026-04-12T09:10:47.616Z</time></trkpt><trkpt lat="45.1509293" lon="1.4995602"><ele>117.5</ele><time>2026-04-12T09:10:48.616Z</time></trkpt><trkpt lat="45.1509549" lon="1.4996615"><ele>118.0</ele><time>2026-04-12T09:10:49.616Z</time></trkpt><trkpt lat="45.1509804" lon="1.4997533"><ele>118.5</ele><time>2026-04-12T09:10:50.617Z</time></trkpt><trkpt lat="45.1510147" lon="1.4998813"><ele>119.0</ele><time>2026-04-12T09:10:52.616Z</time></trkpt><trkpt lat="45.1510458" lon="1.4999964"><ele>119.5</ele><time>2026-04-12T09:10:55.615Z</time></trkpt><trkpt lat="45.1510706" lon="1.500079"><ele>120.0</ele><time>2026-04-12T09:11:02.616Z</time></trkpt><trkpt lat="45.1510976" lon="1.5001974"><ele>120.0</ele><time>2026-04-12T09:11:05.616Z</time></trkpt><trkpt lat="45.1511348" lon="1.5003513"><ele>120.0</ele><time>2026-04-12T09:11:07.615Z</time></trkpt><trkpt lat="45.1511563" lon="1.500437"><ele>120.0</ele><time>2026-04-12T09:11:08.616Z</time></trkpt><trkpt lat="45.1511783" lon="1.5005246"><ele>120.0</ele><time>2026-04-12T09:11:09.616Z</time></trkpt><trkpt lat="45.1512036" lon="1.5006151"><ele>120.0</ele><time>2026-04-12T09:11:10.616Z</time></trkpt><trkpt lat="45.1512295" lon="1.500707"><ele>120.0</ele><time>2026-04-12T09:11:11.616Z</time></trkpt><trkpt lat="45.1512567" lon="1.5008057"><ele>120.2</ele><time>2026-04-12T09:11:12.616Z</time></trkpt><trkpt lat="45.1512885" lon="1.5009186"><ele>120.4</ele><time>2026-04-12T09:11:13.616Z</time></trkpt><trkpt lat="45.1513232" lon="1.5010443"><ele>120.6</ele><time>2026-04-12T09:11:14.616Z</time></trkpt><trkpt lat="45.151358" lon="1.5011669"><ele>120.8</ele><time>2026-04-12T09:11:15.616Z</time></trkpt><trkpt lat="45.1513934" lon="1.5012865"><ele>121.0</ele><time>2026-04-12T09:11:16.616Z</time></trkpt><trkpt lat="45.1514283" lon="1.501402"><ele>121.16666666666667</ele><time>2026-04-12T09:11:17.616Z</time></trkpt><trkpt lat="45.1514606" lon="1.5015176"><ele>121.33333333333334</ele><time>2026-04-12T09:11:18.616Z</time></trkpt><trkpt lat="45.1514919" lon="1.5016334"><ele>121.5</ele><time>2026-04-12T09:11:19.617Z</time></trkpt><trkpt lat="45.1515198" lon="1.5017478"><ele>121.66666666666666</ele><time>2026-04-12T09:11:20.616Z</time></trkpt><trkpt lat="45.1515451" lon="1.5018695"><ele>121.83333333333333</ele><time>2026-04-12T09:11:21.616Z</time></trkpt><trkpt lat="45.1515722" lon="1.5019943"><ele>122.0</ele><time>2026-04-12T09:11:22.615Z</time></trkpt><trkpt lat="45.1516068" lon="1.5021135"><ele>121.49999999999999</ele><time>2026-04-12T09:11:23.616Z</time></trkpt><trkpt lat="45.1516471" lon="1.5022256"><ele>121.0</ele><time>2026-04-12T09:11:24.615Z</time></trkpt><trkpt lat="45.1516781" lon="1.5023348"><ele>120.5</ele><time>2026-04-12T09:11:25.616Z</time></trkpt><trkpt lat="45.1517013" lon="1.5024412"><ele>120.0</ele><time>2026-04-12T09:11:26.617Z</time></trkpt><trkpt lat="45.151722" lon="1.5025393"><ele>119.49999999999999</ele><time>2026-04-12T09:11:27.616Z</time></trkpt><trkpt lat="45.1517444" lon="1.5026293"><ele>119.0</ele><time>2026-04-12T09:11:28.615Z</time></trkpt><trkpt lat="45.15177" lon="1.5027143"><ele>118.99999999999999</ele><time>2026-04-12T09:11:29.616Z</time></trkpt><trkpt lat="45.1518152" lon="1.5028827"><ele>119.0</ele><time>2026-04-12T09:11:31.615Z</time></trkpt><trkpt lat="45.1518388" lon="1.5029726"><ele>119.0</ele><time>2026-04-12T09:11:32.616Z</time></trkpt><trkpt lat="45.1518593" lon="1.5030639"><ele>119.0</ele><time>2026-04-12T09:11:33.616Z</time></trkpt><trkpt lat="45.1518807" lon="1.5031502"><ele>118.99999999999999</ele><time>2026-04-12T09:11:34.616Z</time></trkpt><trkpt lat="45.1519169" lon="1.5033092"><ele>119.0</ele><time>2026-04-12T09:11:36.615Z</time></trkpt><trkpt lat="45.1519545" lon="1.5034461"><ele>119.2</ele><time>2026-04-12T09:11:38.616Z</time></trkpt><trkpt lat="45.1520063" lon="1.5036166"><ele>119.4</ele><time>2026-04-12T09:11:40.616Z</time></trkpt><trkpt lat="45.1520306" lon="1.5037331"><ele>119.6</ele><time>2026-04-12T09:11:41.617Z</time></trkpt><trkpt lat="45.1520636" lon="1.503875"><ele>119.8</ele><time>2026-04-12T09:11:42.616Z</time></trkpt><trkpt lat="45.1521119" lon="1.5040272"><ele>120.0</ele><time>2026-04-12T09:11:43.616Z</time></trkpt><trkpt lat="45.1521548" lon="1.5041796"><ele>120.0</ele><time>2026-04-12T09:11:44.616Z</time></trkpt><trkpt lat="45.1521934" lon="1.5043294"><ele>120.0</ele><time>2026-04-12T09:11:45.616Z</time></trkpt><trkpt lat="45.1522373" lon="1.5044734"><ele>120.0</ele><time>2026-04-12T09:11:46.615Z</time></trkpt><trkpt lat="45.1522704" lon="1.504605"><ele>120.0</ele><time>2026-04-12T09:11:47.616Z</time></trkpt><trkpt lat="45.1523039" lon="1.5047188"><ele>120.0</ele><time>2026-04-12T09:11:48.616Z</time></trkpt><trkpt lat="45.15233" lon="1.5048134"><ele>119.83333333333333</ele><time>2026-04-12T09:11:49.616Z</time></trkpt><trkpt lat="45.152323" lon="1.5049348"><ele>119.66666666666666</ele><time>2026-04-12T09:11:52.616Z</time></trkpt><trkpt lat="45.152314" lon="1.5050586"><ele>119.5</ele><time>2026-04-12T09:11:54.616Z</time></trkpt><trkpt lat="45.1523206" lon="1.5052228"><ele>119.33333333333333</ele><time>2026-04-12T09:11:56.616Z</time></trkpt><trkpt lat="45.1523552" lon="1.5052997"><ele>119.16666666666666</ele><time>2026-04-12T09:11:57.615Z</time></trkpt><trkpt lat="45.1524121" lon="1.5053542"><ele>119.0</ele><time>2026-04-12T09:11:58.616Z</time></trkpt><trkpt lat="45.1524825" lon="1.5053762"><ele>118.66666666666666</ele><time>2026-04-12T09:11:59.617Z</time></trkpt><trkpt lat="45.1525573" lon="1.505343"><ele>118.33333333333333</ele><time>2026-04-12T09:12:00.616Z</time></trkpt><trkpt lat="45.1526175" lon="1.505262"><ele>118.0</ele><time>2026-04-12T09:12:01.616Z</time></trkpt><trkpt lat="45.152671" lon="1.5051576"><ele>117.66666666666666</ele><time>2026-04-12T09:12:02.616Z</time></trkpt><trkpt lat="45.1527375" lon="1.5050634"><ele>117.33333333333333</ele><time>2026-04-12T09:12:03.615Z</time></trkpt><trkpt lat="45.1528271" lon="1.5049964"><ele>117.0</ele><time>2026-04-12T09:12:04.617Z</time></trkpt><trkpt lat="45.1529322" lon="1.504966"><ele>117.0</ele><time>2026-04-12T09:12:05.617Z</time></trkpt><trkpt lat="45.1530523" lon="1.5049457"><ele>117.0</ele><time>2026-04-12T09:12:06.616Z</time></trkpt><trkpt lat="45.1531756" lon="1.5049221"><ele>117.0</ele><time>2026-04-12T09:12:07.616Z</time></trkpt><trkpt lat="45.1533024" lon="1.5048987"><ele>117.0</ele><time>2026-04-12T09:12:08.616Z</time></trkpt><trkpt lat="45.1534278" lon="1.5048696"><ele>117.0</ele><time>2026-04-12T09:12:09.615Z</time></trkpt><trkpt lat="45.1535568" lon="1.5048424"><ele>117.0</ele><time>2026-04-12T09:12:10.616Z</time></trkpt><trkpt lat="45.153683" lon="1.504811"><ele>117.0</ele><time>2026-04-12T09:12:11.616Z</time></trkpt><trkpt lat="45.1538096" lon="1.5047789"><ele>117.0</ele><time>2026-04-12T09:12:12.616Z</time></trkpt><trkpt lat="45.1539388" lon="1.5047482"><ele>116.39999999999999</ele><time>2026-04-12T09:12:13.616Z</time></trkpt><trkpt lat="45.1540563" lon="1.5047217"><ele>115.79999999999998</ele><time>2026-04-12T09:12:14.615Z</time></trkpt><trkpt lat="45.1541642" lon="1.5046975"><ele>115.2</ele><time>2026-04-12T09:12:15.615Z</time></trkpt><trkpt lat="45.1542564" lon="1.5046776"><ele>114.6</ele><time>2026-04-12T09:12:16.616Z</time></trkpt><trkpt lat="45.1543298" lon="1.5046607"><ele>114.0</ele><time>2026-04-12T09:12:17.616Z</time></trkpt><trkpt lat="45.1544001" lon="1.5046483"><ele>114.0</ele><time>2026-04-12T09:12:18.615Z</time></trkpt><trkpt lat="45.1544643" lon="1.5046315"><ele>114.0</ele><time>2026-04-12T09:12:19.616Z</time></trkpt><trkpt lat="45.1545305" lon="1.5046158"><ele>114.0</ele><time>2026-04-12T09:12:20.616Z</time></trkpt><trkpt lat="45.1546029" lon="1.5046"><ele>114.0</ele><time>2026-04-12T09:12:21.615Z</time></trkpt><trkpt lat="45.1546829" lon="1.5045808"><ele>114.0</ele><time>2026-04-12T09:12:22.616Z</time></trkpt><trkpt lat="45.1547696" lon="1.5045609"><ele>114.0</ele><time>2026-04-12T09:12:23.616Z</time></trkpt><trkpt lat="45.1548663" lon="1.5045386"><ele>113.75</ele><time>2026-04-12T09:12:24.616Z</time></trkpt><trkpt lat="45.1549742" lon="1.5045139"><ele>113.5</ele><time>2026-04-12T09:12:25.616Z</time></trkpt><trkpt lat="45.1550917" lon="1.5044894"><ele>113.25</ele><time>2026-04-12T09:12:26.616Z</time></trkpt><trkpt lat="45.1552117" lon="1.5044632"><ele>113.0</ele><time>2026-04-12T09:12:27.616Z</time></trkpt><trkpt lat="45.1553334" lon="1.5044369"><ele>113.0</ele><time>2026-04-12T09:12:28.616Z</time></trkpt><trkpt lat="45.1554555" lon="1.5044123"><ele>113.0</ele><time>2026-04-12T09:12:29.616Z</time></trkpt><trkpt lat="45.1555769" lon="1.5043883"><ele>113.0</ele><time>2026-04-12T09:12:30.616Z</time></trkpt><trkpt lat="45.1556997" lon="1.5043644"><ele>113.0</ele><time>2026-04-12T09:12:31.616Z</time></trkpt><trkpt lat="45.155822" lon="1.5043397"><ele>113.0</ele><time>2026-04-12T09:12:32.616Z</time></trkpt><trkpt lat="45.1559442" lon="1.5043147"><ele>113.00000000000001</ele><time>2026-04-12T09:12:33.616Z</time></trkpt><trkpt lat="45.156064" lon="1.5042906"><ele>113.00000000000001</ele><time>2026-04-12T09:12:34.616Z</time></trkpt><trkpt lat="45.1561709" lon="1.5042703"><ele>113.0</ele><time>2026-04-12T09:12:35.616Z</time></trkpt><trkpt lat="45.1562646" lon="1.504255"><ele>113.0</ele><time>2026-04-12T09:12:36.615Z</time></trkpt><trkpt lat="45.1563576" lon="1.5042503"><ele>113.0</ele><time>2026-04-12T09:12:37.617Z</time></trkpt><trkpt lat="45.1564546" lon="1.5042506"><ele>113.00000000000001</ele><time>2026-04-12T09:12:38.616Z</time></trkpt><trkpt lat="45.1565544" lon="1.5042191"><ele>113.00000000000001</ele><time>2026-04-12T09:12:39.615Z</time></trkpt><trkpt lat="45.1566612" lon="1.5041696"><ele>113.0</ele><time>2026-04-12T09:12:40.617Z</time></trkpt><trkpt lat="45.1567847" lon="1.5041337"><ele>113.0</ele><time>2026-04-12T09:12:41.616Z</time></trkpt><trkpt lat="45.1569174" lon="1.5040981"><ele>113.0</ele><time>2026-04-12T09:12:42.616Z</time></trkpt><trkpt lat="45.1570532" lon="1.5040632"><ele>113.0</ele><time>2026-04-12T09:12:43.616Z</time></trkpt><trkpt lat="45.1571868" lon="1.5040333"><ele>113.0</ele><time>2026-04-12T09:12:44.616Z</time></trkpt><trkpt lat="45.1573171" lon="1.504005"><ele>113.0</ele><time>2026-04-12T09:12:45.615Z</time></trkpt><trkpt lat="45.1574511" lon="1.5039761"><ele>112.25</ele><time>2026-04-12T09:12:46.616Z</time></trkpt><trkpt lat="45.1575869" lon="1.503947"><ele>111.5</ele><time>2026-04-12T09:12:47.616Z</time></trkpt><trkpt lat="45.1577173" lon="1.503919"><ele>110.75</ele><time>2026-04-12T09:12:48.616Z</time></trkpt><trkpt lat="45.1578399" lon="1.5038861"><ele>110.0</ele><time>2026-04-12T09:12:49.616Z</time></trkpt><trkpt lat="45.1579575" lon="1.5038619"><ele>109.99999999999999</ele><time>2026-04-12T09:12:50.617Z</time></trkpt><trkpt lat="45.1580533" lon="1.5038398"><ele>110.0</ele><time>2026-04-12T09:12:51.616Z</time></trkpt><trkpt lat="45.1581309" lon="1.503821"><ele>110.0</ele><time>2026-04-12T09:12:52.616Z</time></trkpt><trkpt lat="45.1582168" lon="1.5038141"><ele>110.0</ele><time>2026-04-12T09:12:53.617Z</time></trkpt><trkpt lat="45.1582833" lon="1.503803"><ele>109.99999999999999</ele><time>2026-04-12T09:12:54.617Z</time></trkpt><trkpt lat="45.1583483" lon="1.503792"><ele>110.0</ele><time>2026-04-12T09:12:55.616Z</time></trkpt><trkpt lat="45.1584696" lon="1.5037599"><ele>109.6</ele><time>2026-04-12T09:12:57.616Z</time></trkpt><trkpt lat="45.1585918" lon="1.5037394"><ele>109.2</ele><time>2026-04-12T09:12:59.616Z</time></trkpt><trkpt lat="45.1586631" lon="1.5037258"><ele>108.80000000000001</ele><time>2026-04-12T09:13:00.615Z</time></trkpt><trkpt lat="45.158748" lon="1.5037085"><ele>108.4</ele><time>2026-04-12T09:13:01.615Z</time></trkpt><trkpt lat="45.1588345" lon="1.5036887"><ele>108.0</ele><time>2026-04-12T09:13:02.616Z</time></trkpt><trkpt lat="45.1589205" lon="1.5036684"><ele>108.0</ele><time>2026-04-12T09:13:03.616Z</time></trkpt><trkpt lat="45.158996" lon="1.5036538"><ele>108.00000000000001</ele><time>2026-04-12T09:13:04.615Z</time></trkpt><trkpt lat="45.1591113" lon="1.5036248"><ele>108.00000000000001</ele><time>2026-04-12T09:13:06.616Z</time></trkpt><trkpt lat="45.1592304" lon="1.503606"><ele>108.0</ele><time>2026-04-12T09:13:08.616Z</time></trkpt><trkpt lat="45.1593045" lon="1.5035913"><ele>108.0</ele><time>2026-04-12T09:13:09.617Z</time></trkpt><trkpt lat="45.1593904" lon="1.5035722"><ele>107.80000000000001</ele><time>2026-04-12T09:13:10.616Z</time></trkpt><trkpt lat="45.1594923" lon="1.5035506"><ele>107.60000000000001</ele><time>2026-04-12T09:13:11.616Z</time></trkpt><trkpt lat="45.1596021" lon="1.5035279"><ele>107.39999999999999</ele><time>2026-04-12T09:13:12.615Z</time></trkpt><trkpt lat="45.1597124" lon="1.5035063"><ele>107.19999999999999</ele><time>2026-04-12T09:13:13.616Z</time></trkpt><trkpt lat="45.1598252" lon="1.5034879"><ele>107.0</ele><time>2026-04-12T09:13:14.617Z</time></trkpt><trkpt lat="45.159936" lon="1.5034667"><ele>107.0</ele><time>2026-04-12T09:13:15.617Z</time></trkpt><trkpt lat="45.1600544" lon="1.5034448"><ele>106.99999999999999</ele><time>2026-04-12T09:13:16.616Z</time></trkpt><trkpt lat="45.1601592" lon="1.5034276"><ele>106.99999999999999</ele><time>2026-04-12T09:13:17.616Z</time></trkpt><trkpt lat="45.1602553" lon="1.5034191"><ele>107.0</ele><time>2026-04-12T09:13:18.616Z</time></trkpt><trkpt lat="45.1603629" lon="1.5033845"><ele>107.0</ele><time>2026-04-12T09:13:20.615Z</time></trkpt><trkpt lat="45.1604302" lon="1.5033725"><ele>106.99999999999999</ele><time>2026-04-12T09:13:22.616Z</time></trkpt><trkpt lat="45.160495" lon="1.5033713"><ele>107.0</ele><time>2026-04-12T09:13:47.615Z</time></trkpt><trkpt lat="45.1605975" lon="1.5033542"><ele>107.0</ele><time>2026-04-12T09:13:49.615Z</time></trkpt><trkpt lat="45.1606761" lon="1.5033407"><ele>107.0</ele><time>2026-04-12T09:13:50.617Z</time></trkpt><trkpt lat="45.1607691" lon="1.5033261"><ele>106.99999999999999</ele><time>2026-04-12T09:13:51.616Z</time></trkpt><trkpt lat="45.1608683" lon="1.5033075"><ele>107.0</ele><time>2026-04-12T09:13:52.615Z</time></trkpt><trkpt lat="45.1609777" lon="1.5032823"><ele>106.75</ele><time>2026-04-12T09:13:53.616Z</time></trkpt><trkpt lat="45.1610904" lon="1.5032594"><ele>106.5</ele><time>2026-04-12T09:13:54.616Z</time></trkpt><trkpt lat="45.1612065" lon="1.5032369"><ele>106.25</ele><time>2026-04-12T09:13:55.616Z</time></trkpt><trkpt lat="45.1613298" lon="1.5032114"><ele>106.0</ele><time>2026-04-12T09:13:56.616Z</time></trkpt><trkpt lat="45.1614515" lon="1.5031815"><ele>106.5</ele><time>2026-04-12T09:13:57.616Z</time></trkpt><trkpt lat="45.1615801" lon="1.5031412"><ele>107.0</ele><time>2026-04-12T09:13:58.616Z</time></trkpt><trkpt lat="45.1617083" lon="1.5031115"><ele>107.5</ele><time>2026-04-12T09:13:59.616Z</time></trkpt><trkpt lat="45.1618388" lon="1.5030832"><ele>108.0</ele><time>2026-04-12T09:14:00.616Z</time></trkpt><trkpt lat="45.1619668" lon="1.5030565"><ele>108.0</ele><time>2026-04-12T09:14:01.616Z</time></trkpt><trkpt lat="45.1620914" lon="1.5030289"><ele>108.0</ele><time>2026-04-12T09:14:02.616Z</time></trkpt><trkpt lat="45.1622165" lon="1.5030015"><ele>108.0</ele><time>2026-04-12T09:14:03.616Z</time></trkpt><trkpt lat="45.1623318" lon="1.5029747"><ele>108.0</ele><time>2026-04-12T09:14:04.615Z</time></trkpt><trkpt lat="45.1624478" lon="1.5029463"><ele>107.4</ele><time>2026-04-12T09:14:05.617Z</time></trkpt><trkpt lat="45.1625632" lon="1.5029191"><ele>106.80000000000001</ele><time>2026-04-12T09:14:06.617Z</time></trkpt><trkpt lat="45.1626706" lon="1.5028936"><ele>106.2</ele><time>2026-04-12T09:14:07.617Z</time></trkpt><trkpt lat="45.1627626" lon="1.502881"><ele>105.6</ele><time>2026-04-12T09:14:08.616Z</time></trkpt><trkpt lat="45.1628427" lon="1.5028767"><ele>105.0</ele><time>2026-04-12T09:14:09.617Z</time></trkpt><trkpt lat="45.1629139" lon="1.5029245"><ele>104.5</ele><time>2026-04-12T09:14:10.617Z</time></trkpt><trkpt lat="45.1629866" lon="1.5029685"><ele>104.0</ele><time>2026-04-12T09:14:11.617Z</time></trkpt><trkpt lat="45.1630639" lon="1.5030373"><ele>103.5</ele><time>2026-04-12T09:14:12.616Z</time></trkpt><trkpt lat="45.1630527" lon="1.5031426"><ele>103.0</ele><time>2026-04-12T09:14:13.617Z</time></trkpt><trkpt lat="45.1629785" lon="1.503426"><ele>103.0</ele><time>2026-04-12T09:14:14.617Z</time></trkpt><trkpt lat="45.1629113" lon="1.5036241"><ele>103.0</ele><time>2026-04-12T09:14:15.617Z</time></trkpt><trkpt lat="45.1628466" lon="1.5038372"><ele>103.0</ele><time>2026-04-12T09:14:16.617Z</time></trkpt><trkpt lat="45.1627859" lon="1.5040516"><ele>103.0</ele><time>2026-04-12T09:14:17.617Z</time></trkpt><trkpt lat="45.16273" lon="1.5042707"><ele>103.0</ele><time>2026-04-12T09:14:18.617Z</time></trkpt><trkpt lat="45.1627145" lon="1.5045366"><ele>103.0</ele><time>2026-04-12T09:14:19.617Z</time></trkpt><trkpt lat="45.1627292" lon="1.5047854"><ele>103.0</ele><time>2026-04-12T09:14:20.617Z</time></trkpt><trkpt lat="45.1627355" lon="1.5050432"><ele>103.0</ele><time>2026-04-12T09:14:21.618Z</time></trkpt><trkpt lat="45.1627324" lon="1.5053074"><ele>103.0</ele><time>2026-04-12T09:14:22.617Z</time></trkpt><trkpt lat="45.1627166" lon="1.5055676"><ele>103.0</ele><time>2026-04-12T09:14:23.617Z</time></trkpt><trkpt lat="45.1626999" lon="1.5058433"><ele>103.0</ele><time>2026-04-12T09:14:24.617Z</time></trkpt><trkpt lat="45.1626929" lon="1.5061153"><ele>103.0</ele><time>2026-04-12T09:14:25.617Z</time></trkpt><trkpt lat="45.16269" lon="1.5063842"><ele>103.33333333333334</ele><time>2026-04-12T09:14:26.617Z</time></trkpt><trkpt lat="45.162694" lon="1.5066444"><ele>103.66666666666666</ele><time>2026-04-12T09:14:27.616Z</time></trkpt><trkpt lat="45.162696" lon="1.5069056"><ele>104.0</ele><time>2026-04-12T09:14:28.617Z</time></trkpt><trkpt lat="45.162703" lon="1.5071575"><ele>104.33333333333333</ele><time>2026-04-12T09:14:29.617Z</time></trkpt><trkpt lat="45.1627074" lon="1.507411"><ele>104.66666666666666</ele><time>2026-04-12T09:14:30.617Z</time></trkpt><trkpt lat="45.1626923" lon="1.5076595"><ele>105.0</ele><time>2026-04-12T09:14:31.617Z</time></trkpt><trkpt lat="45.1626507" lon="1.5078968"><ele>104.33333333333334</ele><time>2026-04-12T09:14:32.617Z</time></trkpt><trkpt lat="45.1625894" lon="1.5081305"><ele>103.66666666666667</ele><time>2026-04-12T09:14:33.617Z</time></trkpt><trkpt lat="45.1625134" lon="1.5083571"><ele>103.0</ele><time>2026-04-12T09:14:34.617Z</time></trkpt><trkpt lat="45.1624258" lon="1.5085848"><ele>104.0</ele><time>2026-04-12T09:14:35.618Z</time></trkpt><trkpt lat="45.1623348" lon="1.5087982"><ele>105.0</ele><time>2026-04-12T09:14:36.617Z</time></trkpt><trkpt lat="45.1622423" lon="1.5090039"><ele>106.0</ele><time>2026-04-12T09:14:37.616Z</time></trkpt><trkpt lat="45.1621428" lon="1.5092184"><ele>106.0</ele><time>2026-04-12T09:14:38.617Z</time></trkpt><trkpt lat="45.1620428" lon="1.5094173"><ele>106.0</ele><time>2026-04-12T09:14:39.616Z</time></trkpt><trkpt lat="45.1619526" lon="1.509624"><ele>106.0</ele><time>2026-04-12T09:14:40.618Z</time></trkpt><trkpt lat="45.1618799" lon="1.5098401"><ele>105.33333333333334</ele><time>2026-04-12T09:14:41.618Z</time></trkpt><trkpt lat="45.1618197" lon="1.5100528"><ele>104.66666666666666</ele><time>2026-04-12T09:14:42.618Z</time></trkpt><trkpt lat="45.1617693" lon="1.5102625"><ele>104.0</ele><time>2026-04-12T09:14:43.617Z</time></trkpt><trkpt lat="45.16172" lon="1.510478"><ele>104.0</ele><time>2026-04-12T09:14:44.617Z</time></trkpt><trkpt lat="45.161677" lon="1.5106803"><ele>104.0</ele><time>2026-04-12T09:14:45.616Z</time></trkpt><trkpt lat="45.161639" lon="1.5108724"><ele>104.0</ele><time>2026-04-12T09:14:46.617Z</time></trkpt><trkpt lat="45.1615984" lon="1.5110742"><ele>104.0</ele><time>2026-04-12T09:14:47.617Z</time></trkpt><trkpt lat="45.1615681" lon="1.5112729"><ele>104.0</ele><time>2026-04-12T09:14:48.617Z</time></trkpt><trkpt lat="45.1615446" lon="1.5114708"><ele>104.0</ele><time>2026-04-12T09:14:49.616Z</time></trkpt><trkpt lat="45.1615303" lon="1.5116636"><ele>104.0</ele><time>2026-04-12T09:14:50.617Z</time></trkpt><trkpt lat="45.1615228" lon="1.5118516"><ele>104.0</ele><time>2026-04-12T09:14:51.617Z</time></trkpt><trkpt lat="45.1615162" lon="1.5120233"><ele>103.83333333333333</ele><time>2026-04-12T09:14:52.616Z</time></trkpt><trkpt lat="45.1615083" lon="1.512169"><ele>103.66666666666666</ele><time>2026-04-12T09:14:53.616Z</time></trkpt><trkpt lat="45.1615014" lon="1.5122885"><ele>103.5</ele><time>2026-04-12T09:14:54.618Z</time></trkpt><trkpt lat="45.1614974" lon="1.5123983"><ele>103.33333333333334</ele><time>2026-04-12T09:14:55.617Z</time></trkpt><trkpt lat="45.1614931" lon="1.512496"><ele>103.16666666666667</ele><time>2026-04-12T09:14:56.617Z</time></trkpt><trkpt lat="45.1614856" lon="1.5126525"><ele>103.0</ele><time>2026-04-12T09:14:58.617Z</time></trkpt><trkpt lat="45.1614839" lon="1.5127624"><ele>103.0</ele><time>2026-04-12T09:15:01.618Z</time></trkpt><trkpt lat="45.1614787" lon="1.5128935"><ele>103.0</ele><time>2026-04-12T09:15:05.617Z</time></trkpt><trkpt lat="45.1614683" lon="1.5130384"><ele>103.0</ele><time>2026-04-12T09:15:07.617Z</time></trkpt><trkpt lat="45.1614575" lon="1.5132061"><ele>103.0</ele><time>2026-04-12T09:15:09.618Z</time></trkpt><trkpt lat="45.161454" lon="1.5132997"><ele>103.0</ele><time>2026-04-12T09:15:10.617Z</time></trkpt><trkpt lat="45.1614475" lon="1.5134084"><ele>103.16666666666667</ele><time>2026-04-12T09:15:11.616Z</time></trkpt><trkpt lat="45.1614409" lon="1.5135217"><ele>103.33333333333334</ele><time>2026-04-12T09:15:12.618Z</time></trkpt><trkpt lat="45.1614339" lon="1.5136433"><ele>103.5</ele><time>2026-04-12T09:15:13.617Z</time></trkpt><trkpt lat="45.1614319" lon="1.5137669"><ele>103.66666666666666</ele><time>2026-04-12T09:15:14.617Z</time></trkpt><trkpt lat="45.1614266" lon="1.5138926"><ele>103.83333333333333</ele><time>2026-04-12T09:15:15.617Z</time></trkpt><trkpt lat="45.161424" lon="1.5140242"><ele>104.0</ele><time>2026-04-12T09:15:16.618Z</time></trkpt><trkpt lat="45.1614271" lon="1.5141606"><ele>104.0</ele><time>2026-04-12T09:15:17.617Z</time></trkpt><trkpt lat="45.1614453" lon="1.5143043"><ele>104.0</ele><time>2026-04-12T09:15:18.616Z</time></trkpt><trkpt lat="45.1614754" lon="1.5144491"><ele>104.0</ele><time>2026-04-12T09:15:19.617Z</time></trkpt><trkpt lat="45.1615186" lon="1.5145913"><ele>104.0</ele><time>2026-04-12T09:15:20.616Z</time></trkpt><trkpt lat="45.161578" lon="1.5147229"><ele>104.0</ele><time>2026-04-12T09:15:21.617Z</time></trkpt><trkpt lat="45.1616451" lon="1.5148455"><ele>104.0</ele><time>2026-04-12T09:15:22.617Z</time></trkpt><trkpt lat="45.1617201" lon="1.5149617"><ele>104.0</ele><time>2026-04-12T09:15:23.617Z</time></trkpt><trkpt lat="45.1617961" lon="1.5150731"><ele>104.0</ele><time>2026-04-12T09:15:24.617Z</time></trkpt><trkpt lat="45.1618703" lon="1.5151863"><ele>104.0</ele><time>2026-04-12T09:15:25.617Z</time></trkpt><trkpt lat="45.161944" lon="1.5152954"><ele>104.0</ele><time>2026-04-12T09:15:26.617Z</time></trkpt><trkpt lat="45.1620152" lon="1.515402"><ele>104.0</ele><time>2026-04-12T09:15:27.616Z</time></trkpt><trkpt lat="45.1620847" lon="1.515509"><ele>104.0</ele><time>2026-04-12T09:15:28.617Z</time></trkpt><trkpt lat="45.1621551" lon="1.515617"><ele>104.0</ele><time>2026-04-12T09:15:29.616Z</time></trkpt><trkpt lat="45.1622244" lon="1.5157284"><ele>104.0</ele><time>2026-04-12T09:15:30.617Z</time></trkpt><trkpt lat="45.1622972" lon="1.5158371"><ele>104.0</ele><time>2026-04-12T09:15:31.616Z</time></trkpt><trkpt lat="45.1623687" lon="1.5159517"><ele>104.0</ele><time>2026-04-12T09:15:32.617Z</time></trkpt><trkpt lat="45.1624437" lon="1.5160669"><ele>104.0</ele><time>2026-04-12T09:15:33.617Z</time></trkpt><trkpt lat="45.1625213" lon="1.5161835"><ele>104.0</ele><time>2026-04-12T09:15:34.617Z</time></trkpt><trkpt lat="45.162598" lon="1.5163023"><ele>104.0</ele><time>2026-04-12T09:15:35.618Z</time></trkpt><trkpt lat="45.1626763" lon="1.5164273"><ele>104.0</ele><time>2026-04-12T09:15:36.617Z</time></trkpt><trkpt lat="45.1627555" lon="1.5165495"><ele>104.0</ele><time>2026-04-12T09:15:37.617Z</time></trkpt><trkpt lat="45.1628343" lon="1.5166746"><ele>104.0</ele><time>2026-04-12T09:15:38.617Z</time></trkpt><trkpt lat="45.1629136" lon="1.5167904"><ele>104.0</ele><time>2026-04-12T09:15:39.617Z</time></trkpt><trkpt lat="45.1629952" lon="1.5169084"><ele>104.0</ele><time>2026-04-12T09:15:40.617Z</time></trkpt><trkpt lat="45.1630727" lon="1.5170274"><ele>104.0</ele><time>2026-04-12T09:15:41.617Z</time></trkpt><trkpt lat="45.1631442" lon="1.5171363"><ele>104.0</ele><time>2026-04-12T09:15:42.617Z</time></trkpt><trkpt lat="45.1632105" lon="1.5172441"><ele>104.0</ele><time>2026-04-12T09:15:43.617Z</time></trkpt><trkpt lat="45.1632762" lon="1.5173516"><ele>104.0</ele><time>2026-04-12T09:15:44.617Z</time></trkpt><trkpt lat="45.1633348" lon="1.5174636"><ele>104.4</ele><time>2026-04-12T09:15:45.617Z</time></trkpt><trkpt lat="45.1633865" lon="1.5175854"><ele>104.80000000000001</ele><time>2026-04-12T09:15:46.617Z</time></trkpt><trkpt lat="45.1634438" lon="1.5177028"><ele>105.19999999999999</ele><time>2026-04-12T09:15:47.617Z</time></trkpt><trkpt lat="45.1635004" lon="1.5178261"><ele>105.6</ele><time>2026-04-12T09:15:48.617Z</time></trkpt><trkpt lat="45.1635561" lon="1.5179461"><ele>106.0</ele><time>2026-04-12T09:15:49.617Z</time></trkpt><trkpt lat="45.1636117" lon="1.5180643"><ele>106.0</ele><time>2026-04-12T09:15:50.617Z</time></trkpt><trkpt lat="45.1636654" lon="1.5181795"><ele>106.0</ele><time>2026-04-12T09:15:51.617Z</time></trkpt><trkpt lat="45.1637162" lon="1.5182903"><ele>106.0</ele><time>2026-04-12T09:15:52.617Z</time></trkpt><trkpt lat="45.1637631" lon="1.5183971"><ele>106.0</ele><time>2026-04-12T09:15:53.617Z</time></trkpt><trkpt lat="45.1638105" lon="1.5185006"><ele>106.0</ele><time>2026-04-12T09:15:54.616Z</time></trkpt><trkpt lat="45.1638464" lon="1.5186089"><ele>106.0</ele><time>2026-04-12T09:15:55.617Z</time></trkpt><trkpt lat="45.1638617" lon="1.5187319"><ele>106.0</ele><time>2026-04-12T09:15:56.617Z</time></trkpt><trkpt lat="45.1638683" lon="1.5188637"><ele>106.0</ele><time>2026-04-12T09:15:57.618Z</time></trkpt><trkpt lat="45.1638725" lon="1.5190005"><ele>106.0</ele><time>2026-04-12T09:15:58.617Z</time></trkpt><trkpt lat="45.1638754" lon="1.5191404"><ele>106.0</ele><time>2026-04-12T09:15:59.618Z</time></trkpt><trkpt lat="45.1638809" lon="1.5192833"><ele>105.8</ele><time>2026-04-12T09:16:00.617Z</time></trkpt><trkpt lat="45.1638871" lon="1.5194279"><ele>105.6</ele><time>2026-04-12T09:16:01.616Z</time></trkpt><trkpt lat="45.1638938" lon="1.5195731"><ele>105.4</ele><time>2026-04-12T09:16:02.616Z</time></trkpt><trkpt lat="45.1638991" lon="1.5197215"><ele>105.2</ele><time>2026-04-12T09:16:03.617Z</time></trkpt><trkpt lat="45.163903" lon="1.5198775"><ele>105.0</ele><time>2026-04-12T09:16:04.617Z</time></trkpt><trkpt lat="45.1639066" lon="1.5200333"><ele>105.0</ele><time>2026-04-12T09:16:05.617Z</time></trkpt><trkpt lat="45.1639089" lon="1.5201902"><ele>105.0</ele><time>2026-04-12T09:16:06.616Z</time></trkpt><trkpt lat="45.1639126" lon="1.5203471"><ele>105.0</ele><time>2026-04-12T09:16:07.616Z</time></trkpt><trkpt lat="45.1639206" lon="1.5205011"><ele>105.0</ele><time>2026-04-12T09:16:08.617Z</time></trkpt><trkpt lat="45.1639376" lon="1.5206525"><ele>105.0</ele><time>2026-04-12T09:16:09.616Z</time></trkpt><trkpt lat="45.1639747" lon="1.5207856"><ele>105.0</ele><time>2026-04-12T09:16:10.618Z</time></trkpt><trkpt lat="45.1640169" lon="1.5208947"><ele>105.0</ele><time>2026-04-12T09:16:11.617Z</time></trkpt><trkpt lat="45.1640675" lon="1.5210215"><ele>105.0</ele><time>2026-04-12T09:16:13.617Z</time></trkpt><trkpt lat="45.1641127" lon="1.5211184"><ele>105.0</ele><time>2026-04-12T09:16:29.617Z</time></trkpt><trkpt lat="45.1641525" lon="1.5212335"><ele>105.0</ele><time>2026-04-12T09:16:31.617Z</time></trkpt><trkpt lat="45.164195" lon="1.5213755"><ele>105.5</ele><time>2026-04-12T09:16:33.617Z</time></trkpt><trkpt lat="45.1642399" lon="1.5215432"><ele>106.0</ele><time>2026-04-12T09:16:35.617Z</time></trkpt><trkpt lat="45.1642757" lon="1.5216346"><ele>106.5</ele><time>2026-04-12T09:16:36.617Z</time></trkpt><trkpt lat="45.1643121" lon="1.5217314"><ele>107.0</ele><time>2026-04-12T09:16:37.616Z</time></trkpt><trkpt lat="45.1643469" lon="1.5218265"><ele>107.5</ele><time>2026-04-12T09:16:38.617Z</time></trkpt><trkpt lat="45.1643811" lon="1.5219291"><ele>108.0</ele><time>2026-04-12T09:16:39.617Z</time></trkpt><trkpt lat="45.1644145" lon="1.5220286"><ele>107.80000000000001</ele><time>2026-04-12T09:16:40.617Z</time></trkpt><trkpt lat="45.1644429" lon="1.5221425"><ele>107.60000000000001</ele><time>2026-04-12T09:16:41.617Z</time></trkpt><trkpt lat="45.1644646" lon="1.5222545"><ele>107.39999999999999</ele><time>2026-04-12T09:16:42.617Z</time></trkpt><trkpt lat="45.1644761" lon="1.5223892"><ele>107.19999999999999</ele><time>2026-04-12T09:16:43.617Z</time></trkpt><trkpt lat="45.1644811" lon="1.5225208"><ele>107.0</ele><time>2026-04-12T09:16:44.617Z</time></trkpt><trkpt lat="45.1644864" lon="1.5226549"><ele>107.0</ele><time>2026-04-12T09:16:45.617Z</time></trkpt><trkpt lat="45.1644951" lon="1.5227903"><ele>106.99999999999999</ele><time>2026-04-12T09:16:46.617Z</time></trkpt><trkpt lat="45.1645068" lon="1.5229204"><ele>106.99999999999999</ele><time>2026-04-12T09:16:47.616Z</time></trkpt><trkpt lat="45.164515" lon="1.5230634"><ele>107.0</ele><time>2026-04-12T09:16:48.617Z</time></trkpt><trkpt lat="45.1645208" lon="1.5232049"><ele>107.0</ele><time>2026-04-12T09:16:49.617Z</time></trkpt><trkpt lat="45.164531" lon="1.5233482"><ele>106.6</ele><time>2026-04-12T09:16:50.617Z</time></trkpt><trkpt lat="45.1645417" lon="1.5234923"><ele>106.19999999999999</ele><time>2026-04-12T09:16:51.617Z</time></trkpt><trkpt lat="45.1645507" lon="1.5236434"><ele>105.8</ele><time>2026-04-12T09:16:52.617Z</time></trkpt><trkpt lat="45.1645622" lon="1.5237928"><ele>105.4</ele><time>2026-04-12T09:16:53.618Z</time></trkpt><trkpt lat="45.1645735" lon="1.5239434"><ele>105.0</ele><time>2026-04-12T09:16:54.617Z</time></trkpt><trkpt lat="45.1645905" lon="1.5240921"><ele>105.0</ele><time>2026-04-12T09:16:55.617Z</time></trkpt><trkpt lat="45.1646108" lon="1.524242"><ele>105.0</ele><time>2026-04-12T09:16:56.617Z</time></trkpt><trkpt lat="45.1646293" lon="1.5243812"><ele>105.0</ele><time>2026-04-12T09:16:57.617Z</time></trkpt><trkpt lat="45.1646495" lon="1.5245247"><ele>105.0</ele><time>2026-04-12T09:16:58.617Z</time></trkpt><trkpt lat="45.1646717" lon="1.5246702"><ele>105.0</ele><time>2026-04-12T09:16:59.617Z</time></trkpt><trkpt lat="45.1646916" lon="1.5248107"><ele>105.0</ele><time>2026-04-12T09:17:00.618Z</time></trkpt><trkpt lat="45.164715" lon="1.524953"><ele>105.0</ele><time>2026-04-12T09:17:01.618Z</time></trkpt><trkpt lat="45.1647344" lon="1.5250934"><ele>105.0</ele><time>2026-04-12T09:17:02.617Z</time></trkpt><trkpt lat="45.1647546" lon="1.5252371"><ele>105.0</ele><time>2026-04-12T09:17:03.617Z</time></trkpt><trkpt lat="45.1647739" lon="1.5253784"><ele>105.0</ele><time>2026-04-12T09:17:04.616Z</time></trkpt><trkpt lat="45.1647914" lon="1.5255244"><ele>105.0</ele><time>2026-04-12T09:17:05.617Z</time></trkpt><trkpt lat="45.1648048" lon="1.5256758"><ele>105.0</ele><time>2026-04-12T09:17:06.618Z</time></trkpt><trkpt lat="45.1648138" lon="1.5258329"><ele>105.0</ele><time>2026-04-12T09:17:07.617Z</time></trkpt><trkpt lat="45.1648179" lon="1.5259921"><ele>105.0</ele><time>2026-04-12T09:17:08.617Z</time></trkpt><trkpt lat="45.1648195" lon="1.5261506"><ele>105.0</ele><time>2026-04-12T09:17:09.617Z</time></trkpt><trkpt lat="45.1648182" lon="1.5263115"><ele>105.4</ele><time>2026-04-12T09:17:10.618Z</time></trkpt><trkpt lat="45.1648187" lon="1.5264681"><ele>105.8</ele><time>2026-04-12T09:17:11.617Z</time></trkpt><trkpt lat="45.1648195" lon="1.5266238"><ele>106.19999999999999</ele><time>2026-04-12T09:17:12.617Z</time></trkpt><trkpt lat="45.16482" lon="1.5267799"><ele>106.6</ele><time>2026-04-12T09:17:13.617Z</time></trkpt><trkpt lat="45.164821" lon="1.5269299"><ele>107.0</ele><time>2026-04-12T09:17:14.617Z</time></trkpt><trkpt lat="45.1648198" lon="1.527083"><ele>107.0</ele><time>2026-04-12T09:17:15.617Z</time></trkpt><trkpt lat="45.1648187" lon="1.52723"><ele>106.99999999999999</ele><time>2026-04-12T09:17:16.617Z</time></trkpt><trkpt lat="45.1648214" lon="1.5273755"><ele>106.99999999999999</ele><time>2026-04-12T09:17:17.617Z</time></trkpt><trkpt lat="45.1648224" lon="1.5275181"><ele>107.0</ele><time>2026-04-12T09:17:18.618Z</time></trkpt><trkpt lat="45.1648185" lon="1.5276643"><ele>107.0</ele><time>2026-04-12T09:17:19.617Z</time></trkpt><trkpt lat="45.1648041" lon="1.5278094"><ele>106.8</ele><time>2026-04-12T09:17:20.617Z</time></trkpt><trkpt lat="45.1647794" lon="1.5279526"><ele>106.6</ele><time>2026-04-12T09:17:21.617Z</time></trkpt><trkpt lat="45.1647516" lon="1.528082"><ele>106.39999999999999</ele><time>2026-04-12T09:17:22.616Z</time></trkpt><trkpt lat="45.1647273" lon="1.5282014"><ele>106.19999999999999</ele><time>2026-04-12T09:17:23.618Z</time></trkpt><trkpt lat="45.164708" lon="1.5283172"><ele>106.0</ele><time>2026-04-12T09:17:24.617Z</time></trkpt><trkpt lat="45.1646994" lon="1.5284329"><ele>106.0</ele><time>2026-04-12T09:17:25.617Z</time></trkpt><trkpt lat="45.1647057" lon="1.5285575"><ele>106.0</ele><time>2026-04-12T09:17:26.617Z</time></trkpt><trkpt lat="45.1647172" lon="1.5286894"><ele>106.0</ele><time>2026-04-12T09:17:27.617Z</time></trkpt><trkpt lat="45.1647317" lon="1.5288184"><ele>106.0</ele><time>2026-04-12T09:17:28.617Z</time></trkpt><trkpt lat="45.1647444" lon="1.5289443"><ele>106.0</ele><time>2026-04-12T09:17:29.617Z</time></trkpt><trkpt lat="45.1647588" lon="1.529088"><ele>106.0</ele><time>2026-04-12T09:17:30.616Z</time></trkpt><trkpt lat="45.1647803" lon="1.5292264"><ele>106.0</ele><time>2026-04-12T09:17:31.617Z</time></trkpt><trkpt lat="45.1648063" lon="1.5293524"><ele>106.0</ele><time>2026-04-12T09:17:32.617Z</time></trkpt><trkpt lat="45.1648231" lon="1.5294808"><ele>106.0</ele><time>2026-04-12T09:17:33.617Z</time></trkpt><trkpt lat="45.1648406" lon="1.5296073"><ele>106.0</ele><time>2026-04-12T09:17:34.617Z</time></trkpt><trkpt lat="45.1648511" lon="1.5297211"><ele>106.33333333333334</ele><time>2026-04-12T09:17:35.617Z</time></trkpt><trkpt lat="45.1648597" lon="1.529836"><ele>106.66666666666667</ele><time>2026-04-12T09:17:36.617Z</time></trkpt><trkpt lat="45.1648706" lon="1.529948"><ele>107.0</ele><time>2026-04-12T09:17:37.617Z</time></trkpt><trkpt lat="45.1648821" lon="1.5300663"><ele>107.33333333333334</ele><time>2026-04-12T09:17:38.616Z</time></trkpt><trkpt lat="45.164893" lon="1.5301931"><ele>107.66666666666667</ele><time>2026-04-12T09:17:39.617Z</time></trkpt><trkpt lat="45.1649055" lon="1.5303316"><ele>108.0</ele><time>2026-04-12T09:17:40.617Z</time></trkpt><trkpt lat="45.1649178" lon="1.5304917"><ele>108.75</ele><time>2026-04-12T09:17:41.617Z</time></trkpt><trkpt lat="45.164933" lon="1.5306548"><ele>109.5</ele><time>2026-04-12T09:17:42.617Z</time></trkpt><trkpt lat="45.1649452" lon="1.5308169"><ele>110.25</ele><time>2026-04-12T09:17:43.617Z</time></trkpt><trkpt lat="45.1649542" lon="1.5309794"><ele>111.0</ele><time>2026-04-12T09:17:44.617Z</time></trkpt><trkpt lat="45.1649618" lon="1.5311331"><ele>111.0</ele><time>2026-04-12T09:17:45.617Z</time></trkpt><trkpt lat="45.1649693" lon="1.5312644"><ele>111.0</ele><time>2026-04-12T09:17:46.616Z</time></trkpt><trkpt lat="45.1649746" lon="1.5313773"><ele>111.0</ele><time>2026-04-12T09:17:47.617Z</time></trkpt><trkpt lat="45.1649806" lon="1.5314723"><ele>111.0</ele><time>2026-04-12T09:17:48.617Z</time></trkpt><trkpt lat="45.1650173" lon="1.5315966"><ele>111.0</ele><time>2026-04-12T09:17:50.617Z</time></trkpt><trkpt lat="45.1650585" lon="1.5317141"><ele>111.0</ele><time>2026-04-12T09:17:52.617Z</time></trkpt><trkpt lat="45.1650721" lon="1.5318051"><ele>111.0</ele><time>2026-04-12T09:17:53.617Z</time></trkpt><trkpt lat="45.1650695" lon="1.5318989"><ele>111.0</ele><time>2026-04-12T09:17:54.617Z</time></trkpt><trkpt lat="45.1650527" lon="1.531989"><ele>111.0</ele><time>2026-04-12T09:17:55.617Z</time></trkpt><trkpt lat="45.1650547" lon="1.532079"><ele>111.0</ele><time>2026-04-12T09:17:56.617Z</time></trkpt><trkpt lat="45.165088" lon="1.5321588"><ele>111.0</ele><time>2026-04-12T09:17:57.617Z</time></trkpt><trkpt lat="45.1651472" lon="1.5321976"><ele>111.0</ele><time>2026-04-12T09:17:58.617Z</time></trkpt><trkpt lat="45.1652109" lon="1.5321827"><ele>111.0</ele><time>2026-04-12T09:17:59.617Z</time></trkpt><trkpt lat="45.1652731" lon="1.5321181"><ele>111.0</ele><time>2026-04-12T09:18:00.617Z</time></trkpt><trkpt lat="45.1653552" lon="1.5320339"><ele>111.0</ele><time>2026-04-12T09:18:02.617Z</time></trkpt><trkpt lat="45.1654216" lon="1.5319999"><ele>111.0</ele><time>2026-04-12T09:18:06.617Z</time></trkpt><trkpt lat="45.1654834" lon="1.5319807"><ele>111.0</ele><time>2026-04-12T09:18:08.617Z</time></trkpt><trkpt lat="45.1655443" lon="1.5319436"><ele>111.0</ele><time>2026-04-12T09:18:09.618Z</time></trkpt><trkpt lat="45.1656786" lon="1.531925"><ele>111.0</ele><time>2026-04-12T09:18:10.617Z</time></trkpt><trkpt lat="45.1657707" lon="1.5318996"><ele>111.25</ele><time>2026-04-12T09:18:11.617Z</time></trkpt><trkpt lat="45.1658814" lon="1.5318707"><ele>111.5</ele><time>2026-04-12T09:18:12.617Z</time></trkpt><trkpt lat="45.1659855" lon="1.5318493"><ele>111.75</ele><time>2026-04-12T09:18:13.617Z</time></trkpt><trkpt lat="45.1661089" lon="1.5318247"><ele>112.0</ele><time>2026-04-12T09:18:14.617Z</time></trkpt><trkpt lat="45.1662237" lon="1.5317919"><ele>112.0</ele><time>2026-04-12T09:18:15.617Z</time></trkpt><trkpt lat="45.16634" lon="1.5317651"><ele>111.99999999999999</ele><time>2026-04-12T09:18:16.617Z</time></trkpt><trkpt lat="45.1664534" lon="1.5317284"><ele>111.99999999999999</ele><time>2026-04-12T09:18:17.617Z</time></trkpt><trkpt lat="45.1665681" lon="1.5317073"><ele>112.0</ele><time>2026-04-12T09:18:18.617Z</time></trkpt><trkpt lat="45.1666612" lon="1.5316847"><ele>112.0</ele><time>2026-04-12T09:18:19.616Z</time></trkpt><trkpt lat="45.1667525" lon="1.5316819"><ele>112.19999999999999</ele><time>2026-04-12T09:18:20.616Z</time></trkpt><trkpt lat="45.1668439" lon="1.5316869"><ele>112.39999999999999</ele><time>2026-04-12T09:18:22.618Z</time></trkpt><trkpt lat="45.166912" lon="1.5316879"><ele>112.60000000000001</ele><time>2026-04-12T09:18:24.617Z</time></trkpt><trkpt lat="45.1669992" lon="1.5316758"><ele>112.80000000000001</ele><time>2026-04-12T09:18:47.617Z</time></trkpt><trkpt lat="45.1671206" lon="1.5316496"><ele>113.0</ele><time>2026-04-12T09:18:49.617Z</time></trkpt><trkpt lat="45.1672003" lon="1.5316159"><ele>112.99999999999999</ele><time>2026-04-12T09:18:50.618Z</time></trkpt><trkpt lat="45.1672918" lon="1.5315965"><ele>113.0</ele><time>2026-04-12T09:18:51.617Z</time></trkpt><trkpt lat="45.1673763" lon="1.5315731"><ele>113.0</ele><time>2026-04-12T09:18:52.617Z</time></trkpt><trkpt lat="45.1674634" lon="1.5315683"><ele>113.0</ele><time>2026-04-12T09:18:53.617Z</time></trkpt><trkpt lat="45.167542" lon="1.5316018"><ele>112.99999999999999</ele><time>2026-04-12T09:18:54.617Z</time></trkpt><trkpt lat="45.1676083" lon="1.5316726"><ele>113.0</ele><time>2026-04-12T09:18:55.617Z</time></trkpt><trkpt lat="45.1676596" lon="1.5317781"><ele>113.25</ele><time>2026-04-12T09:18:56.616Z</time></trkpt><trkpt lat="45.1677033" lon="1.5318767"><ele>113.5</ele><time>2026-04-12T09:18:57.617Z</time></trkpt><trkpt lat="45.1677038" lon="1.5320738"><ele>113.75</ele><time>2026-04-12T09:18:58.617Z</time></trkpt><trkpt lat="45.1677307" lon="1.5322392"><ele>114.0</ele><time>2026-04-12T09:18:59.618Z</time></trkpt><trkpt lat="45.1677454" lon="1.5324015"><ele>114.0</ele><time>2026-04-12T09:19:00.617Z</time></trkpt><trkpt lat="45.1677622" lon="1.5325641"><ele>114.0</ele><time>2026-04-12T09:19:01.616Z</time></trkpt><trkpt lat="45.1677776" lon="1.5327249"><ele>114.0</ele><time>2026-04-12T09:19:02.616Z</time></trkpt><trkpt lat="45.1677956" lon="1.5328883"><ele>114.0</ele><time>2026-04-12T09:19:03.617Z</time></trkpt><trkpt lat="45.1678154" lon="1.5330418"><ele>114.0</ele><time>2026-04-12T09:19:04.617Z</time></trkpt><trkpt lat="45.1678305" lon="1.5331755"><ele>114.0</ele><time>2026-04-12T09:19:05.617Z</time></trkpt><trkpt lat="45.1678413" lon="1.533286"><ele>114.0</ele><time>2026-04-12T09:19:06.616Z</time></trkpt><trkpt lat="45.1678499" lon="1.5333843"><ele>114.0</ele><time>2026-04-12T09:19:07.617Z</time></trkpt><trkpt lat="45.1679214" lon="1.5335105"><ele>114.0</ele><time>2026-04-12T09:19:09.617Z</time></trkpt><trkpt lat="45.1680397" lon="1.5335053"><ele>114.0</ele><time>2026-04-12T09:19:11.617Z</time></trkpt><trkpt lat="45.1681021" lon="1.5334858"><ele>113.99999999999999</ele><time>2026-04-12T09:19:12.617Z</time></trkpt><trkpt lat="45.1681697" lon="1.53347"><ele>114.0</ele><time>2026-04-12T09:19:13.617Z</time></trkpt><trkpt lat="45.1682426" lon="1.533455"><ele>114.0</ele><time>2026-04-12T09:19:14.617Z</time></trkpt><trkpt lat="45.1683197" lon="1.5334382"><ele>113.99999999999999</ele><time>2026-04-12T09:19:15.618Z</time></trkpt><trkpt lat="45.1683927" lon="1.5334241"><ele>114.0</ele><time>2026-04-12T09:19:16.617Z</time></trkpt><trkpt lat="45.1684548" lon="1.5334089"><ele>114.0</ele><time>2026-04-12T09:19:17.616Z</time></trkpt><trkpt lat="45.1685151" lon="1.5333761"><ele>114.80000000000001</ele><time>2026-04-12T09:19:18.618Z</time></trkpt><trkpt lat="45.1685817" lon="1.5332447"><ele>115.60000000000001</ele><time>2026-04-12T09:19:20.617Z</time></trkpt><trkpt lat="45.1686308" lon="1.5331085"><ele>116.4</ele><time>2026-04-12T09:19:22.617Z</time></trkpt><trkpt lat="45.1686872" lon="1.5329562"><ele>117.2</ele><time>2026-04-12T09:19:24.617Z</time></trkpt><trkpt lat="45.1687325" lon="1.5328386"><ele>118.0</ele><time>2026-04-12T09:19:26.617Z</time></trkpt><trkpt lat="45.1687751" lon="1.5327422"><ele>118.16666666666667</ele><time>2026-04-12T09:19:28.616Z</time></trkpt><trkpt lat="45.1688152" lon="1.5326603"><ele>118.33333333333334</ele><time>2026-04-12T09:19:31.617Z</time></trkpt><trkpt lat="45.1688503" lon="1.5325558"><ele>118.5</ele><time>2026-04-12T09:19:34.617Z</time></trkpt><trkpt lat="45.1689118" lon="1.5324518"><ele>118.66666666666666</ele><time>2026-04-12T09:19:36.617Z</time></trkpt><trkpt lat="45.1690004" lon="1.5323845"><ele>118.83333333333333</ele><time>2026-04-12T09:19:38.617Z</time></trkpt><trkpt lat="45.1690707" lon="1.5322983"><ele>119.0</ele><time>2026-04-12T09:19:40.617Z</time></trkpt><trkpt lat="45.1691178" lon="1.5321977"><ele>119.80000000000001</ele><time>2026-04-12T09:19:42.616Z</time></trkpt><trkpt lat="45.1691616" lon="1.5320991"><ele>120.60000000000001</ele><time>2026-04-12T09:19:44.616Z</time></trkpt><trkpt lat="45.1692432" lon="1.5319923"><ele>121.4</ele><time>2026-04-12T09:19:46.617Z</time></trkpt><trkpt lat="45.1693582" lon="1.5319442"><ele>122.2</ele><time>2026-04-12T09:19:48.618Z</time></trkpt><trkpt lat="45.1694286" lon="1.5319171"><ele>123.0</ele><time>2026-04-12T09:19:49.617Z</time></trkpt><trkpt lat="45.1695171" lon="1.5318968"><ele>123.0</ele><time>2026-04-12T09:19:50.617Z</time></trkpt><trkpt lat="45.1695944" lon="1.5318756"><ele>123.0</ele><time>2026-04-12T09:19:51.617Z</time></trkpt><trkpt lat="45.1696668" lon="1.5318647"><ele>123.0</ele><time>2026-04-12T09:19:52.617Z</time></trkpt><trkpt lat="45.1697334" lon="1.5318774"><ele>123.0</ele><time>2026-04-12T09:19:53.617Z</time></trkpt><trkpt lat="45.1698407" lon="1.5318727"><ele>123.0</ele><time>2026-04-12T09:19:55.617Z</time></trkpt><trkpt lat="45.1699264" lon="1.5318085"><ele>123.0</ele><time>2026-04-12T09:19:56.617Z</time></trkpt><trkpt lat="45.1699145" lon="1.531658"><ele>123.00000000000001</ele><time>2026-04-12T09:19:59.616Z</time></trkpt><trkpt lat="45.1698985" lon="1.5315515"><ele>123.0</ele><time>2026-04-12T09:20:00.617Z</time></trkpt><trkpt lat="45.1698822" lon="1.5314454"><ele>123.00000000000001</ele><time>2026-04-12T09:20:01.617Z</time></trkpt><trkpt lat="45.1698627" lon="1.5313583"><ele>123.00000000000001</ele><time>2026-04-12T09:20:02.617Z</time></trkpt><trkpt lat="45.169857" lon="1.5312598"><ele>123.0</ele><time>2026-04-12T09:20:04.617Z</time></trkpt><trkpt lat="45.1698625" lon="1.5311627"><ele>123.00000000000001</ele><time>2026-04-12T09:20:06.617Z</time></trkpt><trkpt lat="45.1699069" lon="1.5312292"><ele>123.00000000000001</ele><time>2026-04-12T09:20:07.617Z</time></trkpt><trkpt lat="45.1699412" lon="1.5313313"><ele>123.42857142857144</ele><time>2026-04-12T09:20:10.617Z</time></trkpt><trkpt lat="45.1699714" lon="1.5314164"><ele>123.85714285714286</ele><time>2026-04-12T09:20:42.616Z</time></trkpt><trkpt lat="45.1699796" lon="1.531512"><ele>124.28571428571429</ele><time>2026-04-12T09:20:48.618Z</time></trkpt><trkpt lat="45.1699846" lon="1.5316029"><ele>124.71428571428572</ele><time>2026-04-12T09:20:54.618Z</time></trkpt><trkpt lat="45.1699963" lon="1.5316959"><ele>125.14285714285714</ele><time>2026-04-12T09:21:00.617Z</time></trkpt><trkpt lat="45.1700106" lon="1.5317889"><ele>125.57142857142857</ele><time>2026-04-12T09:21:06.617Z</time></trkpt><trkpt lat="45.1700238" lon="1.5318858"><ele>126.0</ele><time>2026-04-12T09:21:13.629Z</time></trkpt><trkpt lat="45.1700242" lon="1.5319848"><ele>126.0</ele><time>2026-04-12T09:21:22.617Z</time></trkpt><trkpt lat="45.1699743" lon="1.5320483"><ele>126.0</ele><time>2026-04-12T09:21:28.548Z</time></trkpt><trkpt lat="45.1699075" lon="1.5320123"><ele>126.0</ele><time>2026-04-12T09:21:35.617Z</time></trkpt><trkpt lat="45.1698616" lon="1.5319391"><ele>126.0</ele><time>2026-04-12T09:21:42.617Z</time></trkpt><trkpt lat="45.1697957" lon="1.5319287"><ele>126.0</ele><time>2026-04-12T09:21:48.617Z</time></trkpt><trkpt lat="45.1697272" lon="1.5319161"><ele>126.0</ele><time>2026-04-12T09:21:55.617Z</time></trkpt><trkpt lat="45.1696638" lon="1.5319201"><ele>126.0</ele><time>2026-04-12T09:22:01.617Z</time></trkpt><trkpt lat="45.1695922" lon="1.5319181"><ele>125.85714285714286</ele><time>2026-04-12T09:22:07.617Z</time></trkpt><trkpt lat="45.1695293" lon="1.5319324"><ele>125.71428571428572</ele><time>2026-04-12T09:22:13.618Z</time></trkpt><trkpt lat="45.1694604" lon="1.5319482"><ele>125.57142857142857</ele><time>2026-04-12T09:22:21.616Z</time></trkpt><trkpt lat="45.169395" lon="1.5319536"><ele>125.42857142857143</ele><time>2026-04-12T09:22:27.617Z</time></trkpt><trkpt lat="45.1693315" lon="1.5319669"><ele>125.28571428571429</ele><time>2026-04-12T09:22:33.617Z</time></trkpt><trkpt lat="45.169268" lon="1.5319869"><ele>125.14285714285714</ele><time>2026-04-12T09:22:40.529Z</time></trkpt><trkpt lat="45.1692154" lon="1.5320502"><ele>125.0</ele><time>2026-04-12T09:22:45.617Z</time></trkpt><trkpt lat="45.1691945" lon="1.5321371"><ele>125.0</ele><time>2026-04-12T09:22:50.617Z</time></trkpt><trkpt lat="45.1691974" lon="1.532233"><ele>125.0</ele><time>2026-04-12T09:22:56.617Z</time></trkpt><trkpt lat="45.1692228" lon="1.5323216"><ele>125.0</ele><time>2026-04-12T09:23:03.569Z</time></trkpt><trkpt lat="45.1692061" lon="1.5324079"><ele>125.0</ele><time>2026-04-12T09:23:13.617Z</time></trkpt><trkpt lat="45.1691401" lon="1.5324155"><ele>125.0</ele><time>2026-04-12T09:23:16.617Z</time></trkpt><trkpt lat="45.1690743" lon="1.5324597"><ele>125.0</ele><time>2026-04-12T09:23:23.617Z</time></trkpt><trkpt lat="45.16906" lon="1.5325583"><ele>125.0</ele><time>2026-04-12T09:23:29.617Z</time></trkpt><trkpt lat="45.1691165" lon="1.5326156"><ele>125.0</ele><time>2026-04-12T09:23:35.617Z</time></trkpt><trkpt lat="45.1691753" lon="1.5326781"><ele>125.0</ele><time>2026-04-12T09:23:45.617Z</time></trkpt><trkpt lat="45.1692351" lon="1.5327321"><ele>125.0</ele><time>2026-04-12T09:23:50.617Z</time></trkpt><trkpt lat="45.169222" lon="1.532634"><ele>125.0</ele><time>2026-04-12T09:27:53.746Z</time></trkpt><trkpt lat="45.1693025" lon="1.5328001"><ele>125.0</ele><time>2026-04-12T09:46:54.661Z</time></trkpt></trkseg></trk></gpx>